<?xml version='1.0' encoding='UTF-8'?><gpx version="1.1" creator="JPX - https://github.com/jenetics/jpx" xmlns="http://www.topografix.com/GPX/1/1"><trk><trkseg><trkpt lat="43.531097325131526" lon="11.262957757146907"><ele>362.99999999999994</ele><time>2026-04-25T07:30:54.999Z</time></trkpt><trkpt lat="43.53114035375164" lon="11.26302387650992"><ele>363.0</ele><time>2026-04-25T07:30:58.999Z</time></trkpt><trkpt lat="43.53114985380081" lon="11.263117701571048"><ele>363.0</ele><time>2026-04-25T07:31:01.999Z</time></trkpt><trkpt lat="43.53116203033131" lon="11.263203635865779"><ele>363.0</ele><time>2026-04-25T07:31:11.999Z</time></trkpt><trkpt lat="43.53118922995901" lon="11.263284583949778"><ele>363.0</ele><time>2026-04-25T07:31:14.999Z</time></trkpt><trkpt lat="43.531145519986325" lon="11.263182951506826"><ele>362.99999999999994</ele><time>2026-04-25T07:31:31.999Z</time></trkpt><trkpt lat="43.53119225786772" lon="11.263072282383245"><ele>363.0</ele><time>2026-04-25T07:31:33.999Z</time></trkpt><trkpt lat="43.53122836739028" lon="11.26297827598655"><ele>358.6666666666667</ele><time>2026-04-25T07:31:35.999Z</time></trkpt><trkpt lat="43.53126961788213" lon="11.26287159457457"><ele>354.3333333333333</ele><time>2026-04-25T07:31:37.999Z</time></trkpt><trkpt lat="43.531302196016256" lon="11.262772697794198"><ele>350.0</ele><time>2026-04-25T07:31:39.999Z</time></trkpt><trkpt lat="43.53134325344775" lon="11.262657311959199"><ele>345.66666666666663</ele><time>2026-04-25T07:31:41.999Z</time></trkpt><trkpt lat="43.53138708605109" lon="11.262535326117039"><ele>341.3333333333333</ele><time>2026-04-25T07:31:43.999Z</time></trkpt><trkpt lat="43.531428123641454" lon="11.262425561833718"><ele>337.0</ele><time>2026-04-25T07:31:45.999Z</time></trkpt><trkpt lat="43.53147045489489" lon="11.262295077863861"><ele>337.0</ele><time>2026-04-25T07:31:47.999Z</time></trkpt><trkpt lat="43.531514588738276" lon="11.262166018405651"><ele>337.0</ele><time>2026-04-25T07:31:49.999Z</time></trkpt><trkpt lat="43.53158052646157" lon="11.262131105867217"><ele>337.0</ele><time>2026-04-25T07:31:50.999Z</time></trkpt><trkpt lat="43.53162449346441" lon="11.262014463472966"><ele>337.0</ele><time>2026-04-25T07:31:52.999Z</time></trkpt><trkpt lat="43.53166403698261" lon="11.261909556336166"><ele>337.0</ele><time>2026-04-25T07:31:54.999Z</time></trkpt><trkpt lat="43.53169854253224" lon="11.261818014732361"><ele>337.0</ele><time>2026-04-25T07:31:56.999Z</time></trkpt><trkpt lat="43.53168309052597" lon="11.261675705999517"><ele>337.0</ele><time>2026-04-25T07:31:58.999Z</time></trkpt><trkpt lat="43.53168178361903" lon="11.261561743061728"><ele>337.0</ele><time>2026-04-25T07:32:00.999Z</time></trkpt><trkpt lat="43.5317013569604" lon="11.26142466211905"><ele>337.0</ele><time>2026-04-25T07:32:02.999Z</time></trkpt><trkpt lat="43.53171508741617" lon="11.261339114526065"><ele>337.0</ele><time>2026-04-25T07:32:03.999Z</time></trkpt><trkpt lat="43.531731753635135" lon="11.26124464243018"><ele>337.0</ele><time>2026-04-25T07:32:04.999Z</time></trkpt><trkpt lat="43.53175144733777" lon="11.261144226601964"><ele>337.0</ele><time>2026-04-25T07:32:05.999Z</time></trkpt><trkpt lat="43.53177313194898" lon="11.261039173881558"><ele>338.20000000000005</ele><time>2026-04-25T07:32:06.999Z</time></trkpt><trkpt lat="43.53177647495271" lon="11.260937929384722"><ele>339.4</ele><time>2026-04-25T07:32:07.999Z</time></trkpt><trkpt lat="43.531815027782294" lon="11.26077681547508"><ele>340.6</ele><time>2026-04-25T07:32:09.999Z</time></trkpt><trkpt lat="43.53182850727378" lon="11.260653062324224"><ele>341.79999999999995</ele><time>2026-04-25T07:32:11.999Z</time></trkpt><trkpt lat="43.531849466181356" lon="11.260555865879795"><ele>343.0</ele><time>2026-04-25T07:32:13.999Z</time></trkpt><trkpt lat="43.531964713804" lon="11.260474839735739"><ele>344.4</ele><time>2026-04-25T07:32:15.999Z</time></trkpt><trkpt lat="43.53203553776078" lon="11.260410734159557"><ele>345.79999999999995</ele><time>2026-04-25T07:32:16.999Z</time></trkpt><trkpt lat="43.532095111488374" lon="11.260350750359486"><ele>347.2</ele><time>2026-04-25T07:32:17.999Z</time></trkpt><trkpt lat="43.53216458514584" lon="11.2602127046052"><ele>348.6</ele><time>2026-04-25T07:32:19.999Z</time></trkpt><trkpt lat="43.532157783055744" lon="11.260087376787583"><ele>350.0</ele><time>2026-04-25T07:32:20.999Z</time></trkpt><trkpt lat="43.53212996197626" lon="11.259947497493995"><ele>349.2</ele><time>2026-04-25T07:32:21.999Z</time></trkpt><trkpt lat="43.53210529420598" lon="11.259818403845783"><ele>348.4</ele><time>2026-04-25T07:32:22.999Z</time></trkpt><trkpt lat="43.53207964694482" lon="11.259708007548568"><ele>347.6</ele><time>2026-04-25T07:32:23.999Z</time></trkpt><trkpt lat="43.532044935317415" lon="11.259570623291802"><ele>346.8</ele><time>2026-04-25T07:32:24.999Z</time></trkpt><trkpt lat="43.532001818953" lon="11.259415543361275"><ele>346.0</ele><time>2026-04-25T07:32:25.999Z</time></trkpt><trkpt lat="43.531954288740145" lon="11.259265189332254"><ele>346.0</ele><time>2026-04-25T07:32:26.999Z</time></trkpt><trkpt lat="43.531890531930856" lon="11.259108412646453"><ele>346.0</ele><time>2026-04-25T07:32:27.999Z</time></trkpt><trkpt lat="43.53179445800268" lon="11.25897371865627"><ele>346.0</ele><time>2026-04-25T07:32:28.999Z</time></trkpt><trkpt lat="43.53173886982777" lon="11.25882588508091"><ele>346.0</ele><time>2026-04-25T07:32:29.999Z</time></trkpt><trkpt lat="43.531683981059004" lon="11.258686893325931"><ele>343.0</ele><time>2026-04-25T07:32:30.999Z</time></trkpt><trkpt lat="43.53166520056432" lon="11.258521974812174"><ele>340.0</ele><time>2026-04-25T07:32:32Z</time></trkpt><trkpt lat="43.53166051919211" lon="11.258347156556553"><ele>337.0</ele><time>2026-04-25T07:32:33Z</time></trkpt><trkpt lat="43.53165358135825" lon="11.258178167794911"><ele>334.0</ele><time>2026-04-25T07:32:34Z</time></trkpt><trkpt lat="43.53164484687066" lon="11.258025537298298"><ele>332.79999999999995</ele><time>2026-04-25T07:32:35Z</time></trkpt><trkpt lat="43.531636378968685" lon="11.257880409933069"><ele>331.59999999999997</ele><time>2026-04-25T07:32:36Z</time></trkpt><trkpt lat="43.53162924323539" lon="11.257743001219328"><ele>330.4</ele><time>2026-04-25T07:32:37Z</time></trkpt><trkpt lat="43.531625042086915" lon="11.257604620954739"><ele>329.2</ele><time>2026-04-25T07:32:38Z</time></trkpt><trkpt lat="43.53162590475982" lon="11.257478938322809"><ele>328.0</ele><time>2026-04-25T07:32:39Z</time></trkpt><trkpt lat="43.53164526364928" lon="11.257339623118717"><ele>326.4</ele><time>2026-04-25T07:32:40Z</time></trkpt><trkpt lat="43.53168038108502" lon="11.257195781303514"><ele>324.79999999999995</ele><time>2026-04-25T07:32:41Z</time></trkpt><trkpt lat="43.53171729175669" lon="11.257056180393025"><ele>323.2</ele><time>2026-04-25T07:32:42Z</time></trkpt><trkpt lat="43.5317652041318" lon="11.256934892106129"><ele>321.6</ele><time>2026-04-25T07:32:43Z</time></trkpt><trkpt lat="43.53179271881959" lon="11.256815021841513"><ele>320.0</ele><time>2026-04-25T07:32:44Z</time></trkpt><trkpt lat="43.53180653334693" lon="11.256699409018667"><ele>320.0</ele><time>2026-04-25T07:32:45Z</time></trkpt><trkpt lat="43.531765034762614" lon="11.256556992162848"><ele>320.0</ele><time>2026-04-25T07:32:46Z</time></trkpt><trkpt lat="43.5316729573235" lon="11.256436553994401"><ele>320.0</ele><time>2026-04-25T07:32:47Z</time></trkpt><trkpt lat="43.53158967298567" lon="11.256308645710186"><ele>320.0</ele><time>2026-04-25T07:32:48Z</time></trkpt><trkpt lat="43.53150173781755" lon="11.25616566232432"><ele>319.5</ele><time>2026-04-25T07:32:49Z</time></trkpt><trkpt lat="43.53142160342789" lon="11.256035360121366"><ele>319.0</ele><time>2026-04-25T07:32:50Z</time></trkpt><trkpt lat="43.5313342493595" lon="11.25592086260336"><ele>318.5</ele><time>2026-04-25T07:32:51Z</time></trkpt><trkpt lat="43.53122569870238" lon="11.255825458418828"><ele>318.0</ele><time>2026-04-25T07:32:52Z</time></trkpt><trkpt lat="43.531114976722804" lon="11.255789547662289"><ele>318.0</ele><time>2026-04-25T07:32:53Z</time></trkpt><trkpt lat="43.53100866776263" lon="11.25574968037742"><ele>318.0</ele><time>2026-04-25T07:32:54Z</time></trkpt><trkpt lat="43.53090461339247" lon="11.255721880481868"><ele>318.0</ele><time>2026-04-25T07:32:55Z</time></trkpt><trkpt lat="43.530824853118304" lon="11.255665340288706"><ele>318.0</ele><time>2026-04-25T07:32:56Z</time></trkpt><trkpt lat="43.53077236978356" lon="11.255599296458302"><ele>318.0</ele><time>2026-04-25T07:32:57Z</time></trkpt><trkpt lat="43.53073435314346" lon="11.255510793593004"><ele>317.6666666666667</ele><time>2026-04-25T07:32:58Z</time></trkpt><trkpt lat="43.530682417805096" lon="11.255389745833506"><ele>317.3333333333333</ele><time>2026-04-25T07:32:59Z</time></trkpt><trkpt lat="43.5306492226767" lon="11.255243922841396"><ele>317.0</ele><time>2026-04-25T07:33:00Z</time></trkpt><trkpt lat="43.53062066349831" lon="11.25512344388837"><ele>316.66666666666663</ele><time>2026-04-25T07:33:01Z</time></trkpt><trkpt lat="43.530615081812215" lon="11.255022538653686"><ele>316.3333333333333</ele><time>2026-04-25T07:33:02Z</time></trkpt><trkpt lat="43.53059652813519" lon="11.254938976052813"><ele>316.0</ele><time>2026-04-25T07:33:03Z</time></trkpt><trkpt lat="43.53060847254123" lon="11.254803314881581"><ele>318.6</ele><time>2026-04-25T07:33:05Z</time></trkpt><trkpt lat="43.53067654922539" lon="11.25475065015898"><ele>321.20000000000005</ele><time>2026-04-25T07:33:06Z</time></trkpt><trkpt lat="43.530794615247785" lon="11.254698149770078"><ele>323.79999999999995</ele><time>2026-04-25T07:33:07Z</time></trkpt><trkpt lat="43.53089134327799" lon="11.254671592493374"><ele>326.4</ele><time>2026-04-25T07:33:08Z</time></trkpt><trkpt lat="43.53096893886141" lon="11.254596335735197"><ele>329.0</ele><time>2026-04-25T07:33:09Z</time></trkpt><trkpt lat="43.53104486623525" lon="11.254498414653025"><ele>329.0</ele><time>2026-04-25T07:33:10Z</time></trkpt><trkpt lat="43.531101212401886" lon="11.254354859900058"><ele>329.0</ele><time>2026-04-25T07:33:11Z</time></trkpt><trkpt lat="43.53115557771559" lon="11.254182044397934"><ele>329.0</ele><time>2026-04-25T07:33:12Z</time></trkpt><trkpt lat="43.53120551189661" lon="11.254017927247162"><ele>329.0</ele><time>2026-04-25T07:33:13Z</time></trkpt><trkpt lat="43.531235980081554" lon="11.253888482795825"><ele>330.6</ele><time>2026-04-25T07:33:14Z</time></trkpt><trkpt lat="43.531238024257355" lon="11.253766701750614"><ele>332.2</ele><time>2026-04-25T07:33:15Z</time></trkpt><trkpt lat="43.53122707898703" lon="11.253615506716693"><ele>333.8</ele><time>2026-04-25T07:33:16Z</time></trkpt><trkpt lat="43.53121985213943" lon="11.253455764290383"><ele>335.40000000000003</ele><time>2026-04-25T07:33:17Z</time></trkpt><trkpt lat="43.53119176900364" lon="11.25330696914777"><ele>337.0</ele><time>2026-04-25T07:33:18Z</time></trkpt><trkpt lat="43.531157131805905" lon="11.253186050889695"><ele>337.40000000000003</ele><time>2026-04-25T07:33:19Z</time></trkpt><trkpt lat="43.531138090901464" lon="11.253079574660404"><ele>337.8</ele><time>2026-04-25T07:33:20Z</time></trkpt><trkpt lat="43.53112454709594" lon="11.252966360612527"><ele>338.2</ele><time>2026-04-25T07:33:21Z</time></trkpt><trkpt lat="43.531161207126914" lon="11.252851890616329"><ele>338.6</ele><time>2026-04-25T07:33:22Z</time></trkpt><trkpt lat="43.53123089032565" lon="11.252756938094647"><ele>339.0</ele><time>2026-04-25T07:33:23Z</time></trkpt><trkpt lat="43.531314946071554" lon="11.252668056718699"><ele>339.79999999999995</ele><time>2026-04-25T07:33:24Z</time></trkpt><trkpt lat="43.53135418743481" lon="11.25256985313688"><ele>340.59999999999997</ele><time>2026-04-25T07:33:25Z</time></trkpt><trkpt lat="43.531360183304315" lon="11.252460012880274"><ele>341.4</ele><time>2026-04-25T07:33:26Z</time></trkpt><trkpt lat="43.53133319028115" lon="11.252343273900063"><ele>342.2</ele><time>2026-04-25T07:33:27Z</time></trkpt><trkpt lat="43.531311971530045" lon="11.252197748302327"><ele>343.0</ele><time>2026-04-25T07:33:28Z</time></trkpt><trkpt lat="43.5312620002989" lon="11.252037494621376"><ele>343.25</ele><time>2026-04-25T07:33:29Z</time></trkpt><trkpt lat="43.53121157956055" lon="11.251878006303784"><ele>343.5</ele><time>2026-04-25T07:33:30Z</time></trkpt><trkpt lat="43.53115942120021" lon="11.251708005074097"><ele>343.75</ele><time>2026-04-25T07:33:31Z</time></trkpt><trkpt lat="43.531101340523136" lon="11.251514732019004"><ele>344.0</ele><time>2026-04-25T07:33:32Z</time></trkpt><trkpt lat="43.53104877612145" lon="11.251307667777015"><ele>344.0</ele><time>2026-04-25T07:33:33Z</time></trkpt><trkpt lat="43.53101009864349" lon="11.251120892662879"><ele>344.0</ele><time>2026-04-25T07:33:34Z</time></trkpt><trkpt lat="43.53097139003818" lon="11.250921492523979"><ele>344.0</ele><time>2026-04-25T07:33:35Z</time></trkpt><trkpt lat="43.53091444065539" lon="11.250715144976859"><ele>345.25</ele><time>2026-04-25T07:33:36Z</time></trkpt><trkpt lat="43.530874062250156" lon="11.250528138685194"><ele>346.5</ele><time>2026-04-25T07:33:37Z</time></trkpt><trkpt lat="43.53082702628053" lon="11.250359747105282"><ele>347.75</ele><time>2026-04-25T07:33:38Z</time></trkpt><trkpt lat="43.53075428172674" lon="11.250205803460668"><ele>349.0</ele><time>2026-04-25T07:33:39Z</time></trkpt><trkpt lat="43.530678260784086" lon="11.250036494647695"><ele>349.0</ele><time>2026-04-25T07:33:40Z</time></trkpt><trkpt lat="43.530623293751" lon="11.249864696760541"><ele>349.0</ele><time>2026-04-25T07:33:41Z</time></trkpt><trkpt lat="43.53061584031452" lon="11.249669190196885"><ele>349.0</ele><time>2026-04-25T07:33:42Z</time></trkpt><trkpt lat="43.53061563649493" lon="11.24948677746492"><ele>349.0</ele><time>2026-04-25T07:33:43Z</time></trkpt><trkpt lat="43.530613953364025" lon="11.24929816734701"><ele>351.0</ele><time>2026-04-25T07:33:44Z</time></trkpt><trkpt lat="43.530629934717986" lon="11.24914366529357"><ele>353.0</ele><time>2026-04-25T07:33:45Z</time></trkpt><trkpt lat="43.53064406363598" lon="11.24896527963501"><ele>355.0</ele><time>2026-04-25T07:33:46Z</time></trkpt><trkpt lat="43.5306351586557" lon="11.248783750373013"><ele>357.0</ele><time>2026-04-25T07:33:47Z</time></trkpt><trkpt lat="43.53061309101121" lon="11.248595806921786"><ele>358.5</ele><time>2026-04-25T07:33:48Z</time></trkpt><trkpt lat="43.53058599259077" lon="11.24839352060063"><ele>360.0</ele><time>2026-04-25T07:33:49Z</time></trkpt><trkpt lat="43.5305662274433" lon="11.248192820300018"><ele>361.5</ele><time>2026-04-25T07:33:50Z</time></trkpt><trkpt lat="43.530551642695286" lon="11.247984680284967"><ele>363.0</ele><time>2026-04-25T07:33:51Z</time></trkpt><trkpt lat="43.530533820233515" lon="11.247772623666986"><ele>365.3333333333333</ele><time>2026-04-25T07:33:52Z</time></trkpt><trkpt lat="43.530514914717166" lon="11.247559223989471"><ele>367.66666666666663</ele><time>2026-04-25T07:33:53Z</time></trkpt><trkpt lat="43.53049801086562" lon="11.247336729746003"><ele>370.0</ele><time>2026-04-25T07:33:54Z</time></trkpt><trkpt lat="43.53048135543847" lon="11.247119902402465"><ele>372.0</ele><time>2026-04-25T07:33:55Z</time></trkpt><trkpt lat="43.53046506299963" lon="11.246902143303133"><ele>374.0</ele><time>2026-04-25T07:33:56Z</time></trkpt><trkpt lat="43.53044800021636" lon="11.246680010704731"><ele>376.0</ele><time>2026-04-25T07:33:57Z</time></trkpt><trkpt lat="43.53043247714437" lon="11.246470209021565"><ele>376.75</ele><time>2026-04-25T07:33:58Z</time></trkpt><trkpt lat="43.53041844352058" lon="11.246274843760236"><ele>377.5</ele><time>2026-04-25T07:33:59Z</time></trkpt><trkpt lat="43.53038649190049" lon="11.246078263876031"><ele>378.25</ele><time>2026-04-25T07:34:00Z</time></trkpt><trkpt lat="43.53033992735809" lon="11.245891043444388"><ele>379.0</ele><time>2026-04-25T07:34:01Z</time></trkpt><trkpt lat="43.53029708904053" lon="11.245713815227278"><ele>375.5</ele><time>2026-04-25T07:34:02Z</time></trkpt><trkpt lat="43.530269227882144" lon="11.245547977605415"><ele>372.0</ele><time>2026-04-25T07:34:02.999Z</time></trkpt><trkpt lat="43.530265262780574" lon="11.245370129311373"><ele>368.5</ele><time>2026-04-25T07:34:03.999Z</time></trkpt><trkpt lat="43.53029664988769" lon="11.245193987008463"><ele>365.0</ele><time>2026-04-25T07:34:04.999Z</time></trkpt><trkpt lat="43.53035214902812" lon="11.245010993173539"><ele>368.6666666666667</ele><time>2026-04-25T07:34:05.999Z</time></trkpt><trkpt lat="43.53043929167894" lon="11.244855242926223"><ele>372.3333333333333</ele><time>2026-04-25T07:34:06.999Z</time></trkpt><trkpt lat="43.53051163631921" lon="11.244668114232411"><ele>376.0</ele><time>2026-04-25T07:34:07.999Z</time></trkpt><trkpt lat="43.530601905313326" lon="11.244497061262898"><ele>376.0</ele><time>2026-04-25T07:34:08.999Z</time></trkpt><trkpt lat="43.530687868984145" lon="11.244306297446764"><ele>376.0</ele><time>2026-04-25T07:34:09.999Z</time></trkpt><trkpt lat="43.53076470123708" lon="11.244103138593006"><ele>376.0</ele><time>2026-04-25T07:34:10.999Z</time></trkpt><trkpt lat="43.5308367029879" lon="11.243907972486845"><ele>378.0</ele><time>2026-04-25T07:34:11.999Z</time></trkpt><trkpt lat="43.53091254241359" lon="11.243734028417267"><ele>380.0</ele><time>2026-04-25T07:34:12.999Z</time></trkpt><trkpt lat="43.53099128903079" lon="11.24357870119394"><ele>382.0</ele><time>2026-04-25T07:34:13.999Z</time></trkpt><trkpt lat="43.53108259600572" lon="11.24344002541616"><ele>384.0</ele><time>2026-04-25T07:34:14.999Z</time></trkpt><trkpt lat="43.531189920032894" lon="11.243319019799872"><ele>383.75</ele><time>2026-04-25T07:34:15.999Z</time></trkpt><trkpt lat="43.531321702522725" lon="11.243217041109496"><ele>383.5</ele><time>2026-04-25T07:34:16.999Z</time></trkpt><trkpt lat="43.531449658866194" lon="11.243134298505968"><ele>383.25</ele><time>2026-04-25T07:34:17.999Z</time></trkpt><trkpt lat="43.53156958820159" lon="11.243067152635424"><ele>383.0</ele><time>2026-04-25T07:34:18.999Z</time></trkpt><trkpt lat="43.53166923776275" lon="11.242990280578343"><ele>385.5</ele><time>2026-04-25T07:34:19.999Z</time></trkpt><trkpt lat="43.53175422039673" lon="11.242873607621211"><ele>388.0</ele><time>2026-04-25T07:34:20.999Z</time></trkpt><trkpt lat="43.531825664975436" lon="11.242727137748815"><ele>390.5</ele><time>2026-04-25T07:34:21.999Z</time></trkpt><trkpt lat="43.53188403197523" lon="11.242570755228273"><ele>393.0</ele><time>2026-04-25T07:34:22.999Z</time></trkpt><trkpt lat="43.53193572372322" lon="11.242447121809896"><ele>393.0</ele><time>2026-04-25T07:34:23.999Z</time></trkpt><trkpt lat="43.53196976702557" lon="11.242330683847973"><ele>393.0</ele><time>2026-04-25T07:34:24.999Z</time></trkpt><trkpt lat="43.5320001417954" lon="11.242254427825767"><ele>393.0</ele><time>2026-04-25T07:34:25.999Z</time></trkpt><trkpt lat="43.532026200832235" lon="11.242110721047442"><ele>393.0</ele><time>2026-04-25T07:34:27.999Z</time></trkpt><trkpt lat="43.532044361428724" lon="11.241993722003322"><ele>393.0</ele><time>2026-04-25T07:34:32.999Z</time></trkpt><trkpt lat="43.53194959369466" lon="11.241942960071983"><ele>393.0</ele><time>2026-04-25T07:34:34Z</time></trkpt><trkpt lat="43.53186124491005" lon="11.24193204644231"><ele>393.0</ele><time>2026-04-25T07:34:35Z</time></trkpt><trkpt lat="43.53177683266313" lon="11.241890679006076"><ele>393.0</ele><time>2026-04-25T07:34:36Z</time></trkpt><trkpt lat="43.53168556926076" lon="11.24182717526481"><ele>393.0</ele><time>2026-04-25T07:34:37Z</time></trkpt><trkpt lat="43.53159456375757" lon="11.241772856221523"><ele>393.0</ele><time>2026-04-25T07:34:38Z</time></trkpt><trkpt lat="43.53149221169527" lon="11.241699890276154"><ele>393.0</ele><time>2026-04-25T07:34:39Z</time></trkpt><trkpt lat="43.531385525349684" lon="11.241628313457088"><ele>393.0</ele><time>2026-04-25T07:34:40Z</time></trkpt><trkpt lat="43.53126810218699" lon="11.241530358620917"><ele>393.0</ele><time>2026-04-25T07:34:41Z</time></trkpt><trkpt lat="43.53115940782092" lon="11.24143065966685"><ele>393.0</ele><time>2026-04-25T07:34:42Z</time></trkpt><trkpt lat="43.53105223953352" lon="11.241334481065646"><ele>394.25</ele><time>2026-04-25T07:34:43Z</time></trkpt><trkpt lat="43.5309331735913" lon="11.241235861621151"><ele>395.5</ele><time>2026-04-25T07:34:44Z</time></trkpt><trkpt lat="43.530814032425965" lon="11.241135714304052"><ele>396.75</ele><time>2026-04-25T07:34:45Z</time></trkpt><trkpt lat="43.530673384435836" lon="11.241052738699224"><ele>398.0</ele><time>2026-04-25T07:34:46Z</time></trkpt><trkpt lat="43.53053119814954" lon="11.240974185095219"><ele>398.66666666666663</ele><time>2026-04-25T07:34:47Z</time></trkpt><trkpt lat="43.53036710718848" lon="11.240884414308747"><ele>399.33333333333337</ele><time>2026-04-25T07:34:48Z</time></trkpt><trkpt lat="43.53018113925377" lon="11.240809979677156"><ele>400.0</ele><time>2026-04-25T07:34:49Z</time></trkpt><trkpt lat="43.529993368899184" lon="11.240749008049216"><ele>400.0</ele><time>2026-04-25T07:34:50Z</time></trkpt><trkpt lat="43.52979656498784" lon="11.24068190553892"><ele>400.0</ele><time>2026-04-25T07:34:51Z</time></trkpt><trkpt lat="43.529652033995184" lon="11.240632841092307"><ele>400.0</ele><time>2026-04-25T07:34:52Z</time></trkpt><trkpt lat="43.529444460090595" lon="11.24057349612206"><ele>397.33333333333337</ele><time>2026-04-25T07:34:53Z</time></trkpt><trkpt lat="43.52924316161538" lon="11.240476403407822"><ele>394.66666666666663</ele><time>2026-04-25T07:34:54Z</time></trkpt><trkpt lat="43.529044575132815" lon="11.240352340045229"><ele>392.0</ele><time>2026-04-25T07:34:55Z</time></trkpt><trkpt lat="43.52885352101921" lon="11.240222098161217"><ele>394.0</ele><time>2026-04-25T07:34:56Z</time></trkpt><trkpt lat="43.52866760335496" lon="11.240091714362373"><ele>396.0</ele><time>2026-04-25T07:34:57Z</time></trkpt><trkpt lat="43.528478563197574" lon="11.239958056119121"><ele>398.0</ele><time>2026-04-25T07:34:58Z</time></trkpt><trkpt lat="43.52828639875178" lon="11.239821653599668"><ele>399.0</ele><time>2026-04-25T07:34:59Z</time></trkpt><trkpt lat="43.528093859354875" lon="11.239685130705634"><ele>400.0</ele><time>2026-04-25T07:35:00Z</time></trkpt><trkpt lat="43.52790012756323" lon="11.239570739448865"><ele>401.0</ele><time>2026-04-25T07:35:01Z</time></trkpt><trkpt lat="43.527711743875145" lon="11.23944572606682"><ele>401.0</ele><time>2026-04-25T07:35:02Z</time></trkpt><trkpt lat="43.52752483152178" lon="11.23932812143126"><ele>401.0</ele><time>2026-04-25T07:35:03Z</time></trkpt><trkpt lat="43.52733530909449" lon="11.239216033756298"><ele>401.0</ele><time>2026-04-25T07:35:04Z</time></trkpt><trkpt lat="43.52713601893628" lon="11.239128159678575"><ele>401.3333333333333</ele><time>2026-04-25T07:35:05Z</time></trkpt><trkpt lat="43.526925480679985" lon="11.239058109424633"><ele>401.66666666666663</ele><time>2026-04-25T07:35:06Z</time></trkpt><trkpt lat="43.52670878754099" lon="11.238993161816696"><ele>402.0</ele><time>2026-04-25T07:35:07Z</time></trkpt><trkpt lat="43.52649167847227" lon="11.238924046410391"><ele>402.0</ele><time>2026-04-25T07:35:08Z</time></trkpt><trkpt lat="43.52627436026537" lon="11.238843982038414"><ele>402.0</ele><time>2026-04-25T07:35:09Z</time></trkpt><trkpt lat="43.526059879176" lon="11.23876552797551"><ele>402.0</ele><time>2026-04-25T07:35:10Z</time></trkpt><trkpt lat="43.52585126678469" lon="11.238661712833109"><ele>403.33333333333337</ele><time>2026-04-25T07:35:11Z</time></trkpt><trkpt lat="43.525645146137734" lon="11.238596035102198"><ele>404.6666666666667</ele><time>2026-04-25T07:35:12Z</time></trkpt><trkpt lat="43.52546271061736" lon="11.238512574652244"><ele>406.0</ele><time>2026-04-25T07:35:13Z</time></trkpt><trkpt lat="43.5253258077283" lon="11.238452223242405"><ele>406.0</ele><time>2026-04-25T07:35:14Z</time></trkpt><trkpt lat="43.525197742820446" lon="11.238405403337973"><ele>406.0</ele><time>2026-04-25T07:35:15Z</time></trkpt><trkpt lat="43.525078051064156" lon="11.238399086944648"><ele>406.0</ele><time>2026-04-25T07:35:16Z</time></trkpt><trkpt lat="43.52493511192777" lon="11.238456190094869"><ele>406.0</ele><time>2026-04-25T07:35:17Z</time></trkpt><trkpt lat="43.524791915394744" lon="11.238565090127677"><ele>406.0</ele><time>2026-04-25T07:35:18Z</time></trkpt><trkpt lat="43.52465156756869" lon="11.238724752092848"><ele>406.0</ele><time>2026-04-25T07:35:19Z</time></trkpt><trkpt lat="43.524524040778466" lon="11.238909662271729"><ele>406.0</ele><time>2026-04-25T07:35:20Z</time></trkpt><trkpt lat="43.52441821672076" lon="11.239090133936008"><ele>407.33333333333337</ele><time>2026-04-25T07:35:21Z</time></trkpt><trkpt lat="43.52433425892391" lon="11.239291654834949"><ele>408.66666666666663</ele><time>2026-04-25T07:35:22Z</time></trkpt><trkpt lat="43.5242692666646" lon="11.239526643695399"><ele>410.0</ele><time>2026-04-25T07:35:23Z</time></trkpt><trkpt lat="43.524206989027434" lon="11.239780282203027"><ele>411.3333333333333</ele><time>2026-04-25T07:35:24Z</time></trkpt><trkpt lat="43.52410827015724" lon="11.240014315737495"><ele>412.66666666666663</ele><time>2026-04-25T07:35:25Z</time></trkpt><trkpt lat="43.523981415838556" lon="11.240237832219695"><ele>414.0</ele><time>2026-04-25T07:35:26Z</time></trkpt><trkpt lat="43.52385565829279" lon="11.240426903696967"><ele>415.33333333333337</ele><time>2026-04-25T07:35:27Z</time></trkpt><trkpt lat="43.523728401182254" lon="11.24057322540584"><ele>416.6666666666667</ele><time>2026-04-25T07:35:28Z</time></trkpt><trkpt lat="43.523592432858536" lon="11.24069146080315"><ele>418.0</ele><time>2026-04-25T07:35:29Z</time></trkpt><trkpt lat="43.5234411012521" lon="11.240756937647728"><ele>418.0</ele><time>2026-04-25T07:35:30Z</time></trkpt><trkpt lat="43.523281452673814" lon="11.240845151103061"><ele>418.0</ele><time>2026-04-25T07:35:31Z</time></trkpt><trkpt lat="43.52311412966165" lon="11.240910594496906"><ele>418.0</ele><time>2026-04-25T07:35:32Z</time></trkpt><trkpt lat="43.52293619127222" lon="11.241014457251866"><ele>417.6666666666667</ele><time>2026-04-25T07:35:33Z</time></trkpt><trkpt lat="43.52276924742664" lon="11.241153948916102"><ele>417.33333333333337</ele><time>2026-04-25T07:35:34Z</time></trkpt><trkpt lat="43.52260768365933" lon="11.241339501146614"><ele>417.0</ele><time>2026-04-25T07:35:35Z</time></trkpt><trkpt lat="43.522459045099126" lon="11.241560350905013"><ele>417.66666666666663</ele><time>2026-04-25T07:35:36Z</time></trkpt><trkpt lat="43.522324681759585" lon="11.241794660836689"><ele>418.3333333333333</ele><time>2026-04-25T07:35:37Z</time></trkpt><trkpt lat="43.5222222867409" lon="11.242022305571725"><ele>419.0</ele><time>2026-04-25T07:35:38Z</time></trkpt><trkpt lat="43.52213559880734" lon="11.24226527955567"><ele>421.3333333333333</ele><time>2026-04-25T07:35:39Z</time></trkpt><trkpt lat="43.52205667499787" lon="11.242523915166098"><ele>423.66666666666663</ele><time>2026-04-25T07:35:40Z</time></trkpt><trkpt lat="43.521990324884065" lon="11.242799740256716"><ele>426.0</ele><time>2026-04-25T07:35:41Z</time></trkpt><trkpt lat="43.52193129590699" lon="11.24307259406659"><ele>427.0</ele><time>2026-04-25T07:35:42Z</time></trkpt><trkpt lat="43.52186922319706" lon="11.243335707868704"><ele>428.0</ele><time>2026-04-25T07:35:43Z</time></trkpt><trkpt lat="43.52180924329437" lon="11.243582619233644"><ele>429.0</ele><time>2026-04-25T07:35:44Z</time></trkpt><trkpt lat="43.52175619442597" lon="11.243817732534142"><ele>429.0</ele><time>2026-04-25T07:35:45Z</time></trkpt><trkpt lat="43.52170447393408" lon="11.244051436510768"><ele>429.0</ele><time>2026-04-25T07:35:46Z</time></trkpt><trkpt lat="43.5216527739306" lon="11.244298272505574"><ele>429.0</ele><time>2026-04-25T07:35:47Z</time></trkpt><trkpt lat="43.521599267140736" lon="11.24454749862537"><ele>429.0</ele><time>2026-04-25T07:35:48Z</time></trkpt><trkpt lat="43.52154142442547" lon="11.244790877299302"><ele>429.0</ele><time>2026-04-25T07:35:49Z</time></trkpt><trkpt lat="43.52147438977417" lon="11.245021697934083"><ele>429.0</ele><time>2026-04-25T07:35:50Z</time></trkpt><trkpt lat="43.52138055664393" lon="11.24525298408599"><ele>429.33333333333337</ele><time>2026-04-25T07:35:51Z</time></trkpt><trkpt lat="43.5212545588806" lon="11.245454271469946"><ele>429.6666666666667</ele><time>2026-04-25T07:35:52Z</time></trkpt><trkpt lat="43.521084639372525" lon="11.245610937479169"><ele>430.0</ele><time>2026-04-25T07:35:53Z</time></trkpt><trkpt lat="43.52089912519256" lon="11.24575051697922"><ele>429.0</ele><time>2026-04-25T07:35:54Z</time></trkpt><trkpt lat="43.52069959269192" lon="11.245897487648417"><ele>428.0</ele><time>2026-04-25T07:35:55Z</time></trkpt><trkpt lat="43.520492613097446" lon="11.246012030016077"><ele>427.0</ele><time>2026-04-25T07:35:56Z</time></trkpt><trkpt lat="43.520309818554715" lon="11.246110988016001"><ele>426.33333333333337</ele><time>2026-04-25T07:35:57Z</time></trkpt><trkpt lat="43.52014626169856" lon="11.246201350507217"><ele>425.66666666666663</ele><time>2026-04-25T07:35:58Z</time></trkpt><trkpt lat="43.52000430764446" lon="11.246306974557928"><ele>425.0</ele><time>2026-04-25T07:35:59Z</time></trkpt><trkpt lat="43.519875198502255" lon="11.24643265281061"><ele>425.3333333333333</ele><time>2026-04-25T07:36:00Z</time></trkpt><trkpt lat="43.51976228124194" lon="11.246578740524091"><ele>425.66666666666663</ele><time>2026-04-25T07:36:01Z</time></trkpt><trkpt lat="43.51964101430052" lon="11.246738731356558"><ele>426.0</ele><time>2026-04-25T07:36:02Z</time></trkpt><trkpt lat="43.51950976813138" lon="11.246897187233825"><ele>424.0</ele><time>2026-04-25T07:36:03Z</time></trkpt><trkpt lat="43.51936601071061" lon="11.247055106583796"><ele>422.0</ele><time>2026-04-25T07:36:04Z</time></trkpt><trkpt lat="43.51920578238803" lon="11.247215038975282"><ele>420.0</ele><time>2026-04-25T07:36:05Z</time></trkpt><trkpt lat="43.51904120790934" lon="11.247377707793918"><ele>419.0</ele><time>2026-04-25T07:36:06Z</time></trkpt><trkpt lat="43.51886901545086" lon="11.24753834800602"><ele>418.0</ele><time>2026-04-25T07:36:07Z</time></trkpt><trkpt lat="43.51868650434915" lon="11.24768949338878"><ele>417.0</ele><time>2026-04-25T07:36:08Z</time></trkpt><trkpt lat="43.5184912763941" lon="11.247828580462564"><ele>415.66666666666663</ele><time>2026-04-25T07:36:09Z</time></trkpt><trkpt lat="43.518293132750614" lon="11.247947698197269"><ele>414.3333333333333</ele><time>2026-04-25T07:36:10Z</time></trkpt><trkpt lat="43.51809034570897" lon="11.248037918128354"><ele>413.0</ele><time>2026-04-25T07:36:11Z</time></trkpt><trkpt lat="43.51788504731409" lon="11.24809581920385"><ele>412.0</ele><time>2026-04-25T07:36:12Z</time></trkpt><trkpt lat="43.51767473378204" lon="11.248121397936018"><ele>411.0</ele><time>2026-04-25T07:36:13Z</time></trkpt><trkpt lat="43.5174630018807" lon="11.248129552618705"><ele>410.0</ele><time>2026-04-25T07:36:14Z</time></trkpt><trkpt lat="43.51725618653022" lon="11.248093853638702"><ele>412.66666666666663</ele><time>2026-04-25T07:36:15Z</time></trkpt><trkpt lat="43.51706073869813" lon="11.248043657449642"><ele>415.33333333333337</ele><time>2026-04-25T07:36:16Z</time></trkpt><trkpt lat="43.516886340954315" lon="11.248009709599163"><ele>418.0</ele><time>2026-04-25T07:36:17Z</time></trkpt><trkpt lat="43.516720754659694" lon="11.247948021713466"><ele>418.0</ele><time>2026-04-25T07:36:18Z</time></trkpt><trkpt lat="43.51655246062073" lon="11.247886849481366"><ele>418.0</ele><time>2026-04-25T07:36:19Z</time></trkpt><trkpt lat="43.51640346413311" lon="11.247747798068943"><ele>418.0</ele><time>2026-04-25T07:36:20Z</time></trkpt><trkpt lat="43.516255845512674" lon="11.247589204630325"><ele>420.0</ele><time>2026-04-25T07:36:21Z</time></trkpt><trkpt lat="43.51609817861567" lon="11.247420682894306"><ele>422.0</ele><time>2026-04-25T07:36:22Z</time></trkpt><trkpt lat="43.51593226852513" lon="11.247277092939823"><ele>424.0</ele><time>2026-04-25T07:36:23Z</time></trkpt><trkpt lat="43.515759951246054" lon="11.247162570459214"><ele>424.6666666666667</ele><time>2026-04-25T07:36:24Z</time></trkpt><trkpt lat="43.51557900759897" lon="11.247079012709289"><ele>425.33333333333337</ele><time>2026-04-25T07:36:25Z</time></trkpt><trkpt lat="43.515413626293025" lon="11.247005597568359"><ele>426.0</ele><time>2026-04-25T07:36:26Z</time></trkpt><trkpt lat="43.51525278716776" lon="11.246929946260824"><ele>428.66666666666663</ele><time>2026-04-25T07:36:27Z</time></trkpt><trkpt lat="43.515092784611696" lon="11.24687441114551"><ele>431.3333333333333</ele><time>2026-04-25T07:36:28Z</time></trkpt><trkpt lat="43.51492578672416" lon="11.246857626874705"><ele>434.0</ele><time>2026-04-25T07:36:29Z</time></trkpt><trkpt lat="43.51475326272602" lon="11.246868945670963"><ele>434.0</ele><time>2026-04-25T07:36:30Z</time></trkpt><trkpt lat="43.514605472280856" lon="11.246880273134844"><ele>434.0</ele><time>2026-04-25T07:36:31Z</time></trkpt><trkpt lat="43.51448111034609" lon="11.246824974719937"><ele>434.0</ele><time>2026-04-25T07:36:32Z</time></trkpt><trkpt lat="43.51435859505503" lon="11.24673856594171"><ele>434.0</ele><time>2026-04-25T07:36:33Z</time></trkpt><trkpt lat="43.51422911108355" lon="11.246626205492388"><ele>438.3333333333333</ele><time>2026-04-25T07:36:34Z</time></trkpt><trkpt lat="43.514094042857366" lon="11.246496929024346"><ele>442.66666666666663</ele><time>2026-04-25T07:36:35Z</time></trkpt><trkpt lat="43.51396918160243" lon="11.246364611646637"><ele>447.0</ele><time>2026-04-25T07:36:36Z</time></trkpt><trkpt lat="43.5138590943113" lon="11.246223937058653"><ele>447.0</ele><time>2026-04-25T07:36:37Z</time></trkpt><trkpt lat="43.51378293075251" lon="11.246074858789465"><ele>447.0</ele><time>2026-04-25T07:36:38Z</time></trkpt><trkpt lat="43.51376701901059" lon="11.245912851958675"><ele>447.0</ele><time>2026-04-25T07:36:39Z</time></trkpt><trkpt lat="43.51377247900492" lon="11.245753983395637"><ele>447.0</ele><time>2026-04-25T07:36:40.001Z</time></trkpt><trkpt lat="43.51381887427494" lon="11.245594498732483"><ele>448.0</ele><time>2026-04-25T07:36:41.001Z</time></trkpt><trkpt lat="43.513870741090884" lon="11.245401198206796"><ele>449.0</ele><time>2026-04-25T07:36:42.001Z</time></trkpt><trkpt lat="43.51391834517686" lon="11.245209823541648"><ele>450.0</ele><time>2026-04-25T07:36:43.001Z</time></trkpt><trkpt lat="43.513894224515205" lon="11.245036973300051"><ele>451.0</ele><time>2026-04-25T07:36:44.001Z</time></trkpt><trkpt lat="43.51384118163837" lon="11.244889762107949"><ele>449.33333333333337</ele><time>2026-04-25T07:36:45.001Z</time></trkpt><trkpt lat="43.51374379740693" lon="11.244776322980007"><ele>447.66666666666663</ele><time>2026-04-25T07:36:46.001Z</time></trkpt><trkpt lat="43.513605238147385" lon="11.244670569269777"><ele>446.0</ele><time>2026-04-25T07:36:47.001Z</time></trkpt><trkpt lat="43.513447243135836" lon="11.244573388124296"><ele>451.66666666666663</ele><time>2026-04-25T07:36:48.001Z</time></trkpt><trkpt lat="43.51329516861366" lon="11.244422263733162"><ele>457.33333333333337</ele><time>2026-04-25T07:36:49.001Z</time></trkpt><trkpt lat="43.51314852397781" lon="11.244275353234253"><ele>463.0</ele><time>2026-04-25T07:36:50.001Z</time></trkpt><trkpt lat="43.51301860240148" lon="11.244143125625866"><ele>464.75</ele><time>2026-04-25T07:36:51.001Z</time></trkpt><trkpt lat="43.51288321708916" lon="11.244034820958474"><ele>466.5</ele><time>2026-04-25T07:36:52.001Z</time></trkpt><trkpt lat="43.51276185441898" lon="11.24392108794249"><ele>468.25</ele><time>2026-04-25T07:36:53.001Z</time></trkpt><trkpt lat="43.51266316076008" lon="11.243831881463683"><ele>470.0</ele><time>2026-04-25T07:36:54Z</time></trkpt><trkpt lat="43.512576485837684" lon="11.243759384588168"><ele>470.0</ele><time>2026-04-25T07:36:55Z</time></trkpt><trkpt lat="43.51247434876018" lon="11.243724160770373"><ele>470.0</ele><time>2026-04-25T07:36:56Z</time></trkpt><trkpt lat="43.51235227740268" lon="11.243745096262495"><ele>470.0</ele><time>2026-04-25T07:36:57Z</time></trkpt><trkpt lat="43.51221070088755" lon="11.243821860813327"><ele>470.0</ele><time>2026-04-25T07:36:58Z</time></trkpt><trkpt lat="43.51205335001155" lon="11.243901082776755"><ele>469.66666666666663</ele><time>2026-04-25T07:36:59Z</time></trkpt><trkpt lat="43.511874210938" lon="11.243962212076163"><ele>469.33333333333337</ele><time>2026-04-25T07:37:00Z</time></trkpt><trkpt lat="43.511707350435174" lon="11.244017279178546"><ele>469.0</ele><time>2026-04-25T07:37:01Z</time></trkpt><trkpt lat="43.51154675237549" lon="11.244071188199575"><ele>474.0</ele><time>2026-04-25T07:37:02Z</time></trkpt><trkpt lat="43.51139448250087" lon="11.244135216938618"><ele>479.0</ele><time>2026-04-25T07:37:03Z</time></trkpt><trkpt lat="43.51125251694658" lon="11.244196519291558"><ele>484.0</ele><time>2026-04-25T07:37:04Z</time></trkpt><trkpt lat="43.51111006402616" lon="11.244249464560287"><ele>484.6666666666667</ele><time>2026-04-25T07:37:05Z</time></trkpt><trkpt lat="43.5109559798127" lon="11.244264303544478"><ele>485.33333333333337</ele><time>2026-04-25T07:37:06Z</time></trkpt><trkpt lat="43.51079904518769" lon="11.244266290022928"><ele>486.0</ele><time>2026-04-25T07:37:07Z</time></trkpt><trkpt lat="43.51063108352702" lon="11.24423720198268"><ele>486.0</ele><time>2026-04-25T07:37:08Z</time></trkpt><trkpt lat="43.51046278754461" lon="11.244176926494115"><ele>486.0</ele><time>2026-04-25T07:37:09Z</time></trkpt><trkpt lat="43.51029467254111" lon="11.244107461572067"><ele>486.0</ele><time>2026-04-25T07:37:10Z</time></trkpt><trkpt lat="43.51016671846493" lon="11.243974705811194"><ele>488.0</ele><time>2026-04-25T07:37:11Z</time></trkpt><trkpt lat="43.51006464164784" lon="11.243814515789138"><ele>490.0</ele><time>2026-04-25T07:37:12Z</time></trkpt><trkpt lat="43.50997158175333" lon="11.243627910244324"><ele>492.0</ele><time>2026-04-25T07:37:13Z</time></trkpt><trkpt lat="43.50987127923801" lon="11.243437286279518"><ele>492.0</ele><time>2026-04-25T07:37:14Z</time></trkpt><trkpt lat="43.50976556348722" lon="11.243263708841212"><ele>492.0</ele><time>2026-04-25T07:37:15Z</time></trkpt><trkpt lat="43.509674433613014" lon="11.243128941656725"><ele>492.0</ele><time>2026-04-25T07:37:16Z</time></trkpt><trkpt lat="43.50955889840011" lon="11.243024756196457"><ele>492.0</ele><time>2026-04-25T07:37:17Z</time></trkpt><trkpt lat="43.509422770697554" lon="11.242953532058225"><ele>494.0</ele><time>2026-04-25T07:37:18Z</time></trkpt><trkpt lat="43.50929386696307" lon="11.24289765151387"><ele>496.0</ele><time>2026-04-25T07:37:19Z</time></trkpt><trkpt lat="43.50918242835671" lon="11.242837973287077"><ele>498.0</ele><time>2026-04-25T07:37:20Z</time></trkpt><trkpt lat="43.50908288235724" lon="11.24280367595604"><ele>500.0</ele><time>2026-04-25T07:37:21Z</time></trkpt><trkpt lat="43.508969040353676" lon="11.242810076834973"><ele>500.0</ele><time>2026-04-25T07:37:22Z</time></trkpt><trkpt lat="43.508846587914206" lon="11.2428717283147"><ele>500.0</ele><time>2026-04-25T07:37:23Z</time></trkpt><trkpt lat="43.50870890027562" lon="11.242976898881583"><ele>500.0</ele><time>2026-04-25T07:37:24Z</time></trkpt><trkpt lat="43.5085656892919" lon="11.243082400840853"><ele>500.0</ele><time>2026-04-25T07:37:25Z</time></trkpt><trkpt lat="43.508434198682224" lon="11.243173615640785"><ele>500.0</ele><time>2026-04-25T07:37:26Z</time></trkpt><trkpt lat="43.50828871620157" lon="11.243218026525712"><ele>500.0</ele><time>2026-04-25T07:37:27Z</time></trkpt><trkpt lat="43.508129898767216" lon="11.24322234921443"><ele>500.0</ele><time>2026-04-25T07:37:28Z</time></trkpt><trkpt lat="43.50795697952234" lon="11.24321058876075"><ele>500.0</ele><time>2026-04-25T07:37:29Z</time></trkpt><trkpt lat="43.50778110053127" lon="11.24320773826856"><ele>500.0</ele><time>2026-04-25T07:37:30Z</time></trkpt><trkpt lat="43.507606465341446" lon="11.243203197217152"><ele>500.0</ele><time>2026-04-25T07:37:31Z</time></trkpt><trkpt lat="43.50741811249058" lon="11.24320467966514"><ele>500.0</ele><time>2026-04-25T07:37:32Z</time></trkpt><trkpt lat="43.507248055515745" lon="11.243256839707517"><ele>500.0</ele><time>2026-04-25T07:37:33Z</time></trkpt><trkpt lat="43.50706495563578" lon="11.243328806693496"><ele>502.66666666666663</ele><time>2026-04-25T07:37:34Z</time></trkpt><trkpt lat="43.506892421435886" lon="11.243425854748356"><ele>505.33333333333337</ele><time>2026-04-25T07:37:35Z</time></trkpt><trkpt lat="43.5067336126962" lon="11.243507611061565"><ele>508.0</ele><time>2026-04-25T07:37:36Z</time></trkpt><trkpt lat="43.50658696393149" lon="11.243627569817821"><ele>508.0</ele><time>2026-04-25T07:37:37Z</time></trkpt><trkpt lat="43.50645394636586" lon="11.243631018114312"><ele>508.0</ele><time>2026-04-25T07:37:38Z</time></trkpt><trkpt lat="43.5063199087032" lon="11.243581632448198"><ele>508.0</ele><time>2026-04-25T07:37:39Z</time></trkpt><trkpt lat="43.50617192852915" lon="11.243501253432715"><ele>508.0</ele><time>2026-04-25T07:37:40Z</time></trkpt><trkpt lat="43.50601912442639" lon="11.243426714835312"><ele>511.33333333333337</ele><time>2026-04-25T07:37:41Z</time></trkpt><trkpt lat="43.50586157817162" lon="11.243357288903882"><ele>514.6666666666666</ele><time>2026-04-25T07:37:42Z</time></trkpt><trkpt lat="43.50570808025345" lon="11.243305381683935"><ele>518.0</ele><time>2026-04-25T07:37:43Z</time></trkpt><trkpt lat="43.50556045028301" lon="11.243289713792379"><ele>519.6666666666666</ele><time>2026-04-25T07:37:44Z</time></trkpt><trkpt lat="43.5054077020762" lon="11.243301422696375"><ele>521.3333333333334</ele><time>2026-04-25T07:37:45Z</time></trkpt><trkpt lat="43.50525599334028" lon="11.243353632070054"><ele>523.0</ele><time>2026-04-25T07:37:46Z</time></trkpt><trkpt lat="43.505095879451765" lon="11.243432649961617"><ele>523.0</ele><time>2026-04-25T07:37:47Z</time></trkpt><trkpt lat="43.50495786937871" lon="11.243487677742912"><ele>523.0</ele><time>2026-04-25T07:37:48Z</time></trkpt><trkpt lat="43.50482778132125" lon="11.243581975860714"><ele>523.0</ele><time>2026-04-25T07:37:49Z</time></trkpt><trkpt lat="43.50469465679674" lon="11.243712769499282"><ele>523.6666666666667</ele><time>2026-04-25T07:37:50Z</time></trkpt><trkpt lat="43.5045511545656" lon="11.243871401429233"><ele>524.3333333333334</ele><time>2026-04-25T07:37:51Z</time></trkpt><trkpt lat="43.50441182215668" lon="11.24404208019779"><ele>525.0</ele><time>2026-04-25T07:37:52Z</time></trkpt><trkpt lat="43.5042595693124" lon="11.244212601297553"><ele>525.0</ele><time>2026-04-25T07:37:53Z</time></trkpt><trkpt lat="43.50410924586905" lon="11.244385467752078"><ele>525.0</ele><time>2026-04-25T07:37:54Z</time></trkpt><trkpt lat="43.50396524153975" lon="11.244530119522395"><ele>525.0</ele><time>2026-04-25T07:37:55Z</time></trkpt><trkpt lat="43.50382976899508" lon="11.244696528585164"><ele>527.0</ele><time>2026-04-25T07:37:56Z</time></trkpt><trkpt lat="43.503698326455826" lon="11.244902405324215"><ele>529.0</ele><time>2026-04-25T07:37:57Z</time></trkpt><trkpt lat="43.503584198110275" lon="11.245129155138146"><ele>531.0</ele><time>2026-04-25T07:37:58Z</time></trkpt><trkpt lat="43.50348737439928" lon="11.245362542306966"><ele>531.0</ele><time>2026-04-25T07:37:59Z</time></trkpt><trkpt lat="43.5033856049404" lon="11.245543552276745"><ele>531.0</ele><time>2026-04-25T07:38:00Z</time></trkpt><trkpt lat="43.50327490074679" lon="11.245706071956855"><ele>531.0</ele><time>2026-04-25T07:38:01Z</time></trkpt><trkpt lat="43.50314272290829" lon="11.245847312917258"><ele>530.0</ele><time>2026-04-25T07:38:02Z</time></trkpt><trkpt lat="43.50298924234712" lon="11.245984078923462"><ele>529.0</ele><time>2026-04-25T07:38:03Z</time></trkpt><trkpt lat="43.502842916936935" lon="11.246130986278338"><ele>528.0</ele><time>2026-04-25T07:38:04Z</time></trkpt><trkpt lat="43.5027295608148" lon="11.246290636062483"><ele>526.6666666666666</ele><time>2026-04-25T07:38:05Z</time></trkpt><trkpt lat="43.50262938016659" lon="11.24647296065182"><ele>525.3333333333333</ele><time>2026-04-25T07:38:06Z</time></trkpt><trkpt lat="43.50254991935989" lon="11.246686355937427"><ele>524.0</ele><time>2026-04-25T07:38:07Z</time></trkpt><trkpt lat="43.50248309945994" lon="11.246909019617727"><ele>524.0</ele><time>2026-04-25T07:38:08Z</time></trkpt><trkpt lat="43.502434949556466" lon="11.247144209992708"><ele>524.0</ele><time>2026-04-25T07:38:09Z</time></trkpt><trkpt lat="43.50238892793001" lon="11.247389773534191"><ele>524.0</ele><time>2026-04-25T07:38:10Z</time></trkpt><trkpt lat="43.50234001305826" lon="11.247652575406828"><ele>525.3333333333333</ele><time>2026-04-25T07:38:11Z</time></trkpt><trkpt lat="43.5022790635181" lon="11.247905738905562"><ele>526.6666666666666</ele><time>2026-04-25T07:38:12Z</time></trkpt><trkpt lat="43.502227544501416" lon="11.248146013670418"><ele>528.0</ele><time>2026-04-25T07:38:13Z</time></trkpt><trkpt lat="43.50218375462086" lon="11.248377331223068"><ele>528.3333333333334</ele><time>2026-04-25T07:38:14Z</time></trkpt><trkpt lat="43.502167911988515" lon="11.248618168161071"><ele>528.6666666666667</ele><time>2026-04-25T07:38:15Z</time></trkpt><trkpt lat="43.50216945872152" lon="11.248861911235114"><ele>529.0</ele><time>2026-04-25T07:38:16Z</time></trkpt><trkpt lat="43.50217302331672" lon="11.249095858388406"><ele>530.25</ele><time>2026-04-25T07:38:17Z</time></trkpt><trkpt lat="43.502149791044644" lon="11.249294663081784"><ele>531.5</ele><time>2026-04-25T07:38:18Z</time></trkpt><trkpt lat="43.50209353204342" lon="11.24946506975632"><ele>532.75</ele><time>2026-04-25T07:38:19Z</time></trkpt><trkpt lat="43.50199365446224" lon="11.249601465598692"><ele>534.0</ele><time>2026-04-25T07:38:20Z</time></trkpt><trkpt lat="43.50185920447782" lon="11.249696322297467"><ele>539.6666666666666</ele><time>2026-04-25T07:38:21Z</time></trkpt><trkpt lat="43.50169439029061" lon="11.249697040955024"><ele>545.3333333333333</ele><time>2026-04-25T07:38:22Z</time></trkpt><trkpt lat="43.50152313918915" lon="11.249726775353395"><ele>551.0</ele><time>2026-04-25T07:38:23Z</time></trkpt><trkpt lat="43.501339595620585" lon="11.249727113819107"><ele>553.6666666666666</ele><time>2026-04-25T07:38:24Z</time></trkpt><trkpt lat="43.50114353233178" lon="11.249731267206409"><ele>556.3333333333334</ele><time>2026-04-25T07:38:25Z</time></trkpt><trkpt lat="43.50094824656224" lon="11.249739345828461"><ele>559.0</ele><time>2026-04-25T07:38:26Z</time></trkpt><trkpt lat="43.500732931123686" lon="11.249764064562159"><ele>559.0</ele><time>2026-04-25T07:38:27Z</time></trkpt><trkpt lat="43.500524240273286" lon="11.249782605735223"><ele>559.0</ele><time>2026-04-25T07:38:28Z</time></trkpt><trkpt lat="43.50032685065723" lon="11.249803456875295"><ele>559.0</ele><time>2026-04-25T07:38:29Z</time></trkpt><trkpt lat="43.50013279816068" lon="11.249838831151084"><ele>556.6666666666667</ele><time>2026-04-25T07:38:30Z</time></trkpt><trkpt lat="43.49993195454115" lon="11.24986646819621"><ele>554.3333333333334</ele><time>2026-04-25T07:38:31Z</time></trkpt><trkpt lat="43.49972754998323" lon="11.24989232926463"><ele>552.0</ele><time>2026-04-25T07:38:32Z</time></trkpt><trkpt lat="43.49952216472808" lon="11.249915855287297"><ele>552.0</ele><time>2026-04-25T07:38:33Z</time></trkpt><trkpt lat="43.49932367767714" lon="11.249938184590905"><ele>552.0</ele><time>2026-04-25T07:38:34Z</time></trkpt><trkpt lat="43.499135608518415" lon="11.249952418431542"><ele>552.0</ele><time>2026-04-25T07:38:35Z</time></trkpt><trkpt lat="43.49896285891603" lon="11.249982440103325"><ele>552.0</ele><time>2026-04-25T07:38:36Z</time></trkpt><trkpt lat="43.49879055824806" lon="11.25000458879215"><ele>552.0</ele><time>2026-04-25T07:38:37Z</time></trkpt><trkpt lat="43.49861907502691" lon="11.250051730981788"><ele>552.0</ele><time>2026-04-25T07:38:38Z</time></trkpt><trkpt lat="43.49844846322905" lon="11.25013239598498"><ele>553.0</ele><time>2026-04-25T07:38:39Z</time></trkpt><trkpt lat="43.49828876571463" lon="11.25025853252575"><ele>554.0</ele><time>2026-04-25T07:38:40Z</time></trkpt><trkpt lat="43.49814431658103" lon="11.250420819764232"><ele>555.0</ele><time>2026-04-25T07:38:41Z</time></trkpt><trkpt lat="43.497986280809975" lon="11.250607141714804"><ele>558.6666666666666</ele><time>2026-04-25T07:38:42Z</time></trkpt><trkpt lat="43.49785711635751" lon="11.250774460057587"><ele>562.3333333333333</ele><time>2026-04-25T07:38:43Z</time></trkpt><trkpt lat="43.49772655986272" lon="11.25090538585802"><ele>566.0</ele><time>2026-04-25T07:38:44Z</time></trkpt><trkpt lat="43.497592050454784" lon="11.250985010648979"><ele>566.0</ele><time>2026-04-25T07:38:45Z</time></trkpt><trkpt lat="43.49745085851997" lon="11.251022780818062"><ele>566.0</ele><time>2026-04-25T07:38:46.001Z</time></trkpt><trkpt lat="43.49729644963685" lon="11.251005927177387"><ele>566.0</ele><time>2026-04-25T07:38:47.001Z</time></trkpt><trkpt lat="43.497141490640615" lon="11.2509628254963"><ele>565.0</ele><time>2026-04-25T07:38:48.001Z</time></trkpt><trkpt lat="43.49697314600635" lon="11.250914736147815"><ele>564.0</ele><time>2026-04-25T07:38:49.001Z</time></trkpt><trkpt lat="43.49681598431373" lon="11.250824199565265"><ele>563.0</ele><time>2026-04-25T07:38:50.001Z</time></trkpt><trkpt lat="43.49666639302217" lon="11.250731151670902"><ele>563.0</ele><time>2026-04-25T07:38:51.001Z</time></trkpt><trkpt lat="43.49652971725849" lon="11.250635887175134"><ele>563.0</ele><time>2026-04-25T07:38:52.001Z</time></trkpt><trkpt lat="43.49640938184848" lon="11.25055086224537"><ele>563.0</ele><time>2026-04-25T07:38:53.001Z</time></trkpt><trkpt lat="43.49629698150621" lon="11.2504851907492"><ele>563.0</ele><time>2026-04-25T07:38:54.001Z</time></trkpt><trkpt lat="43.49619289243444" lon="11.25044650014993"><ele>563.25</ele><time>2026-04-25T07:38:55.001Z</time></trkpt><trkpt lat="43.49608300048566" lon="11.250444070854346"><ele>563.5</ele><time>2026-04-25T07:38:56.001Z</time></trkpt><trkpt lat="43.49595846610395" lon="11.250506367555673"><ele>563.75</ele><time>2026-04-25T07:38:57.001Z</time></trkpt><trkpt lat="43.49585208997952" lon="11.25063242409823"><ele>564.0</ele><time>2026-04-25T07:38:58.001Z</time></trkpt><trkpt lat="43.495760993411686" lon="11.250790951087685"><ele>564.0</ele><time>2026-04-25T07:38:59.001Z</time></trkpt><trkpt lat="43.49567365274962" lon="11.250971803747973"><ele>564.0</ele><time>2026-04-25T07:39:00.001Z</time></trkpt><trkpt lat="43.49558297275961" lon="11.251159036480086"><ele>564.0</ele><time>2026-04-25T07:39:01.001Z</time></trkpt><trkpt lat="43.495498389975175" lon="11.251330950316378"><ele>563.75</ele><time>2026-04-25T07:39:02.001Z</time></trkpt><trkpt lat="43.49544633620671" lon="11.251513325639035"><ele>563.5</ele><time>2026-04-25T07:39:03.001Z</time></trkpt><trkpt lat="43.49541450035942" lon="11.25170749557041"><ele>563.25</ele><time>2026-04-25T07:39:04.001Z</time></trkpt><trkpt lat="43.495384485327044" lon="11.25191604100584"><ele>563.0</ele><time>2026-04-25T07:39:05.001Z</time></trkpt><trkpt lat="43.49534808492859" lon="11.25215039391602"><ele>563.75</ele><time>2026-04-25T07:39:06.001Z</time></trkpt><trkpt lat="43.495295158469546" lon="11.252348574900976"><ele>564.5</ele><time>2026-04-25T07:39:07.001Z</time></trkpt><trkpt lat="43.49523257928908" lon="11.252531490193077"><ele>565.25</ele><time>2026-04-25T07:39:08Z</time></trkpt><trkpt lat="43.495148956123685" lon="11.25269448906205"><ele>566.0</ele><time>2026-04-25T07:39:09Z</time></trkpt><trkpt lat="43.495063203587875" lon="11.252831034157284"><ele>566.0</ele><time>2026-04-25T07:39:10Z</time></trkpt><trkpt lat="43.49496689842742" lon="11.252955278047942"><ele>566.0</ele><time>2026-04-25T07:39:11Z</time></trkpt><trkpt lat="43.494874263580186" lon="11.25306767170382"><ele>566.0</ele><time>2026-04-25T07:39:12Z</time></trkpt><trkpt lat="43.494789402867575" lon="11.25319421790595"><ele>566.0</ele><time>2026-04-25T07:39:13Z</time></trkpt><trkpt lat="43.494721162325625" lon="11.253344499951234"><ele>567.75</ele><time>2026-04-25T07:39:14Z</time></trkpt><trkpt lat="43.49469137441552" lon="11.25352816173833"><ele>569.5</ele><time>2026-04-25T07:39:15Z</time></trkpt><trkpt lat="43.49467121971303" lon="11.253718613820494"><ele>571.25</ele><time>2026-04-25T07:39:16Z</time></trkpt><trkpt lat="43.49466079145372" lon="11.25388995752496"><ele>573.0</ele><time>2026-04-25T07:39:17Z</time></trkpt><trkpt lat="43.494662349904914" lon="11.25404255839583"><ele>574.25</ele><time>2026-04-25T07:39:18Z</time></trkpt><trkpt lat="43.49466516968356" lon="11.25419730310975"><ele>575.5</ele><time>2026-04-25T07:39:19Z</time></trkpt><trkpt lat="43.494663358256766" lon="11.254354119236181"><ele>576.75</ele><time>2026-04-25T07:39:20Z</time></trkpt><trkpt lat="43.4946565528633" lon="11.25453193195713"><ele>578.0</ele><time>2026-04-25T07:39:21Z</time></trkpt><trkpt lat="43.49464840821329" lon="11.25472203880578"><ele>578.25</ele><time>2026-04-25T07:39:22Z</time></trkpt><trkpt lat="43.49462359748324" lon="11.254922634887208"><ele>578.5</ele><time>2026-04-25T07:39:23Z</time></trkpt><trkpt lat="43.49456527484266" lon="11.255115145699394"><ele>578.75</ele><time>2026-04-25T07:39:24Z</time></trkpt><trkpt lat="43.494491784363184" lon="11.255281423783403"><ele>579.0</ele><time>2026-04-25T07:39:25Z</time></trkpt><trkpt lat="43.49442272961474" lon="11.255448741942871"><ele>580.25</ele><time>2026-04-25T07:39:26Z</time></trkpt><trkpt lat="43.494349148440456" lon="11.25560475742903"><ele>581.5</ele><time>2026-04-25T07:39:27Z</time></trkpt><trkpt lat="43.494272310954614" lon="11.255725639542604"><ele>582.75</ele><time>2026-04-25T07:39:28Z</time></trkpt><trkpt lat="43.494153622545454" lon="11.255795789175577"><ele>584.0</ele><time>2026-04-25T07:39:29Z</time></trkpt><trkpt lat="43.494023907401036" lon="11.255819776080374"><ele>584.0</ele><time>2026-04-25T07:39:30Z</time></trkpt><trkpt lat="43.49389989510465" lon="11.255778497604993"><ele>584.0</ele><time>2026-04-25T07:39:31Z</time></trkpt><trkpt lat="43.49375920698198" lon="11.255729327064017"><ele>584.0</ele><time>2026-04-25T07:39:32Z</time></trkpt><trkpt lat="43.493638372634685" lon="11.255703570136083"><ele>584.0</ele><time>2026-04-25T07:39:33Z</time></trkpt><trkpt lat="43.49354273678007" lon="11.255669209739695"><ele>584.0</ele><time>2026-04-25T07:39:34Z</time></trkpt><trkpt lat="43.493467698620165" lon="11.255665881995869"><ele>584.0</ele><time>2026-04-25T07:39:35Z</time></trkpt><trkpt lat="43.49339305541586" lon="11.255679343165744"><ele>584.0</ele><time>2026-04-25T07:39:37Z</time></trkpt><trkpt lat="43.49333693698257" lon="11.255727398840746"><ele>584.0</ele><time>2026-04-25T07:41:12Z</time></trkpt><trkpt lat="43.493276812371946" lon="11.255853673719145"><ele>584.0</ele><time>2026-04-25T07:41:14Z</time></trkpt><trkpt lat="43.49323159125969" lon="11.255953978930814"><ele>584.0</ele><time>2026-04-25T07:41:15Z</time></trkpt><trkpt lat="43.49318848244433" lon="11.256083687121267"><ele>584.0</ele><time>2026-04-25T07:41:16Z</time></trkpt><trkpt lat="43.49315556366282" lon="11.256228314851842"><ele>584.0</ele><time>2026-04-25T07:41:17Z</time></trkpt><trkpt lat="43.49312744659352" lon="11.256394441836903"><ele>584.0</ele><time>2026-04-25T07:41:18Z</time></trkpt><trkpt lat="43.49310087865734" lon="11.256587060325469"><ele>584.0</ele><time>2026-04-25T07:41:19Z</time></trkpt><trkpt lat="43.49307958158367" lon="11.256780341219654"><ele>585.3333333333333</ele><time>2026-04-25T07:41:20Z</time></trkpt><trkpt lat="43.493049745209774" lon="11.256984513038935"><ele>586.6666666666666</ele><time>2026-04-25T07:41:21Z</time></trkpt><trkpt lat="43.49299935150516" lon="11.257194259166836"><ele>588.0</ele><time>2026-04-25T07:41:22Z</time></trkpt><trkpt lat="43.492919348238736" lon="11.257361662439274"><ele>588.3333333333334</ele><time>2026-04-25T07:41:23Z</time></trkpt><trkpt lat="43.49280577604857" lon="11.25750843945181"><ele>588.6666666666667</ele><time>2026-04-25T07:41:24Z</time></trkpt><trkpt lat="43.49265732345747" lon="11.257620075792348"><ele>589.0</ele><time>2026-04-25T07:41:25Z</time></trkpt><trkpt lat="43.49248374283665" lon="11.257712837187839"><ele>589.0</ele><time>2026-04-25T07:41:26Z</time></trkpt><trkpt lat="43.49233145852751" lon="11.25782240742656"><ele>589.0</ele><time>2026-04-25T07:41:27Z</time></trkpt><trkpt lat="43.492218943934056" lon="11.257976446153101"><ele>589.0</ele><time>2026-04-25T07:41:28Z</time></trkpt><trkpt lat="43.49210229186556" lon="11.258182082256095"><ele>587.6666666666667</ele><time>2026-04-25T07:41:29Z</time></trkpt><trkpt lat="43.49195421648866" lon="11.258404767175245"><ele>586.3333333333334</ele><time>2026-04-25T07:41:30Z</time></trkpt><trkpt lat="43.4918019076552" lon="11.258634261182442"><ele>585.0</ele><time>2026-04-25T07:41:31Z</time></trkpt><trkpt lat="43.491636207635814" lon="11.258832657276763"><ele>587.0</ele><time>2026-04-25T07:41:32Z</time></trkpt><trkpt lat="43.49145678678443" lon="11.258989308174314"><ele>589.0</ele><time>2026-04-25T07:41:33Z</time></trkpt><trkpt lat="43.491262305473604" lon="11.259118829615744"><ele>591.0</ele><time>2026-04-25T07:41:34Z</time></trkpt><trkpt lat="43.491081546632216" lon="11.259217612201457"><ele>593.3333333333334</ele><time>2026-04-25T07:41:35Z</time></trkpt><trkpt lat="43.490920299435246" lon="11.25930048159005"><ele>595.6666666666667</ele><time>2026-04-25T07:41:36Z</time></trkpt><trkpt lat="43.490771441124764" lon="11.25939236123601"><ele>598.0</ele><time>2026-04-25T07:41:37Z</time></trkpt><trkpt lat="43.490642432736706" lon="11.259474480199156"><ele>598.0</ele><time>2026-04-25T07:41:38Z</time></trkpt><trkpt lat="43.49052209152494" lon="11.259553105776412"><ele>598.0</ele><time>2026-04-25T07:41:39Z</time></trkpt><trkpt lat="43.49042213311566" lon="11.259657854115096"><ele>598.0</ele><time>2026-04-25T07:41:40Z</time></trkpt><trkpt lat="43.49033268954223" lon="11.259812110448555"><ele>598.0</ele><time>2026-04-25T07:41:41Z</time></trkpt><trkpt lat="43.49026259922847" lon="11.260005147576786"><ele>597.3333333333334</ele><time>2026-04-25T07:41:42Z</time></trkpt><trkpt lat="43.49019327266702" lon="11.260230578313264"><ele>596.6666666666666</ele><time>2026-04-25T07:41:43Z</time></trkpt><trkpt lat="43.490096293772666" lon="11.260456038734928"><ele>596.0</ele><time>2026-04-25T07:41:44Z</time></trkpt><trkpt lat="43.48995783841785" lon="11.260620981334437"><ele>596.0</ele><time>2026-04-25T07:41:45Z</time></trkpt><trkpt lat="43.489782360733564" lon="11.260684670329868"><ele>596.0</ele><time>2026-04-25T07:41:46Z</time></trkpt><trkpt lat="43.4896011706712" lon="11.260722239039483"><ele>596.0</ele><time>2026-04-25T07:41:47Z</time></trkpt><trkpt lat="43.489411485111425" lon="11.260756322007122"><ele>595.6666666666666</ele><time>2026-04-25T07:41:48Z</time></trkpt><trkpt lat="43.489246938557734" lon="11.260781390938531"><ele>595.3333333333334</ele><time>2026-04-25T07:41:49Z</time></trkpt><trkpt lat="43.48910446758053" lon="11.26086066862331"><ele>595.0</ele><time>2026-04-25T07:41:50Z</time></trkpt><trkpt lat="43.48895521166193" lon="11.260983662916262"><ele>595.0</ele><time>2026-04-25T07:41:51Z</time></trkpt><trkpt lat="43.48880179206779" lon="11.261123992302391"><ele>595.0</ele><time>2026-04-25T07:41:52Z</time></trkpt><trkpt lat="43.488632422614515" lon="11.261261320220116"><ele>595.0</ele><time>2026-04-25T07:41:53Z</time></trkpt><trkpt lat="43.48846554847038" lon="11.261379743074182"><ele>595.6666666666667</ele><time>2026-04-25T07:41:54Z</time></trkpt><trkpt lat="43.48830118649834" lon="11.261496520085249"><ele>596.3333333333334</ele><time>2026-04-25T07:41:55Z</time></trkpt><trkpt lat="43.48813079391996" lon="11.26160287234914"><ele>597.0</ele><time>2026-04-25T07:41:56Z</time></trkpt><trkpt lat="43.48796468490756" lon="11.26169819630212"><ele>596.3333333333334</ele><time>2026-04-25T07:41:57Z</time></trkpt><trkpt lat="43.487809797134865" lon="11.261799713170717"><ele>595.6666666666667</ele><time>2026-04-25T07:41:58Z</time></trkpt><trkpt lat="43.48768653009324" lon="11.261928486788184"><ele>595.0</ele><time>2026-04-25T07:41:59Z</time></trkpt><trkpt lat="43.48757100017799" lon="11.26211980608824"><ele>594.6666666666667</ele><time>2026-04-25T07:42:00Z</time></trkpt><trkpt lat="43.487461356657604" lon="11.26233216810156"><ele>594.3333333333334</ele><time>2026-04-25T07:42:01Z</time></trkpt><trkpt lat="43.48734162864435" lon="11.262554350300093"><ele>594.0</ele><time>2026-04-25T07:42:02Z</time></trkpt><trkpt lat="43.48719221140542" lon="11.26274664925129"><ele>592.3333333333334</ele><time>2026-04-25T07:42:03Z</time></trkpt><trkpt lat="43.48703906917027" lon="11.262904160812994"><ele>590.6666666666667</ele><time>2026-04-25T07:42:04Z</time></trkpt><trkpt lat="43.48687631647559" lon="11.26305065390662"><ele>589.0</ele><time>2026-04-25T07:42:05Z</time></trkpt><trkpt lat="43.48671356275016" lon="11.263154914872564"><ele>592.0</ele><time>2026-04-25T07:42:06Z</time></trkpt><trkpt lat="43.48653447372056" lon="11.26324405307902"><ele>595.0</ele><time>2026-04-25T07:42:07Z</time></trkpt><trkpt lat="43.486346662596155" lon="11.263341493524377"><ele>598.0</ele><time>2026-04-25T07:42:08Z</time></trkpt><trkpt lat="43.48616607229337" lon="11.26344026771557"><ele>598.0</ele><time>2026-04-25T07:42:09Z</time></trkpt><trkpt lat="43.486002660883" lon="11.26352050337143"><ele>598.0</ele><time>2026-04-25T07:42:10Z</time></trkpt><trkpt lat="43.48582876377396" lon="11.263588189887658"><ele>598.0</ele><time>2026-04-25T07:42:10.999Z</time></trkpt><trkpt lat="43.48564322877659" lon="11.263642343717137"><ele>598.0</ele><time>2026-04-25T07:42:11.999Z</time></trkpt><trkpt lat="43.48544834502251" lon="11.263711736434374"><ele>598.0</ele><time>2026-04-25T07:42:12.999Z</time></trkpt><trkpt lat="43.48524640440276" lon="11.263798571230948"><ele>598.0</ele><time>2026-04-25T07:42:13.999Z</time></trkpt><trkpt lat="43.48504669602303" lon="11.263921776110186"><ele>597.0</ele><time>2026-04-25T07:42:14.999Z</time></trkpt><trkpt lat="43.484860638536354" lon="11.264085485268701"><ele>596.0</ele><time>2026-04-25T07:42:15.999Z</time></trkpt><trkpt lat="43.48469051041547" lon="11.26429117975043"><ele>595.0</ele><time>2026-04-25T07:42:16.999Z</time></trkpt><trkpt lat="43.484527424360316" lon="11.264518108951089"><ele>593.0</ele><time>2026-04-25T07:42:17.999Z</time></trkpt><trkpt lat="43.48435870061102" lon="11.264751167241814"><ele>591.0</ele><time>2026-04-25T07:42:18.999Z</time></trkpt><trkpt lat="43.484188878987936" lon="11.264946641262044"><ele>591.0</ele><time>2026-04-25T07:42:19.999Z</time></trkpt><trkpt lat="43.48401316798151" lon="11.265121968384651"><ele>591.0</ele><time>2026-04-25T07:42:20.999Z</time></trkpt><trkpt lat="43.48383638657194" lon="11.2652800186375"><ele>591.0</ele><time>2026-04-25T07:42:21.999Z</time></trkpt><trkpt lat="43.48365519546996" lon="11.265425162310052"><ele>591.6666666666666</ele><time>2026-04-25T07:42:22.999Z</time></trkpt><trkpt lat="43.483485712018805" lon="11.265572598248962"><ele>592.3333333333333</ele><time>2026-04-25T07:42:23.999Z</time></trkpt><trkpt lat="43.483347780126145" lon="11.265740505232602"><ele>593.0</ele><time>2026-04-25T07:42:24.999Z</time></trkpt><trkpt lat="43.483241801990914" lon="11.265930103195496"><ele>593.0</ele><time>2026-04-25T07:42:25.999Z</time></trkpt><trkpt lat="43.48317148371478" lon="11.266142767672347"><ele>593.0</ele><time>2026-04-25T07:42:26.999Z</time></trkpt><trkpt lat="43.48312033427301" lon="11.266388321930599"><ele>593.0</ele><time>2026-04-25T07:42:27.999Z</time></trkpt><trkpt lat="43.48309675711224" lon="11.266597297035775"><ele>594.3333333333333</ele><time>2026-04-25T07:42:28.999Z</time></trkpt><trkpt lat="43.48305058330864" lon="11.266822213466961"><ele>595.6666666666666</ele><time>2026-04-25T07:42:29.999Z</time></trkpt><trkpt lat="43.48295020985627" lon="11.267029505461235"><ele>597.0</ele><time>2026-04-25T07:42:30.999Z</time></trkpt><trkpt lat="43.48280453029434" lon="11.2672092185915"><ele>598.0</ele><time>2026-04-25T07:42:31.999Z</time></trkpt><trkpt lat="43.482632053703085" lon="11.267362798095425"><ele>599.0</ele><time>2026-04-25T07:42:32.999Z</time></trkpt><trkpt lat="43.48245196442192" lon="11.267501675316508"><ele>600.0</ele><time>2026-04-25T07:42:33.999Z</time></trkpt><trkpt lat="43.48228827209832" lon="11.267630190502057"><ele>600.0</ele><time>2026-04-25T07:42:34.999Z</time></trkpt><trkpt lat="43.482131630116946" lon="11.267752403180852"><ele>600.0</ele><time>2026-04-25T07:42:35.999Z</time></trkpt><trkpt lat="43.48197139199564" lon="11.267888572719563"><ele>600.0</ele><time>2026-04-25T07:42:36.999Z</time></trkpt><trkpt lat="43.481808355688585" lon="11.268027600407034"><ele>604.0</ele><time>2026-04-25T07:42:37.999Z</time></trkpt><trkpt lat="43.481627847311984" lon="11.268138605057828"><ele>608.0</ele><time>2026-04-25T07:42:38.999Z</time></trkpt><trkpt lat="43.48144418179629" lon="11.26821623132325"><ele>612.0</ele><time>2026-04-25T07:42:39.999Z</time></trkpt><trkpt lat="43.48126608101767" lon="11.268278665030971"><ele>613.0</ele><time>2026-04-25T07:42:40.999Z</time></trkpt><trkpt lat="43.48110236253616" lon="11.268338758042006"><ele>614.0</ele><time>2026-04-25T07:42:41.999Z</time></trkpt><trkpt lat="43.48095590436364" lon="11.268376834289729"><ele>615.0</ele><time>2026-04-25T07:42:42.999Z</time></trkpt><trkpt lat="43.48080924274139" lon="11.26835546335209"><ele>615.0</ele><time>2026-04-25T07:42:43.999Z</time></trkpt><trkpt lat="43.48064469461271" lon="11.268331887119995"><ele>615.0</ele><time>2026-04-25T07:42:44.999Z</time></trkpt><trkpt lat="43.48046708214385" lon="11.268320301123154"><ele>615.0</ele><time>2026-04-25T07:42:45.999Z</time></trkpt><trkpt lat="43.48029408306918" lon="11.268253228428694"><ele>615.0</ele><time>2026-04-25T07:42:46.999Z</time></trkpt><trkpt lat="43.48011433889528" lon="11.26819699001228"><ele>615.0</ele><time>2026-04-25T07:42:47.999Z</time></trkpt><trkpt lat="43.479928194992006" lon="11.268167734862807"><ele>615.0</ele><time>2026-04-25T07:42:48.999Z</time></trkpt><trkpt lat="43.47974057209644" lon="11.268129458552032"><ele>616.6666666666666</ele><time>2026-04-25T07:42:49.999Z</time></trkpt><trkpt lat="43.47954527230088" lon="11.26810630513427"><ele>618.3333333333333</ele><time>2026-04-25T07:42:50.999Z</time></trkpt><trkpt lat="43.47934680016396" lon="11.26809466768195"><ele>620.0</ele><time>2026-04-25T07:42:51.999Z</time></trkpt><trkpt lat="43.479159634942334" lon="11.268086492846454"><ele>620.0</ele><time>2026-04-25T07:42:52.999Z</time></trkpt><trkpt lat="43.4789953889744" lon="11.268081896192205"><ele>620.0</ele><time>2026-04-25T07:42:53.999Z</time></trkpt><trkpt lat="43.47884447509229" lon="11.26808446130351"><ele>620.0</ele><time>2026-04-25T07:42:54.999Z</time></trkpt><trkpt lat="43.47869634823253" lon="11.268125020648258"><ele>621.6666666666666</ele><time>2026-04-25T07:42:55.999Z</time></trkpt><trkpt lat="43.47855851197569" lon="11.268220481300325"><ele>623.3333333333334</ele><time>2026-04-25T07:42:56.999Z</time></trkpt><trkpt lat="43.47843746708694" lon="11.26836355483504"><ele>625.0</ele><time>2026-04-25T07:42:58Z</time></trkpt><trkpt lat="43.47831186410802" lon="11.268519512478155"><ele>625.0</ele><time>2026-04-25T07:42:59Z</time></trkpt><trkpt lat="43.47817717317202" lon="11.26868666636913"><ele>625.0</ele><time>2026-04-25T07:43:00Z</time></trkpt><trkpt lat="43.478040814801055" lon="11.268866678235268"><ele>625.0</ele><time>2026-04-25T07:43:01Z</time></trkpt><trkpt lat="43.477901980288074" lon="11.269064546684625"><ele>625.0</ele><time>2026-04-25T07:43:02Z</time></trkpt><trkpt lat="43.47776236287537" lon="11.26927772925728"><ele>625.0</ele><time>2026-04-25T07:43:03Z</time></trkpt><trkpt lat="43.477616472436665" lon="11.269471728183305"><ele>625.0</ele><time>2026-04-25T07:43:04Z</time></trkpt><trkpt lat="43.47746209959441" lon="11.269653532337054"><ele>624.6666666666667</ele><time>2026-04-25T07:43:05Z</time></trkpt><trkpt lat="43.477310926489054" lon="11.269829888457712"><ele>624.3333333333334</ele><time>2026-04-25T07:43:06Z</time></trkpt><trkpt lat="43.4771682414159" lon="11.270001742072324"><ele>624.0</ele><time>2026-04-25T07:43:07Z</time></trkpt><trkpt lat="43.47704370358793" lon="11.2701953429583"><ele>624.0</ele><time>2026-04-25T07:43:08Z</time></trkpt><trkpt lat="43.47694639269594" lon="11.270405191687798"><ele>624.0</ele><time>2026-04-25T07:43:09Z</time></trkpt><trkpt lat="43.476858615295775" lon="11.270614585077578"><ele>624.0</ele><time>2026-04-25T07:43:10Z</time></trkpt><trkpt lat="43.476759725239816" lon="11.27084846978965"><ele>624.6666666666666</ele><time>2026-04-25T07:43:11Z</time></trkpt><trkpt lat="43.47665025301283" lon="11.271097532013092"><ele>625.3333333333333</ele><time>2026-04-25T07:43:12Z</time></trkpt><trkpt lat="43.47654175665997" lon="11.271348032122516"><ele>626.0</ele><time>2026-04-25T07:43:13Z</time></trkpt><trkpt lat="43.476431253084016" lon="11.271601486856316"><ele>617.5</ele><time>2026-04-25T07:43:14Z</time></trkpt><trkpt lat="43.47625730881311" lon="11.271823108654237"><ele>609.0</ele><time>2026-04-25T07:43:15Z</time></trkpt><trkpt lat="43.476084110563235" lon="11.272045370359896"><ele>609.0</ele><time>2026-04-25T07:43:17Z</time></trkpt><trkpt lat="43.47591903356685" lon="11.272215752174823"><ele>609.0</ele><time>2026-04-25T07:43:18Z</time></trkpt><trkpt lat="43.475750152673086" lon="11.272380950310042"><ele>609.0</ele><time>2026-04-25T07:43:19Z</time></trkpt><trkpt lat="43.47559219633061" lon="11.272549132508596"><ele>609.3333333333334</ele><time>2026-04-25T07:43:20Z</time></trkpt><trkpt lat="43.475458561097916" lon="11.272729801178"><ele>609.6666666666667</ele><time>2026-04-25T07:43:21Z</time></trkpt><trkpt lat="43.4753319909926" lon="11.272939067208563"><ele>610.0</ele><time>2026-04-25T07:43:22Z</time></trkpt><trkpt lat="43.47521039340499" lon="11.273164397069353"><ele>610.0</ele><time>2026-04-25T07:43:23Z</time></trkpt><trkpt lat="43.475096825263485" lon="11.273374944984882"><ele>610.0</ele><time>2026-04-25T07:43:24Z</time></trkpt><trkpt lat="43.47499500641989" lon="11.27357849774117"><ele>610.0</ele><time>2026-04-25T07:43:25Z</time></trkpt><trkpt lat="43.47490195702032" lon="11.273800523238299"><ele>610.3333333333334</ele><time>2026-04-25T07:43:26Z</time></trkpt><trkpt lat="43.47483057620241" lon="11.274036849555616"><ele>610.6666666666666</ele><time>2026-04-25T07:43:27Z</time></trkpt><trkpt lat="43.47478700664653" lon="11.274295122698327"><ele>611.0</ele><time>2026-04-25T07:43:28Z</time></trkpt><trkpt lat="43.47474836524164" lon="11.274567457889669"><ele>611.6666666666666</ele><time>2026-04-25T07:43:29Z</time></trkpt><trkpt lat="43.474717916312336" lon="11.274843275392332"><ele>612.3333333333334</ele><time>2026-04-25T07:43:30Z</time></trkpt><trkpt lat="43.474709287961254" lon="11.275108281265368"><ele>613.0</ele><time>2026-04-25T07:43:31Z</time></trkpt><trkpt lat="43.474715398662056" lon="11.275363696990716"><ele>614.0</ele><time>2026-04-25T07:43:32Z</time></trkpt><trkpt lat="43.474741635668146" lon="11.275615737995695"><ele>615.0</ele><time>2026-04-25T07:43:33Z</time></trkpt><trkpt lat="43.47477260424925" lon="11.275861641111055"><ele>616.0</ele><time>2026-04-25T07:43:34Z</time></trkpt><trkpt lat="43.47478530364322" lon="11.276100475238483"><ele>616.0</ele><time>2026-04-25T07:43:35Z</time></trkpt><trkpt lat="43.47478708317244" lon="11.276347594890952"><ele>616.0</ele><time>2026-04-25T07:43:36Z</time></trkpt><trkpt lat="43.474773681839864" lon="11.276579399271522"><ele>616.0</ele><time>2026-04-25T07:43:37Z</time></trkpt><trkpt lat="43.47472815917699" lon="11.276763903853174"><ele>615.3333333333334</ele><time>2026-04-25T07:43:38Z</time></trkpt><trkpt lat="43.474669867450864" lon="11.276935700563044"><ele>614.6666666666666</ele><time>2026-04-25T07:43:39Z</time></trkpt><trkpt lat="43.47457529019248" lon="11.277113058876688"><ele>614.0</ele><time>2026-04-25T07:43:40Z</time></trkpt><trkpt lat="43.474473863937526" lon="11.27727526084663"><ele>611.6666666666666</ele><time>2026-04-25T07:43:41Z</time></trkpt><trkpt lat="43.47437943658634" lon="11.277451782581704"><ele>609.3333333333334</ele><time>2026-04-25T07:43:42Z</time></trkpt><trkpt lat="43.47429534510037" lon="11.277634917040332"><ele>607.0</ele><time>2026-04-25T07:43:43Z</time></trkpt><trkpt lat="43.474208599973124" lon="11.277815337015332"><ele>607.0</ele><time>2026-04-25T07:43:44Z</time></trkpt><trkpt lat="43.474119089480624" lon="11.277997008903341"><ele>607.0</ele><time>2026-04-25T07:43:45Z</time></trkpt><trkpt lat="43.47402890683617" lon="11.278181853854546"><ele>607.0</ele><time>2026-04-25T07:43:46Z</time></trkpt><trkpt lat="43.47393498363432" lon="11.27837568832265"><ele>605.3333333333334</ele><time>2026-04-25T07:43:47Z</time></trkpt><trkpt lat="43.473837979155185" lon="11.278572330257656"><ele>603.6666666666666</ele><time>2026-04-25T07:43:48Z</time></trkpt><trkpt lat="43.47373269986385" lon="11.278760094948312"><ele>602.0</ele><time>2026-04-25T07:43:49Z</time></trkpt><trkpt lat="43.47361089159468" lon="11.278928916938735"><ele>600.0</ele><time>2026-04-25T07:43:50Z</time></trkpt><trkpt lat="43.47348262981395" lon="11.27907965568914"><ele>598.0</ele><time>2026-04-25T07:43:51Z</time></trkpt><trkpt lat="43.473377117416454" lon="11.279226488282964"><ele>596.0</ele><time>2026-04-25T07:43:52Z</time></trkpt><trkpt lat="43.47329593157533" lon="11.279363149154948"><ele>594.0</ele><time>2026-04-25T07:43:53Z</time></trkpt><trkpt lat="43.47323673260845" lon="11.279488460656912"><ele>594.0</ele><time>2026-04-25T07:43:54Z</time></trkpt><trkpt lat="43.47320312601512" lon="11.279621426764397"><ele>594.0</ele><time>2026-04-25T07:43:55Z</time></trkpt><trkpt lat="43.47317195810236" lon="11.27973957150503"><ele>594.0</ele><time>2026-04-25T07:43:56Z</time></trkpt><trkpt lat="43.47314324036733" lon="11.279860613362146"><ele>594.0</ele><time>2026-04-25T07:43:57Z</time></trkpt><trkpt lat="43.47311757035279" lon="11.279999441185746"><ele>594.0</ele><time>2026-04-25T07:43:58Z</time></trkpt><trkpt lat="43.47308127092243" lon="11.280144240134415"><ele>592.6</ele><time>2026-04-25T07:43:59Z</time></trkpt><trkpt lat="43.47304362613649" lon="11.280295278407133"><ele>591.2</ele><time>2026-04-25T07:44:00Z</time></trkpt><trkpt lat="43.47300238505964" lon="11.280441848364406"><ele>589.8000000000001</ele><time>2026-04-25T07:44:01Z</time></trkpt><trkpt lat="43.47294913795658" lon="11.280560617558637"><ele>588.4</ele><time>2026-04-25T07:44:02Z</time></trkpt><trkpt lat="43.47290019432898" lon="11.280660200630134"><ele>587.0</ele><time>2026-04-25T07:44:03Z</time></trkpt><trkpt lat="43.472859800130166" lon="11.280750129083723"><ele>586.8000000000001</ele><time>2026-04-25T07:44:04Z</time></trkpt><trkpt lat="43.472820980832736" lon="11.280827248526732"><ele>586.6</ele><time>2026-04-25T07:44:05Z</time></trkpt><trkpt lat="43.47276507810456" lon="11.280944828199043"><ele>586.4000000000001</ele><time>2026-04-25T07:44:07Z</time></trkpt><trkpt lat="43.47269231179853" lon="11.281089796111118"><ele>586.2</ele><time>2026-04-25T07:44:09Z</time></trkpt><trkpt lat="43.47263647428383" lon="11.28117740639143"><ele>586.0</ele><time>2026-04-25T07:44:10Z</time></trkpt><trkpt lat="43.47257783887133" lon="11.281255426284703"><ele>586.0</ele><time>2026-04-25T07:44:11Z</time></trkpt><trkpt lat="43.472523158197205" lon="11.281316595858774"><ele>586.0</ele><time>2026-04-25T07:44:12Z</time></trkpt><trkpt lat="43.47246046591057" lon="11.281387666940155"><ele>586.0</ele><time>2026-04-25T07:44:13Z</time></trkpt><trkpt lat="43.47239554533486" lon="11.28146197143884"><ele>586.0</ele><time>2026-04-25T07:44:14Z</time></trkpt><trkpt lat="43.47233419309289" lon="11.281543339323042"><ele>586.0</ele><time>2026-04-25T07:44:15Z</time></trkpt><trkpt lat="43.47228693632327" lon="11.281619634670516"><ele>586.0</ele><time>2026-04-25T07:44:16Z</time></trkpt><trkpt lat="43.47224768246681" lon="11.281689329954595"><ele>586.2857142857142</ele><time>2026-04-25T07:44:16.999Z</time></trkpt><trkpt lat="43.47220091548005" lon="11.281748733239713"><ele>586.5714285714286</ele><time>2026-04-25T07:44:17.999Z</time></trkpt><trkpt lat="43.472157901300726" lon="11.28182457271637"><ele>586.8571428571429</ele><time>2026-04-25T07:44:18.999Z</time></trkpt><trkpt lat="43.47212261963779" lon="11.281908592798688"><ele>587.1428571428571</ele><time>2026-04-25T07:44:19.999Z</time></trkpt><trkpt lat="43.47209209273224" lon="11.282000573251455"><ele>587.4285714285714</ele><time>2026-04-25T07:44:20.999Z</time></trkpt><trkpt lat="43.47206887852567" lon="11.28211165124601"><ele>587.7142857142857</ele><time>2026-04-25T07:44:21.999Z</time></trkpt><trkpt lat="43.47204870543035" lon="11.282226475331862"><ele>588.0</ele><time>2026-04-25T07:44:22.999Z</time></trkpt><trkpt lat="43.472028579580204" lon="11.282333904128256"><ele>587.3333333333334</ele><time>2026-04-25T07:44:23.999Z</time></trkpt><trkpt lat="43.47200405116039" lon="11.282435658956787"><ele>586.6666666666666</ele><time>2026-04-25T07:44:24.999Z</time></trkpt><trkpt lat="43.471985438876835" lon="11.282545303241251"><ele>586.0</ele><time>2026-04-25T07:44:25.999Z</time></trkpt><trkpt lat="43.471958088264316" lon="11.282662746309251"><ele>585.3333333333333</ele><time>2026-04-25T07:44:26.999Z</time></trkpt><trkpt lat="43.471935947143876" lon="11.282782564231395"><ele>584.6666666666666</ele><time>2026-04-25T07:44:27.999Z</time></trkpt><trkpt lat="43.471914468053924" lon="11.282894940533724"><ele>584.0</ele><time>2026-04-25T07:44:28.999Z</time></trkpt><trkpt lat="43.471891464903216" lon="11.283018623976501"><ele>583.2</ele><time>2026-04-25T07:44:29.999Z</time></trkpt><trkpt lat="43.47186671556537" lon="11.283136329448741"><ele>582.4</ele><time>2026-04-25T07:44:30.999Z</time></trkpt><trkpt lat="43.471840184474985" lon="11.283249024894552"><ele>581.6</ele><time>2026-04-25T07:44:31.999Z</time></trkpt><trkpt lat="43.471812362054216" lon="11.283369328493977"><ele>580.8</ele><time>2026-04-25T07:44:32.999Z</time></trkpt><trkpt lat="43.47178659505597" lon="11.283492379654225"><ele>580.0</ele><time>2026-04-25T07:44:33.999Z</time></trkpt><trkpt lat="43.47175998028013" lon="11.283618854407624"><ele>580.0</ele><time>2026-04-25T07:44:34.999Z</time></trkpt><trkpt lat="43.47173255077634" lon="11.283746268573482"><ele>580.0</ele><time>2026-04-25T07:44:35.999Z</time></trkpt><trkpt lat="43.471707306293965" lon="11.283871277731864"><ele>580.0</ele><time>2026-04-25T07:44:36.999Z</time></trkpt><trkpt lat="43.47168088082492" lon="11.28398300568037"><ele>580.0</ele><time>2026-04-25T07:44:37.999Z</time></trkpt><trkpt lat="43.47165447551059" lon="11.284101686689757"><ele>580.0</ele><time>2026-04-25T07:44:38.999Z</time></trkpt><trkpt lat="43.47162841735254" lon="11.28421976618448"><ele>579.8333333333334</ele><time>2026-04-25T07:44:39.999Z</time></trkpt><trkpt lat="43.471611182825704" lon="11.284325860101912"><ele>579.6666666666667</ele><time>2026-04-25T07:44:40.999Z</time></trkpt><trkpt lat="43.47160078399957" lon="11.284429071337572"><ele>579.5</ele><time>2026-04-25T07:44:41.999Z</time></trkpt><trkpt lat="43.47158883375466" lon="11.284534920181425"><ele>579.3333333333334</ele><time>2026-04-25T07:44:42.999Z</time></trkpt><trkpt lat="43.47157881411498" lon="11.284652953598382"><ele>579.1666666666666</ele><time>2026-04-25T07:44:43.999Z</time></trkpt><trkpt lat="43.47157251587117" lon="11.28474899555032"><ele>579.0</ele><time>2026-04-25T07:44:44.999Z</time></trkpt><trkpt lat="43.47156813260082" lon="11.284843927119978"><ele>578.4</ele><time>2026-04-25T07:44:45.999Z</time></trkpt><trkpt lat="43.471545561773446" lon="11.285022095257013"><ele>577.8</ele><time>2026-04-25T07:44:47.999Z</time></trkpt><trkpt lat="43.47152126613287" lon="11.285175163768766"><ele>577.2</ele><time>2026-04-25T07:44:49.999Z</time></trkpt><trkpt lat="43.47149697689341" lon="11.285278350534643"><ele>576.6</ele><time>2026-04-25T07:44:51.999Z</time></trkpt><trkpt lat="43.47148261872805" lon="11.285364597032258"><ele>576.0</ele><time>2026-04-25T07:46:01Z</time></trkpt><trkpt lat="43.471481796935436" lon="11.285482380202774"><ele>576.0</ele><time>2026-04-25T07:46:12Z</time></trkpt><trkpt lat="43.471576410333356" lon="11.285556557666418"><ele>576.0</ele><time>2026-04-25T07:46:14Z</time></trkpt><trkpt lat="43.47166432162808" lon="11.285564892722203"><ele>576.0</ele><time>2026-04-25T07:46:15Z</time></trkpt><trkpt lat="43.471767540303304" lon="11.285594853697363"><ele>576.0</ele><time>2026-04-25T07:46:16Z</time></trkpt><trkpt lat="43.47186032157521" lon="11.285630532292206"><ele>576.0</ele><time>2026-04-25T07:46:17Z</time></trkpt><trkpt lat="43.47196411559001" lon="11.285656821943927"><ele>576.5</ele><time>2026-04-25T07:46:18Z</time></trkpt><trkpt lat="43.472078759697055" lon="11.285690132992292"><ele>577.0</ele><time>2026-04-25T07:46:19Z</time></trkpt><trkpt lat="43.47219122191458" lon="11.285721905125616"><ele>577.5</ele><time>2026-04-25T07:46:20Z</time></trkpt><trkpt lat="43.472311157185594" lon="11.285760019409933"><ele>578.0</ele><time>2026-04-25T07:46:21Z</time></trkpt><trkpt lat="43.472440192107946" lon="11.285811406356382"><ele>578.0</ele><time>2026-04-25T07:46:22Z</time></trkpt><trkpt lat="43.47256234113792" lon="11.285851390683373"><ele>578.0</ele><time>2026-04-25T07:46:23Z</time></trkpt><trkpt lat="43.47267847531619" lon="11.285889512921186"><ele>578.0</ele><time>2026-04-25T07:46:24Z</time></trkpt><trkpt lat="43.4727758919295" lon="11.285958819121193"><ele>578.0</ele><time>2026-04-25T07:46:25Z</time></trkpt><trkpt lat="43.47286796011415" lon="11.28607313525738"><ele>576.75</ele><time>2026-04-25T07:46:26Z</time></trkpt><trkpt lat="43.47294118894603" lon="11.286199505803518"><ele>575.5</ele><time>2026-04-25T07:46:27Z</time></trkpt><trkpt lat="43.47300802820624" lon="11.286375392587377"><ele>574.25</ele><time>2026-04-25T07:46:27.999Z</time></trkpt><trkpt lat="43.47306287924547" lon="11.286545980999867"><ele>573.0</ele><time>2026-04-25T07:46:28.999Z</time></trkpt><trkpt lat="43.47309888454889" lon="11.286714979574002"><ele>572.5</ele><time>2026-04-25T07:46:29.999Z</time></trkpt><trkpt lat="43.47310961846231" lon="11.286879909808519"><ele>572.0</ele><time>2026-04-25T07:46:30.999Z</time></trkpt><trkpt lat="43.47311185388975" lon="11.2870454917394"><ele>571.5</ele><time>2026-04-25T07:46:31.999Z</time></trkpt><trkpt lat="43.47309589689476" lon="11.287208150761852"><ele>571.0</ele><time>2026-04-25T07:46:32.999Z</time></trkpt><trkpt lat="43.47306978549624" lon="11.287366152451744"><ele>570.8</ele><time>2026-04-25T07:46:33.999Z</time></trkpt><trkpt lat="43.47304286374938" lon="11.287515366862744"><ele>570.6</ele><time>2026-04-25T07:46:34.999Z</time></trkpt><trkpt lat="43.47302536624615" lon="11.287646502938378"><ele>570.4</ele><time>2026-04-25T07:46:35.999Z</time></trkpt><trkpt lat="43.47301245997369" lon="11.287766258586215"><ele>570.2</ele><time>2026-04-25T07:46:36.999Z</time></trkpt><trkpt lat="43.47298940593801" lon="11.287957859106307"><ele>570.0</ele><time>2026-04-25T07:46:37.999Z</time></trkpt><trkpt lat="43.4729664286798" lon="11.288109469413481"><ele>569.4</ele><time>2026-04-25T07:46:38.999Z</time></trkpt><trkpt lat="43.47294501002541" lon="11.288248229665676"><ele>568.8</ele><time>2026-04-25T07:46:39.999Z</time></trkpt><trkpt lat="43.472930862785354" lon="11.288385095141662"><ele>568.2</ele><time>2026-04-25T07:46:40.999Z</time></trkpt><trkpt lat="43.47293430784118" lon="11.288520164211072"><ele>567.6</ele><time>2026-04-25T07:46:41.999Z</time></trkpt><trkpt lat="43.472961738531254" lon="11.288648344090385"><ele>567.0</ele><time>2026-04-25T07:46:42.999Z</time></trkpt><trkpt lat="43.47301137990632" lon="11.28876194459531"><ele>567.0</ele><time>2026-04-25T07:46:43.999Z</time></trkpt><trkpt lat="43.47308573120226" lon="11.288837245701986"><ele>567.0</ele><time>2026-04-25T07:46:44.999Z</time></trkpt><trkpt lat="43.473181764641765" lon="11.288880705736144"><ele>567.0</ele><time>2026-04-25T07:46:45.999Z</time></trkpt><trkpt lat="43.47329847038265" lon="11.288884721774306"><ele>567.0</ele><time>2026-04-25T07:46:46.999Z</time></trkpt><trkpt lat="43.47341409299274" lon="11.288820575897992"><ele>567.0</ele><time>2026-04-25T07:46:47.999Z</time></trkpt><trkpt lat="43.473512199866484" lon="11.288693996852286"><ele>567.0</ele><time>2026-04-25T07:46:48.999Z</time></trkpt><trkpt lat="43.47358030209331" lon="11.288530263407118"><ele>567.0</ele><time>2026-04-25T07:46:49.999Z</time></trkpt><trkpt lat="43.47363302620044" lon="11.28834236007023"><ele>567.0</ele><time>2026-04-25T07:46:50.999Z</time></trkpt><trkpt lat="43.47369155944677" lon="11.288165983969387"><ele>567.0</ele><time>2026-04-25T07:46:51.999Z</time></trkpt><trkpt lat="43.47374410721655" lon="11.288008379405094"><ele>563.5</ele><time>2026-04-25T07:46:52.999Z</time></trkpt><trkpt lat="43.4737901544024" lon="11.287851982845101"><ele>560.0</ele><time>2026-04-25T07:46:53.999Z</time></trkpt><trkpt lat="43.47382550424831" lon="11.28769954440619"><ele>556.5</ele><time>2026-04-25T07:46:54.999Z</time></trkpt><trkpt lat="43.47384421763702" lon="11.287553427278684"><ele>553.0</ele><time>2026-04-25T07:46:55.999Z</time></trkpt><trkpt lat="43.47386390439836" lon="11.287412109818055"><ele>553.0</ele><time>2026-04-25T07:46:56.999Z</time></trkpt><trkpt lat="43.47388098274365" lon="11.287276065863422"><ele>553.0</ele><time>2026-04-25T07:46:57.999Z</time></trkpt><trkpt lat="43.47389820747916" lon="11.287137246486811"><ele>553.0</ele><time>2026-04-25T07:46:58.999Z</time></trkpt><trkpt lat="43.473915413227644" lon="11.287015624441942"><ele>553.0</ele><time>2026-04-25T07:46:59.999Z</time></trkpt><trkpt lat="43.47393457412587" lon="11.28689634147089"><ele>553.0</ele><time>2026-04-25T07:47:00.999Z</time></trkpt><trkpt lat="43.47394767557024" lon="11.286784906532882"><ele>553.1999999999999</ele><time>2026-04-25T07:47:01.999Z</time></trkpt><trkpt lat="43.473961564434724" lon="11.286680045647323"><ele>553.4</ele><time>2026-04-25T07:47:02.999Z</time></trkpt><trkpt lat="43.47397790347244" lon="11.28655696348299"><ele>553.5999999999999</ele><time>2026-04-25T07:47:03.999Z</time></trkpt><trkpt lat="43.47400431807247" lon="11.286412509670502"><ele>553.8</ele><time>2026-04-25T07:47:04.999Z</time></trkpt><trkpt lat="43.47404206721333" lon="11.286267809291846"><ele>554.0</ele><time>2026-04-25T07:47:05.999Z</time></trkpt><trkpt lat="43.47409530219521" lon="11.286123786193162"><ele>554.2</ele><time>2026-04-25T07:47:06.999Z</time></trkpt><trkpt lat="43.474166149155366" lon="11.286005122183301"><ele>554.4</ele><time>2026-04-25T07:47:07.999Z</time></trkpt><trkpt lat="43.47425680978748" lon="11.285913909051182"><ele>554.6</ele><time>2026-04-25T07:47:08.999Z</time></trkpt><trkpt lat="43.4743605138315" lon="11.28588861942889"><ele>554.8</ele><time>2026-04-25T07:47:10Z</time></trkpt><trkpt lat="43.47445985145989" lon="11.285942788237142"><ele>555.0</ele><time>2026-04-25T07:47:11Z</time></trkpt><trkpt lat="43.47454233204989" lon="11.286002579776294"><ele>555.0</ele><time>2026-04-25T07:47:12Z</time></trkpt><trkpt lat="43.47458554057802" lon="11.286140174813456"><ele>555.0</ele><time>2026-04-25T07:47:13Z</time></trkpt><trkpt lat="43.47460127887368" lon="11.286273967975946"><ele>555.0</ele><time>2026-04-25T07:47:14Z</time></trkpt><trkpt lat="43.47461306789648" lon="11.286413366294571"><ele>555.0</ele><time>2026-04-25T07:47:15Z</time></trkpt><trkpt lat="43.47463177508319" lon="11.286557009283046"><ele>555.0</ele><time>2026-04-25T07:47:16Z</time></trkpt><trkpt lat="43.474648788889375" lon="11.28671679677455"><ele>555.4</ele><time>2026-04-25T07:47:17Z</time></trkpt><trkpt lat="43.474669966791154" lon="11.286877989338086"><ele>555.8</ele><time>2026-04-25T07:47:18Z</time></trkpt><trkpt lat="43.47468896055637" lon="11.28702354514663"><ele>556.2</ele><time>2026-04-25T07:47:19Z</time></trkpt><trkpt lat="43.47470843653784" lon="11.287155077019312"><ele>556.6</ele><time>2026-04-25T07:47:20Z</time></trkpt><trkpt lat="43.47472956167376" lon="11.287287021669412"><ele>557.0</ele><time>2026-04-25T07:47:21Z</time></trkpt><trkpt lat="43.474757069867884" lon="11.287419762895546"><ele>557.0</ele><time>2026-04-25T07:47:22Z</time></trkpt><trkpt lat="43.47478377674461" lon="11.287551386613227"><ele>557.0</ele><time>2026-04-25T07:47:23Z</time></trkpt><trkpt lat="43.47480553641559" lon="11.28767915515943"><ele>557.0</ele><time>2026-04-25T07:47:24Z</time></trkpt><trkpt lat="43.47483472941382" lon="11.287803806877989"><ele>557.0</ele><time>2026-04-25T07:47:25Z</time></trkpt><trkpt lat="43.474864288604735" lon="11.2879400116144"><ele>557.0</ele><time>2026-04-25T07:47:26Z</time></trkpt><trkpt lat="43.47490350545897" lon="11.288075561734393"><ele>555.0</ele><time>2026-04-25T07:47:27Z</time></trkpt><trkpt lat="43.47496097272242" lon="11.288210398774016"><ele>553.0</ele><time>2026-04-25T07:47:28Z</time></trkpt><trkpt lat="43.475029134885304" lon="11.288337961224663"><ele>551.0</ele><time>2026-04-25T07:47:29Z</time></trkpt><trkpt lat="43.4751073536171" lon="11.288435626161194"><ele>549.0</ele><time>2026-04-25T07:47:30Z</time></trkpt><trkpt lat="43.475206691753996" lon="11.288509471953374"><ele>547.0</ele><time>2026-04-25T07:47:31Z</time></trkpt><trkpt lat="43.47532242050039" lon="11.288561546020947"><ele>547.0</ele><time>2026-04-25T07:47:32Z</time></trkpt><trkpt lat="43.47542896937084" lon="11.288593587344288"><ele>547.0</ele><time>2026-04-25T07:47:33Z</time></trkpt><trkpt lat="43.475524107573484" lon="11.288621548060057"><ele>547.0</ele><time>2026-04-25T07:47:34Z</time></trkpt><trkpt lat="43.475616732383976" lon="11.288651174398938"><ele>547.0</ele><time>2026-04-25T07:47:35Z</time></trkpt><trkpt lat="43.47571504891193" lon="11.288684095579942"><ele>547.0</ele><time>2026-04-25T07:47:36Z</time></trkpt><trkpt lat="43.47581327844482" lon="11.288726235160901"><ele>548.0</ele><time>2026-04-25T07:47:37Z</time></trkpt><trkpt lat="43.47591785547128" lon="11.28879555124488"><ele>549.0</ele><time>2026-04-25T07:47:38Z</time></trkpt><trkpt lat="43.47601868166716" lon="11.28890552727213"><ele>550.0</ele><time>2026-04-25T07:47:39Z</time></trkpt><trkpt lat="43.47610581559405" lon="11.289046829240544"><ele>551.0</ele><time>2026-04-25T07:47:40Z</time></trkpt><trkpt lat="43.47616573882095" lon="11.289185595602016"><ele>550.0</ele><time>2026-04-25T07:47:41Z</time></trkpt><trkpt lat="43.476202366375695" lon="11.289337460234101"><ele>549.0</ele><time>2026-04-25T07:47:42Z</time></trkpt><trkpt lat="43.4762300528406" lon="11.28948786957511"><ele>548.0</ele><time>2026-04-25T07:47:43Z</time></trkpt><trkpt lat="43.476247969339376" lon="11.289622288298617"><ele>547.0</ele><time>2026-04-25T07:47:44Z</time></trkpt><trkpt lat="43.476267757737865" lon="11.289720990136063"><ele>546.0</ele><time>2026-04-25T07:47:45Z</time></trkpt><trkpt lat="43.47628820785368" lon="11.289817390026066"><ele>546.0</ele><time>2026-04-25T07:47:46Z</time></trkpt><trkpt lat="43.476300046693936" lon="11.289909487691062"><ele>546.0</ele><time>2026-04-25T07:47:47Z</time></trkpt><trkpt lat="43.47631178347079" lon="11.289996372023912"><ele>546.0</ele><time>2026-04-25T07:47:48Z</time></trkpt><trkpt lat="43.47633811808983" lon="11.290150526581145"><ele>546.0</ele><time>2026-04-25T07:47:50Z</time></trkpt><trkpt lat="43.47636877824055" lon="11.29031453812389"><ele>546.0</ele><time>2026-04-25T07:47:52Z</time></trkpt><trkpt lat="43.47638529928753" lon="11.290401793648268"><ele>546.0</ele><time>2026-04-25T07:47:53Z</time></trkpt><trkpt lat="43.476405368898554" lon="11.290488029429346"><ele>546.0</ele><time>2026-04-25T07:47:54Z</time></trkpt><trkpt lat="43.4764232712713" lon="11.290577680828735"><ele>546.0</ele><time>2026-04-25T07:47:55Z</time></trkpt><trkpt lat="43.47644473241184" lon="11.290665780481202"><ele>546.0</ele><time>2026-04-25T07:47:56Z</time></trkpt><trkpt lat="43.47646994315923" lon="11.290770798658626"><ele>546.0</ele><time>2026-04-25T07:47:57Z</time></trkpt><trkpt lat="43.4764825074086" lon="11.290860282146765"><ele>546.0</ele><time>2026-04-25T07:47:58Z</time></trkpt><trkpt lat="43.47649013853432" lon="11.290950871147624"><ele>546.0</ele><time>2026-04-25T07:47:59Z</time></trkpt><trkpt lat="43.47648180872055" lon="11.29104184509977"><ele>546.0</ele><time>2026-04-25T07:48:00Z</time></trkpt><trkpt lat="43.476447461940126" lon="11.291144774632416"><ele>546.0</ele><time>2026-04-25T07:48:01Z</time></trkpt><trkpt lat="43.476391857172864" lon="11.291218836147552"><ele>546.0</ele><time>2026-04-25T07:48:02Z</time></trkpt><trkpt lat="43.47631700262181" lon="11.291259257752712"><ele>546.0</ele><time>2026-04-25T07:48:03Z</time></trkpt><trkpt lat="43.47621006171709" lon="11.29131349441754"><ele>546.0</ele><time>2026-04-25T07:48:05Z</time></trkpt><trkpt lat="43.476147283465124" lon="11.29134646747797"><ele>546.0</ele><time>2026-04-25T07:48:07Z</time></trkpt><trkpt lat="43.476043589988834" lon="11.291410956029953"><ele>545.8333333333334</ele><time>2026-04-25T07:48:10Z</time></trkpt><trkpt lat="43.47598407160431" lon="11.291454606678307"><ele>545.6666666666666</ele><time>2026-04-25T07:48:11Z</time></trkpt><trkpt lat="43.4759207174801" lon="11.291515455503902"><ele>545.5</ele><time>2026-04-25T07:48:12Z</time></trkpt><trkpt lat="43.47586564427444" lon="11.291591155034165"><ele>545.3333333333333</ele><time>2026-04-25T07:48:13Z</time></trkpt><trkpt lat="43.475817007592376" lon="11.291674783947398"><ele>545.1666666666666</ele><time>2026-04-25T07:48:14Z</time></trkpt><trkpt lat="43.475757424260784" lon="11.291783694675608"><ele>545.0</ele><time>2026-04-25T07:48:15Z</time></trkpt><trkpt lat="43.47569959974576" lon="11.291894560213144"><ele>545.0</ele><time>2026-04-25T07:48:16Z</time></trkpt><trkpt lat="43.47563385230958" lon="11.29198883809284"><ele>545.0</ele><time>2026-04-25T07:48:17Z</time></trkpt><trkpt lat="43.47554959979354" lon="11.292109009685781"><ele>545.0</ele><time>2026-04-25T07:48:18Z</time></trkpt><trkpt lat="43.47547633674406" lon="11.292254332445726"><ele>545.0</ele><time>2026-04-25T07:48:18.999Z</time></trkpt><trkpt lat="43.47541199846541" lon="11.29241975679346"><ele>543.75</ele><time>2026-04-25T07:48:19.999Z</time></trkpt><trkpt lat="43.47536235515653" lon="11.292600755695098"><ele>542.5</ele><time>2026-04-25T07:48:20.999Z</time></trkpt><trkpt lat="43.47533118647077" lon="11.29277385855625"><ele>541.25</ele><time>2026-04-25T07:48:21.999Z</time></trkpt><trkpt lat="43.475312003559964" lon="11.29296026689405"><ele>540.0</ele><time>2026-04-25T07:48:22.999Z</time></trkpt><trkpt lat="43.47529642395909" lon="11.293181452065113"><ele>540.0</ele><time>2026-04-25T07:48:23.999Z</time></trkpt><trkpt lat="43.47528039702751" lon="11.293411946821301"><ele>540.0</ele><time>2026-04-25T07:48:24.999Z</time></trkpt><trkpt lat="43.47526244251123" lon="11.29363852720371"><ele>540.0</ele><time>2026-04-25T07:48:25.999Z</time></trkpt><trkpt lat="43.47524769489998" lon="11.293832723542579"><ele>542.0</ele><time>2026-04-25T07:48:26.999Z</time></trkpt><trkpt lat="43.47523278176555" lon="11.294011855143102"><ele>544.0</ele><time>2026-04-25T07:48:27.999Z</time></trkpt><trkpt lat="43.47521760577603" lon="11.294202177809735"><ele>546.0</ele><time>2026-04-25T07:48:28.999Z</time></trkpt><trkpt lat="43.47520119730147" lon="11.2943904106185"><ele>548.0</ele><time>2026-04-25T07:48:29.999Z</time></trkpt><trkpt lat="43.4751895261782" lon="11.294586014832344"><ele>548.75</ele><time>2026-04-25T07:48:30.999Z</time></trkpt><trkpt lat="43.47517748284489" lon="11.294785545267121"><ele>549.5</ele><time>2026-04-25T07:48:31.999Z</time></trkpt><trkpt lat="43.475157236764296" lon="11.294984102149941"><ele>550.25</ele><time>2026-04-25T07:48:32.999Z</time></trkpt><trkpt lat="43.47515251449888" lon="11.295178232308396"><ele>551.0</ele><time>2026-04-25T07:48:33.999Z</time></trkpt><trkpt lat="43.475150225445105" lon="11.29538629070311"><ele>550.3333333333333</ele><time>2026-04-25T07:48:34.999Z</time></trkpt><trkpt lat="43.47516875738851" lon="11.295600433902923"><ele>549.6666666666666</ele><time>2026-04-25T07:48:35.999Z</time></trkpt><trkpt lat="43.475217031406885" lon="11.295809326640102"><ele>549.0</ele><time>2026-04-25T07:48:36.999Z</time></trkpt><trkpt lat="43.47528289405357" lon="11.296008340038092"><ele>549.0</ele><time>2026-04-25T07:48:37.999Z</time></trkpt><trkpt lat="43.47536897744488" lon="11.296190833531703"><ele>549.0</ele><time>2026-04-25T07:48:38.999Z</time></trkpt><trkpt lat="43.475477347531054" lon="11.296351991723427"><ele>549.0</ele><time>2026-04-25T07:48:39.999Z</time></trkpt><trkpt lat="43.47560320691128" lon="11.29649523289289"><ele>552.25</ele><time>2026-04-25T07:48:40.999Z</time></trkpt><trkpt lat="43.47573874459731" lon="11.296613968824948"><ele>555.5</ele><time>2026-04-25T07:48:41.999Z</time></trkpt><trkpt lat="43.4758699238999" lon="11.29669257207671"><ele>558.75</ele><time>2026-04-25T07:48:42.999Z</time></trkpt><trkpt lat="43.475991020819606" lon="11.29674286039553"><ele>562.0</ele><time>2026-04-25T07:48:43.999Z</time></trkpt><trkpt lat="43.47611644933623" lon="11.296796112614851"><ele>562.0</ele><time>2026-04-25T07:48:44.999Z</time></trkpt><trkpt lat="43.476245404250356" lon="11.296844561757155"><ele>562.0</ele><time>2026-04-25T07:48:45.999Z</time></trkpt><trkpt lat="43.47637083239076" lon="11.296907031075145"><ele>562.0</ele><time>2026-04-25T07:48:46.999Z</time></trkpt><trkpt lat="43.47647410328983" lon="11.296971483252424"><ele>562.0</ele><time>2026-04-25T07:48:47.999Z</time></trkpt><trkpt lat="43.47656551178671" lon="11.297063565409768"><ele>563.25</ele><time>2026-04-25T07:48:48.999Z</time></trkpt><trkpt lat="43.47664914830334" lon="11.297194387653233"><ele>564.5</ele><time>2026-04-25T07:48:49.999Z</time></trkpt><trkpt lat="43.476726731818296" lon="11.297353162036952"><ele>565.75</ele><time>2026-04-25T07:48:50.999Z</time></trkpt><trkpt lat="43.476800020571254" lon="11.297522132312645"><ele>567.0</ele><time>2026-04-25T07:48:51.999Z</time></trkpt><trkpt lat="43.47687169941473" lon="11.297695493286852"><ele>567.0</ele><time>2026-04-25T07:48:52.999Z</time></trkpt><trkpt lat="43.47694663053231" lon="11.297895570485121"><ele>567.0</ele><time>2026-04-25T07:48:53.999Z</time></trkpt><trkpt lat="43.47701200634616" lon="11.298104627107117"><ele>567.0</ele><time>2026-04-25T07:48:54.999Z</time></trkpt><trkpt lat="43.477075618864596" lon="11.298323831730038"><ele>568.0</ele><time>2026-04-25T07:48:55.999Z</time></trkpt><trkpt lat="43.4771413583432" lon="11.298536878909108"><ele>569.0</ele><time>2026-04-25T07:48:56.999Z</time></trkpt><trkpt lat="43.47719839929538" lon="11.298731467015157"><ele>570.0</ele><time>2026-04-25T07:48:57.999Z</time></trkpt><trkpt lat="43.477249970052775" lon="11.298911586891142"><ele>569.5</ele><time>2026-04-25T07:48:58.999Z</time></trkpt><trkpt lat="43.477291379663114" lon="11.299099760666817"><ele>569.0</ele><time>2026-04-25T07:48:59.999Z</time></trkpt><trkpt lat="43.47730626114933" lon="11.299300998538415"><ele>568.5</ele><time>2026-04-25T07:49:00.999Z</time></trkpt><trkpt lat="43.47729456640536" lon="11.299514948410213"><ele>568.0</ele><time>2026-04-25T07:49:01.999Z</time></trkpt><trkpt lat="43.47725354558078" lon="11.299734472179436"><ele>569.3333333333334</ele><time>2026-04-25T07:49:02.999Z</time></trkpt><trkpt lat="43.477192113365604" lon="11.299958592809704"><ele>570.6666666666666</ele><time>2026-04-25T07:49:03.999Z</time></trkpt><trkpt lat="43.477139800179316" lon="11.300195065367983"><ele>572.0</ele><time>2026-04-25T07:49:04.999Z</time></trkpt><trkpt lat="43.47708399152811" lon="11.300434029853342"><ele>575.75</ele><time>2026-04-25T07:49:05.999Z</time></trkpt><trkpt lat="43.47703586725006" lon="11.300654765820276"><ele>579.5</ele><time>2026-04-25T07:49:06.999Z</time></trkpt><trkpt lat="43.47699130221041" lon="11.300840872752971"><ele>583.25</ele><time>2026-04-25T07:49:07.999Z</time></trkpt><trkpt lat="43.476958093132914" lon="11.30100598777817"><ele>587.0</ele><time>2026-04-25T07:49:08.999Z</time></trkpt><trkpt lat="43.476939283167994" lon="11.301146801452667"><ele>587.0</ele><time>2026-04-25T07:49:09.999Z</time></trkpt><trkpt lat="43.47696473218616" lon="11.301309879569647"><ele>587.0</ele><time>2026-04-25T07:49:10.999Z</time></trkpt><trkpt lat="43.477033220145444" lon="11.301466176336698"><ele>587.0</ele><time>2026-04-25T07:49:11.999Z</time></trkpt><trkpt lat="43.47713119741604" lon="11.301598603819937"><ele>587.0</ele><time>2026-04-25T07:49:12.999Z</time></trkpt><trkpt lat="43.47727116861771" lon="11.301713409035468"><ele>585.0</ele><time>2026-04-25T07:49:13.999Z</time></trkpt><trkpt lat="43.47742345422995" lon="11.301799150158985"><ele>583.0</ele><time>2026-04-25T07:49:14.999Z</time></trkpt><trkpt lat="43.47758493058406" lon="11.301901997228844"><ele>581.0</ele><time>2026-04-25T07:49:16Z</time></trkpt><trkpt lat="43.47774205614632" lon="11.302019404136182"><ele>581.0</ele><time>2026-04-25T07:49:17Z</time></trkpt><trkpt lat="43.47788302273028" lon="11.302135608183667"><ele>581.0</ele><time>2026-04-25T07:49:18Z</time></trkpt><trkpt lat="43.47800822848565" lon="11.302277567025339"><ele>581.0</ele><time>2026-04-25T07:49:19Z</time></trkpt><trkpt lat="43.47810924649591" lon="11.302459252832373"><ele>583.0</ele><time>2026-04-25T07:49:20Z</time></trkpt><trkpt lat="43.478180929701566" lon="11.302672390016065"><ele>585.0</ele><time>2026-04-25T07:49:21Z</time></trkpt><trkpt lat="43.478232137717995" lon="11.30290572158863"><ele>587.0</ele><time>2026-04-25T07:49:22Z</time></trkpt><trkpt lat="43.47828371423259" lon="11.303135453921877"><ele>587.0</ele><time>2026-04-25T07:49:23Z</time></trkpt><trkpt lat="43.478367132610785" lon="11.303365000436683"><ele>587.0</ele><time>2026-04-25T07:49:24Z</time></trkpt><trkpt lat="43.47847420493329" lon="11.30357571502355"><ele>587.0</ele><time>2026-04-25T07:49:25Z</time></trkpt><trkpt lat="43.47860939922396" lon="11.303761577636012"><ele>586.0</ele><time>2026-04-25T07:49:26Z</time></trkpt><trkpt lat="43.47874232047049" lon="11.303948497350786"><ele>585.0</ele><time>2026-04-25T07:49:27Z</time></trkpt><trkpt lat="43.47886717075593" lon="11.304140694088108"><ele>584.0</ele><time>2026-04-25T07:49:28Z</time></trkpt><trkpt lat="43.478975884440466" lon="11.304313812940354"><ele>584.0</ele><time>2026-04-25T07:49:29Z</time></trkpt><trkpt lat="43.47907824619068" lon="11.304480541438483"><ele>584.0</ele><time>2026-04-25T07:49:30Z</time></trkpt><trkpt lat="43.479175017204426" lon="11.304649462153462"><ele>584.0</ele><time>2026-04-25T07:49:31Z</time></trkpt><trkpt lat="43.47926583166478" lon="11.30480038573402"><ele>583.6666666666666</ele><time>2026-04-25T07:49:32Z</time></trkpt><trkpt lat="43.479368824310754" lon="11.304950968407551"><ele>583.3333333333334</ele><time>2026-04-25T07:49:33Z</time></trkpt><trkpt lat="43.4794932614779" lon="11.305080909139772"><ele>583.0</ele><time>2026-04-25T07:49:34Z</time></trkpt><trkpt lat="43.47962552050358" lon="11.305216710902656"><ele>581.0</ele><time>2026-04-25T07:49:35Z</time></trkpt><trkpt lat="43.47984329523658" lon="11.305453430866107"><ele>579.0</ele><time>2026-04-25T07:49:36Z</time></trkpt><trkpt lat="43.480004751340154" lon="11.305583315739351"><ele>578.6666666666666</ele><time>2026-04-25T07:49:37Z</time></trkpt><trkpt lat="43.480168553255226" lon="11.305703098464502"><ele>578.3333333333333</ele><time>2026-04-25T07:49:38Z</time></trkpt><trkpt lat="43.48030087103716" lon="11.305784513795327"><ele>578.0</ele><time>2026-04-25T07:49:39Z</time></trkpt><trkpt lat="43.48042036106184" lon="11.305821910661976"><ele>577.75</ele><time>2026-04-25T07:49:40Z</time></trkpt><trkpt lat="43.480555789989566" lon="11.305802014770494"><ele>577.5</ele><time>2026-04-25T07:49:41Z</time></trkpt><trkpt lat="43.480680729145476" lon="11.305700435964152"><ele>577.25</ele><time>2026-04-25T07:49:42Z</time></trkpt><trkpt lat="43.48077179305606" lon="11.305573734457095"><ele>577.0</ele><time>2026-04-25T07:49:43Z</time></trkpt><trkpt lat="43.480883346419354" lon="11.305498995725278"><ele>577.0</ele><time>2026-04-25T07:49:44Z</time></trkpt><trkpt lat="43.48100104235573" lon="11.305571215311618"><ele>577.0</ele><time>2026-04-25T07:49:45Z</time></trkpt><trkpt lat="43.481066480570185" lon="11.305698982117452"><ele>577.0</ele><time>2026-04-25T07:49:46Z</time></trkpt><trkpt lat="43.481099416911626" lon="11.305871587248756"><ele>577.0</ele><time>2026-04-25T07:49:47Z</time></trkpt><trkpt lat="43.48106199295251" lon="11.306030161651146"><ele>578.6666666666667</ele><time>2026-04-25T07:49:48Z</time></trkpt><trkpt lat="43.48101505540651" lon="11.306229616012875"><ele>580.3333333333334</ele><time>2026-04-25T07:49:49Z</time></trkpt><trkpt lat="43.48099425210406" lon="11.306446653888132"><ele>582.0</ele><time>2026-04-25T07:49:50Z</time></trkpt><trkpt lat="43.48101367907069" lon="11.306677414982714"><ele>583.6666666666666</ele><time>2026-04-25T07:49:51Z</time></trkpt><trkpt lat="43.48102064699451" lon="11.306929974560205"><ele>585.3333333333333</ele><time>2026-04-25T07:49:52Z</time></trkpt><trkpt lat="43.48102761449189" lon="11.307185389275753"><ele>587.0</ele><time>2026-04-25T07:49:53Z</time></trkpt><trkpt lat="43.481060538298564" lon="11.307449986987107"><ele>589.3333333333333</ele><time>2026-04-25T07:49:54Z</time></trkpt><trkpt lat="43.48110117357931" lon="11.3076910268099"><ele>591.6666666666666</ele><time>2026-04-25T07:49:55Z</time></trkpt><trkpt lat="43.481144504752805" lon="11.307935092871842"><ele>594.0</ele><time>2026-04-25T07:49:56Z</time></trkpt><trkpt lat="43.481197619649194" lon="11.30814522528631"><ele>596.6666666666666</ele><time>2026-04-25T07:49:57Z</time></trkpt><trkpt lat="43.48126905148596" lon="11.308345737283775"><ele>599.3333333333333</ele><time>2026-04-25T07:49:58Z</time></trkpt><trkpt lat="43.4813720777901" lon="11.308528168264846"><ele>602.0</ele><time>2026-04-25T07:49:59Z</time></trkpt><trkpt lat="43.48144218664915" lon="11.308736371963029"><ele>602.6666666666666</ele><time>2026-04-25T07:50:00Z</time></trkpt><trkpt lat="43.48149653323391" lon="11.308962573971375"><ele>603.3333333333334</ele><time>2026-04-25T07:50:01Z</time></trkpt><trkpt lat="43.48152871209762" lon="11.309205281506252"><ele>604.0</ele><time>2026-04-25T07:50:02Z</time></trkpt><trkpt lat="43.481497841485925" lon="11.30946256048008"><ele>604.0</ele><time>2026-04-25T07:50:03Z</time></trkpt><trkpt lat="43.48148508193868" lon="11.309730304120924"><ele>604.0</ele><time>2026-04-25T07:50:04Z</time></trkpt><trkpt lat="43.481452961311966" lon="11.309953780671647"><ele>604.0</ele><time>2026-04-25T07:50:05Z</time></trkpt><trkpt lat="43.481430881589525" lon="11.310137304627975"><ele>604.5</ele><time>2026-04-25T07:50:06Z</time></trkpt><trkpt lat="43.481381093120014" lon="11.310305300262248"><ele>605.0</ele><time>2026-04-25T07:50:07Z</time></trkpt><trkpt lat="43.48125645278903" lon="11.310425676466947"><ele>605.5</ele><time>2026-04-25T07:50:08Z</time></trkpt><trkpt lat="43.48115375134657" lon="11.31057212437286"><ele>606.0</ele><time>2026-04-25T07:50:09Z</time></trkpt><trkpt lat="43.48108110423646" lon="11.310692044923325"><ele>606.0</ele><time>2026-04-25T07:50:10Z</time></trkpt><trkpt lat="43.48105426347485" lon="11.310851539081428"><ele>606.0</ele><time>2026-04-25T07:50:11Z</time></trkpt><trkpt lat="43.48106946115246" lon="11.311026017262975"><ele>606.0</ele><time>2026-04-25T07:50:12Z</time></trkpt><trkpt lat="43.48114028590674" lon="11.311183668076467"><ele>606.0</ele><time>2026-04-25T07:50:13Z</time></trkpt><trkpt lat="43.48124777661096" lon="11.311332680236278"><ele>606.0</ele><time>2026-04-25T07:50:14Z</time></trkpt><trkpt lat="43.48137880864311" lon="11.311473299279013"><ele>606.0</ele><time>2026-04-25T07:50:15Z</time></trkpt><trkpt lat="43.4815109453506" lon="11.311620648663398"><ele>606.0</ele><time>2026-04-25T07:50:16Z</time></trkpt><trkpt lat="43.48162576732223" lon="11.311775119256934"><ele>606.0</ele><time>2026-04-25T07:50:17Z</time></trkpt><trkpt lat="43.48172698664284" lon="11.311906833816822"><ele>606.0</ele><time>2026-04-25T07:50:18Z</time></trkpt><trkpt lat="43.481847808378696" lon="11.312011223644928"><ele>606.0</ele><time>2026-04-25T07:50:19Z</time></trkpt><trkpt lat="43.48200365039148" lon="11.312088583707835"><ele>606.0</ele><time>2026-04-25T07:50:20Z</time></trkpt><trkpt lat="43.48217283241404" lon="11.312138701840905"><ele>605.3333333333334</ele><time>2026-04-25T07:50:21Z</time></trkpt><trkpt lat="43.48234643896706" lon="11.312179237832455"><ele>604.6666666666667</ele><time>2026-04-25T07:50:22Z</time></trkpt><trkpt lat="43.48251146754309" lon="11.312219589583908"><ele>604.0</ele><time>2026-04-25T07:50:23Z</time></trkpt><trkpt lat="43.48266231765393" lon="11.312287495647682"><ele>604.0</ele><time>2026-04-25T07:50:23.999Z</time></trkpt><trkpt lat="43.482797054121576" lon="11.312425359243036"><ele>604.0</ele><time>2026-04-25T07:50:24.999Z</time></trkpt><trkpt lat="43.482922555746725" lon="11.312583509723236"><ele>604.0</ele><time>2026-04-25T07:50:25.999Z</time></trkpt><trkpt lat="43.48304443757514" lon="11.31273384310544"><ele>602.3333333333334</ele><time>2026-04-25T07:50:26.999Z</time></trkpt><trkpt lat="43.48314638014499" lon="11.312905093015113"><ele>600.6666666666666</ele><time>2026-04-25T07:50:27.999Z</time></trkpt><trkpt lat="43.48326602897916" lon="11.313043669097933"><ele>599.0</ele><time>2026-04-25T07:50:28.999Z</time></trkpt><trkpt lat="43.48341165463772" lon="11.313157668752519"><ele>599.0</ele><time>2026-04-25T07:50:29.999Z</time></trkpt><trkpt lat="43.483572299219965" lon="11.313235265847219"><ele>599.0</ele><time>2026-04-25T07:50:30.999Z</time></trkpt><trkpt lat="43.483739366543155" lon="11.31328327906276"><ele>599.0</ele><time>2026-04-25T07:50:31.999Z</time></trkpt><trkpt lat="43.48390661639883" lon="11.313302792228521"><ele>601.6666666666666</ele><time>2026-04-25T07:50:32.999Z</time></trkpt><trkpt lat="43.48406546619963" lon="11.313312200846775"><ele>604.3333333333334</ele><time>2026-04-25T07:50:33.999Z</time></trkpt><trkpt lat="43.4842178411645" lon="11.313341990404679"><ele>607.0</ele><time>2026-04-25T07:50:34.999Z</time></trkpt><trkpt lat="43.48436822050821" lon="11.313403608761181"><ele>607.0</ele><time>2026-04-25T07:50:35.999Z</time></trkpt><trkpt lat="43.48449060880662" lon="11.313537753771135"><ele>607.0</ele><time>2026-04-25T07:50:36.999Z</time></trkpt><trkpt lat="43.48459638191142" lon="11.313703397526742"><ele>607.0</ele><time>2026-04-25T07:50:37.999Z</time></trkpt><trkpt lat="43.484669096796175" lon="11.313901438905049"><ele>609.3333333333334</ele><time>2026-04-25T07:50:38.999Z</time></trkpt><trkpt lat="43.484706429644234" lon="11.314127225053664"><ele>611.6666666666666</ele><time>2026-04-25T07:50:39.999Z</time></trkpt><trkpt lat="43.48473847092227" lon="11.314360762267848"><ele>614.0</ele><time>2026-04-25T07:50:40.999Z</time></trkpt><trkpt lat="43.48475127284668" lon="11.314592722402724"><ele>610.6666666666666</ele><time>2026-04-25T07:50:41.999Z</time></trkpt><trkpt lat="43.484784714560405" lon="11.31480896380848"><ele>607.3333333333334</ele><time>2026-04-25T07:50:42.999Z</time></trkpt><trkpt lat="43.48483853812815" lon="11.315008037190545"><ele>604.0</ele><time>2026-04-25T07:50:43.999Z</time></trkpt><trkpt lat="43.48491130158572" lon="11.315204304571525"><ele>604.0</ele><time>2026-04-25T07:50:44.999Z</time></trkpt><trkpt lat="43.485014490459825" lon="11.315366142590529"><ele>604.0</ele><time>2026-04-25T07:50:45.999Z</time></trkpt><trkpt lat="43.48513525162682" lon="11.315483286239221"><ele>604.0</ele><time>2026-04-25T07:50:46.999Z</time></trkpt><trkpt lat="43.4852643662568" lon="11.315568236664483"><ele>604.0</ele><time>2026-04-25T07:50:47.999Z</time></trkpt><trkpt lat="43.48538781870457" lon="11.315661078060334"><ele>604.5</ele><time>2026-04-25T07:50:48.999Z</time></trkpt><trkpt lat="43.48546993268969" lon="11.315819087969205"><ele>605.0</ele><time>2026-04-25T07:50:49.999Z</time></trkpt><trkpt lat="43.48548055952772" lon="11.31601573575382"><ele>605.5</ele><time>2026-04-25T07:50:50.999Z</time></trkpt><trkpt lat="43.48548463800127" lon="11.316239695911428"><ele>606.0</ele><time>2026-04-25T07:50:51.999Z</time></trkpt><trkpt lat="43.48550589238218" lon="11.316452031441187"><ele>606.0</ele><time>2026-04-25T07:50:52.999Z</time></trkpt><trkpt lat="43.48553681266507" lon="11.316655175055125"><ele>606.0</ele><time>2026-04-25T07:50:53.999Z</time></trkpt><trkpt lat="43.4855935453055" lon="11.316861993474909"><ele>606.0</ele><time>2026-04-25T07:50:54.999Z</time></trkpt><trkpt lat="43.48568604599853" lon="11.317057557586903"><ele>606.0</ele><time>2026-04-25T07:50:55.999Z</time></trkpt><trkpt lat="43.48576993978229" lon="11.317217141125283"><ele>606.0</ele><time>2026-04-25T07:50:56.999Z</time></trkpt><trkpt lat="43.48589655744104" lon="11.3173767038925"><ele>606.0</ele><time>2026-04-25T07:50:57.999Z</time></trkpt><trkpt lat="43.48598848345822" lon="11.317512691374555"><ele>606.0</ele><time>2026-04-25T07:50:58.999Z</time></trkpt><trkpt lat="43.486037959878196" lon="11.317667463859307"><ele>604.5</ele><time>2026-04-25T07:50:59.999Z</time></trkpt><trkpt lat="43.48600587234459" lon="11.31784796069979"><ele>603.0</ele><time>2026-04-25T07:51:00.999Z</time></trkpt><trkpt lat="43.485935835002465" lon="11.318004994387696"><ele>601.5</ele><time>2026-04-25T07:51:01.999Z</time></trkpt><trkpt lat="43.48583317745348" lon="11.318146856407722"><ele>600.0</ele><time>2026-04-25T07:51:02.999Z</time></trkpt><trkpt lat="43.48571172175261" lon="11.31828528117422"><ele>600.0</ele><time>2026-04-25T07:51:03.999Z</time></trkpt><trkpt lat="43.485616334982836" lon="11.318428045398218"><ele>600.0</ele><time>2026-04-25T07:51:04.999Z</time></trkpt><trkpt lat="43.48554041027312" lon="11.318559101954522"><ele>600.0</ele><time>2026-04-25T07:51:05.999Z</time></trkpt><trkpt lat="43.485453590653776" lon="11.318690928498945"><ele>600.0</ele><time>2026-04-25T07:51:06.999Z</time></trkpt><trkpt lat="43.48537100845682" lon="11.318836364218544"><ele>601.5</ele><time>2026-04-25T07:51:07.999Z</time></trkpt><trkpt lat="43.48531193560494" lon="11.318995765832533"><ele>603.0</ele><time>2026-04-25T07:51:08.999Z</time></trkpt><trkpt lat="43.4852654643962" lon="11.319162664604908"><ele>604.5</ele><time>2026-04-25T07:51:09.999Z</time></trkpt><trkpt lat="43.48522063523587" lon="11.319339636627623"><ele>606.0</ele><time>2026-04-25T07:51:10.999Z</time></trkpt><trkpt lat="43.485182013642245" lon="11.319523907684184"><ele>606.0</ele><time>2026-04-25T07:51:11.999Z</time></trkpt><trkpt lat="43.48516726554783" lon="11.319715246186405"><ele>606.0</ele><time>2026-04-25T07:51:12.999Z</time></trkpt><trkpt lat="43.485183718379794" lon="11.319918054388614"><ele>606.0</ele><time>2026-04-25T07:51:13.999Z</time></trkpt><trkpt lat="43.48521485695292" lon="11.320116060104695"><ele>606.0</ele><time>2026-04-25T07:51:14.999Z</time></trkpt><trkpt lat="43.48521967352157" lon="11.320311447120655"><ele>607.0</ele><time>2026-04-25T07:51:15.999Z</time></trkpt><trkpt lat="43.48520205642342" lon="11.320518011982882"><ele>608.0</ele><time>2026-04-25T07:51:16.999Z</time></trkpt><trkpt lat="43.48515163702755" lon="11.32073204477244"><ele>609.0</ele><time>2026-04-25T07:51:17.999Z</time></trkpt><trkpt lat="43.48508454835702" lon="11.320937746229031"><ele>607.0</ele><time>2026-04-25T07:51:18.999Z</time></trkpt><trkpt lat="43.4850138915604" lon="11.321119179681398"><ele>605.0</ele><time>2026-04-25T07:51:19.999Z</time></trkpt><trkpt lat="43.484954194368186" lon="11.321281631294964"><ele>603.0</ele><time>2026-04-25T07:51:20.999Z</time></trkpt><trkpt lat="43.48490052622561" lon="11.32144063493929"><ele>601.0</ele><time>2026-04-25T07:51:22Z</time></trkpt><trkpt lat="43.48484724249013" lon="11.321597237875771"><ele>600.5</ele><time>2026-04-25T07:51:23Z</time></trkpt><trkpt lat="43.484787697755216" lon="11.32176011335173"><ele>600.0</ele><time>2026-04-25T07:51:24Z</time></trkpt><trkpt lat="43.48472716471007" lon="11.321936636431339"><ele>599.5</ele><time>2026-04-25T07:51:25Z</time></trkpt><trkpt lat="43.48467423887327" lon="11.32213552790827"><ele>599.0</ele><time>2026-04-25T07:51:26Z</time></trkpt><trkpt lat="43.484626461359" lon="11.322346325083503"><ele>595.6666666666666</ele><time>2026-04-25T07:51:27Z</time></trkpt><trkpt lat="43.48458374884217" lon="11.322576205848724"><ele>592.3333333333334</ele><time>2026-04-25T07:51:28Z</time></trkpt><trkpt lat="43.48454081927741" lon="11.322821741672067"><ele>589.0</ele><time>2026-04-25T07:51:29Z</time></trkpt><trkpt lat="43.48451094292651" lon="11.323062531404597"><ele>590.6666666666667</ele><time>2026-04-25T07:51:30Z</time></trkpt><trkpt lat="43.484483936728786" lon="11.323308836667664"><ele>592.3333333333334</ele><time>2026-04-25T07:51:31Z</time></trkpt><trkpt lat="43.48445045913134" lon="11.32357537854528"><ele>594.0</ele><time>2026-04-25T07:51:32Z</time></trkpt><trkpt lat="43.48441399688091" lon="11.323842632332088"><ele>596.0</ele><time>2026-04-25T07:51:33Z</time></trkpt><trkpt lat="43.484360052470784" lon="11.324101964052852"><ele>598.0</ele><time>2026-04-25T07:51:34Z</time></trkpt><trkpt lat="43.48429239022387" lon="11.324325496318195"><ele>600.0</ele><time>2026-04-25T07:51:35Z</time></trkpt><trkpt lat="43.484217594935615" lon="11.324523983196025"><ele>600.0</ele><time>2026-04-25T07:51:36Z</time></trkpt><trkpt lat="43.48413464238972" lon="11.324722766948371"><ele>600.0</ele><time>2026-04-25T07:51:37Z</time></trkpt><trkpt lat="43.484033572257786" lon="11.324899106706885"><ele>600.0</ele><time>2026-04-25T07:51:38Z</time></trkpt><trkpt lat="43.48389977519329" lon="11.325012387126128"><ele>601.6666666666666</ele><time>2026-04-25T07:51:39Z</time></trkpt><trkpt lat="43.48376685264344" lon="11.325114274598745"><ele>603.3333333333333</ele><time>2026-04-25T07:51:40Z</time></trkpt><trkpt lat="43.48362602867758" lon="11.325232456164349"><ele>605.0</ele><time>2026-04-25T07:51:41Z</time></trkpt><trkpt lat="43.483466105047526" lon="11.325323538560307"><ele>606.6666666666666</ele><time>2026-04-25T07:51:42Z</time></trkpt><trkpt lat="43.48330922653531" lon="11.325426756081953"><ele>608.3333333333334</ele><time>2026-04-25T07:51:43Z</time></trkpt><trkpt lat="43.48315234964325" lon="11.325528669170993"><ele>610.0</ele><time>2026-04-25T07:51:44Z</time></trkpt><trkpt lat="43.482998112680825" lon="11.325603606044368"><ele>609.3333333333334</ele><time>2026-04-25T07:51:45Z</time></trkpt><trkpt lat="43.482837419836365" lon="11.325636826412122"><ele>608.6666666666666</ele><time>2026-04-25T07:51:46Z</time></trkpt><trkpt lat="43.482688682258505" lon="11.32563461364718"><ele>608.0</ele><time>2026-04-25T07:51:47Z</time></trkpt><trkpt lat="43.48253543426605" lon="11.325605411245089"><ele>608.0</ele><time>2026-04-25T07:51:48Z</time></trkpt><trkpt lat="43.48237063436733" lon="11.325584745168038"><ele>608.0</ele><time>2026-04-25T07:51:49Z</time></trkpt><trkpt lat="43.48219875965249" lon="11.325531502866214"><ele>608.0</ele><time>2026-04-25T07:51:50Z</time></trkpt><trkpt lat="43.48201976083176" lon="11.325494514830472"><ele>611.0</ele><time>2026-04-25T07:51:51Z</time></trkpt><trkpt lat="43.481837772420796" lon="11.32545694225891"><ele>614.0</ele><time>2026-04-25T07:51:52Z</time></trkpt><trkpt lat="43.48166239342827" lon="11.325414404333765"><ele>617.0</ele><time>2026-04-25T07:51:53Z</time></trkpt><trkpt lat="43.481504851292655" lon="11.325379759497064"><ele>617.0</ele><time>2026-04-25T07:51:54Z</time></trkpt><trkpt lat="43.4813690317817" lon="11.32534983728016"><ele>617.0</ele><time>2026-04-25T07:51:55Z</time></trkpt><trkpt lat="43.48125348110091" lon="11.325342363543681"><ele>617.0</ele><time>2026-04-25T07:51:56Z</time></trkpt><trkpt lat="43.48112991568062" lon="11.325380015717588"><ele>617.0</ele><time>2026-04-25T07:51:57Z</time></trkpt><trkpt lat="43.481013155134825" lon="11.325497069172023"><ele>616.6666666666666</ele><time>2026-04-25T07:51:58Z</time></trkpt><trkpt lat="43.48090941290662" lon="11.325668502648353"><ele>616.3333333333334</ele><time>2026-04-25T07:51:59Z</time></trkpt><trkpt lat="43.48081884082452" lon="11.325873007329143"><ele>616.0</ele><time>2026-04-25T07:52:00Z</time></trkpt><trkpt lat="43.4807304301301" lon="11.326077874030457"><ele>616.0</ele><time>2026-04-25T07:52:01Z</time></trkpt><trkpt lat="43.48063854028667" lon="11.326249974932061"><ele>616.0</ele><time>2026-04-25T07:52:02Z</time></trkpt><trkpt lat="43.48053971888337" lon="11.326395567444766"><ele>616.0</ele><time>2026-04-25T07:52:03Z</time></trkpt><trkpt lat="43.48043966330675" lon="11.326532149573827"><ele>616.0</ele><time>2026-04-25T07:52:04Z</time></trkpt><trkpt lat="43.48034219576839" lon="11.326674894030843"><ele>614.75</ele><time>2026-04-25T07:52:05Z</time></trkpt><trkpt lat="43.4802689871134" lon="11.326796258185382"><ele>613.5</ele><time>2026-04-25T07:52:06Z</time></trkpt><trkpt lat="43.4802257039569" lon="11.326941965561781"><ele>612.25</ele><time>2026-04-25T07:52:07Z</time></trkpt><trkpt lat="43.48021838197644" lon="11.327126283913383"><ele>611.0</ele><time>2026-04-25T07:52:08Z</time></trkpt><trkpt lat="43.48027541963007" lon="11.327340138874824"><ele>608.6666666666666</ele><time>2026-04-25T07:52:09Z</time></trkpt><trkpt lat="43.48033324388991" lon="11.327548292626105"><ele>606.3333333333334</ele><time>2026-04-25T07:52:10Z</time></trkpt><trkpt lat="43.48037684950886" lon="11.32776894367138"><ele>604.0</ele><time>2026-04-25T07:52:11Z</time></trkpt><trkpt lat="43.480392654356955" lon="11.32799564217871"><ele>605.3333333333334</ele><time>2026-04-25T07:52:12Z</time></trkpt><trkpt lat="43.480386565018804" lon="11.328217259670996"><ele>606.6666666666666</ele><time>2026-04-25T07:52:13Z</time></trkpt><trkpt lat="43.48035791334378" lon="11.328440848762003"><ele>608.0</ele><time>2026-04-25T07:52:14Z</time></trkpt><trkpt lat="43.48029962435788" lon="11.328656682481547"><ele>608.0</ele><time>2026-04-25T07:52:14.999Z</time></trkpt><trkpt lat="43.48021304646517" lon="11.32883261697638"><ele>608.0</ele><time>2026-04-25T07:52:15.999Z</time></trkpt><trkpt lat="43.48008700511889" lon="11.328949973056382"><ele>608.0</ele><time>2026-04-25T07:52:16.999Z</time></trkpt><trkpt lat="43.47993704648683" lon="11.328956753075314"><ele>608.25</ele><time>2026-04-25T07:52:17.999Z</time></trkpt><trkpt lat="43.47980860918113" lon="11.328966901647995"><ele>608.5</ele><time>2026-04-25T07:52:18.999Z</time></trkpt><trkpt lat="43.47968532100098" lon="11.328985504565836"><ele>608.75</ele><time>2026-04-25T07:52:19.999Z</time></trkpt><trkpt lat="43.47957015534331" lon="11.329091611101095"><ele>609.0</ele><time>2026-04-25T07:52:20.999Z</time></trkpt><trkpt lat="43.47946928603328" lon="11.32924532679177"><ele>609.0</ele><time>2026-04-25T07:52:21.999Z</time></trkpt><trkpt lat="43.47939862063748" lon="11.329437306571934"><ele>609.0</ele><time>2026-04-25T07:52:22.999Z</time></trkpt><trkpt lat="43.47933554382789" lon="11.329634758244442"><ele>609.0</ele><time>2026-04-25T07:52:23.999Z</time></trkpt><trkpt lat="43.47927586215552" lon="11.329804775165318"><ele>611.25</ele><time>2026-04-25T07:52:24.999Z</time></trkpt><trkpt lat="43.4792233216358" lon="11.329970122755565"><ele>613.5</ele><time>2026-04-25T07:52:25.999Z</time></trkpt><trkpt lat="43.47917622345065" lon="11.33014013391281"><ele>615.75</ele><time>2026-04-25T07:52:26.999Z</time></trkpt><trkpt lat="43.47915154586189" lon="11.33032837090708"><ele>618.0</ele><time>2026-04-25T07:52:27.999Z</time></trkpt><trkpt lat="43.47916008335994" lon="11.330545815652481"><ele>618.5</ele><time>2026-04-25T07:52:28.999Z</time></trkpt><trkpt lat="43.479178251691074" lon="11.330750679557843"><ele>619.0</ele><time>2026-04-25T07:52:29.999Z</time></trkpt><trkpt lat="43.479190980285885" lon="11.33094001899091"><ele>619.5</ele><time>2026-04-25T07:52:30.999Z</time></trkpt><trkpt lat="43.47918319839053" lon="11.331082101030246"><ele>620.0</ele><time>2026-04-25T07:52:31.999Z</time></trkpt><trkpt lat="43.479190312150415" lon="11.331244311253192"><ele>619.0</ele><time>2026-04-25T07:52:32.999Z</time></trkpt><trkpt lat="43.47919252727742" lon="11.331392328420817"><ele>618.0</ele><time>2026-04-25T07:52:33.999Z</time></trkpt><trkpt lat="43.47915305204621" lon="11.331514905574384"><ele>617.0</ele><time>2026-04-25T07:52:34.999Z</time></trkpt><trkpt lat="43.479087845837256" lon="11.331611270910924"><ele>616.0</ele><time>2026-04-25T07:52:35.999Z</time></trkpt><trkpt lat="43.47899712857453" lon="11.331690609063761"><ele>615.0</ele><time>2026-04-25T07:52:36.999Z</time></trkpt><trkpt lat="43.478866267075176" lon="11.331759793604407"><ele>615.75</ele><time>2026-04-25T07:52:37.999Z</time></trkpt><trkpt lat="43.47872950456977" lon="11.331846989745955"><ele>616.5</ele><time>2026-04-25T07:52:38.999Z</time></trkpt><trkpt lat="43.47861531904662" lon="11.331943365715741"><ele>617.25</ele><time>2026-04-25T07:52:39.999Z</time></trkpt><trkpt lat="43.47849708363554" lon="11.332001276345798"><ele>618.0</ele><time>2026-04-25T07:52:40.999Z</time></trkpt><trkpt lat="43.4784009523208" lon="11.332103189643014"><ele>618.0</ele><time>2026-04-25T07:52:41.999Z</time></trkpt><trkpt lat="43.47830137765515" lon="11.332191689089164"><ele>618.0</ele><time>2026-04-25T07:52:42.999Z</time></trkpt><trkpt lat="43.4782069120003" lon="11.33230533474046"><ele>618.0</ele><time>2026-04-25T07:52:43.999Z</time></trkpt><trkpt lat="43.47811360190756" lon="11.332422920191222"><ele>618.0</ele><time>2026-04-25T07:52:44.999Z</time></trkpt><trkpt lat="43.47800452269681" lon="11.332535411260466"><ele>616.75</ele><time>2026-04-25T07:52:45.999Z</time></trkpt><trkpt lat="43.47788712801516" lon="11.332621783758187"><ele>615.5</ele><time>2026-04-25T07:52:46.999Z</time></trkpt><trkpt lat="43.47777910128059" lon="11.332703358772509"><ele>614.25</ele><time>2026-04-25T07:52:47.999Z</time></trkpt><trkpt lat="43.47767108525599" lon="11.332779470714852"><ele>613.0</ele><time>2026-04-25T07:52:48.999Z</time></trkpt><trkpt lat="43.47756730089818" lon="11.33285806426908"><ele>613.0</ele><time>2026-04-25T07:52:49.999Z</time></trkpt><trkpt lat="43.477465433131634" lon="11.33293350869289"><ele>613.0</ele><time>2026-04-25T07:52:50.999Z</time></trkpt><trkpt lat="43.47735358913188" lon="11.33298939720927"><ele>613.0</ele><time>2026-04-25T07:52:51.999Z</time></trkpt><trkpt lat="43.477222262518794" lon="11.33299427196385"><ele>613.0</ele><time>2026-04-25T07:52:52.999Z</time></trkpt><trkpt lat="43.47709066228257" lon="11.332994664839031"><ele>612.25</ele><time>2026-04-25T07:52:53.999Z</time></trkpt><trkpt lat="43.476951310854425" lon="11.332984044663641"><ele>611.5</ele><time>2026-04-25T07:52:54.999Z</time></trkpt><trkpt lat="43.47683581187318" lon="11.332941637434189"><ele>610.75</ele><time>2026-04-25T07:52:55.999Z</time></trkpt><trkpt lat="43.47671934173994" lon="11.33289301843761"><ele>610.0</ele><time>2026-04-25T07:52:56.999Z</time></trkpt><trkpt lat="43.476603397358936" lon="11.332853282245921"><ele>610.0</ele><time>2026-04-25T07:52:57.999Z</time></trkpt><trkpt lat="43.47649501917866" lon="11.332832011141818"><ele>610.0</ele><time>2026-04-25T07:52:58.999Z</time></trkpt><trkpt lat="43.47638579482363" lon="11.332857490063665"><ele>610.0</ele><time>2026-04-25T07:52:59.999Z</time></trkpt><trkpt lat="43.47628101546856" lon="11.332953795669324"><ele>610.0</ele><time>2026-04-25T07:53:00.999Z</time></trkpt><trkpt lat="43.47621177471916" lon="11.33307590143341"><ele>608.75</ele><time>2026-04-25T07:53:01.999Z</time></trkpt><trkpt lat="43.476156427062186" lon="11.33320677771237"><ele>607.5</ele><time>2026-04-25T07:53:02.999Z</time></trkpt><trkpt lat="43.4760902417862" lon="11.33332417314312"><ele>606.25</ele><time>2026-04-25T07:53:03.999Z</time></trkpt><trkpt lat="43.47601007913612" lon="11.333440101052005"><ele>605.0</ele><time>2026-04-25T07:53:04.999Z</time></trkpt><trkpt lat="43.47592986009112" lon="11.333557323637066"><ele>605.0</ele><time>2026-04-25T07:53:05.999Z</time></trkpt><trkpt lat="43.47582491768871" lon="11.333632921173123"><ele>605.0</ele><time>2026-04-25T07:53:06.999Z</time></trkpt><trkpt lat="43.47571068103789" lon="11.333685134062211"><ele>605.0</ele><time>2026-04-25T07:53:07.999Z</time></trkpt><trkpt lat="43.475573404262185" lon="11.333711352300902"><ele>605.0</ele><time>2026-04-25T07:53:08.999Z</time></trkpt><trkpt lat="43.47543274664759" lon="11.333704837988533"><ele>604.25</ele><time>2026-04-25T07:53:09.999Z</time></trkpt><trkpt lat="43.47529328493392" lon="11.333704610504892"><ele>603.5</ele><time>2026-04-25T07:53:10.999Z</time></trkpt><trkpt lat="43.47515844010398" lon="11.333685428798194"><ele>602.75</ele><time>2026-04-25T07:53:11.999Z</time></trkpt><trkpt lat="43.47502346716568" lon="11.333672654177516"><ele>602.0</ele><time>2026-04-25T07:53:12.999Z</time></trkpt><trkpt lat="43.47489148688554" lon="11.333663260539016"><ele>602.0</ele><time>2026-04-25T07:53:13.999Z</time></trkpt><trkpt lat="43.47477267380704" lon="11.333652060775155"><ele>602.0</ele><time>2026-04-25T07:53:14.999Z</time></trkpt><trkpt lat="43.47465705488956" lon="11.333637758838597"><ele>602.0</ele><time>2026-04-25T07:53:15.999Z</time></trkpt><trkpt lat="43.474543584222175" lon="11.333623008803738"><ele>602.0</ele><time>2026-04-25T07:53:16.999Z</time></trkpt><trkpt lat="43.474426940477656" lon="11.33360815523751"><ele>601.6</ele><time>2026-04-25T07:53:17.999Z</time></trkpt><trkpt lat="43.47432282429767" lon="11.333596744634516"><ele>601.2</ele><time>2026-04-25T07:53:18.999Z</time></trkpt><trkpt lat="43.47422001070368" lon="11.333596644984844"><ele>600.8</ele><time>2026-04-25T07:53:19.999Z</time></trkpt><trkpt lat="43.474132494442166" lon="11.33363801568064"><ele>600.4</ele><time>2026-04-25T07:53:20.999Z</time></trkpt><trkpt lat="43.47405197648342" lon="11.33374601110887"><ele>600.0</ele><time>2026-04-25T07:53:21.999Z</time></trkpt><trkpt lat="43.47402380184704" lon="11.333907552492432"><ele>599.0</ele><time>2026-04-25T07:53:22.999Z</time></trkpt><trkpt lat="43.47405168630687" lon="11.334075604836404"><ele>598.0</ele><time>2026-04-25T07:53:23.999Z</time></trkpt><trkpt lat="43.474122558999824" lon="11.334254495478334"><ele>597.0</ele><time>2026-04-25T07:53:24.999Z</time></trkpt><trkpt lat="43.474196742927745" lon="11.33443047408471"><ele>596.0</ele><time>2026-04-25T07:53:25.999Z</time></trkpt><trkpt lat="43.47425145119276" lon="11.334631349468443"><ele>598.0</ele><time>2026-04-25T07:53:26.999Z</time></trkpt><trkpt lat="43.47434425324767" lon="11.334859442037487"><ele>600.0</ele><time>2026-04-25T07:53:28Z</time></trkpt><trkpt lat="43.47445218925298" lon="11.335094685355799"><ele>602.0</ele><time>2026-04-25T07:53:29Z</time></trkpt><trkpt lat="43.47455377427866" lon="11.335320115707574"><ele>598.3333333333333</ele><time>2026-04-25T07:53:30Z</time></trkpt><trkpt lat="43.47466191577523" lon="11.335560095966466"><ele>594.6666666666666</ele><time>2026-04-25T07:53:31Z</time></trkpt><trkpt lat="43.4747737901422" lon="11.33580488632209"><ele>591.0</ele><time>2026-04-25T07:53:32Z</time></trkpt><trkpt lat="43.474898151714044" lon="11.336027386998584"><ele>591.0</ele><time>2026-04-25T07:53:33Z</time></trkpt><trkpt lat="43.47502865991522" lon="11.336256693602122"><ele>591.0</ele><time>2026-04-25T07:53:34Z</time></trkpt><trkpt lat="43.47515962715291" lon="11.336466879471239"><ele>591.0</ele><time>2026-04-25T07:53:35Z</time></trkpt><trkpt lat="43.475295733819664" lon="11.336672248456079"><ele>590.3333333333334</ele><time>2026-04-25T07:53:36Z</time></trkpt><trkpt lat="43.475414233151504" lon="11.336865196437925"><ele>589.6666666666667</ele><time>2026-04-25T07:53:37Z</time></trkpt><trkpt lat="43.47552691179377" lon="11.337042893405814"><ele>589.0</ele><time>2026-04-25T07:53:38Z</time></trkpt><trkpt lat="43.475633850878765" lon="11.337207615639166"><ele>591.25</ele><time>2026-04-25T07:53:39Z</time></trkpt><trkpt lat="43.47572413242543" lon="11.337355130690824"><ele>593.5</ele><time>2026-04-25T07:53:40Z</time></trkpt><trkpt lat="43.475809154565276" lon="11.337496783302601"><ele>595.75</ele><time>2026-04-25T07:53:41Z</time></trkpt><trkpt lat="43.47587822410664" lon="11.33764454077734"><ele>598.0</ele><time>2026-04-25T07:53:42Z</time></trkpt><trkpt lat="43.475909514000115" lon="11.337831145025227"><ele>598.0</ele><time>2026-04-25T07:53:43Z</time></trkpt><trkpt lat="43.47596845360496" lon="11.338015740355491"><ele>598.0</ele><time>2026-04-25T07:53:44Z</time></trkpt><trkpt lat="43.476011096350916" lon="11.338220907980109"><ele>598.0</ele><time>2026-04-25T07:53:45Z</time></trkpt><trkpt lat="43.47602048403266" lon="11.338444864718744"><ele>597.0</ele><time>2026-04-25T07:53:46Z</time></trkpt><trkpt lat="43.47599818507923" lon="11.33867676771052"><ele>596.0</ele><time>2026-04-25T07:53:47Z</time></trkpt><trkpt lat="43.47595556304895" lon="11.338923834639255"><ele>595.0</ele><time>2026-04-25T07:53:48Z</time></trkpt><trkpt lat="43.47591720814612" lon="11.339176781878622"><ele>593.3333333333334</ele><time>2026-04-25T07:53:49Z</time></trkpt><trkpt lat="43.475857487933986" lon="11.339396758918241"><ele>591.6666666666666</ele><time>2026-04-25T07:53:50Z</time></trkpt><trkpt lat="43.47580704970799" lon="11.339608816986761"><ele>590.0</ele><time>2026-04-25T07:53:51Z</time></trkpt><trkpt lat="43.475764556879064" lon="11.339812947132184"><ele>590.0</ele><time>2026-04-25T07:53:52Z</time></trkpt><trkpt lat="43.47573520656012" lon="11.340024693762473"><ele>590.0</ele><time>2026-04-25T07:53:53Z</time></trkpt><trkpt lat="43.47573858276738" lon="11.340253584280573"><ele>590.0</ele><time>2026-04-25T07:53:54Z</time></trkpt><trkpt lat="43.47576940077121" lon="11.340495427074686"><ele>589.0</ele><time>2026-04-25T07:53:55Z</time></trkpt><trkpt lat="43.475792174014806" lon="11.340722207388227"><ele>588.0</ele><time>2026-04-25T07:53:56Z</time></trkpt><trkpt lat="43.47576037912215" lon="11.34095688524989"><ele>587.0</ele><time>2026-04-25T07:53:57Z</time></trkpt><trkpt lat="43.47571956058144" lon="11.341205634359833"><ele>586.3333333333333</ele><time>2026-04-25T07:53:58Z</time></trkpt><trkpt lat="43.47568466377441" lon="11.341458158731838"><ele>585.6666666666666</ele><time>2026-04-25T07:53:59Z</time></trkpt><trkpt lat="43.4756420029959" lon="11.341699593434695"><ele>585.0</ele><time>2026-04-25T07:54:00Z</time></trkpt><trkpt lat="43.475610934975265" lon="11.341920893995923"><ele>585.0</ele><time>2026-04-25T07:54:01Z</time></trkpt><trkpt lat="43.4755767272885" lon="11.34214149016071"><ele>585.0</ele><time>2026-04-25T07:54:02Z</time></trkpt><trkpt lat="43.47553930118364" lon="11.342349471519146"><ele>585.0</ele><time>2026-04-25T07:54:03Z</time></trkpt><trkpt lat="43.47550702248758" lon="11.342545566246027"><ele>584.5</ele><time>2026-04-25T07:54:04Z</time></trkpt><trkpt lat="43.47548374616333" lon="11.342735225816021"><ele>584.0</ele><time>2026-04-25T07:54:05Z</time></trkpt><trkpt lat="43.47548775698722" lon="11.342938349464838"><ele>583.5</ele><time>2026-04-25T07:54:06Z</time></trkpt><trkpt lat="43.4755371268343" lon="11.343150162799931"><ele>583.0</ele><time>2026-04-25T07:54:07Z</time></trkpt><trkpt lat="43.47561781445933" lon="11.343369459089711"><ele>581.3333333333334</ele><time>2026-04-25T07:54:08Z</time></trkpt><trkpt lat="43.475704035715886" lon="11.343586191329198"><ele>579.6666666666666</ele><time>2026-04-25T07:54:09Z</time></trkpt><trkpt lat="43.47577532268481" lon="11.343818114856964"><ele>578.0</ele><time>2026-04-25T07:54:10Z</time></trkpt><trkpt lat="43.47581500704638" lon="11.344051236836371"><ele>577.6666666666666</ele><time>2026-04-25T07:54:11Z</time></trkpt><trkpt lat="43.475808550152735" lon="11.344289405231104"><ele>577.3333333333334</ele><time>2026-04-25T07:54:12Z</time></trkpt><trkpt lat="43.47581133043738" lon="11.344527868493392"><ele>577.0</ele><time>2026-04-25T07:54:13Z</time></trkpt><trkpt lat="43.4757762339" lon="11.34475946648222"><ele>576.0</ele><time>2026-04-25T07:54:14Z</time></trkpt><trkpt lat="43.47570176671685" lon="11.344962371617816"><ele>575.0</ele><time>2026-04-25T07:54:15Z</time></trkpt><trkpt lat="43.47564668693226" lon="11.345181970171835"><ele>574.0</ele><time>2026-04-25T07:54:16Z</time></trkpt><trkpt lat="43.47557082450871" lon="11.345397598177023"><ele>572.0</ele><time>2026-04-25T07:54:17Z</time></trkpt><trkpt lat="43.47550150476913" lon="11.345615482308505"><ele>570.0</ele><time>2026-04-25T07:54:18Z</time></trkpt><trkpt lat="43.47544043571806" lon="11.34583196320727"><ele>568.0</ele><time>2026-04-25T07:54:19Z</time></trkpt><trkpt lat="43.475378401487994" lon="11.346033869786357"><ele>571.1999999999999</ele><time>2026-04-25T07:54:20Z</time></trkpt><trkpt lat="43.47531988417951" lon="11.346207649138105"><ele>574.4</ele><time>2026-04-25T07:54:21Z</time></trkpt><trkpt lat="43.47527533141008" lon="11.34635148269852"><ele>577.5999999999999</ele><time>2026-04-25T07:54:22Z</time></trkpt><trkpt lat="43.475249776538014" lon="11.346473795957648"><ele>580.8</ele><time>2026-04-25T07:54:23Z</time></trkpt><trkpt lat="43.475253195256705" lon="11.346605673568572"><ele>584.0</ele><time>2026-04-25T07:54:24Z</time></trkpt><trkpt lat="43.475310842243594" lon="11.34675218371231"><ele>584.25</ele><time>2026-04-25T07:54:25Z</time></trkpt><trkpt lat="43.47541521812926" lon="11.34685986374129"><ele>584.5</ele><time>2026-04-25T07:54:26Z</time></trkpt><trkpt lat="43.475555412708616" lon="11.346894690586753"><ele>584.75</ele><time>2026-04-25T07:54:27Z</time></trkpt><trkpt lat="43.47569906279314" lon="11.346852146984103"><ele>585.0</ele><time>2026-04-25T07:54:28Z</time></trkpt><trkpt lat="43.47585387462622" lon="11.346779388672362"><ele>580.0</ele><time>2026-04-25T07:54:29Z</time></trkpt><trkpt lat="43.476001034894175" lon="11.346729002598968"><ele>575.0</ele><time>2026-04-25T07:54:30Z</time></trkpt><trkpt lat="43.47615467173799" lon="11.346693620948127"><ele>570.0</ele><time>2026-04-25T07:54:31Z</time></trkpt><trkpt lat="43.47631602148564" lon="11.346716701838472"><ele>567.0</ele><time>2026-04-25T07:54:32Z</time></trkpt><trkpt lat="43.47646893741558" lon="11.346774975921704"><ele>564.0</ele><time>2026-04-25T07:54:33Z</time></trkpt><trkpt lat="43.47658822636266" lon="11.3468952864003"><ele>561.0</ele><time>2026-04-25T07:54:34Z</time></trkpt><trkpt lat="43.476669300882385" lon="11.347066245916768"><ele>564.6666666666666</ele><time>2026-04-25T07:54:35Z</time></trkpt><trkpt lat="43.4767410815344" lon="11.347276683485864"><ele>568.3333333333333</ele><time>2026-04-25T07:54:36Z</time></trkpt><trkpt lat="43.47680711929261" lon="11.34750220923243"><ele>572.0</ele><time>2026-04-25T07:54:37Z</time></trkpt><trkpt lat="43.47684174835314" lon="11.347751622827154"><ele>572.0</ele><time>2026-04-25T07:54:38Z</time></trkpt><trkpt lat="43.47687289236214" lon="11.347985685289732"><ele>572.0</ele><time>2026-04-25T07:54:39Z</time></trkpt><trkpt lat="43.47690736441311" lon="11.34822845671083"><ele>572.0</ele><time>2026-04-25T07:54:40Z</time></trkpt><trkpt lat="43.4769390177882" lon="11.348460363019864"><ele>573.5</ele><time>2026-04-25T07:54:41Z</time></trkpt><trkpt lat="43.476965608928786" lon="11.34867178855625"><ele>575.0</ele><time>2026-04-25T07:54:42Z</time></trkpt><trkpt lat="43.47700041559683" lon="11.348850631184344"><ele>576.5</ele><time>2026-04-25T07:54:43Z</time></trkpt><trkpt lat="43.47707773061099" lon="11.349016573941737"><ele>578.0</ele><time>2026-04-25T07:54:44Z</time></trkpt><trkpt lat="43.47720283066726" lon="11.349169145209627"><ele>572.0</ele><time>2026-04-25T07:54:45Z</time></trkpt><trkpt lat="43.477345436259675" lon="11.349307435861814"><ele>566.0</ele><time>2026-04-25T07:54:45.999Z</time></trkpt><trkpt lat="43.47746366363786" lon="11.349441811465702"><ele>560.0</ele><time>2026-04-25T07:54:46.999Z</time></trkpt><trkpt lat="43.477523518635486" lon="11.349641796950014"><ele>563.0</ele><time>2026-04-25T07:54:47.999Z</time></trkpt><trkpt lat="43.477551526400184" lon="11.349853588703887"><ele>566.0</ele><time>2026-04-25T07:54:48.999Z</time></trkpt><trkpt lat="43.47753613194676" lon="11.350061925514717"><ele>569.0</ele><time>2026-04-25T07:54:49.999Z</time></trkpt><trkpt lat="43.47751080725622" lon="11.350266387883362"><ele>569.0</ele><time>2026-04-25T07:54:50.999Z</time></trkpt><trkpt lat="43.477463200072044" lon="11.350459955004556"><ele>569.0</ele><time>2026-04-25T07:54:51.999Z</time></trkpt><trkpt lat="43.47744885632555" lon="11.350664638722959"><ele>569.0</ele><time>2026-04-25T07:54:52.999Z</time></trkpt><trkpt lat="43.477474968303255" lon="11.350882469653415"><ele>570.0</ele><time>2026-04-25T07:54:53.999Z</time></trkpt><trkpt lat="43.477525713171765" lon="11.35109997232058"><ele>571.0</ele><time>2026-04-25T07:54:54.999Z</time></trkpt><trkpt lat="43.47757689210084" lon="11.3513057499939"><ele>572.0</ele><time>2026-04-25T07:54:55.999Z</time></trkpt><trkpt lat="43.47763178579404" lon="11.351486985334565"><ele>573.75</ele><time>2026-04-25T07:54:56.999Z</time></trkpt><trkpt lat="43.47771969405835" lon="11.351625114674231"><ele>575.5</ele><time>2026-04-25T07:54:57.999Z</time></trkpt><trkpt lat="43.477812382665775" lon="11.351752496154804"><ele>577.25</ele><time>2026-04-25T07:54:58.999Z</time></trkpt><trkpt lat="43.47787428123274" lon="11.351902857501145"><ele>579.0</ele><time>2026-04-25T07:54:59.999Z</time></trkpt><trkpt lat="43.477895996104834" lon="11.352095316339874"><ele>580.25</ele><time>2026-04-25T07:55:00.999Z</time></trkpt><trkpt lat="43.47788304360707" lon="11.352305553120743"><ele>581.5</ele><time>2026-04-25T07:55:01.999Z</time></trkpt><trkpt lat="43.477855571763456" lon="11.35250776478525"><ele>582.75</ele><time>2026-04-25T07:55:02.999Z</time></trkpt><trkpt lat="43.47784249947" lon="11.352690966256022"><ele>584.0</ele><time>2026-04-25T07:55:03.999Z</time></trkpt><trkpt lat="43.477872339277255" lon="11.35286045942584"><ele>575.6666666666666</ele><time>2026-04-25T07:55:04.999Z</time></trkpt><trkpt lat="43.477952626885354" lon="11.353031862036696"><ele>567.3333333333334</ele><time>2026-04-25T07:55:05.999Z</time></trkpt><trkpt lat="43.47805514664523" lon="11.353184896681665"><ele>559.0</ele><time>2026-04-25T07:55:06.999Z</time></trkpt><trkpt lat="43.478152295380085" lon="11.353352350772392"><ele>559.0</ele><time>2026-04-25T07:55:07.999Z</time></trkpt><trkpt lat="43.47823163675804" lon="11.353540748624281"><ele>559.0</ele><time>2026-04-25T07:55:08.999Z</time></trkpt><trkpt lat="43.4783017963543" lon="11.353729402591906"><ele>559.0</ele><time>2026-04-25T07:55:09.999Z</time></trkpt><trkpt lat="43.478379437234764" lon="11.353910653234163"><ele>560.25</ele><time>2026-04-25T07:55:10.999Z</time></trkpt><trkpt lat="43.47844893487189" lon="11.354088484929195"><ele>561.5</ele><time>2026-04-25T07:55:11.999Z</time></trkpt><trkpt lat="43.47850801119538" lon="11.35426083232199"><ele>562.75</ele><time>2026-04-25T07:55:12.999Z</time></trkpt><trkpt lat="43.47857503169857" lon="11.354452878116097"><ele>564.0</ele><time>2026-04-25T07:55:13.999Z</time></trkpt><trkpt lat="43.478602721006766" lon="11.354654195963418"><ele>563.4</ele><time>2026-04-25T07:55:14.999Z</time></trkpt><trkpt lat="43.47864719831002" lon="11.354820431056199"><ele>562.8</ele><time>2026-04-25T07:55:15.999Z</time></trkpt><trkpt lat="43.47866577384312" lon="11.354967062829155"><ele>562.2</ele><time>2026-04-25T07:55:16.999Z</time></trkpt><trkpt lat="43.478684183735" lon="11.355082800617335"><ele>561.6</ele><time>2026-04-25T07:55:17.999Z</time></trkpt><trkpt lat="43.47869979124137" lon="11.355179267006715"><ele>561.0</ele><time>2026-04-25T07:55:18.999Z</time></trkpt><trkpt lat="43.47872238810682" lon="11.355314102203273"><ele>559.25</ele><time>2026-04-25T07:55:20.999Z</time></trkpt><trkpt lat="43.478892207353574" lon="11.355350927670859"><ele>557.5</ele><time>2026-04-25T07:55:36Z</time></trkpt><trkpt lat="43.47897423040312" lon="11.355363933341781"><ele>555.75</ele><time>2026-04-25T07:55:37Z</time></trkpt><trkpt lat="43.47911103762523" lon="11.355393435892053"><ele>554.0</ele><time>2026-04-25T07:55:39Z</time></trkpt><trkpt lat="43.47920079097745" lon="11.355413638078705"><ele>554.0</ele><time>2026-04-25T07:55:40Z</time></trkpt><trkpt lat="43.47927609480797" lon="11.35543567358888"><ele>554.0</ele><time>2026-04-25T07:55:41Z</time></trkpt><trkpt lat="43.47934990442274" lon="11.355470253963533"><ele>554.0</ele><time>2026-04-25T07:55:42Z</time></trkpt><trkpt lat="43.47942076133464" lon="11.355528664102879"><ele>554.0</ele><time>2026-04-25T07:55:43Z</time></trkpt><trkpt lat="43.47949206914347" lon="11.35557398574156"><ele>554.0</ele><time>2026-04-25T07:55:44Z</time></trkpt><trkpt lat="43.479548184543674" lon="11.355639343101886"><ele>554.0</ele><time>2026-04-25T07:55:45Z</time></trkpt><trkpt lat="43.47959395669465" lon="11.355704999591929"><ele>552.8333333333333</ele><time>2026-04-25T07:55:46Z</time></trkpt><trkpt lat="43.479642146604256" lon="11.355778422032154"><ele>551.6666666666666</ele><time>2026-04-25T07:55:47Z</time></trkpt><trkpt lat="43.47969655324096" lon="11.355848466779333"><ele>550.5</ele><time>2026-04-25T07:55:48Z</time></trkpt><trkpt lat="43.47975667268918" lon="11.355915880957454"><ele>549.3333333333334</ele><time>2026-04-25T07:55:49Z</time></trkpt><trkpt lat="43.479817025333965" lon="11.35598224206332"><ele>548.1666666666667</ele><time>2026-04-25T07:55:50Z</time></trkpt><trkpt lat="43.47988681324354" lon="11.356046011066363"><ele>547.0</ele><time>2026-04-25T07:55:51Z</time></trkpt><trkpt lat="43.479959941488666" lon="11.356097062680922"><ele>547.0</ele><time>2026-04-25T07:55:52Z</time></trkpt><trkpt lat="43.48003623351188" lon="11.356144434073753"><ele>547.0</ele><time>2026-04-25T07:55:53Z</time></trkpt><trkpt lat="43.480118566454415" lon="11.35620097697355"><ele>547.0</ele><time>2026-04-25T07:55:54Z</time></trkpt><trkpt lat="43.480194918619794" lon="11.35624694001687"><ele>547.0</ele><time>2026-04-25T07:55:55Z</time></trkpt><trkpt lat="43.480269090806814" lon="11.356286758481115"><ele>547.0</ele><time>2026-04-25T07:55:56Z</time></trkpt><trkpt lat="43.48036075504174" lon="11.356319572651772"><ele>547.0</ele><time>2026-04-25T07:55:57Z</time></trkpt><trkpt lat="43.480428058458926" lon="11.356317672295193"><ele>544.5</ele><time>2026-04-25T07:55:58Z</time></trkpt><trkpt lat="43.480523466072185" lon="11.356322688485792"><ele>542.0</ele><time>2026-04-25T07:55:59Z</time></trkpt><trkpt lat="43.48061328643277" lon="11.356329455099326"><ele>539.5</ele><time>2026-04-25T07:56:00Z</time></trkpt><trkpt lat="43.48070117027906" lon="11.356345422379201"><ele>537.0</ele><time>2026-04-25T07:56:01Z</time></trkpt><trkpt lat="43.480785226539716" lon="11.356355422958657"><ele>534.5</ele><time>2026-04-25T07:56:02Z</time></trkpt><trkpt lat="43.48086589867011" lon="11.356361748733802"><ele>532.0</ele><time>2026-04-25T07:56:03Z</time></trkpt><trkpt lat="43.48095037741605" lon="11.35636885721455"><ele>533.3333333333334</ele><time>2026-04-25T07:56:04Z</time></trkpt><trkpt lat="43.4810147718685" lon="11.35639305235814"><ele>534.6666666666667</ele><time>2026-04-25T07:56:05Z</time></trkpt><trkpt lat="43.481084541457705" lon="11.35642621414527"><ele>536.0</ele><time>2026-04-25T07:56:06Z</time></trkpt><trkpt lat="43.48115297247753" lon="11.356486012603646"><ele>537.3333333333334</ele><time>2026-04-25T07:56:07Z</time></trkpt><trkpt lat="43.48121848275586" lon="11.356573933305446"><ele>538.6666666666666</ele><time>2026-04-25T07:56:08Z</time></trkpt><trkpt lat="43.48129715719529" lon="11.356659640611657"><ele>540.0</ele><time>2026-04-25T07:56:09Z</time></trkpt><trkpt lat="43.48138519054129" lon="11.356725291651717"><ele>540.0</ele><time>2026-04-25T07:56:10Z</time></trkpt><trkpt lat="43.48147567158878" lon="11.35677617378144"><ele>540.0</ele><time>2026-04-25T07:56:11Z</time></trkpt><trkpt lat="43.481566405587415" lon="11.3568213184374"><ele>540.0</ele><time>2026-04-25T07:56:12Z</time></trkpt><trkpt lat="43.481660650886866" lon="11.356865391469773"><ele>540.0</ele><time>2026-04-25T07:56:13Z</time></trkpt><trkpt lat="43.48175777426081" lon="11.356898859985867"><ele>540.0</ele><time>2026-04-25T07:56:14Z</time></trkpt><trkpt lat="43.481851555105656" lon="11.356917436084048"><ele>540.0</ele><time>2026-04-25T07:56:15Z</time></trkpt><trkpt lat="43.48195251885403" lon="11.356951796076183"><ele>540.0</ele><time>2026-04-25T07:56:16Z</time></trkpt><trkpt lat="43.48205512603759" lon="11.356968046456073"><ele>540.0</ele><time>2026-04-25T07:56:17Z</time></trkpt><trkpt lat="43.4821575796481" lon="11.356975877978423"><ele>540.0</ele><time>2026-04-25T07:56:18Z</time></trkpt><trkpt lat="43.48225916807285" lon="11.356988845549969"><ele>540.0</ele><time>2026-04-25T07:56:19Z</time></trkpt><trkpt lat="43.48233388893373" lon="11.357020388491511"><ele>538.5</ele><time>2026-04-25T07:56:20Z</time></trkpt><trkpt lat="43.482415535264906" lon="11.35707335449139"><ele>537.0</ele><time>2026-04-25T07:56:21Z</time></trkpt><trkpt lat="43.482492187732895" lon="11.3571446186621"><ele>535.5</ele><time>2026-04-25T07:56:22Z</time></trkpt><trkpt lat="43.48255518976917" lon="11.357225595045572"><ele>534.0</ele><time>2026-04-25T07:56:23Z</time></trkpt><trkpt lat="43.4826058937884" lon="11.357311054221384"><ele>532.5</ele><time>2026-04-25T07:56:24Z</time></trkpt><trkpt lat="43.48265036454932" lon="11.357427628619279"><ele>531.0</ele><time>2026-04-25T07:56:25Z</time></trkpt><trkpt lat="43.4827054818629" lon="11.357553112227063"><ele>531.4</ele><time>2026-04-25T07:56:26Z</time></trkpt><trkpt lat="43.48276545002491" lon="11.357665967574938"><ele>531.8</ele><time>2026-04-25T07:56:27Z</time></trkpt><trkpt lat="43.48283547661551" lon="11.357755703342573"><ele>532.1999999999999</ele><time>2026-04-25T07:56:28Z</time></trkpt><trkpt lat="43.48291257412241" lon="11.357835106111871"><ele>532.6</ele><time>2026-04-25T07:56:29Z</time></trkpt><trkpt lat="43.482986166313815" lon="11.357921816360024"><ele>533.0</ele><time>2026-04-25T07:56:30Z</time></trkpt><trkpt lat="43.48305490089646" lon="11.358014216672142"><ele>535.5</ele><time>2026-04-25T07:56:31Z</time></trkpt><trkpt lat="43.4831212643644" lon="11.358102231337417"><ele>538.0</ele><time>2026-04-25T07:56:32Z</time></trkpt><trkpt lat="43.48318871703522" lon="11.358187028262872"><ele>540.5</ele><time>2026-04-25T07:56:33Z</time></trkpt><trkpt lat="43.48324374079937" lon="11.358271901196408"><ele>543.0</ele><time>2026-04-25T07:56:34Z</time></trkpt><trkpt lat="43.48328652544062" lon="11.358363825477156"><ele>545.5</ele><time>2026-04-25T07:56:35Z</time></trkpt><trkpt lat="43.48331527812499" lon="11.358472200958142"><ele>548.0</ele><time>2026-04-25T07:56:36Z</time></trkpt><trkpt lat="43.48334045306048" lon="11.358592933613194"><ele>548.0</ele><time>2026-04-25T07:56:37Z</time></trkpt><trkpt lat="43.483365724138515" lon="11.358732443923033"><ele>548.0</ele><time>2026-04-25T07:56:38Z</time></trkpt><trkpt lat="43.48339725427774" lon="11.358867130129912"><ele>548.0</ele><time>2026-04-25T07:56:39Z</time></trkpt><trkpt lat="43.48343752103754" lon="11.358993900799543"><ele>548.0</ele><time>2026-04-25T07:56:40Z</time></trkpt><trkpt lat="43.48347451197289" lon="11.359123410998361"><ele>548.0</ele><time>2026-04-25T07:56:41Z</time></trkpt><trkpt lat="43.48350533222617" lon="11.359253451772002"><ele>549.1999999999999</ele><time>2026-04-25T07:56:42Z</time></trkpt><trkpt lat="43.48351530515856" lon="11.35937676140491"><ele>550.4</ele><time>2026-04-25T07:56:42.999Z</time></trkpt><trkpt lat="43.48352541900582" lon="11.359505286831682"><ele>551.5999999999999</ele><time>2026-04-25T07:56:43.999Z</time></trkpt><trkpt lat="43.4835028641849" lon="11.359619526297948"><ele>552.8</ele><time>2026-04-25T07:56:44.999Z</time></trkpt><trkpt lat="43.483479594541464" lon="11.359727733853775"><ele>554.0</ele><time>2026-04-25T07:56:45.999Z</time></trkpt><trkpt lat="43.48347018950828" lon="11.359892659610338"><ele>554.5</ele><time>2026-04-25T07:56:47.999Z</time></trkpt><trkpt lat="43.4834782644594" lon="11.359996343457922"><ele>555.0</ele><time>2026-04-25T07:56:48.999Z</time></trkpt><trkpt lat="43.4835092490886" lon="11.360090481197156"><ele>555.5</ele><time>2026-04-25T07:56:49.999Z</time></trkpt><trkpt lat="43.48355714846294" lon="11.360173622511875"><ele>556.0</ele><time>2026-04-25T07:56:50.999Z</time></trkpt><trkpt lat="43.483611360565725" lon="11.360283233493602"><ele>556.5</ele><time>2026-04-25T07:56:51.999Z</time></trkpt><trkpt lat="43.483658823921466" lon="11.360401070283116"><ele>557.0</ele><time>2026-04-25T07:56:52.999Z</time></trkpt><trkpt lat="43.48371987825853" lon="11.360521020580526"><ele>552.0</ele><time>2026-04-25T07:56:53.999Z</time></trkpt><trkpt lat="43.48378394789849" lon="11.360640721664485"><ele>547.0</ele><time>2026-04-25T07:56:54.999Z</time></trkpt><trkpt lat="43.483837622848974" lon="11.36074744547075"><ele>542.0</ele><time>2026-04-25T07:56:55.999Z</time></trkpt><trkpt lat="43.48389014550877" lon="11.360840641520833"><ele>537.0</ele><time>2026-04-25T07:56:56.999Z</time></trkpt><trkpt lat="43.483956652027324" lon="11.360935907320743"><ele>532.0</ele><time>2026-04-25T07:56:57.999Z</time></trkpt><trkpt lat="43.484020461727994" lon="11.361020286950497"><ele>532.0</ele><time>2026-04-25T07:56:58.999Z</time></trkpt><trkpt lat="43.4840861434597" lon="11.361105024245239"><ele>532.0</ele><time>2026-04-25T07:56:59.999Z</time></trkpt><trkpt lat="43.48414576991729" lon="11.361186471121242"><ele>532.0</ele><time>2026-04-25T07:57:00.999Z</time></trkpt><trkpt lat="43.484196426067136" lon="11.361266715455193"><ele>532.0</ele><time>2026-04-25T07:57:01.999Z</time></trkpt><trkpt lat="43.484252268320475" lon="11.361352441143573"><ele>532.0</ele><time>2026-04-25T07:57:02.999Z</time></trkpt><trkpt lat="43.48431481439234" lon="11.361441237517203"><ele>532.0</ele><time>2026-04-25T07:57:03.999Z</time></trkpt><trkpt lat="43.48438321926008" lon="11.361525718723977"><ele>534.6</ele><time>2026-04-25T07:57:04.999Z</time></trkpt><trkpt lat="43.484436092007165" lon="11.361687733987306"><ele>537.2</ele><time>2026-04-25T07:57:06.999Z</time></trkpt><trkpt lat="43.48448392964052" lon="11.361801504488792"><ele>539.8</ele><time>2026-04-25T07:57:07.999Z</time></trkpt><trkpt lat="43.48450875088443" lon="11.36190917574445"><ele>542.4</ele><time>2026-04-25T07:57:08.999Z</time></trkpt><trkpt lat="43.48451910003024" lon="11.362030412313914"><ele>545.0</ele><time>2026-04-25T07:57:09.999Z</time></trkpt><trkpt lat="43.484525420404026" lon="11.362171363184627"><ele>544.2</ele><time>2026-04-25T07:57:10.999Z</time></trkpt><trkpt lat="43.484535840544524" lon="11.362327256248179"><ele>543.4</ele><time>2026-04-25T07:57:11.999Z</time></trkpt><trkpt lat="43.48454607664337" lon="11.362483368225107"><ele>542.6</ele><time>2026-04-25T07:57:12.999Z</time></trkpt><trkpt lat="43.484559104004255" lon="11.362627761045706"><ele>541.8</ele><time>2026-04-25T07:57:13.999Z</time></trkpt><trkpt lat="43.484571050565705" lon="11.362764776434036"><ele>541.0</ele><time>2026-04-25T07:57:14.999Z</time></trkpt><trkpt lat="43.48458319791898" lon="11.3629018276659"><ele>538.8</ele><time>2026-04-25T07:57:15.999Z</time></trkpt><trkpt lat="43.48459476927814" lon="11.363041198541532"><ele>536.6</ele><time>2026-04-25T07:57:16.999Z</time></trkpt><trkpt lat="43.484608276102946" lon="11.363173072635238"><ele>534.4</ele><time>2026-04-25T07:57:17.999Z</time></trkpt><trkpt lat="43.48462584607053" lon="11.363301147528716"><ele>532.2</ele><time>2026-04-25T07:57:18.999Z</time></trkpt><trkpt lat="43.484634950997126" lon="11.363418570396421"><ele>530.0</ele><time>2026-04-25T07:57:19.999Z</time></trkpt><trkpt lat="43.48464811922794" lon="11.363541264113946"><ele>526.1666666666666</ele><time>2026-04-25T07:57:20.999Z</time></trkpt><trkpt lat="43.4846572556631" lon="11.363652304874288"><ele>522.3333333333333</ele><time>2026-04-25T07:57:21.999Z</time></trkpt><trkpt lat="43.48467298929575" lon="11.363762282669743"><ele>518.5</ele><time>2026-04-25T07:57:22.999Z</time></trkpt><trkpt lat="43.48468973464156" lon="11.363872863175976"><ele>514.6666666666666</ele><time>2026-04-25T07:57:23.999Z</time></trkpt><trkpt lat="43.48469844326644" lon="11.36398452021426"><ele>510.8333333333333</ele><time>2026-04-25T07:57:24.999Z</time></trkpt><trkpt lat="43.48470225966696" lon="11.364099371870154"><ele>507.0</ele><time>2026-04-25T07:57:25.999Z</time></trkpt><trkpt lat="43.48471481052029" lon="11.364207695538553"><ele>506.8333333333333</ele><time>2026-04-25T07:57:26.999Z</time></trkpt><trkpt lat="43.48473266132435" lon="11.364327163258872"><ele>506.66666666666663</ele><time>2026-04-25T07:57:27.999Z</time></trkpt><trkpt lat="43.484771718368776" lon="11.364438016214308"><ele>506.5</ele><time>2026-04-25T07:57:28.999Z</time></trkpt><trkpt lat="43.484806648425455" lon="11.364534607086638"><ele>506.3333333333333</ele><time>2026-04-25T07:57:29.999Z</time></trkpt><trkpt lat="43.484850712182485" lon="11.364607966154622"><ele>506.16666666666663</ele><time>2026-04-25T07:57:30.999Z</time></trkpt><trkpt lat="43.48488146608056" lon="11.364690399574394"><ele>506.0</ele><time>2026-04-25T07:57:31.999Z</time></trkpt><trkpt lat="43.48489981918531" lon="11.364801729488114"><ele>505.66666666666663</ele><time>2026-04-25T07:57:32.999Z</time></trkpt><trkpt lat="43.4849011195346" lon="11.36491585390913"><ele>505.3333333333333</ele><time>2026-04-25T07:57:33.999Z</time></trkpt><trkpt lat="43.48489951698302" lon="11.365029279931612"><ele>505.0</ele><time>2026-04-25T07:57:34.999Z</time></trkpt><trkpt lat="43.48489088883467" lon="11.365144069756793"><ele>504.66666666666663</ele><time>2026-04-25T07:57:35.999Z</time></trkpt><trkpt lat="43.48487100027126" lon="11.3652620943714"><ele>504.3333333333333</ele><time>2026-04-25T07:57:36.999Z</time></trkpt><trkpt lat="43.484840331682506" lon="11.365371492855088"><ele>504.0</ele><time>2026-04-25T07:57:37.999Z</time></trkpt><trkpt lat="43.48479199965436" lon="11.365480681302916"><ele>503.5</ele><time>2026-04-25T07:57:38.999Z</time></trkpt><trkpt lat="43.4847416916222" lon="11.365594179021159"><ele>503.0</ele><time>2026-04-25T07:57:40Z</time></trkpt><trkpt lat="43.48469932648673" lon="11.365704823579012"><ele>502.5</ele><time>2026-04-25T07:57:41Z</time></trkpt><trkpt lat="43.48466118431337" lon="11.365806810282846"><ele>502.0</ele><time>2026-04-25T07:57:42Z</time></trkpt><trkpt lat="43.48463429566453" lon="11.365918734071485"><ele>501.5</ele><time>2026-04-25T07:57:43Z</time></trkpt><trkpt lat="43.484610695025474" lon="11.366000827056194"><ele>501.0</ele><time>2026-04-25T07:57:44Z</time></trkpt><trkpt lat="43.484575319192146" lon="11.366128231637155"><ele>501.0</ele><time>2026-04-25T07:57:49Z</time></trkpt><trkpt lat="43.48454950510021" lon="11.366254574084403"><ele>501.0</ele><time>2026-04-25T07:57:51Z</time></trkpt><trkpt lat="43.484538129298514" lon="11.366348562195641"><ele>501.0</ele><time>2026-04-25T07:57:52Z</time></trkpt><trkpt lat="43.48450281223581" lon="11.366504006581755"><ele>501.0</ele><time>2026-04-25T07:57:54Z</time></trkpt><trkpt lat="43.48447194692477" lon="11.366661763320613"><ele>501.0</ele><time>2026-04-25T07:57:56Z</time></trkpt><trkpt lat="43.48445243144791" lon="11.366784969048064"><ele>501.0</ele><time>2026-04-25T07:57:58Z</time></trkpt><trkpt lat="43.4844615793747" lon="11.366668955805741"><ele>501.0</ele><time>2026-04-25T07:58:09Z</time></trkpt><trkpt lat="43.48438280332284" lon="11.366431512232797"><ele>501.0</ele><time>2026-04-25T07:58:10Z</time></trkpt><trkpt lat="43.48438257907627" lon="11.366314999524711"><ele>501.0</ele><time>2026-04-25T07:58:11Z</time></trkpt><trkpt lat="43.48439881783411" lon="11.366201756973279"><ele>501.0</ele><time>2026-04-25T07:58:12Z</time></trkpt><trkpt lat="43.48443044473042" lon="11.366082545947817"><ele>501.0</ele><time>2026-04-25T07:58:13Z</time></trkpt><trkpt lat="43.48443009215753" lon="11.365941073797815"><ele>501.0</ele><time>2026-04-25T07:58:14Z</time></trkpt><trkpt lat="43.484409606791985" lon="11.365763055609586"><ele>501.0</ele><time>2026-04-25T07:58:16Z</time></trkpt><trkpt lat="43.48434483206963" lon="11.365655442959628"><ele>501.0</ele><time>2026-04-25T07:58:17Z</time></trkpt><trkpt lat="43.48426558395355" lon="11.365576883029076"><ele>501.0</ele><time>2026-04-25T07:58:18Z</time></trkpt><trkpt lat="43.484199629049215" lon="11.365528296640353"><ele>501.0</ele><time>2026-04-25T07:58:19Z</time></trkpt><trkpt lat="43.48412986473005" lon="11.365479176397146"><ele>501.0</ele><time>2026-04-25T07:58:20Z</time></trkpt><trkpt lat="43.48404279162239" lon="11.36543405834153"><ele>501.0</ele><time>2026-04-25T07:58:21Z</time></trkpt><trkpt lat="43.483967597634646" lon="11.365406063161343"><ele>501.0</ele><time>2026-04-25T07:58:22Z</time></trkpt><trkpt lat="43.483902389962935" lon="11.365377833537377"><ele>501.0</ele><time>2026-04-25T07:58:24Z</time></trkpt><trkpt lat="43.483815578557454" lon="11.365454472520875"><ele>501.0</ele><time>2026-04-25T07:58:26Z</time></trkpt><trkpt lat="43.48383368265182" lon="11.365628203947368"><ele>501.0</ele><time>2026-04-25T07:58:27Z</time></trkpt><trkpt lat="43.48376467724106" lon="11.365714455831501"><ele>501.0</ele><time>2026-04-25T07:58:28Z</time></trkpt><trkpt lat="43.483683028890084" lon="11.365803341198454"><ele>501.0</ele><time>2026-04-25T07:58:29Z</time></trkpt><trkpt lat="43.48360111988789" lon="11.365918276970026"><ele>501.0</ele><time>2026-04-25T07:58:30Z</time></trkpt><trkpt lat="43.483521135167614" lon="11.366052949539291"><ele>501.0</ele><time>2026-04-25T07:58:31Z</time></trkpt><trkpt lat="43.48342583948626" lon="11.36619320464812"><ele>502.5</ele><time>2026-04-25T07:58:32Z</time></trkpt><trkpt lat="43.483336820045565" lon="11.366303715201322"><ele>504.0</ele><time>2026-04-25T07:58:33Z</time></trkpt><trkpt lat="43.48323372987668" lon="11.366408581827779"><ele>505.5</ele><time>2026-04-25T07:58:34Z</time></trkpt><trkpt lat="43.48311985767611" lon="11.366457251231484"><ele>507.0</ele><time>2026-04-25T07:58:35Z</time></trkpt><trkpt lat="43.48300695154653" lon="11.366482614449502"><ele>503.25</ele><time>2026-04-25T07:58:36Z</time></trkpt><trkpt lat="43.48288684161892" lon="11.366467891935315"><ele>499.5</ele><time>2026-04-25T07:58:37Z</time></trkpt><trkpt lat="43.482753445607074" lon="11.366433807103872"><ele>495.75</ele><time>2026-04-25T07:58:38Z</time></trkpt><trkpt lat="43.4826045657827" lon="11.366414026477006"><ele>492.0</ele><time>2026-04-25T07:58:39Z</time></trkpt><trkpt lat="43.48246632697193" lon="11.366380262268725"><ele>492.0</ele><time>2026-04-25T07:58:40Z</time></trkpt><trkpt lat="43.48233994845429" lon="11.36637370863896"><ele>492.0</ele><time>2026-04-25T07:58:41Z</time></trkpt><trkpt lat="43.48222269658771" lon="11.36641849395454"><ele>492.0</ele><time>2026-04-25T07:58:42Z</time></trkpt><trkpt lat="43.48212593526379" lon="11.366523444816934"><ele>492.0</ele><time>2026-04-25T07:58:43Z</time></trkpt><trkpt lat="43.48203671286622" lon="11.36667065437326"><ele>493.0</ele><time>2026-04-25T07:58:44Z</time></trkpt><trkpt lat="43.4819513616386" lon="11.366820495918994"><ele>494.0</ele><time>2026-04-25T07:58:45Z</time></trkpt><trkpt lat="43.48187069361599" lon="11.366950470743587"><ele>495.0</ele><time>2026-04-25T07:58:46Z</time></trkpt><trkpt lat="43.48177626516562" lon="11.367046389339356"><ele>496.0</ele><time>2026-04-25T07:58:47Z</time></trkpt><trkpt lat="43.481652383244" lon="11.367100262044167"><ele>496.0</ele><time>2026-04-25T07:58:48Z</time></trkpt><trkpt lat="43.48150347667175" lon="11.367104385127918"><ele>496.0</ele><time>2026-04-25T07:58:49Z</time></trkpt><trkpt lat="43.48135733311311" lon="11.367093463416639"><ele>496.0</ele><time>2026-04-25T07:58:50Z</time></trkpt><trkpt lat="43.48122477946651" lon="11.367119485124666"><ele>496.0</ele><time>2026-04-25T07:58:51Z</time></trkpt><trkpt lat="43.48110494285867" lon="11.367149617448886"><ele>494.5</ele><time>2026-04-25T07:58:52Z</time></trkpt><trkpt lat="43.480994455285376" lon="11.367231891680154"><ele>493.0</ele><time>2026-04-25T07:58:53Z</time></trkpt><trkpt lat="43.480911579398196" lon="11.367351329231807"><ele>491.5</ele><time>2026-04-25T07:58:53.999Z</time></trkpt><trkpt lat="43.48085367420017" lon="11.367488998218468"><ele>490.0</ele><time>2026-04-25T07:58:54.999Z</time></trkpt><trkpt lat="43.480801776378655" lon="11.367609689835735"><ele>490.0</ele><time>2026-04-25T07:58:55.999Z</time></trkpt><trkpt lat="43.480718052719205" lon="11.367701208896813"><ele>490.0</ele><time>2026-04-25T07:58:56.999Z</time></trkpt><trkpt lat="43.48059602693517" lon="11.367752971232743"><ele>490.0</ele><time>2026-04-25T07:58:57.999Z</time></trkpt><trkpt lat="43.48046747616349" lon="11.367729152713313"><ele>490.0</ele><time>2026-04-25T07:58:58.999Z</time></trkpt><trkpt lat="43.48036891812555" lon="11.36761378280738"><ele>491.5</ele><time>2026-04-25T07:58:59.999Z</time></trkpt><trkpt lat="43.480273519423214" lon="11.367576609488223"><ele>493.0</ele><time>2026-04-25T07:59:00.999Z</time></trkpt><trkpt lat="43.48018191030254" lon="11.367603399932458"><ele>494.5</ele><time>2026-04-25T07:59:01.999Z</time></trkpt><trkpt lat="43.480086816847646" lon="11.367720050639525"><ele>496.0</ele><time>2026-04-25T07:59:02.999Z</time></trkpt><trkpt lat="43.48000542328831" lon="11.367874067137024"><ele>491.33333333333337</ele><time>2026-04-25T07:59:03.999Z</time></trkpt><trkpt lat="43.47990133835398" lon="11.368033233755972"><ele>486.66666666666663</ele><time>2026-04-25T07:59:04.999Z</time></trkpt><trkpt lat="43.47978809966474" lon="11.368194368032691"><ele>482.0</ele><time>2026-04-25T07:59:05.999Z</time></trkpt><trkpt lat="43.4796731030678" lon="11.368352800345399"><ele>481.66666666666663</ele><time>2026-04-25T07:59:06.999Z</time></trkpt><trkpt lat="43.47955962099682" lon="11.368517669002859"><ele>481.33333333333337</ele><time>2026-04-25T07:59:07.999Z</time></trkpt><trkpt lat="43.47943945072067" lon="11.368693094902461"><ele>481.0</ele><time>2026-04-25T07:59:08.999Z</time></trkpt><trkpt lat="43.47931672151768" lon="11.368869443741996"><ele>481.0</ele><time>2026-04-25T07:59:09.999Z</time></trkpt><trkpt lat="43.47920026299751" lon="11.36903460337599"><ele>481.0</ele><time>2026-04-25T07:59:10.999Z</time></trkpt><trkpt lat="43.479086517432734" lon="11.369194783512771"><ele>481.0</ele><time>2026-04-25T07:59:11.999Z</time></trkpt><trkpt lat="43.4789811220608" lon="11.36934836375936"><ele>481.0</ele><time>2026-04-25T07:59:12.999Z</time></trkpt><trkpt lat="43.47887960205835" lon="11.36949844829192"><ele>481.0</ele><time>2026-04-25T07:59:13.999Z</time></trkpt><trkpt lat="43.478777200943554" lon="11.36963035434378"><ele>481.0</ele><time>2026-04-25T07:59:14.999Z</time></trkpt><trkpt lat="43.47868531610872" lon="11.369727771436244"><ele>481.0</ele><time>2026-04-25T07:59:15.999Z</time></trkpt><trkpt lat="43.478584251587726" lon="11.369810092793662"><ele>478.5</ele><time>2026-04-25T07:59:16.999Z</time></trkpt><trkpt lat="43.47846204156758" lon="11.369811960769187"><ele>476.0</ele><time>2026-04-25T07:59:17.999Z</time></trkpt><trkpt lat="43.47834187940456" lon="11.369784559684131"><ele>473.5</ele><time>2026-04-25T07:59:18.999Z</time></trkpt><trkpt lat="43.47824778833247" lon="11.369773047956294"><ele>471.0</ele><time>2026-04-25T07:59:19.999Z</time></trkpt><trkpt lat="43.478123534496035" lon="11.369750306304113"><ele>471.0</ele><time>2026-04-25T07:59:20.999Z</time></trkpt><trkpt lat="43.478028793031434" lon="11.369769526431364"><ele>471.0</ele><time>2026-04-25T07:59:21.999Z</time></trkpt><trkpt lat="43.47795596583834" lon="11.36986804815335"><ele>471.0</ele><time>2026-04-25T07:59:22.999Z</time></trkpt><trkpt lat="43.477917666443375" lon="11.370030671917146"><ele>471.0</ele><time>2026-04-25T07:59:23.999Z</time></trkpt><trkpt lat="43.477925491936276" lon="11.37020290115173"><ele>471.0</ele><time>2026-04-25T07:59:24.999Z</time></trkpt><trkpt lat="43.47798040735476" lon="11.370399820293398"><ele>469.0</ele><time>2026-04-25T07:59:25.999Z</time></trkpt><trkpt lat="43.47804742014679" lon="11.370603133273526"><ele>467.0</ele><time>2026-04-25T07:59:26.999Z</time></trkpt><trkpt lat="43.47810142747101" lon="11.370788154873809"><ele>465.0</ele><time>2026-04-25T07:59:27.999Z</time></trkpt><trkpt lat="43.478143456484695" lon="11.370960383696971"><ele>463.0</ele><time>2026-04-25T07:59:28.999Z</time></trkpt><trkpt lat="43.47818454900718" lon="11.371125239103135"><ele>463.0</ele><time>2026-04-25T07:59:29.999Z</time></trkpt><trkpt lat="43.478228999915046" lon="11.37128507595009"><ele>463.0</ele><time>2026-04-25T07:59:30.999Z</time></trkpt><trkpt lat="43.478248691184106" lon="11.371447722687586"><ele>463.0</ele><time>2026-04-25T07:59:31.999Z</time></trkpt><trkpt lat="43.47821610107394" lon="11.371623458897444"><ele>463.0</ele><time>2026-04-25T07:59:32.999Z</time></trkpt><trkpt lat="43.47811613162909" lon="11.371779223030675"><ele>461.0</ele><time>2026-04-25T07:59:33.999Z</time></trkpt><trkpt lat="43.47798228437374" lon="11.371909912423387"><ele>459.0</ele><time>2026-04-25T07:59:34.999Z</time></trkpt><trkpt lat="43.47782269690556" lon="11.3719643573754"><ele>457.0</ele><time>2026-04-25T07:59:35.999Z</time></trkpt><trkpt lat="43.47766114326316" lon="11.371980190967172"><ele>457.0</ele><time>2026-04-25T07:59:36.999Z</time></trkpt><trkpt lat="43.477504321494486" lon="11.371984586322757"><ele>457.0</ele><time>2026-04-25T07:59:37.999Z</time></trkpt><trkpt lat="43.47736249766798" lon="11.371904843172485"><ele>457.0</ele><time>2026-04-25T07:59:38.999Z</time></trkpt><trkpt lat="43.477230456114505" lon="11.371832514556282"><ele>457.0</ele><time>2026-04-25T07:59:39.999Z</time></trkpt><trkpt lat="43.47710912784563" lon="11.371778703892398"><ele>457.0</ele><time>2026-04-25T07:59:40.999Z</time></trkpt><trkpt lat="43.47699108171766" lon="11.371757002815283"><ele>457.0</ele><time>2026-04-25T07:59:41.999Z</time></trkpt><trkpt lat="43.47687082006522" lon="11.37178914760634"><ele>457.0</ele><time>2026-04-25T07:59:42.999Z</time></trkpt><trkpt lat="43.476761181574425" lon="11.371885808829536"><ele>456.5</ele><time>2026-04-25T07:59:43.999Z</time></trkpt><trkpt lat="43.476682354816646" lon="11.3720400734194"><ele>456.0</ele><time>2026-04-25T07:59:44.999Z</time></trkpt><trkpt lat="43.47665259712315" lon="11.372231028516568"><ele>455.5</ele><time>2026-04-25T07:59:46Z</time></trkpt><trkpt lat="43.476648323157434" lon="11.372438411667416"><ele>455.0</ele><time>2026-04-25T07:59:47Z</time></trkpt><trkpt lat="43.476639598242976" lon="11.372647066737908"><ele>452.75</ele><time>2026-04-25T07:59:48Z</time></trkpt><trkpt lat="43.476617081096514" lon="11.372841657237972"><ele>450.5</ele><time>2026-04-25T07:59:49Z</time></trkpt><trkpt lat="43.47659100870101" lon="11.3730217151057"><ele>448.25</ele><time>2026-04-25T07:59:50Z</time></trkpt><trkpt lat="43.47656132342295" lon="11.373199765238265"><ele>446.0</ele><time>2026-04-25T07:59:51Z</time></trkpt><trkpt lat="43.476538879806895" lon="11.373363550363319"><ele>444.5</ele><time>2026-04-25T07:59:52Z</time></trkpt><trkpt lat="43.47652002824851" lon="11.373504318469301"><ele>443.0</ele><time>2026-04-25T07:59:53Z</time></trkpt><trkpt lat="43.476483319293564" lon="11.373631608891523"><ele>441.5</ele><time>2026-04-25T07:59:54Z</time></trkpt><trkpt lat="43.47639669004187" lon="11.373736314781944"><ele>440.0</ele><time>2026-04-25T07:59:55Z</time></trkpt><trkpt lat="43.47625481669356" lon="11.37375064023876"><ele>440.0</ele><time>2026-04-25T07:59:56Z</time></trkpt><trkpt lat="43.476095726996626" lon="11.373785374685802"><ele>440.0</ele><time>2026-04-25T07:59:57Z</time></trkpt><trkpt lat="43.47591889795439" lon="11.373794754337066"><ele>440.0</ele><time>2026-04-25T07:59:58Z</time></trkpt><trkpt lat="43.4757423475092" lon="11.373808872188722"><ele>440.0</ele><time>2026-04-25T07:59:59Z</time></trkpt><trkpt lat="43.47556692337737" lon="11.373835578977362"><ele>440.0</ele><time>2026-04-25T08:00:00Z</time></trkpt><trkpt lat="43.47539390449535" lon="11.373861383847789"><ele>440.0</ele><time>2026-04-25T08:00:01Z</time></trkpt><trkpt lat="43.47522874194281" lon="11.37388393363505"><ele>438.5</ele><time>2026-04-25T08:00:02Z</time></trkpt><trkpt lat="43.4750820526575" lon="11.373905901087477"><ele>437.0</ele><time>2026-04-25T08:00:03Z</time></trkpt><trkpt lat="43.47495381173239" lon="11.373914975673248"><ele>435.5</ele><time>2026-04-25T08:00:04Z</time></trkpt><trkpt lat="43.47483851354644" lon="11.373906300819415"><ele>434.0</ele><time>2026-04-25T08:00:05Z</time></trkpt><trkpt lat="43.47472901795489" lon="11.373846092859182"><ele>434.0</ele><time>2026-04-25T08:00:06Z</time></trkpt><trkpt lat="43.47465375430377" lon="11.373712571225388"><ele>434.0</ele><time>2026-04-25T08:00:07Z</time></trkpt><trkpt lat="43.4745608867282" lon="11.37361522183583"><ele>434.0</ele><time>2026-04-25T08:00:08Z</time></trkpt><trkpt lat="43.474479473096515" lon="11.37352121618407"><ele>434.0</ele><time>2026-04-25T08:00:09Z</time></trkpt><trkpt lat="43.47436699039849" lon="11.373488342436762"><ele>432.75</ele><time>2026-04-25T08:00:10Z</time></trkpt><trkpt lat="43.47424639011468" lon="11.373516219365742"><ele>431.5</ele><time>2026-04-25T08:00:11Z</time></trkpt><trkpt lat="43.474123426068935" lon="11.373603579853228"><ele>430.25</ele><time>2026-04-25T08:00:12Z</time></trkpt><trkpt lat="43.47400917403405" lon="11.373736228583551"><ele>429.0</ele><time>2026-04-25T08:00:13Z</time></trkpt><trkpt lat="43.473912105691156" lon="11.373885849208794"><ele>425.25</ele><time>2026-04-25T08:00:14Z</time></trkpt><trkpt lat="43.473839408718824" lon="11.374043754508886"><ele>421.5</ele><time>2026-04-25T08:00:15Z</time></trkpt><trkpt lat="43.47376523489281" lon="11.374186433505157"><ele>417.75</ele><time>2026-04-25T08:00:16Z</time></trkpt><trkpt lat="43.47366777241445" lon="11.37430889243265"><ele>414.0</ele><time>2026-04-25T08:00:17Z</time></trkpt><trkpt lat="43.473531168671435" lon="11.374394407464177"><ele>414.0</ele><time>2026-04-25T08:00:18Z</time></trkpt><trkpt lat="43.47338447467281" lon="11.374381136985958"><ele>414.0</ele><time>2026-04-25T08:00:19Z</time></trkpt><trkpt lat="43.47323591122214" lon="11.374348002048205"><ele>414.0</ele><time>2026-04-25T08:00:20Z</time></trkpt><trkpt lat="43.473073901416235" lon="11.374266205366652"><ele>410.33333333333337</ele><time>2026-04-25T08:00:21Z</time></trkpt><trkpt lat="43.47291458620254" lon="11.37417621279822"><ele>406.6666666666667</ele><time>2026-04-25T08:00:22Z</time></trkpt><trkpt lat="43.472769496822266" lon="11.37409693914379"><ele>403.0</ele><time>2026-04-25T08:00:23Z</time></trkpt><trkpt lat="43.47263041803165" lon="11.374012064350158"><ele>403.0</ele><time>2026-04-25T08:00:24Z</time></trkpt><trkpt lat="43.47250243491663" lon="11.373944197611543"><ele>403.0</ele><time>2026-04-25T08:00:25Z</time></trkpt><trkpt lat="43.47237168686299" lon="11.373894256216772"><ele>403.0</ele><time>2026-04-25T08:00:26Z</time></trkpt><trkpt lat="43.472224749654366" lon="11.373884287028059"><ele>403.0</ele><time>2026-04-25T08:00:27Z</time></trkpt><trkpt lat="43.472071725342815" lon="11.373930526694691"><ele>401.0</ele><time>2026-04-25T08:00:28Z</time></trkpt><trkpt lat="43.471903782008525" lon="11.373985478359524"><ele>399.0</ele><time>2026-04-25T08:00:29Z</time></trkpt><trkpt lat="43.47173152806177" lon="11.374032320691157"><ele>397.0</ele><time>2026-04-25T08:00:30Z</time></trkpt><trkpt lat="43.471573248511284" lon="11.37406501478955"><ele>397.0</ele><time>2026-04-25T08:00:31Z</time></trkpt><trkpt lat="43.47141683280033" lon="11.374117346036764"><ele>397.0</ele><time>2026-04-25T08:00:32Z</time></trkpt><trkpt lat="43.47126867139657" lon="11.374169346634364"><ele>397.0</ele><time>2026-04-25T08:00:33Z</time></trkpt><trkpt lat="43.47113136701623" lon="11.374216240565206"><ele>396.5</ele><time>2026-04-25T08:00:34Z</time></trkpt><trkpt lat="43.47099463273656" lon="11.374251175385602"><ele>396.0</ele><time>2026-04-25T08:00:35Z</time></trkpt><trkpt lat="43.47085445005509" lon="11.374265894166761"><ele>395.5</ele><time>2026-04-25T08:00:36Z</time></trkpt><trkpt lat="43.470706451725576" lon="11.374276613063905"><ele>395.0</ele><time>2026-04-25T08:00:37Z</time></trkpt><trkpt lat="43.47055830477364" lon="11.374283178328454"><ele>394.0</ele><time>2026-04-25T08:00:38Z</time></trkpt><trkpt lat="43.47040441657907" lon="11.374278883543367"><ele>393.0</ele><time>2026-04-25T08:00:39Z</time></trkpt><trkpt lat="43.47025282826869" lon="11.374274797423231"><ele>392.0</ele><time>2026-04-25T08:00:40Z</time></trkpt><trkpt lat="43.47010439264194" lon="11.37426101824769"><ele>392.0</ele><time>2026-04-25T08:00:41Z</time></trkpt><trkpt lat="43.46994929537926" lon="11.374256690451812"><ele>392.0</ele><time>2026-04-25T08:00:42Z</time></trkpt><trkpt lat="43.46979099471198" lon="11.37424866740903"><ele>392.0</ele><time>2026-04-25T08:00:43Z</time></trkpt><trkpt lat="43.4696359225875" lon="11.374244773406124"><ele>390.25</ele><time>2026-04-25T08:00:44Z</time></trkpt><trkpt lat="43.46948538060313" lon="11.374237033088226"><ele>388.5</ele><time>2026-04-25T08:00:45Z</time></trkpt><trkpt lat="43.46934143353356" lon="11.374240107608319"><ele>386.75</ele><time>2026-04-25T08:00:46Z</time></trkpt><trkpt lat="43.469199403535114" lon="11.374231576338738"><ele>385.0</ele><time>2026-04-25T08:00:47Z</time></trkpt><trkpt lat="43.469066567955814" lon="11.374195397655372"><ele>385.0</ele><time>2026-04-25T08:00:48Z</time></trkpt><trkpt lat="43.46895649876862" lon="11.374131321869045"><ele>385.0</ele><time>2026-04-25T08:00:49Z</time></trkpt><trkpt lat="43.468843427535596" lon="11.374017622135616"><ele>385.0</ele><time>2026-04-25T08:00:50Z</time></trkpt><trkpt lat="43.46873706091839" lon="11.373868200076569"><ele>385.0</ele><time>2026-04-25T08:00:51Z</time></trkpt><trkpt lat="43.468627983372365" lon="11.373730786363824"><ele>384.5</ele><time>2026-04-25T08:00:52Z</time></trkpt><trkpt lat="43.468538172259535" lon="11.37360287470366"><ele>384.0</ele><time>2026-04-25T08:00:53Z</time></trkpt><trkpt lat="43.468428400040416" lon="11.373486573644488"><ele>383.5</ele><time>2026-04-25T08:00:54Z</time></trkpt><trkpt lat="43.468308657274434" lon="11.373403739332309"><ele>383.0</ele><time>2026-04-25T08:00:55Z</time></trkpt><trkpt lat="43.4681927604821" lon="11.373358253325586"><ele>383.0</ele><time>2026-04-25T08:00:56Z</time></trkpt><trkpt lat="43.46808332928686" lon="11.373326869741168"><ele>383.0</ele><time>2026-04-25T08:00:57Z</time></trkpt><trkpt lat="43.467997844447474" lon="11.373285989241392"><ele>383.0</ele><time>2026-04-25T08:00:58Z</time></trkpt><trkpt lat="43.467896025453875" lon="11.373188588161398"><ele>383.0</ele><time>2026-04-25T08:01:00Z</time></trkpt><trkpt lat="43.46789297024365" lon="11.373021040725812"><ele>383.0</ele><time>2026-04-25T08:01:02Z</time></trkpt><trkpt lat="43.46787644200327" lon="11.372900745748025"><ele>381.59999999999997</ele><time>2026-04-25T08:01:11Z</time></trkpt><trkpt lat="43.46784489613983" lon="11.372714993010677"><ele>380.2</ele><time>2026-04-25T08:01:13Z</time></trkpt><trkpt lat="43.46781612663063" lon="11.372601035391572"><ele>378.8</ele><time>2026-04-25T08:01:14Z</time></trkpt><trkpt lat="43.467799072292614" lon="11.37249571182936"><ele>377.4</ele><time>2026-04-25T08:01:15Z</time></trkpt><trkpt lat="43.467769479283454" lon="11.372404149356825"><ele>376.0</ele><time>2026-04-25T08:01:16Z</time></trkpt><trkpt lat="43.46773852591859" lon="11.372311686957792"><ele>376.0</ele><time>2026-04-25T08:01:17Z</time></trkpt><trkpt lat="43.467705170347955" lon="11.372212048806457"><ele>376.0</ele><time>2026-04-25T08:01:18Z</time></trkpt><trkpt lat="43.4676708946557" lon="11.37211210108646"><ele>376.0</ele><time>2026-04-25T08:01:19Z</time></trkpt><trkpt lat="43.46763452176748" lon="11.372013767439364"><ele>376.0</ele><time>2026-04-25T08:01:20Z</time></trkpt><trkpt lat="43.467590581274315" lon="11.371908125213995"><ele>376.0</ele><time>2026-04-25T08:01:21Z</time></trkpt><trkpt lat="43.46753979395981" lon="11.371799952476511"><ele>376.0</ele><time>2026-04-25T08:01:22Z</time></trkpt><trkpt lat="43.467492514954216" lon="11.371711467756258"><ele>376.0</ele><time>2026-04-25T08:01:23Z</time></trkpt><trkpt lat="43.46743084857148" lon="11.371628338144118"><ele>376.0</ele><time>2026-04-25T08:01:24Z</time></trkpt><trkpt lat="43.4673565945469" lon="11.371558306047556"><ele>376.0</ele><time>2026-04-25T08:01:25Z</time></trkpt><trkpt lat="43.467276995335155" lon="11.371497830250869"><ele>376.0</ele><time>2026-04-25T08:01:26Z</time></trkpt><trkpt lat="43.46718513766148" lon="11.371452343924556"><ele>376.0</ele><time>2026-04-25T08:01:27Z</time></trkpt><trkpt lat="43.46709399348934" lon="11.371382227641863"><ele>376.6</ele><time>2026-04-25T08:01:28Z</time></trkpt><trkpt lat="43.46699972119757" lon="11.371329328114077"><ele>377.20000000000005</ele><time>2026-04-25T08:01:29Z</time></trkpt><trkpt lat="43.4669072040653" lon="11.371263918699999"><ele>377.79999999999995</ele><time>2026-04-25T08:01:30Z</time></trkpt><trkpt lat="43.466821617161514" lon="11.371195387122686"><ele>378.4</ele><time>2026-04-25T08:01:31Z</time></trkpt><trkpt lat="43.46675326549461" lon="11.371103722570512"><ele>379.0</ele><time>2026-04-25T08:01:32Z</time></trkpt><trkpt lat="43.46667975484843" lon="11.37104016167621"><ele>379.0</ele><time>2026-04-25T08:01:33Z</time></trkpt><trkpt lat="43.466619135948214" lon="11.370942990572336"><ele>379.0</ele><time>2026-04-25T08:01:34Z</time></trkpt><trkpt lat="43.46655402308948" lon="11.370834710803555"><ele>379.0</ele><time>2026-04-25T08:01:35Z</time></trkpt><trkpt lat="43.46648096547473" lon="11.370728851898896"><ele>379.0</ele><time>2026-04-25T08:01:36Z</time></trkpt><trkpt lat="43.466419927840455" lon="11.370615446469298"><ele>379.0</ele><time>2026-04-25T08:01:37Z</time></trkpt><trkpt lat="43.46636022286565" lon="11.370509127036925"><ele>376.0</ele><time>2026-04-25T08:01:38Z</time></trkpt><trkpt lat="43.46787644200327" lon="11.372900745748025"><ele>376.0</ele><time>2026-04-25T08:01:11Z</time></trkpt><trkpt lat="43.46784489613983" lon="11.372714993010677"><ele>376.0</ele><time>2026-04-25T08:01:13Z</time></trkpt><trkpt lat="43.46781612663063" lon="11.372601035391572"><ele>376.0</ele><time>2026-04-25T08:01:14Z</time></trkpt><trkpt lat="43.467799072292614" lon="11.37249571182936"><ele>376.0</ele><time>2026-04-25T08:01:15Z</time></trkpt><trkpt lat="43.467769479283454" lon="11.372404149356825"><ele>376.0</ele><time>2026-04-25T08:01:16Z</time></trkpt><trkpt lat="43.46773852591859" lon="11.372311686957792"><ele>376.0</ele><time>2026-04-25T08:01:17Z</time></trkpt><trkpt lat="43.467705170347955" lon="11.372212048806457"><ele>376.0</ele><time>2026-04-25T08:01:18Z</time></trkpt><trkpt lat="43.4676708946557" lon="11.37211210108646"><ele>376.0</ele><time>2026-04-25T08:01:19Z</time></trkpt><trkpt lat="43.46763452176748" lon="11.372013767439364"><ele>376.0</ele><time>2026-04-25T08:01:20Z</time></trkpt><trkpt lat="43.467590581274315" lon="11.371908125213995"><ele>376.0</ele><time>2026-04-25T08:01:21Z</time></trkpt><trkpt lat="43.46753979395981" lon="11.371799952476511"><ele>376.0</ele><time>2026-04-25T08:01:22Z</time></trkpt><trkpt lat="43.467492514954216" lon="11.371711467756258"><ele>376.0</ele><time>2026-04-25T08:01:23Z</time></trkpt><trkpt lat="43.46743084857148" lon="11.371628338144118"><ele>376.0</ele><time>2026-04-25T08:01:24Z</time></trkpt><trkpt lat="43.4673565945469" lon="11.371558306047556"><ele>376.0</ele><time>2026-04-25T08:01:25Z</time></trkpt><trkpt lat="43.467276995335155" lon="11.371497830250869"><ele>376.0</ele><time>2026-04-25T08:01:26Z</time></trkpt><trkpt lat="43.46718513766148" lon="11.371452343924556"><ele>376.0</ele><time>2026-04-25T08:01:27Z</time></trkpt><trkpt lat="43.46709399348934" lon="11.371382227641863"><ele>376.6</ele><time>2026-04-25T08:01:28Z</time></trkpt><trkpt lat="43.46699972119757" lon="11.371329328114077"><ele>377.20000000000005</ele><time>2026-04-25T08:01:29Z</time></trkpt><trkpt lat="43.4669072040653" lon="11.371263918699999"><ele>377.79999999999995</ele><time>2026-04-25T08:01:30Z</time></trkpt><trkpt lat="43.466821617161514" lon="11.371195387122686"><ele>378.4</ele><time>2026-04-25T08:01:31Z</time></trkpt><trkpt lat="43.46675326549461" lon="11.371103722570512"><ele>379.0</ele><time>2026-04-25T08:01:32Z</time></trkpt><trkpt lat="43.46667975484843" lon="11.37104016167621"><ele>379.0</ele><time>2026-04-25T08:01:33Z</time></trkpt><trkpt lat="43.466619135948214" lon="11.370942990572336"><ele>379.0</ele><time>2026-04-25T08:01:34Z</time></trkpt><trkpt lat="43.46655402308948" lon="11.370834710803555"><ele>379.0</ele><time>2026-04-25T08:01:35Z</time></trkpt><trkpt lat="43.46648096547473" lon="11.370728851898896"><ele>379.0</ele><time>2026-04-25T08:01:36Z</time></trkpt><trkpt lat="43.466419927840455" lon="11.370615446469298"><ele>379.0</ele><time>2026-04-25T08:01:37Z</time></trkpt><trkpt lat="43.46636022286565" lon="11.370509127036925"><ele>378.5</ele><time>2026-04-25T08:01:38Z</time></trkpt><trkpt lat="43.46630509640707" lon="11.370402926123235"><ele>378.0</ele><time>2026-04-25T08:01:39Z</time></trkpt><trkpt lat="43.466253826494714" lon="11.370298379465002"><ele>377.5</ele><time>2026-04-25T08:01:39.999Z</time></trkpt><trkpt lat="43.466204617045314" lon="11.370198462541294"><ele>377.0</ele><time>2026-04-25T08:01:40.999Z</time></trkpt><trkpt lat="43.46617480399758" lon="11.370088654596083"><ele>376.5</ele><time>2026-04-25T08:01:41.999Z</time></trkpt><trkpt lat="43.46613208063659" lon="11.369983921626396"><ele>376.0</ele><time>2026-04-25T08:01:42.999Z</time></trkpt><trkpt lat="43.46608184839308" lon="11.36988905560126"><ele>376.0</ele><time>2026-04-25T08:01:43.999Z</time></trkpt><trkpt lat="43.466043712643184" lon="11.369774929568855"><ele>376.0</ele><time>2026-04-25T08:01:44.999Z</time></trkpt><trkpt lat="43.466005281758115" lon="11.369647449736584"><ele>376.0</ele><time>2026-04-25T08:01:45.999Z</time></trkpt><trkpt lat="43.465963372688385" lon="11.369509968087916"><ele>376.0</ele><time>2026-04-25T08:01:46.999Z</time></trkpt><trkpt lat="43.46592672871175" lon="11.369377567606177"><ele>376.0</ele><time>2026-04-25T08:01:47.999Z</time></trkpt><trkpt lat="43.465888970335264" lon="11.36923020128622"><ele>375.5</ele><time>2026-04-25T08:01:48.999Z</time></trkpt><trkpt lat="43.46584720469623" lon="11.369070456241985"><ele>375.0</ele><time>2026-04-25T08:01:49.999Z</time></trkpt><trkpt lat="43.46580936028809" lon="11.368914235849513"><ele>374.5</ele><time>2026-04-25T08:01:51Z</time></trkpt><trkpt lat="43.465779877310695" lon="11.368757635172042"><ele>374.0</ele><time>2026-04-25T08:01:52Z</time></trkpt><trkpt lat="43.46575727245673" lon="11.368614864602199"><ele>374.0</ele><time>2026-04-25T08:01:53Z</time></trkpt><trkpt lat="43.46574404542374" lon="11.368483688057033"><ele>374.0</ele><time>2026-04-25T08:01:54Z</time></trkpt><trkpt lat="43.46574709693052" lon="11.368353958901281"><ele>374.0</ele><time>2026-04-25T08:01:55Z</time></trkpt><trkpt lat="43.46576327358844" lon="11.368207842805898"><ele>374.0</ele><time>2026-04-25T08:01:56Z</time></trkpt><trkpt lat="43.46579140341468" lon="11.36805865734888"><ele>374.0</ele><time>2026-04-25T08:01:57Z</time></trkpt><trkpt lat="43.4658260651341" lon="11.36789803961596"><ele>373.25</ele><time>2026-04-25T08:01:58Z</time></trkpt><trkpt lat="43.46587645427228" lon="11.367741602376332"><ele>372.5</ele><time>2026-04-25T08:01:59Z</time></trkpt><trkpt lat="43.4659112043753" lon="11.367577736882097"><ele>371.75</ele><time>2026-04-25T08:02:00Z</time></trkpt><trkpt lat="43.46594261735226" lon="11.367419937125765"><ele>371.0</ele><time>2026-04-25T08:02:01Z</time></trkpt><trkpt lat="43.46597114605586" lon="11.36727286777848"><ele>370.5</ele><time>2026-04-25T08:02:02Z</time></trkpt><trkpt lat="43.466002313074924" lon="11.367112197450773"><ele>370.0</ele><time>2026-04-25T08:02:03Z</time></trkpt><trkpt lat="43.466022229681485" lon="11.366935444158809"><ele>369.5</ele><time>2026-04-25T08:02:04Z</time></trkpt><trkpt lat="43.46606212450935" lon="11.366770228820034"><ele>369.0</ele><time>2026-04-25T08:02:05Z</time></trkpt><trkpt lat="43.466099577778905" lon="11.366591756653952"><ele>369.0</ele><time>2026-04-25T08:02:06Z</time></trkpt><trkpt lat="43.4661395583799" lon="11.366403396759999"><ele>369.0</ele><time>2026-04-25T08:02:07Z</time></trkpt><trkpt lat="43.466195164120364" lon="11.366206259057815"><ele>369.0</ele><time>2026-04-25T08:02:08Z</time></trkpt><trkpt lat="43.4662303908999" lon="11.365993469318225"><ele>368.6666666666667</ele><time>2026-04-25T08:02:09Z</time></trkpt><trkpt lat="43.46627785268552" lon="11.365770914449717"><ele>368.33333333333337</ele><time>2026-04-25T08:02:10Z</time></trkpt><trkpt lat="43.46633151707606" lon="11.365546533008605"><ele>368.0</ele><time>2026-04-25T08:02:11Z</time></trkpt><trkpt lat="43.466378071229244" lon="11.365332004538427"><ele>368.6666666666667</ele><time>2026-04-25T08:02:12Z</time></trkpt><trkpt lat="43.46642143330147" lon="11.365133537089255"><ele>369.3333333333333</ele><time>2026-04-25T08:02:13Z</time></trkpt><trkpt lat="43.466465790819804" lon="11.36493489654278"><ele>370.0</ele><time>2026-04-25T08:02:14Z</time></trkpt><trkpt lat="43.4665095814981" lon="11.364723011308836"><ele>369.75</ele><time>2026-04-25T08:02:15Z</time></trkpt><trkpt lat="43.46655052913086" lon="11.364515994422318"><ele>369.5</ele><time>2026-04-25T08:02:16Z</time></trkpt><trkpt lat="43.46658757059077" lon="11.364333581869422"><ele>369.25</ele><time>2026-04-25T08:02:17Z</time></trkpt><trkpt lat="43.46662349846737" lon="11.364163395537116"><ele>369.0</ele><time>2026-04-25T08:02:18Z</time></trkpt><trkpt lat="43.46666327753641" lon="11.363995374006048"><ele>368.4</ele><time>2026-04-25T08:02:19Z</time></trkpt><trkpt lat="43.46670104048066" lon="11.36383323094198"><ele>367.79999999999995</ele><time>2026-04-25T08:02:20Z</time></trkpt><trkpt lat="43.46673214813032" lon="11.363685135376416"><ele>367.20000000000005</ele><time>2026-04-25T08:02:21Z</time></trkpt><trkpt lat="43.46676217152674" lon="11.36354880086438"><ele>366.6</ele><time>2026-04-25T08:02:22Z</time></trkpt><trkpt lat="43.46679685443358" lon="11.363428201929299"><ele>366.0</ele><time>2026-04-25T08:02:23Z</time></trkpt><trkpt lat="43.466824808777126" lon="11.36330583210257"><ele>366.0</ele><time>2026-04-25T08:02:24Z</time></trkpt><trkpt lat="43.46684861865852" lon="11.36319571028457"><ele>366.0</ele><time>2026-04-25T08:02:25Z</time></trkpt><trkpt lat="43.46687640712677" lon="11.363093265974692"><ele>366.0</ele><time>2026-04-25T08:02:26Z</time></trkpt><trkpt lat="43.466868183720955" lon="11.362981333445955"><ele>366.0</ele><time>2026-04-25T08:02:27Z</time></trkpt><trkpt lat="43.46683265317122" lon="11.36287034299038"><ele>366.0</ele><time>2026-04-25T08:02:28Z</time></trkpt><trkpt lat="43.46678006361749" lon="11.362759936631859"><ele>366.0</ele><time>2026-04-25T08:02:29Z</time></trkpt><trkpt lat="43.46671044011907" lon="11.362651969646883"><ele>366.75</ele><time>2026-04-25T08:02:30Z</time></trkpt><trkpt lat="43.46663551782493" lon="11.36255580473691"><ele>367.5</ele><time>2026-04-25T08:02:31Z</time></trkpt><trkpt lat="43.466562055757464" lon="11.362426635049333"><ele>368.25</ele><time>2026-04-25T08:02:32Z</time></trkpt><trkpt lat="43.46649587903861" lon="11.362291117081325"><ele>369.0</ele><time>2026-04-25T08:02:33Z</time></trkpt><trkpt lat="43.46643804292038" lon="11.362151248896968"><ele>368.5</ele><time>2026-04-25T08:02:34Z</time></trkpt><trkpt lat="43.46636073878358" lon="11.362017694706193"><ele>368.0</ele><time>2026-04-25T08:02:35Z</time></trkpt><trkpt lat="43.466316264503625" lon="11.361868491692267"><ele>367.5</ele><time>2026-04-25T08:02:36Z</time></trkpt><trkpt lat="43.46627122972517" lon="11.361711904487134"><ele>367.0</ele><time>2026-04-25T08:02:37Z</time></trkpt><trkpt lat="43.46623371004011" lon="11.361561179753958"><ele>367.0</ele><time>2026-04-25T08:02:38Z</time></trkpt><trkpt lat="43.46622686094743" lon="11.361405573516626"><ele>367.0</ele><time>2026-04-25T08:02:39Z</time></trkpt><trkpt lat="43.466193417511434" lon="11.361284462064416"><ele>367.0</ele><time>2026-04-25T08:02:40Z</time></trkpt><trkpt lat="43.466148357369036" lon="11.361179391812382"><ele>367.0</ele><time>2026-04-25T08:02:41Z</time></trkpt><trkpt lat="43.466088386817866" lon="11.361090557437652"><ele>367.0</ele><time>2026-04-25T08:02:42Z</time></trkpt><trkpt lat="43.466002913339125" lon="11.361004207481907"><ele>367.6</ele><time>2026-04-25T08:02:43Z</time></trkpt><trkpt lat="43.465886183060746" lon="11.360940437864963"><ele>368.20000000000005</ele><time>2026-04-25T08:02:44Z</time></trkpt><trkpt lat="43.46578698961419" lon="11.360857383790869"><ele>368.8</ele><time>2026-04-25T08:02:45Z</time></trkpt><trkpt lat="43.46571497331604" lon="11.360772375417147"><ele>369.4</ele><time>2026-04-25T08:02:46Z</time></trkpt><trkpt lat="43.46564791476249" lon="11.360657051146012"><ele>370.0</ele><time>2026-04-25T08:02:47Z</time></trkpt><trkpt lat="43.465587670239536" lon="11.360518098196819"><ele>370.4</ele><time>2026-04-25T08:02:48Z</time></trkpt><trkpt lat="43.46552568847718" lon="11.360388581380322"><ele>370.8</ele><time>2026-04-25T08:02:49Z</time></trkpt><trkpt lat="43.46548381881" lon="11.360308222445507"><ele>371.20000000000005</ele><time>2026-04-25T08:02:50Z</time></trkpt><trkpt lat="43.465407606257" lon="11.36017866369141"><ele>371.6</ele><time>2026-04-25T08:02:50.999Z</time></trkpt><trkpt lat="43.46532795322046" lon="11.360090469680934"><ele>372.0</ele><time>2026-04-25T08:02:51.999Z</time></trkpt><trkpt lat="43.46525410308481" lon="11.36001084359527"><ele>370.6</ele><time>2026-04-25T08:02:52.999Z</time></trkpt><trkpt lat="43.46519546501378" lon="11.359919871869208"><ele>369.20000000000005</ele><time>2026-04-25T08:02:53.999Z</time></trkpt><trkpt lat="43.46515201265102" lon="11.359799557143013"><ele>367.8</ele><time>2026-04-25T08:02:54.999Z</time></trkpt><trkpt lat="43.46510386051023" lon="11.359660086531978"><ele>366.4</ele><time>2026-04-25T08:02:55.999Z</time></trkpt><trkpt lat="43.46505913171" lon="11.35951940976343"><ele>365.0</ele><time>2026-04-25T08:02:56.999Z</time></trkpt><trkpt lat="43.465022571669905" lon="11.359384629948467"><ele>365.0</ele><time>2026-04-25T08:02:57.999Z</time></trkpt><trkpt lat="43.464993775821966" lon="11.359234712205796"><ele>365.0</ele><time>2026-04-25T08:02:58.999Z</time></trkpt><trkpt lat="43.46497193253118" lon="11.35906276677204"><ele>365.0</ele><time>2026-04-25T08:02:59.999Z</time></trkpt><trkpt lat="43.464949709663635" lon="11.358877349416131"><ele>365.0</ele><time>2026-04-25T08:03:00.999Z</time></trkpt><trkpt lat="43.46491797529915" lon="11.358697265761101"><ele>366.0</ele><time>2026-04-25T08:03:01.999Z</time></trkpt><trkpt lat="43.464879647479925" lon="11.358525749564553"><ele>367.0</ele><time>2026-04-25T08:03:02.999Z</time></trkpt><trkpt lat="43.46483468696316" lon="11.358348864997579"><ele>368.0</ele><time>2026-04-25T08:03:03.999Z</time></trkpt><trkpt lat="43.46479041810969" lon="11.358187476509597"><ele>369.0</ele><time>2026-04-25T08:03:04.999Z</time></trkpt><trkpt lat="43.464743944961036" lon="11.358046356391455"><ele>368.0</ele><time>2026-04-25T08:03:05.999Z</time></trkpt><trkpt lat="43.4646937747986" lon="11.357928131343764"><ele>367.0</ele><time>2026-04-25T08:03:06.999Z</time></trkpt><trkpt lat="43.464642995247175" lon="11.35781758269107"><ele>366.0</ele><time>2026-04-25T08:03:07.999Z</time></trkpt><trkpt lat="43.46459425839046" lon="11.357722955779476"><ele>365.0</ele><time>2026-04-25T08:03:08.999Z</time></trkpt><trkpt lat="43.46453257291184" lon="11.357619822626365"><ele>364.0</ele><time>2026-04-25T08:03:09.999Z</time></trkpt><trkpt lat="43.464460245796126" lon="11.357520386518495"><ele>364.0</ele><time>2026-04-25T08:03:10.999Z</time></trkpt><trkpt lat="43.46438977475439" lon="11.357447228012692"><ele>364.0</ele><time>2026-04-25T08:03:11.999Z</time></trkpt><trkpt lat="43.464303354182356" lon="11.357365185270101"><ele>364.0</ele><time>2026-04-25T08:03:12.999Z</time></trkpt><trkpt lat="43.464219686868645" lon="11.357291274739184"><ele>364.0</ele><time>2026-04-25T08:03:13.999Z</time></trkpt><trkpt lat="43.46413575211022" lon="11.357224424388498"><ele>364.0</ele><time>2026-04-25T08:03:14.999Z</time></trkpt><trkpt lat="43.464053115891275" lon="11.357167543943227"><ele>364.79999999999995</ele><time>2026-04-25T08:03:15.999Z</time></trkpt><trkpt lat="43.46397638698555" lon="11.357122280428976"><ele>365.59999999999997</ele><time>2026-04-25T08:03:16.999Z</time></trkpt><trkpt lat="43.463885712429594" lon="11.357079415328203"><ele>366.4</ele><time>2026-04-25T08:03:17.999Z</time></trkpt><trkpt lat="43.463795955349966" lon="11.357052326541291"><ele>367.2</ele><time>2026-04-25T08:03:18.999Z</time></trkpt><trkpt lat="43.46368987055236" lon="11.35703721708515"><ele>368.0</ele><time>2026-04-25T08:03:19.999Z</time></trkpt><trkpt lat="43.46358728276778" lon="11.357024555283765"><ele>368.0</ele><time>2026-04-25T08:03:20.999Z</time></trkpt><trkpt lat="43.46349960438513" lon="11.357004063393575"><ele>368.0</ele><time>2026-04-25T08:03:21.999Z</time></trkpt><trkpt lat="43.463416788399115" lon="11.356983922352057"><ele>368.0</ele><time>2026-04-25T08:03:22.999Z</time></trkpt><trkpt lat="43.46332267968383" lon="11.356969167883472"><ele>368.0</ele><time>2026-04-25T08:03:23.999Z</time></trkpt><trkpt lat="43.46322810871667" lon="11.356964282120234"><ele>368.0</ele><time>2026-04-25T08:03:24.999Z</time></trkpt><trkpt lat="43.46314438386559" lon="11.356962245653316"><ele>368.0</ele><time>2026-04-25T08:03:25.999Z</time></trkpt><trkpt lat="43.46306126214805" lon="11.356935425079513"><ele>368.0</ele><time>2026-04-25T08:03:26.999Z</time></trkpt><trkpt lat="43.46299442466437" lon="11.356854975644502"><ele>368.0</ele><time>2026-04-25T08:03:27.999Z</time></trkpt><trkpt lat="43.46291278597319" lon="11.356776486641303"><ele>368.0</ele><time>2026-04-25T08:03:28.999Z</time></trkpt><trkpt lat="43.46281577334918" lon="11.356680159850272"><ele>368.0</ele><time>2026-04-25T08:03:29.999Z</time></trkpt><trkpt lat="43.46271770293179" lon="11.356574605398709"><ele>368.0</ele><time>2026-04-25T08:03:30.999Z</time></trkpt><trkpt lat="43.46260266389491" lon="11.356464090196631"><ele>367.0</ele><time>2026-04-25T08:03:31.999Z</time></trkpt><trkpt lat="43.46246944706749" lon="11.356379482604089"><ele>366.0</ele><time>2026-04-25T08:03:32.999Z</time></trkpt><trkpt lat="43.46234528329695" lon="11.356262482755916"><ele>365.0</ele><time>2026-04-25T08:03:33.999Z</time></trkpt><trkpt lat="43.462218021474534" lon="11.356150554496745"><ele>364.0</ele><time>2026-04-25T08:03:34.999Z</time></trkpt><trkpt lat="43.46210559181722" lon="11.356031725482023"><ele>362.0</ele><time>2026-04-25T08:03:35.999Z</time></trkpt><trkpt lat="43.46199736126064" lon="11.355913601678647"><ele>360.0</ele><time>2026-04-25T08:03:36.999Z</time></trkpt><trkpt lat="43.46189428654364" lon="11.3558252714997"><ele>358.0</ele><time>2026-04-25T08:03:37.999Z</time></trkpt><trkpt lat="43.46180287350825" lon="11.35572242049984"><ele>356.0</ele><time>2026-04-25T08:03:38.999Z</time></trkpt><trkpt lat="43.46170949123262" lon="11.355642470927267"><ele>356.0</ele><time>2026-04-25T08:03:39.999Z</time></trkpt><trkpt lat="43.46160951154282" lon="11.355568931653055"><ele>356.0</ele><time>2026-04-25T08:03:40.999Z</time></trkpt><trkpt lat="43.46151662187183" lon="11.355511834349539"><ele>356.0</ele><time>2026-04-25T08:03:41.999Z</time></trkpt><trkpt lat="43.46143015262469" lon="11.35547350283073"><ele>356.0</ele><time>2026-04-25T08:03:42.999Z</time></trkpt><trkpt lat="43.46134444750198" lon="11.355466113944244"><ele>356.0</ele><time>2026-04-25T08:03:43.999Z</time></trkpt><trkpt lat="43.46125340096002" lon="11.355489845532189"><ele>355.5</ele><time>2026-04-25T08:03:44.999Z</time></trkpt><trkpt lat="43.46115250186851" lon="11.355513787527476"><ele>355.0</ele><time>2026-04-25T08:03:45.999Z</time></trkpt><trkpt lat="43.46102947196251" lon="11.355550664862585"><ele>354.5</ele><time>2026-04-25T08:03:46.999Z</time></trkpt><trkpt lat="43.46091219390771" lon="11.355602072566986"><ele>354.0</ele><time>2026-04-25T08:03:47.999Z</time></trkpt><trkpt lat="43.46079154352014" lon="11.355587061199659"><ele>354.0</ele><time>2026-04-25T08:03:48.999Z</time></trkpt><trkpt lat="43.460679508031895" lon="11.35557540981261"><ele>354.0</ele><time>2026-04-25T08:03:49.999Z</time></trkpt><trkpt lat="43.460566794865706" lon="11.35555117617189"><ele>354.0</ele><time>2026-04-25T08:03:50.999Z</time></trkpt><trkpt lat="43.46044521525798" lon="11.355521299870212"><ele>354.0</ele><time>2026-04-25T08:03:51.999Z</time></trkpt><trkpt lat="43.46033925559763" lon="11.355476406984613"><ele>353.4</ele><time>2026-04-25T08:03:52.999Z</time></trkpt><trkpt lat="43.46023104838854" lon="11.355450224996844"><ele>352.79999999999995</ele><time>2026-04-25T08:03:53.999Z</time></trkpt><trkpt lat="43.46013880745882" lon="11.355474916302208"><ele>352.20000000000005</ele><time>2026-04-25T08:03:54.999Z</time></trkpt><trkpt lat="43.460039770894184" lon="11.355496678287988"><ele>351.6</ele><time>2026-04-25T08:03:55.999Z</time></trkpt><trkpt lat="43.45994038268706" lon="11.355545214990588"><ele>351.0</ele><time>2026-04-25T08:03:56.999Z</time></trkpt><trkpt lat="43.45983528929376" lon="11.355548633215715"><ele>351.0</ele><time>2026-04-25T08:03:57.999Z</time></trkpt><trkpt lat="43.45973819015686" lon="11.355561627234767"><ele>351.0</ele><time>2026-04-25T08:03:58.999Z</time></trkpt><trkpt lat="43.45963373042154" lon="11.355555582492242"><ele>351.0</ele><time>2026-04-25T08:03:59.999Z</time></trkpt><trkpt lat="43.45951584092738" lon="11.355554349864125"><ele>351.0</ele><time>2026-04-25T08:04:00.999Z</time></trkpt><trkpt lat="43.45939475040112" lon="11.355521386046409"><ele>351.0</ele><time>2026-04-25T08:04:01.999Z</time></trkpt><trkpt lat="43.4592770555967" lon="11.35549608272634"><ele>352.25</ele><time>2026-04-25T08:04:02.999Z</time></trkpt><trkpt lat="43.45916377382217" lon="11.355463450049978"><ele>353.5</ele><time>2026-04-25T08:04:03.999Z</time></trkpt><trkpt lat="43.45905314819839" lon="11.355437340250113"><ele>354.75</ele><time>2026-04-25T08:04:04.999Z</time></trkpt><trkpt lat="43.45894434952114" lon="11.355398896257"><ele>356.0</ele><time>2026-04-25T08:04:05.999Z</time></trkpt><trkpt lat="43.45882926985901" lon="11.355346120927774"><ele>354.8</ele><time>2026-04-25T08:04:06.999Z</time></trkpt><trkpt lat="43.45872459345481" lon="11.35525343193828"><ele>353.6</ele><time>2026-04-25T08:04:07.999Z</time></trkpt><trkpt lat="43.45861969335377" lon="11.35519632671246"><ele>352.4</ele><time>2026-04-25T08:04:08.999Z</time></trkpt><trkpt lat="43.458523997458855" lon="11.35512201284847"><ele>351.2</ele><time>2026-04-25T08:04:10Z</time></trkpt><trkpt lat="43.45843745709598" lon="11.35504904377779"><ele>350.0</ele><time>2026-04-25T08:04:11Z</time></trkpt><trkpt lat="43.458355282109196" lon="11.354970904912426"><ele>350.0</ele><time>2026-04-25T08:04:12Z</time></trkpt><trkpt lat="43.4582795757749" lon="11.35489578777943"><ele>350.0</ele><time>2026-04-25T08:04:13Z</time></trkpt><trkpt lat="43.45821472706084" lon="11.35482289027035"><ele>350.0</ele><time>2026-04-25T08:04:14Z</time></trkpt><trkpt lat="43.45814367540857" lon="11.354761919242149"><ele>350.0</ele><time>2026-04-25T08:04:15Z</time></trkpt><trkpt lat="43.45806421460189" lon="11.354721476959332"><ele>350.0</ele><time>2026-04-25T08:04:16Z</time></trkpt><trkpt lat="43.45797099167243" lon="11.354697006818308"><ele>350.0</ele><time>2026-04-25T08:04:17Z</time></trkpt><trkpt lat="43.457861852592934" lon="11.354664101379157"><ele>351.25</ele><time>2026-04-25T08:04:18Z</time></trkpt><trkpt lat="43.45774484770071" lon="11.354629176908585"><ele>352.5</ele><time>2026-04-25T08:04:19Z</time></trkpt><trkpt lat="43.4576251787718" lon="11.354594841406948"><ele>353.75</ele><time>2026-04-25T08:04:20Z</time></trkpt><trkpt lat="43.457504449782185" lon="11.354548662034912"><ele>355.0</ele><time>2026-04-25T08:04:21Z</time></trkpt><trkpt lat="43.457399448338855" lon="11.354492429707374"><ele>355.0</ele><time>2026-04-25T08:04:22Z</time></trkpt><trkpt lat="43.45729162018624" lon="11.354414764993182"><ele>355.0</ele><time>2026-04-25T08:04:23Z</time></trkpt><trkpt lat="43.45718791413751" lon="11.354340675681021"><ele>355.0</ele><time>2026-04-25T08:04:24Z</time></trkpt><trkpt lat="43.45710270925668" lon="11.354321620180965"><ele>355.0</ele><time>2026-04-25T08:04:25Z</time></trkpt><trkpt lat="43.45701255205368" lon="11.354295188873172"><ele>355.0</ele><time>2026-04-25T08:04:26Z</time></trkpt><trkpt lat="43.45691443083141" lon="11.35426632343196"><ele>353.2</ele><time>2026-04-25T08:04:27Z</time></trkpt><trkpt lat="43.456810730802644" lon="11.354243353091556"><ele>351.4</ele><time>2026-04-25T08:04:28Z</time></trkpt><trkpt lat="43.45670607605801" lon="11.354213988521186"><ele>349.6</ele><time>2026-04-25T08:04:29Z</time></trkpt><trkpt lat="43.45659869499217" lon="11.354184193375158"><ele>347.8</ele><time>2026-04-25T08:04:30Z</time></trkpt><trkpt lat="43.45649318860396" lon="11.354167943193398"><ele>346.0</ele><time>2026-04-25T08:04:31Z</time></trkpt><trkpt lat="43.456391759748634" lon="11.354151481656356"><ele>345.8</ele><time>2026-04-25T08:04:31.999Z</time></trkpt><trkpt lat="43.45628482619017" lon="11.35414509401701"><ele>345.6</ele><time>2026-04-25T08:04:32.999Z</time></trkpt><trkpt lat="43.45617970967283" lon="11.354119175786233"><ele>345.4</ele><time>2026-04-25T08:04:33.999Z</time></trkpt><trkpt lat="43.456079899567726" lon="11.354095722919476"><ele>345.2</ele><time>2026-04-25T08:04:34.999Z</time></trkpt><trkpt lat="43.45597608675363" lon="11.354071609770997"><ele>345.0</ele><time>2026-04-25T08:04:35.999Z</time></trkpt><trkpt lat="43.45588363620411" lon="11.354041201419841"><ele>345.0</ele><time>2026-04-25T08:04:36.999Z</time></trkpt><trkpt lat="43.45578749618142" lon="11.353998742154515"><ele>345.0</ele><time>2026-04-25T08:04:37.999Z</time></trkpt><trkpt lat="43.45569836708359" lon="11.353961366194142"><ele>345.0</ele><time>2026-04-25T08:04:38.999Z</time></trkpt><trkpt lat="43.455605054579415" lon="11.353926731307618"><ele>345.0</ele><time>2026-04-25T08:04:39.999Z</time></trkpt><trkpt lat="43.455523279579275" lon="11.353889927960095"><ele>345.0</ele><time>2026-04-25T08:04:40.999Z</time></trkpt><trkpt lat="43.45543601613344" lon="11.353868638000808"><ele>344.7142857142857</ele><time>2026-04-25T08:04:41.999Z</time></trkpt><trkpt lat="43.45535579197372" lon="11.35387380398984"><ele>344.42857142857144</ele><time>2026-04-25T08:04:42.999Z</time></trkpt><trkpt lat="43.45528220549302" lon="11.353906300276947"><ele>344.1428571428571</ele><time>2026-04-25T08:04:43.999Z</time></trkpt><trkpt lat="43.455216820253156" lon="11.353927867753496"><ele>343.8571428571429</ele><time>2026-04-25T08:04:44.999Z</time></trkpt><trkpt lat="43.45514853906033" lon="11.353955199707169"><ele>343.57142857142856</ele><time>2026-04-25T08:04:45.999Z</time></trkpt><trkpt lat="43.45508041996488" lon="11.3539682910165"><ele>343.2857142857143</ele><time>2026-04-25T08:04:46.999Z</time></trkpt><trkpt lat="43.455012630099496" lon="11.353981903501857"><ele>343.0</ele><time>2026-04-25T08:04:47.999Z</time></trkpt><trkpt lat="43.45492754232435" lon="11.354002777755298"><ele>343.0</ele><time>2026-04-25T08:04:48.999Z</time></trkpt><trkpt lat="43.454852287548135" lon="11.354036410478855"><ele>343.0</ele><time>2026-04-25T08:04:49.999Z</time></trkpt><trkpt lat="43.45476644140681" lon="11.354077452985413"><ele>343.0</ele><time>2026-04-25T08:04:50.999Z</time></trkpt><trkpt lat="43.45469666681434" lon="11.35413431678207"><ele>343.0</ele><time>2026-04-25T08:04:51.999Z</time></trkpt><trkpt lat="43.45462423918463" lon="11.354193468789877"><ele>343.0</ele><time>2026-04-25T08:04:52.999Z</time></trkpt><trkpt lat="43.454535364912815" lon="11.354255872242481"><ele>343.0</ele><time>2026-04-25T08:04:53.999Z</time></trkpt><trkpt lat="43.454442946669545" lon="11.35431351347935"><ele>341.59999999999997</ele><time>2026-04-25T08:04:54.999Z</time></trkpt><trkpt lat="43.45436495955999" lon="11.354346095689571"><ele>340.2</ele><time>2026-04-25T08:04:55.999Z</time></trkpt><trkpt lat="43.454272080330774" lon="11.354353812259353"><ele>338.8</ele><time>2026-04-25T08:04:56.999Z</time></trkpt><trkpt lat="43.454193800818445" lon="11.354313735270884"><ele>337.4</ele><time>2026-04-25T08:04:57.999Z</time></trkpt><trkpt lat="43.454094186789874" lon="11.354220748844385"><ele>336.0</ele><time>2026-04-25T08:04:59.999Z</time></trkpt><trkpt lat="43.45397263393224" lon="11.354209381042695"><ele>336.0</ele><time>2026-04-25T08:05:01.999Z</time></trkpt><trkpt lat="43.45389792352961" lon="11.354236250365187"><ele>336.0</ele><time>2026-04-25T08:05:02.999Z</time></trkpt><trkpt lat="43.453805013294165" lon="11.354289408377383"><ele>336.0</ele><time>2026-04-25T08:05:03.999Z</time></trkpt><trkpt lat="43.45371148212666" lon="11.354341422381871"><ele>336.0</ele><time>2026-04-25T08:05:04.999Z</time></trkpt><trkpt lat="43.45361409830305" lon="11.354402364365749"><ele>336.0</ele><time>2026-04-25T08:05:05.999Z</time></trkpt><trkpt lat="43.453512283813254" lon="11.354440276438417"><ele>338.0</ele><time>2026-04-25T08:05:06.999Z</time></trkpt><trkpt lat="43.45339770009732" lon="11.354487810991715"><ele>340.0</ele><time>2026-04-25T08:05:07.999Z</time></trkpt><trkpt lat="43.453285692537094" lon="11.354539228227383"><ele>342.0</ele><time>2026-04-25T08:05:08.999Z</time></trkpt><trkpt lat="43.453176550738476" lon="11.354587483496628"><ele>344.0</ele><time>2026-04-25T08:05:09.999Z</time></trkpt><trkpt lat="43.45308391179891" lon="11.354644478925712"><ele>343.5</ele><time>2026-04-25T08:05:10.999Z</time></trkpt><trkpt lat="43.4529828272666" lon="11.35471579003299"><ele>343.0</ele><time>2026-04-25T08:05:11.999Z</time></trkpt><trkpt lat="43.4528798105712" lon="11.35478282360766"><ele>342.5</ele><time>2026-04-25T08:05:12.999Z</time></trkpt><trkpt lat="43.45277103177353" lon="11.354848120321686"><ele>342.0</ele><time>2026-04-25T08:05:13.999Z</time></trkpt><trkpt lat="43.452664246098166" lon="11.354916095730955"><ele>342.0</ele><time>2026-04-25T08:05:14.999Z</time></trkpt><trkpt lat="43.45257495286539" lon="11.354967061596332"><ele>342.0</ele><time>2026-04-25T08:05:15.999Z</time></trkpt><trkpt lat="43.45248486260173" lon="11.355016343369279"><ele>342.0</ele><time>2026-04-25T08:05:16.999Z</time></trkpt><trkpt lat="43.452401926967156" lon="11.355057477557807"><ele>342.0</ele><time>2026-04-25T08:05:17.999Z</time></trkpt><trkpt lat="43.452318088465546" lon="11.355092612694502"><ele>342.0</ele><time>2026-04-25T08:05:18.999Z</time></trkpt><trkpt lat="43.45222359880348" lon="11.355133669704735"><ele>342.0</ele><time>2026-04-25T08:05:19.999Z</time></trkpt><trkpt lat="43.45212946348917" lon="11.355178541674066"><ele>342.0</ele><time>2026-04-25T08:05:20.999Z</time></trkpt><trkpt lat="43.452028948322514" lon="11.355219234502718"><ele>342.0</ele><time>2026-04-25T08:05:21.999Z</time></trkpt><trkpt lat="43.451932450092386" lon="11.355247104230228"><ele>342.0</ele><time>2026-04-25T08:05:22.999Z</time></trkpt><trkpt lat="43.45182107435912" lon="11.355259193340473"><ele>342.0</ele><time>2026-04-25T08:05:23.999Z</time></trkpt><trkpt lat="43.45172196558133" lon="11.355267829823502"><ele>343.0</ele><time>2026-04-25T08:05:24.999Z</time></trkpt><trkpt lat="43.451620841235005" lon="11.355295761321857"><ele>344.0</ele><time>2026-04-25T08:05:25.999Z</time></trkpt><trkpt lat="43.45152085729079" lon="11.355347324665692"><ele>345.0</ele><time>2026-04-25T08:05:26.999Z</time></trkpt><trkpt lat="43.45142679413194" lon="11.35542064732001"><ele>346.0</ele><time>2026-04-25T08:05:27.999Z</time></trkpt><trkpt lat="43.45133283494622" lon="11.35549612874565"><ele>347.0</ele><time>2026-04-25T08:05:28.999Z</time></trkpt><trkpt lat="43.4512421092404" lon="11.355561278402128"><ele>347.0</ele><time>2026-04-25T08:05:29.999Z</time></trkpt><trkpt lat="43.45115983158953" lon="11.355613599938406"><ele>347.0</ele><time>2026-04-25T08:05:30.999Z</time></trkpt><trkpt lat="43.45108785791931" lon="11.355666974031928"><ele>347.0</ele><time>2026-04-25T08:05:31.999Z</time></trkpt><trkpt lat="43.45100089098201" lon="11.35572949286331"><ele>347.0</ele><time>2026-04-25T08:05:32.999Z</time></trkpt><trkpt lat="43.4509296837149" lon="11.35581935993203"><ele>347.0</ele><time>2026-04-25T08:05:33.999Z</time></trkpt><trkpt lat="43.4508646020783" lon="11.355926408288266"><ele>347.0</ele><time>2026-04-25T08:05:34.999Z</time></trkpt><trkpt lat="43.450791851713014" lon="11.356017135313522"><ele>347.0</ele><time>2026-04-25T08:05:35.999Z</time></trkpt><trkpt lat="43.45072227657446" lon="11.356093567555316"><ele>347.0</ele><time>2026-04-25T08:05:36.999Z</time></trkpt><trkpt lat="43.45065700124553" lon="11.356160237421886"><ele>347.0</ele><time>2026-04-25T08:05:37.999Z</time></trkpt><trkpt lat="43.450598596759576" lon="11.356231155467773"><ele>347.0</ele><time>2026-04-25T08:05:38.999Z</time></trkpt><trkpt lat="43.45052885672013" lon="11.356313020914607"><ele>347.0</ele><time>2026-04-25T08:05:39.999Z</time></trkpt><trkpt lat="43.45044145573423" lon="11.356406359941914"><ele>345.6</ele><time>2026-04-25T08:05:40.999Z</time></trkpt><trkpt lat="43.450344526021766" lon="11.356497362832926"><ele>344.20000000000005</ele><time>2026-04-25T08:05:41.999Z</time></trkpt><trkpt lat="43.450246149784824" lon="11.356576890926467"><ele>342.8</ele><time>2026-04-25T08:05:42.999Z</time></trkpt><trkpt lat="43.45015036194978" lon="11.356648225006873"><ele>341.4</ele><time>2026-04-25T08:05:43.999Z</time></trkpt><trkpt lat="43.450060966107706" lon="11.356709443621103"><ele>340.0</ele><time>2026-04-25T08:05:44.999Z</time></trkpt><trkpt lat="43.44997683800984" lon="11.356743784847641"><ele>340.0</ele><time>2026-04-25T08:05:45.999Z</time></trkpt><trkpt lat="43.449880689340105" lon="11.356759323821779"><ele>340.0</ele><time>2026-04-25T08:05:46.999Z</time></trkpt><trkpt lat="43.44977069794089" lon="11.35675730108931"><ele>340.0</ele><time>2026-04-25T08:05:47.999Z</time></trkpt><trkpt lat="43.44964675342926" lon="11.356737923164678"><ele>340.0</ele><time>2026-04-25T08:05:48.999Z</time></trkpt><trkpt lat="43.44952063112226" lon="11.356702771501162"><ele>338.4</ele><time>2026-04-25T08:05:49.999Z</time></trkpt><trkpt lat="43.44940386137498" lon="11.356676463495631"><ele>336.8</ele><time>2026-04-25T08:05:50.999Z</time></trkpt><trkpt lat="43.449298643029906" lon="11.356653460394966"><ele>335.20000000000005</ele><time>2026-04-25T08:05:51.999Z</time></trkpt><trkpt lat="43.44919895439818" lon="11.35659792177684"><ele>333.6</ele><time>2026-04-25T08:05:52.999Z</time></trkpt><trkpt lat="43.44910961842886" lon="11.356496948895844"><ele>332.0</ele><time>2026-04-25T08:05:53.999Z</time></trkpt><trkpt lat="43.449010686562325" lon="11.356413519637995"><ele>333.0</ele><time>2026-04-25T08:05:54.999Z</time></trkpt><trkpt lat="43.44888882006744" lon="11.356306062455534"><ele>334.0</ele><time>2026-04-25T08:05:55.999Z</time></trkpt><trkpt lat="43.44876578637817" lon="11.356214438656744"><ele>335.0</ele><time>2026-04-25T08:05:56.999Z</time></trkpt><trkpt lat="43.44863184765497" lon="11.356142548921172"><ele>336.0</ele><time>2026-04-25T08:05:57.999Z</time></trkpt><trkpt lat="43.44850300229591" lon="11.356077756517626"><ele>336.0</ele><time>2026-04-25T08:05:58.999Z</time></trkpt><trkpt lat="43.44837857175537" lon="11.356011026218626"><ele>336.0</ele><time>2026-04-25T08:05:59.999Z</time></trkpt><trkpt lat="43.44825348346963" lon="11.355932810841502"><ele>336.0</ele><time>2026-04-25T08:06:00.999Z</time></trkpt><trkpt lat="43.44813496852407" lon="11.35586548496467"><ele>336.0</ele><time>2026-04-25T08:06:01.999Z</time></trkpt><trkpt lat="43.44802178138356" lon="11.355794828904472"><ele>335.0</ele><time>2026-04-25T08:06:03Z</time></trkpt><trkpt lat="43.44791224802813" lon="11.355730916341162"><ele>334.0</ele><time>2026-04-25T08:06:04Z</time></trkpt><trkpt lat="43.44780825304718" lon="11.355666547297588"><ele>333.0</ele><time>2026-04-25T08:06:05Z</time></trkpt><trkpt lat="43.44770988684704" lon="11.355600632861954"><ele>332.0</ele><time>2026-04-25T08:06:06Z</time></trkpt><trkpt lat="43.44761829654862" lon="11.355538878896782"><ele>331.0</ele><time>2026-04-25T08:06:07Z</time></trkpt><trkpt lat="43.447521695590076" lon="11.35548650428859"><ele>332.5</ele><time>2026-04-25T08:06:08Z</time></trkpt><trkpt lat="43.44742527127434" lon="11.355450933664686"><ele>334.0</ele><time>2026-04-25T08:06:09Z</time></trkpt><trkpt lat="43.44731137993861" lon="11.35542440303097"><ele>335.5</ele><time>2026-04-25T08:06:10Z</time></trkpt><trkpt lat="43.447188409139656" lon="11.35540128866471"><ele>337.0</ele><time>2026-04-25T08:06:11Z</time></trkpt><trkpt lat="43.447060697845146" lon="11.35537888121373"><ele>337.0</ele><time>2026-04-25T08:06:12Z</time></trkpt><trkpt lat="43.4469182133631" lon="11.355352274421366"><ele>337.0</ele><time>2026-04-25T08:06:13Z</time></trkpt><trkpt lat="43.446775367393236" lon="11.35532407321452"><ele>337.0</ele><time>2026-04-25T08:06:14Z</time></trkpt><trkpt lat="43.44664962069321" lon="11.355293160561699"><ele>337.0</ele><time>2026-04-25T08:06:15Z</time></trkpt><trkpt lat="43.44652249091425" lon="11.355265166302587"><ele>337.0</ele><time>2026-04-25T08:06:16Z</time></trkpt><trkpt lat="43.44639461761001" lon="11.355248287753621"><ele>337.0</ele><time>2026-04-25T08:06:17Z</time></trkpt><trkpt lat="43.44626928164477" lon="11.355230132441527"><ele>337.0</ele><time>2026-04-25T08:06:18Z</time></trkpt><trkpt lat="43.44615004613689" lon="11.355211645692247"><ele>337.0</ele><time>2026-04-25T08:06:19Z</time></trkpt><trkpt lat="43.446036232719706" lon="11.355198295548266"><ele>336.0</ele><time>2026-04-25T08:06:20Z</time></trkpt><trkpt lat="43.44592431885889" lon="11.3551934147741"><ele>335.0</ele><time>2026-04-25T08:06:21Z</time></trkpt><trkpt lat="43.44581832143549" lon="11.355187876658228"><ele>334.0</ele><time>2026-04-25T08:06:22Z</time></trkpt><trkpt lat="43.4457104189824" lon="11.355172053095473"><ele>333.0</ele><time>2026-04-25T08:06:23Z</time></trkpt><trkpt lat="43.445597232739516" lon="11.355132195404568"><ele>332.0</ele><time>2026-04-25T08:06:24Z</time></trkpt><trkpt lat="43.44548487488841" lon="11.355067526295699"><ele>331.0</ele><time>2026-04-25T08:06:25Z</time></trkpt><trkpt lat="43.44537419405147" lon="11.354983943312847"><ele>330.0</ele><time>2026-04-25T08:06:26Z</time></trkpt><trkpt lat="43.445282777712286" lon="11.35485919499877"><ele>329.0</ele><time>2026-04-25T08:06:27Z</time></trkpt><trkpt lat="43.44518858645689" lon="11.354749488796477"><ele>328.0</ele><time>2026-04-25T08:06:28Z</time></trkpt><trkpt lat="43.4451100377873" lon="11.354638647740504"><ele>328.0</ele><time>2026-04-25T08:06:29Z</time></trkpt><trkpt lat="43.445032016594574" lon="11.354500174538575"><ele>328.0</ele><time>2026-04-25T08:06:30Z</time></trkpt><trkpt lat="43.444981566785216" lon="11.354357267777464"><ele>328.0</ele><time>2026-04-25T08:06:31Z</time></trkpt><trkpt lat="43.44496449790646" lon="11.354218307605885"><ele>328.0</ele><time>2026-04-25T08:06:32Z</time></trkpt><trkpt lat="43.4449518961579" lon="11.354075517595795"><ele>328.0</ele><time>2026-04-25T08:06:33Z</time></trkpt><trkpt lat="43.4449463627398" lon="11.353954928916394"><ele>327.79999999999995</ele><time>2026-04-25T08:06:34Z</time></trkpt><trkpt lat="43.44493339528892" lon="11.353840284709975"><ele>327.6</ele><time>2026-04-25T08:06:35Z</time></trkpt><trkpt lat="43.444905306819706" lon="11.35370813770322"><ele>327.4</ele><time>2026-04-25T08:06:37Z</time></trkpt><trkpt lat="43.44484694650335" lon="11.353666095559928"><ele>327.20000000000005</ele><time>2026-04-25T08:06:41Z</time></trkpt><trkpt lat="43.44473067628306" lon="11.353708921362912"><ele>327.0</ele><time>2026-04-25T08:06:54Z</time></trkpt><trkpt lat="43.4445859197709" lon="11.35374666549867"><ele>326.5</ele><time>2026-04-25T08:06:56Z</time></trkpt><trkpt lat="43.44451165393015" lon="11.353770727606205"><ele>326.0</ele><time>2026-04-25T08:06:57Z</time></trkpt><trkpt lat="43.444439656770484" lon="11.353797079685357"><ele>325.5</ele><time>2026-04-25T08:06:58Z</time></trkpt><trkpt lat="43.444371190772976" lon="11.353845656096608"><ele>325.0</ele><time>2026-04-25T08:06:58.999Z</time></trkpt><trkpt lat="43.44429331532921" lon="11.353860637784125"><ele>324.5</ele><time>2026-04-25T08:06:59.999Z</time></trkpt><trkpt lat="43.44421035267008" lon="11.353883720701436"><ele>324.0</ele><time>2026-04-25T08:07:00.999Z</time></trkpt><trkpt lat="43.444122575061414" lon="11.353920746596748"><ele>324.0</ele><time>2026-04-25T08:07:01.999Z</time></trkpt><trkpt lat="43.444034399098655" lon="11.35396933214439"><ele>324.0</ele><time>2026-04-25T08:07:02.999Z</time></trkpt><trkpt lat="43.44394826465025" lon="11.354029002227701"><ele>324.0</ele><time>2026-04-25T08:07:03.999Z</time></trkpt><trkpt lat="43.44385339906776" lon="11.354095287609356"><ele>324.0</ele><time>2026-04-25T08:07:04.999Z</time></trkpt><trkpt lat="43.44375589614624" lon="11.354155481800312"><ele>324.0</ele><time>2026-04-25T08:07:05.999Z</time></trkpt><trkpt lat="43.443654932363785" lon="11.354223844455342"><ele>326.0</ele><time>2026-04-25T08:07:06.999Z</time></trkpt><trkpt lat="43.44356043010836" lon="11.354282533191626"><ele>328.0</ele><time>2026-04-25T08:07:07.999Z</time></trkpt><trkpt lat="43.44346593983447" lon="11.354343947267251"><ele>330.0</ele><time>2026-04-25T08:07:08.999Z</time></trkpt><trkpt lat="43.44337375812916" lon="11.354411259901807"><ele>332.0</ele><time>2026-04-25T08:07:09.999Z</time></trkpt><trkpt lat="43.44327748435002" lon="11.354474176472397"><ele>334.0</ele><time>2026-04-25T08:07:10.999Z</time></trkpt><trkpt lat="43.44318447159602" lon="11.354533838728532"><ele>334.0</ele><time>2026-04-25T08:07:11.999Z</time></trkpt><trkpt lat="43.44308373070857" lon="11.354593659935892"><ele>334.0</ele><time>2026-04-25T08:07:12.999Z</time></trkpt><trkpt lat="43.44298627372095" lon="11.35465287851308"><ele>334.0</ele><time>2026-04-25T08:07:13.999Z</time></trkpt><trkpt lat="43.44289946234208" lon="11.354694594978186"><ele>334.0</ele><time>2026-04-25T08:07:14.999Z</time></trkpt><trkpt lat="43.442810406928714" lon="11.354738763497776"><ele>334.0</ele><time>2026-04-25T08:07:15.999Z</time></trkpt><trkpt lat="43.442723008712086" lon="11.35479605063959"><ele>334.4</ele><time>2026-04-25T08:07:16.999Z</time></trkpt><trkpt lat="43.44264120633365" lon="11.354859840538303"><ele>334.79999999999995</ele><time>2026-04-25T08:07:17.999Z</time></trkpt><trkpt lat="43.442558746782844" lon="11.354935344522087"><ele>335.20000000000005</ele><time>2026-04-25T08:07:18.999Z</time></trkpt><trkpt lat="43.44247360599907" lon="11.355015250623744"><ele>335.6</ele><time>2026-04-25T08:07:19.999Z</time></trkpt><trkpt lat="43.44238588631337" lon="11.35509588747313"><ele>336.0</ele><time>2026-04-25T08:07:20.999Z</time></trkpt><trkpt lat="43.44230275186622" lon="11.355164959382023"><ele>336.0</ele><time>2026-04-25T08:07:21.999Z</time></trkpt><trkpt lat="43.442214899383835" lon="11.355225056015852"><ele>336.0</ele><time>2026-04-25T08:07:22.999Z</time></trkpt><trkpt lat="43.442122856897335" lon="11.355261963961718"><ele>336.0</ele><time>2026-04-25T08:07:23.999Z</time></trkpt><trkpt lat="43.4420325320589" lon="11.355280305022854"><ele>336.0</ele><time>2026-04-25T08:07:24.999Z</time></trkpt><trkpt lat="43.44195370811103" lon="11.355283251262689"><ele>336.0</ele><time>2026-04-25T08:07:25.999Z</time></trkpt><trkpt lat="43.44186790825737" lon="11.355277263290217"><ele>339.1666666666667</ele><time>2026-04-25T08:07:26.999Z</time></trkpt><trkpt lat="43.44177967571932" lon="11.35528394522932"><ele>342.3333333333333</ele><time>2026-04-25T08:07:27.999Z</time></trkpt><trkpt lat="43.44170073363874" lon="11.355294601971972"><ele>345.5</ele><time>2026-04-25T08:07:28.999Z</time></trkpt><trkpt lat="43.441619671258294" lon="11.355321173250305"><ele>348.66666666666663</ele><time>2026-04-25T08:07:29.999Z</time></trkpt><trkpt lat="43.441542867257134" lon="11.355370854829575"><ele>351.8333333333333</ele><time>2026-04-25T08:07:30.999Z</time></trkpt><trkpt lat="43.44147936548781" lon="11.35544564447473"><ele>355.0</ele><time>2026-04-25T08:07:31.999Z</time></trkpt><trkpt lat="43.44143965102667" lon="11.355535716044143"><ele>354.5</ele><time>2026-04-25T08:07:32.999Z</time></trkpt><trkpt lat="43.44140506830962" lon="11.355608268932667"><ele>354.0</ele><time>2026-04-25T08:07:33.999Z</time></trkpt><trkpt lat="43.44134594279376" lon="11.355678139949715"><ele>353.5</ele><time>2026-04-25T08:07:34.999Z</time></trkpt><trkpt lat="43.441273500523295" lon="11.355755763290242"><ele>353.0</ele><time>2026-04-25T08:07:35.999Z</time></trkpt><trkpt lat="43.441201079679175" lon="11.35581253140839"><ele>352.5</ele><time>2026-04-25T08:07:36.999Z</time></trkpt><trkpt lat="43.44110961595829" lon="11.355826839011733"><ele>352.0</ele><time>2026-04-25T08:07:37.999Z</time></trkpt><trkpt lat="43.44100927394088" lon="11.35578887488707"><ele>352.0</ele><time>2026-04-25T08:07:39.999Z</time></trkpt><trkpt lat="43.44097031997527" lon="11.355686118986373"><ele>352.0</ele><time>2026-04-25T08:07:41.999Z</time></trkpt><trkpt lat="43.44103098288573" lon="11.355567453696152"><ele>352.0</ele><time>2026-04-25T08:07:43.999Z</time></trkpt><trkpt lat="43.441057078998675" lon="11.355485379098985"><ele>352.0</ele><time>2026-04-25T08:07:44.999Z</time></trkpt><trkpt lat="43.44108762544753" lon="11.355284703166989"><ele>352.0</ele><time>2026-04-25T08:07:46.999Z</time></trkpt><trkpt lat="43.44107971954726" lon="11.355160556417674"><ele>352.20000000000005</ele><time>2026-04-25T08:07:47.999Z</time></trkpt><trkpt lat="43.44106102884068" lon="11.355025095941855"><ele>352.4</ele><time>2026-04-25T08:07:48.999Z</time></trkpt><trkpt lat="43.441040532685754" lon="11.35489953083987"><ele>352.6</ele><time>2026-04-25T08:07:49.999Z</time></trkpt><trkpt lat="43.441017120102146" lon="11.354770000769133"><ele>352.79999999999995</ele><time>2026-04-25T08:07:50.999Z</time></trkpt><trkpt lat="43.440990789934666" lon="11.354636594327175"><ele>353.0</ele><time>2026-04-25T08:07:51.999Z</time></trkpt><trkpt lat="43.44096220159682" lon="11.354507090036975"><ele>353.4</ele><time>2026-04-25T08:07:52.999Z</time></trkpt><trkpt lat="43.44093591957437" lon="11.354391236224494"><ele>353.79999999999995</ele><time>2026-04-25T08:07:53.999Z</time></trkpt><trkpt lat="43.44090735011757" lon="11.354263830714547"><ele>354.2</ele><time>2026-04-25T08:07:54.999Z</time></trkpt><trkpt lat="43.44088219776095" lon="11.354142882547409"><ele>354.6</ele><time>2026-04-25T08:07:55.999Z</time></trkpt><trkpt lat="43.44085979993176" lon="11.354016210939923"><ele>355.0</ele><time>2026-04-25T08:07:56.999Z</time></trkpt><trkpt lat="43.440842331324156" lon="11.353896354363705"><ele>356.2</ele><time>2026-04-25T08:07:57.999Z</time></trkpt><trkpt lat="43.440827000108364" lon="11.353773205116038"><ele>357.4</ele><time>2026-04-25T08:07:58.999Z</time></trkpt><trkpt lat="43.4408109638207" lon="11.35364439232554"><ele>358.6</ele><time>2026-04-25T08:07:59.999Z</time></trkpt><trkpt lat="43.44078724978387" lon="11.353508984372267"><ele>359.8</ele><time>2026-04-25T08:08:00.999Z</time></trkpt><trkpt lat="43.44077029764964" lon="11.353372649235583"><ele>361.0</ele><time>2026-04-25T08:08:01.999Z</time></trkpt><trkpt lat="43.44075619602167" lon="11.353235617496388"><ele>361.0</ele><time>2026-04-25T08:08:02.999Z</time></trkpt><trkpt lat="43.4407383557144" lon="11.353091284339772"><ele>361.0</ele><time>2026-04-25T08:08:03.999Z</time></trkpt><trkpt lat="43.44072589386207" lon="11.352939572124093"><ele>361.0</ele><time>2026-04-25T08:08:04.999Z</time></trkpt><trkpt lat="43.44071475472445" lon="11.352801780368631"><ele>361.0</ele><time>2026-04-25T08:08:05.999Z</time></trkpt><trkpt lat="43.440692194871815" lon="11.352674164628878"><ele>361.0</ele><time>2026-04-25T08:08:06.999Z</time></trkpt><trkpt lat="43.44067703852759" lon="11.352549180387044"><ele>362.0</ele><time>2026-04-25T08:08:07.999Z</time></trkpt><trkpt lat="43.44065071755098" lon="11.352427626913483"><ele>363.0</ele><time>2026-04-25T08:08:09Z</time></trkpt><trkpt lat="43.440624345076856" lon="11.352316833823892"><ele>364.0</ele><time>2026-04-25T08:08:10Z</time></trkpt><trkpt lat="43.44061168906583" lon="11.352199870679263"><ele>365.0</ele><time>2026-04-25T08:08:11Z</time></trkpt><trkpt lat="43.44059670436742" lon="11.352080668164955"><ele>366.0</ele><time>2026-04-25T08:08:12Z</time></trkpt><trkpt lat="43.44058303493932" lon="11.351969838814494"><ele>367.0</ele><time>2026-04-25T08:08:13Z</time></trkpt><trkpt lat="43.44058112080774" lon="11.351861264885008"><ele>367.8</ele><time>2026-04-25T08:08:14Z</time></trkpt><trkpt lat="43.44057547633534" lon="11.351764700780612"><ele>368.6</ele><time>2026-04-25T08:08:15Z</time></trkpt><trkpt lat="43.44056632468066" lon="11.351598359983745"><ele>369.40000000000003</ele><time>2026-04-25T08:08:17Z</time></trkpt><trkpt lat="43.44048985576696" lon="11.35151605251598"><ele>370.20000000000005</ele><time>2026-04-25T08:08:18Z</time></trkpt><trkpt lat="43.44045103504385" lon="11.351397246055512"><ele>371.0</ele><time>2026-04-25T08:08:19Z</time></trkpt><trkpt lat="43.44040983264138" lon="11.351292946823378"><ele>371.33333333333337</ele><time>2026-04-25T08:08:20Z</time></trkpt><trkpt lat="43.440375472780666" lon="11.351189703343547"><ele>371.6666666666667</ele><time>2026-04-25T08:08:21Z</time></trkpt><trkpt lat="43.44034033820029" lon="11.351094152719426"><ele>372.0</ele><time>2026-04-25T08:08:22Z</time></trkpt><trkpt lat="43.440312246571196" lon="11.350995346606974"><ele>372.3333333333333</ele><time>2026-04-25T08:08:23Z</time></trkpt><trkpt lat="43.44026478138851" lon="11.350896622102635"><ele>372.66666666666663</ele><time>2026-04-25T08:08:24Z</time></trkpt><trkpt lat="43.44021347866829" lon="11.350799125024569"><ele>373.0</ele><time>2026-04-25T08:08:25Z</time></trkpt><trkpt lat="43.440146541837386" lon="11.35071775099926"><ele>373.0</ele><time>2026-04-25T08:08:26Z</time></trkpt><trkpt lat="43.44007214545859" lon="11.350632112971022"><ele>373.0</ele><time>2026-04-25T08:08:27Z</time></trkpt><trkpt lat="43.43998329774478" lon="11.350569113087051"><ele>373.0</ele><time>2026-04-25T08:08:28Z</time></trkpt><trkpt lat="43.439889115789796" lon="11.35050474505804"><ele>373.0</ele><time>2026-04-25T08:08:29Z</time></trkpt><trkpt lat="43.439801001313285" lon="11.350446126498957"><ele>373.0</ele><time>2026-04-25T08:08:30Z</time></trkpt><trkpt lat="43.43971067779607" lon="11.350395686322686"><ele>373.79999999999995</ele><time>2026-04-25T08:08:31Z</time></trkpt><trkpt lat="43.43961924701366" lon="11.350343653060818"><ele>374.6</ele><time>2026-04-25T08:08:32Z</time></trkpt><trkpt lat="43.4395258296407" lon="11.350307162902032"><ele>375.4</ele><time>2026-04-25T08:08:33Z</time></trkpt><trkpt lat="43.43943235339044" lon="11.35026346717111"><ele>376.20000000000005</ele><time>2026-04-25T08:08:34Z</time></trkpt><trkpt lat="43.43933006406379" lon="11.350217543839001"><ele>377.0</ele><time>2026-04-25T08:08:35Z</time></trkpt><trkpt lat="43.43921954904045" lon="11.350172455288527"><ele>377.0</ele><time>2026-04-25T08:08:36Z</time></trkpt><trkpt lat="43.43911508112187" lon="11.35012117608852"><ele>377.0</ele><time>2026-04-25T08:08:37Z</time></trkpt><trkpt lat="43.43899828861797" lon="11.350076513898285"><ele>377.0</ele><time>2026-04-25T08:08:38Z</time></trkpt><trkpt lat="43.438891536155694" lon="11.350017922487613"><ele>377.0</ele><time>2026-04-25T08:08:39Z</time></trkpt><trkpt lat="43.43879227899128" lon="11.349980906517906"><ele>376.6</ele><time>2026-04-25T08:08:40Z</time></trkpt><trkpt lat="43.43869871982967" lon="11.349942345297285"><ele>376.20000000000005</ele><time>2026-04-25T08:08:41Z</time></trkpt><trkpt lat="43.43861149048325" lon="11.349909977041351"><ele>375.8</ele><time>2026-04-25T08:08:42Z</time></trkpt><trkpt lat="43.43852433222238" lon="11.349871460978704"><ele>375.4</ele><time>2026-04-25T08:08:43Z</time></trkpt><trkpt lat="43.43844414530893" lon="11.349813707281294"><ele>375.0</ele><time>2026-04-25T08:08:44Z</time></trkpt><trkpt lat="43.43835504037832" lon="11.349747328314905"><ele>377.25</ele><time>2026-04-25T08:08:45Z</time></trkpt><trkpt lat="43.43826295736904" lon="11.349662877529097"><ele>379.5</ele><time>2026-04-25T08:08:46Z</time></trkpt><trkpt lat="43.43818399701614" lon="11.349562289339474"><ele>381.75</ele><time>2026-04-25T08:08:47Z</time></trkpt><trkpt lat="43.43811293196333" lon="11.349436501483357"><ele>384.0</ele><time>2026-04-25T08:08:48Z</time></trkpt><trkpt lat="43.43805048822754" lon="11.349301042967593"><ele>384.0</ele><time>2026-04-25T08:08:49Z</time></trkpt><trkpt lat="43.438025538671745" lon="11.349140079488436"><ele>384.0</ele><time>2026-04-25T08:08:50Z</time></trkpt><trkpt lat="43.43799592947698" lon="11.34899983545819"><ele>384.0</ele><time>2026-04-25T08:08:51Z</time></trkpt><trkpt lat="43.437968106403" lon="11.348856677680242"><ele>384.0</ele><time>2026-04-25T08:08:52Z</time></trkpt><trkpt lat="43.43794218420315" lon="11.348714964043095"><ele>384.0</ele><time>2026-04-25T08:08:53Z</time></trkpt><trkpt lat="43.43789993795539" lon="11.34857755318393"><ele>382.6</ele><time>2026-04-25T08:08:54Z</time></trkpt><trkpt lat="43.437835009578016" lon="11.348455991175086"><ele>381.2</ele><time>2026-04-25T08:08:55Z</time></trkpt><trkpt lat="43.43775959503145" lon="11.348357397845255"><ele>379.8</ele><time>2026-04-25T08:08:56Z</time></trkpt><trkpt lat="43.4376498238364" lon="11.348324433687344"><ele>378.40000000000003</ele><time>2026-04-25T08:08:57Z</time></trkpt><trkpt lat="43.43753768134799" lon="11.348320152746705"><ele>377.0</ele><time>2026-04-25T08:08:58Z</time></trkpt><trkpt lat="43.43742037974644" lon="11.348357571704286"><ele>377.0</ele><time>2026-04-25T08:08:59Z</time></trkpt><trkpt lat="43.4373287768457" lon="11.348439945535135"><ele>377.0</ele><time>2026-04-25T08:09:00Z</time></trkpt><trkpt lat="43.43726757347522" lon="11.348554058357532"><ele>377.0</ele><time>2026-04-25T08:09:01Z</time></trkpt><trkpt lat="43.43722927164348" lon="11.348697382170766"><ele>377.0</ele><time>2026-04-25T08:09:02Z</time></trkpt><trkpt lat="43.43720608966298" lon="11.348843773059324"><ele>377.0</ele><time>2026-04-25T08:09:03Z</time></trkpt><trkpt lat="43.43717597751376" lon="11.348981348265976"><ele>376.20000000000005</ele><time>2026-04-25T08:09:04Z</time></trkpt><trkpt lat="43.43713610753299" lon="11.34910358056141"><ele>375.4</ele><time>2026-04-25T08:09:05Z</time></trkpt><trkpt lat="43.43708348104015" lon="11.349215359630444"><ele>374.6</ele><time>2026-04-25T08:09:06Z</time></trkpt><trkpt lat="43.43702285580592" lon="11.349300917992897"><ele>373.79999999999995</ele><time>2026-04-25T08:09:07Z</time></trkpt><trkpt lat="43.43694480293668" lon="11.349354688125562"><ele>373.0</ele><time>2026-04-25T08:09:08Z</time></trkpt><trkpt lat="43.43686007568225" lon="11.34937746079445"><ele>373.0</ele><time>2026-04-25T08:09:09Z</time></trkpt><trkpt lat="43.436773753725426" lon="11.349357449309776"><ele>373.0</ele><time>2026-04-25T08:09:10Z</time></trkpt><trkpt lat="43.4366977902724" lon="11.34929173616381"><ele>373.0</ele><time>2026-04-25T08:09:11Z</time></trkpt><trkpt lat="43.436618509767364" lon="11.349237520350638"><ele>373.0</ele><time>2026-04-25T08:09:12Z</time></trkpt><trkpt lat="43.43653203323671" lon="11.34914238160693"><ele>373.0</ele><time>2026-04-25T08:09:13Z</time></trkpt><trkpt lat="43.436437435904395" lon="11.349049335209308"><ele>373.0</ele><time>2026-04-25T08:09:14Z</time></trkpt><trkpt lat="43.43633168918331" lon="11.348956901574754"><ele>373.0</ele><time>2026-04-25T08:09:15Z</time></trkpt><trkpt lat="43.436227920239055" lon="11.348874393353277"><ele>373.0</ele><time>2026-04-25T08:09:16Z</time></trkpt><trkpt lat="43.43613966583522" lon="11.348798984086642"><ele>373.0</ele><time>2026-04-25T08:09:17Z</time></trkpt><trkpt lat="43.43605529147127" lon="11.348743200651215"><ele>373.0</ele><time>2026-04-25T08:09:18Z</time></trkpt><trkpt lat="43.435968062708355" lon="11.348696347314515"><ele>375.0</ele><time>2026-04-25T08:09:19Z</time></trkpt><trkpt lat="43.43588783247374" lon="11.348660981157593"><ele>377.0</ele><time>2026-04-25T08:09:20Z</time></trkpt><trkpt lat="43.43579455007912" lon="11.34864792000779"><ele>379.0</ele><time>2026-04-25T08:09:21Z</time></trkpt><trkpt lat="43.43569521912032" lon="11.348639491593467"><ele>381.0</ele><time>2026-04-25T08:09:22Z</time></trkpt><trkpt lat="43.435598926330094" lon="11.348666649708065"><ele>383.0</ele><time>2026-04-25T08:09:23Z</time></trkpt><trkpt lat="43.43550674473451" lon="11.348711420945415"><ele>383.1666666666667</ele><time>2026-04-25T08:09:24Z</time></trkpt><trkpt lat="43.435416631655215" lon="11.348750513358898"><ele>383.33333333333337</ele><time>2026-04-25T08:09:25Z</time></trkpt><trkpt lat="43.435325029830636" lon="11.348776815355006"><ele>383.5</ele><time>2026-04-25T08:09:26Z</time></trkpt><trkpt lat="43.43523389182989" lon="11.3487910860919"><ele>383.6666666666667</ele><time>2026-04-25T08:09:27Z</time></trkpt><trkpt lat="43.43515457108554" lon="11.348793203775843"><ele>383.8333333333333</ele><time>2026-04-25T08:09:28Z</time></trkpt><trkpt lat="43.43508910896796" lon="11.348755612216468"><ele>384.0</ele><time>2026-04-25T08:09:29Z</time></trkpt><trkpt lat="43.43502567396726" lon="11.348724884354644"><ele>383.99999999999994</ele><time>2026-04-25T08:09:30Z</time></trkpt><trkpt lat="43.43495580444046" lon="11.348713062409491"><ele>384.0</ele><time>2026-04-25T08:09:31Z</time></trkpt><trkpt lat="43.43489052886734" lon="11.348692384302831"><ele>384.0</ele><time>2026-04-25T08:09:32Z</time></trkpt><trkpt lat="43.43482596230647" lon="11.348680765851046"><ele>384.0</ele><time>2026-04-25T08:09:33Z</time></trkpt><trkpt lat="43.43475251737471" lon="11.348705732797393"><ele>384.0</ele><time>2026-04-25T08:09:34Z</time></trkpt><trkpt lat="43.4346925031068" lon="11.348761954743336"><ele>383.99999999999994</ele><time>2026-04-25T08:09:35Z</time></trkpt><trkpt lat="43.43462799556624" lon="11.348853177346642"><ele>384.0</ele><time>2026-04-25T08:09:36Z</time></trkpt><trkpt lat="43.434574828263166" lon="11.348966649178001"><ele>385.6</ele><time>2026-04-25T08:09:37Z</time></trkpt><trkpt lat="43.43454277251806" lon="11.349095052713789"><ele>387.2</ele><time>2026-04-25T08:09:38Z</time></trkpt><trkpt lat="43.4345126349451" lon="11.34922193539057"><ele>388.8</ele><time>2026-04-25T08:09:39Z</time></trkpt><trkpt lat="43.434470773559" lon="11.349347048655757"><ele>390.40000000000003</ele><time>2026-04-25T08:09:40Z</time></trkpt><trkpt lat="43.43442603337061" lon="11.349473033057182"><ele>392.0</ele><time>2026-04-25T08:09:41Z</time></trkpt><trkpt lat="43.434385207670644" lon="11.349587024716069"><ele>392.0</ele><time>2026-04-25T08:09:42Z</time></trkpt><trkpt lat="43.434344036151174" lon="11.349697162500082"><ele>392.0</ele><time>2026-04-25T08:09:43Z</time></trkpt><trkpt lat="43.43429419286436" lon="11.349800306700153"><ele>392.0</ele><time>2026-04-25T08:09:44Z</time></trkpt><trkpt lat="43.4342309153545" lon="11.349900248863484"><ele>392.0</ele><time>2026-04-25T08:09:45Z</time></trkpt><trkpt lat="43.434154911042846" lon="11.349991468630268"><ele>392.0</ele><time>2026-04-25T08:09:46Z</time></trkpt><trkpt lat="43.4340700421043" lon="11.350084883154514"><ele>392.6</ele><time>2026-04-25T08:09:47Z</time></trkpt><trkpt lat="43.43398622456858" lon="11.350181258527858"><ele>393.20000000000005</ele><time>2026-04-25T08:09:48Z</time></trkpt><trkpt lat="43.43390900113433" lon="11.350275933650108"><ele>393.8</ele><time>2026-04-25T08:09:49Z</time></trkpt><trkpt lat="43.43382659146499" lon="11.350375034744838"><ele>394.4</ele><time>2026-04-25T08:09:50Z</time></trkpt><trkpt lat="43.43374975498464" lon="11.350472466229855"><ele>395.0</ele><time>2026-04-25T08:09:51Z</time></trkpt><trkpt lat="43.43366312166839" lon="11.350566105695227"><ele>391.5</ele><time>2026-04-25T08:09:52Z</time></trkpt><trkpt lat="43.43357822264087" lon="11.350671034936758"><ele>388.0</ele><time>2026-04-25T08:09:53Z</time></trkpt><trkpt lat="43.433487862448565" lon="11.350769995088465"><ele>384.5</ele><time>2026-04-25T08:09:54Z</time></trkpt><trkpt lat="43.4333922359576" lon="11.350862873997851"><ele>381.0</ele><time>2026-04-25T08:09:55Z</time></trkpt><trkpt lat="43.43329393907482" lon="11.350950155091422"><ele>381.0</ele><time>2026-04-25T08:09:56Z</time></trkpt><trkpt lat="43.43319522738312" lon="11.35103718227389"><ele>381.0</ele><time>2026-04-25T08:09:57Z</time></trkpt><trkpt lat="43.4330994009551" lon="11.35111271478163"><ele>381.0</ele><time>2026-04-25T08:09:58Z</time></trkpt><trkpt lat="43.43300655831184" lon="11.351180660802724"><ele>381.0</ele><time>2026-04-25T08:09:59Z</time></trkpt><trkpt lat="43.43291608294334" lon="11.35125222592523"><ele>381.0</ele><time>2026-04-25T08:10:00Z</time></trkpt><trkpt lat="43.43282650056393" lon="11.35131653243727"><ele>382.8</ele><time>2026-04-25T08:10:01Z</time></trkpt><trkpt lat="43.4327466027976" lon="11.351362255065913"><ele>384.6</ele><time>2026-04-25T08:10:02Z</time></trkpt><trkpt lat="43.432654425566255" lon="11.351392587556514"><ele>386.4</ele><time>2026-04-25T08:10:03Z</time></trkpt><trkpt lat="43.432562232950026" lon="11.351396581679404"><ele>388.2</ele><time>2026-04-25T08:10:04Z</time></trkpt><trkpt lat="43.43246886265213" lon="11.351385070413707"><ele>390.0</ele><time>2026-04-25T08:10:05Z</time></trkpt><trkpt lat="43.432377869769795" lon="11.351375097966468"><ele>391.0</ele><time>2026-04-25T08:10:06Z</time></trkpt><trkpt lat="43.4322856061665" lon="11.351365439494296"><ele>392.0</ele><time>2026-04-25T08:10:07Z</time></trkpt><trkpt lat="43.432200427728105" lon="11.351355908764933"><ele>393.0</ele><time>2026-04-25T08:10:08Z</time></trkpt><trkpt lat="43.4321165056355" lon="11.351329335753022"><ele>394.0</ele><time>2026-04-25T08:10:09Z</time></trkpt><trkpt lat="43.43202963929865" lon="11.351305269460847"><ele>395.0</ele><time>2026-04-25T08:10:10Z</time></trkpt><trkpt lat="43.43194268882046" lon="11.351275768209131"><ele>396.0</ele><time>2026-04-25T08:10:11Z</time></trkpt><trkpt lat="43.431865763675596" lon="11.351250023941551"><ele>396.0</ele><time>2026-04-25T08:10:12Z</time></trkpt><trkpt lat="43.43180978609361" lon="11.351162445176476"><ele>396.0</ele><time>2026-04-25T08:10:13Z</time></trkpt><trkpt lat="43.43174888013401" lon="11.35109617163311"><ele>396.0</ele><time>2026-04-25T08:10:14Z</time></trkpt><trkpt lat="43.43169267214237" lon="11.351032646715623"><ele>396.0</ele><time>2026-04-25T08:10:15Z</time></trkpt><trkpt lat="43.43164440939721" lon="11.350954516756122"><ele>396.0</ele><time>2026-04-25T08:10:16Z</time></trkpt><trkpt lat="43.43159921399043" lon="11.350880444899948"><ele>396.0</ele><time>2026-04-25T08:10:17Z</time></trkpt><trkpt lat="43.43155826005101" lon="11.350811212526361"><ele>396.0</ele><time>2026-04-25T08:10:18Z</time></trkpt><trkpt lat="43.431485165385205" lon="11.350686647334081"><ele>396.0</ele><time>2026-04-25T08:10:20Z</time></trkpt><trkpt lat="43.43137412876495" lon="11.3506196008447"><ele>396.0</ele><time>2026-04-25T08:10:22Z</time></trkpt><trkpt lat="43.43129345279134" lon="11.350624188804769"><ele>396.0</ele><time>2026-04-25T08:10:23Z</time></trkpt><trkpt lat="43.431211724646815" lon="11.350676794328976"><ele>396.0</ele><time>2026-04-25T08:10:24Z</time></trkpt><trkpt lat="43.43113218548653" lon="11.350733357842355"><ele>396.0</ele><time>2026-04-25T08:10:25Z</time></trkpt><trkpt lat="43.4310539102229" lon="11.350807154751408"><ele>393.20000000000005</ele><time>2026-04-25T08:10:26Z</time></trkpt><trkpt lat="43.43096874760182" lon="11.350871516046128"><ele>390.40000000000003</ele><time>2026-04-25T08:10:27Z</time></trkpt><trkpt lat="43.43087046940827" lon="11.35088889695488"><ele>387.6</ele><time>2026-04-25T08:10:28Z</time></trkpt><trkpt lat="43.43076127582077" lon="11.350930756998366"><ele>384.8</ele><time>2026-04-25T08:10:29Z</time></trkpt><trkpt lat="43.430644487002084" lon="11.350884535439786"><ele>382.0</ele><time>2026-04-25T08:10:30Z</time></trkpt><trkpt lat="43.430533113341184" lon="11.35085786743524"><ele>381.25</ele><time>2026-04-25T08:10:31Z</time></trkpt><trkpt lat="43.430426283582925" lon="11.350830009258205"><ele>380.5</ele><time>2026-04-25T08:10:32Z</time></trkpt><trkpt lat="43.43031892619082" lon="11.35081533510671"><ele>379.75</ele><time>2026-04-25T08:10:33Z</time></trkpt><trkpt lat="43.43020302308645" lon="11.350836482237845"><ele>379.0</ele><time>2026-04-25T08:10:34Z</time></trkpt><trkpt lat="43.43008608777126" lon="11.350843645181989"><ele>379.0</ele><time>2026-04-25T08:10:35Z</time></trkpt><trkpt lat="43.42997561168101" lon="11.350846950289222"><ele>379.0</ele><time>2026-04-25T08:10:36Z</time></trkpt><trkpt lat="43.42987865476821" lon="11.350864404016061"><ele>379.0</ele><time>2026-04-25T08:10:37Z</time></trkpt><trkpt lat="43.42977896135216" lon="11.350851496846596"><ele>379.0</ele><time>2026-04-25T08:10:38Z</time></trkpt><trkpt lat="43.42968142837926" lon="11.350852553040161"><ele>379.0</ele><time>2026-04-25T08:10:39Z</time></trkpt><trkpt lat="43.429586012617314" lon="11.35084794827056"><ele>378.6</ele><time>2026-04-25T08:10:40Z</time></trkpt><trkpt lat="43.42949092198968" lon="11.350761319371239"><ele>378.2</ele><time>2026-04-25T08:10:41Z</time></trkpt><trkpt lat="43.42938120086337" lon="11.350703139732959"><ele>377.8</ele><time>2026-04-25T08:10:42Z</time></trkpt><trkpt lat="43.42929359148689" lon="11.35062880134165"><ele>377.40000000000003</ele><time>2026-04-25T08:10:43Z</time></trkpt><trkpt lat="43.42919866657512" lon="11.350562029471888"><ele>377.0</ele><time>2026-04-25T08:10:44Z</time></trkpt><trkpt lat="43.42911118825229" lon="11.35047939462998"><ele>377.0</ele><time>2026-04-25T08:10:45Z</time></trkpt><trkpt lat="43.42901794676693" lon="11.350408196983452"><ele>377.0</ele><time>2026-04-25T08:10:46Z</time></trkpt><trkpt lat="43.428924253173065" lon="11.350339436389639"><ele>377.0</ele><time>2026-04-25T08:10:47Z</time></trkpt><trkpt lat="43.42884019898935" lon="11.350277298087976"><ele>377.0</ele><time>2026-04-25T08:10:48Z</time></trkpt><trkpt lat="43.42875631029769" lon="11.350210856761883"><ele>377.0</ele><time>2026-04-25T08:10:49Z</time></trkpt><trkpt lat="43.42868833707735" lon="11.350156088233176"><ele>377.0</ele><time>2026-04-25T08:10:50Z</time></trkpt><trkpt lat="43.42860332387798" lon="11.350119585761622"><ele>377.0</ele><time>2026-04-25T08:10:51Z</time></trkpt><trkpt lat="43.42852596141465" lon="11.35005437751266"><ele>377.0</ele><time>2026-04-25T08:10:52Z</time></trkpt><trkpt lat="43.428448380937134" lon="11.350004522835112"><ele>377.0</ele><time>2026-04-25T08:10:53Z</time></trkpt><trkpt lat="43.428362317939815" lon="11.349990760229337"><ele>377.0</ele><time>2026-04-25T08:10:54Z</time></trkpt><trkpt lat="43.42825401014856" lon="11.349988898896182"><ele>377.0</ele><time>2026-04-25T08:10:55Z</time></trkpt><trkpt lat="43.428153105552354" lon="11.349993999341203"><ele>377.0</ele><time>2026-04-25T08:10:56Z</time></trkpt><trkpt lat="43.42805168768386" lon="11.350012747122763"><ele>377.0</ele><time>2026-04-25T08:10:57Z</time></trkpt><trkpt lat="43.42795106468047" lon="11.350061151552387"><ele>377.0</ele><time>2026-04-25T08:10:58Z</time></trkpt><trkpt lat="43.42785623390147" lon="11.350130933224976"><ele>377.0</ele><time>2026-04-25T08:10:59Z</time></trkpt><trkpt lat="43.42775934208044" lon="11.350204732107374"><ele>377.20000000000005</ele><time>2026-04-25T08:11:00Z</time></trkpt><trkpt lat="43.4276615561748" lon="11.350260330626408"><ele>377.4</ele><time>2026-04-25T08:11:01Z</time></trkpt><trkpt lat="43.427564336889226" lon="11.350300679196812"><ele>377.6</ele><time>2026-04-25T08:11:02Z</time></trkpt><trkpt lat="43.427472454716245" lon="11.35033147756576"><ele>377.79999999999995</ele><time>2026-04-25T08:11:03Z</time></trkpt><trkpt lat="43.4273858257826" lon="11.350357556903909"><ele>378.0</ele><time>2026-04-25T08:11:04Z</time></trkpt><trkpt lat="43.42731931545672" lon="11.350378158013852"><ele>378.0</ele><time>2026-04-25T08:11:05Z</time></trkpt><trkpt lat="43.42721970600866" lon="11.350401420541042"><ele>378.0</ele><time>2026-04-25T08:11:07Z</time></trkpt><trkpt lat="43.427110047935635" lon="11.350438816041693"><ele>378.0</ele><time>2026-04-25T08:11:09Z</time></trkpt><trkpt lat="43.42698795593338" lon="11.350510157436043"><ele>378.0</ele><time>2026-04-25T08:11:11Z</time></trkpt><trkpt lat="43.42689307813028" lon="11.350635126050612"><ele>380.6666666666667</ele><time>2026-04-25T08:11:13Z</time></trkpt><trkpt lat="43.42685158840567" lon="11.350723010315537"><ele>383.33333333333337</ele><time>2026-04-25T08:11:14Z</time></trkpt><trkpt lat="43.42681058902075" lon="11.350821774254731"><ele>386.0</ele><time>2026-04-25T08:11:15Z</time></trkpt><trkpt lat="43.42678114462071" lon="11.350918042378636"><ele>388.6666666666667</ele><time>2026-04-25T08:11:16Z</time></trkpt><trkpt lat="43.42675405220467" lon="11.351023534777964"><ele>391.33333333333337</ele><time>2026-04-25T08:11:17Z</time></trkpt><trkpt lat="43.426708101297145" lon="11.351137453443835"><ele>394.0</ele><time>2026-04-25T08:11:18Z</time></trkpt><trkpt lat="43.426659840336555" lon="11.351240770096393"><ele>394.0</ele><time>2026-04-25T08:11:19Z</time></trkpt><trkpt lat="43.426614085780486" lon="11.351348294241234"><ele>394.0</ele><time>2026-04-25T08:11:20Z</time></trkpt><trkpt lat="43.426565129812964" lon="11.351463505698456"><ele>394.0</ele><time>2026-04-25T08:11:21Z</time></trkpt><trkpt lat="43.426510934972775" lon="11.35156368657"><ele>394.0</ele><time>2026-04-25T08:11:22Z</time></trkpt><trkpt lat="43.42643922508799" lon="11.351639228636405"><ele>394.0</ele><time>2026-04-25T08:11:23Z</time></trkpt><trkpt lat="43.426372269675696" lon="11.351713474986513"><ele>396.4</ele><time>2026-04-25T08:11:24Z</time></trkpt><trkpt lat="43.42629050772023" lon="11.351829183651546"><ele>398.79999999999995</ele><time>2026-04-25T08:11:25Z</time></trkpt><trkpt lat="43.42620065963807" lon="11.351907057785322"><ele>401.20000000000005</ele><time>2026-04-25T08:11:26Z</time></trkpt><trkpt lat="43.42612165941454" lon="11.35195648233905"><ele>403.6</ele><time>2026-04-25T08:11:27Z</time></trkpt><trkpt lat="43.426047649715706" lon="11.352011593950973"><ele>406.0</ele><time>2026-04-25T08:11:28Z</time></trkpt><trkpt lat="43.42597988450444" lon="11.35208287205469"><ele>406.0</ele><time>2026-04-25T08:11:29Z</time></trkpt><trkpt lat="43.42592445377304" lon="11.352173000498395"><ele>406.0</ele><time>2026-04-25T08:11:30Z</time></trkpt><trkpt lat="43.425869330283" lon="11.352290090391167"><ele>406.0</ele><time>2026-04-25T08:11:31Z</time></trkpt><trkpt lat="43.42583334085544" lon="11.352426670771571"><ele>406.0</ele><time>2026-04-25T08:11:32Z</time></trkpt><trkpt lat="43.42580848170595" lon="11.35256715242015"><ele>406.0</ele><time>2026-04-25T08:11:33Z</time></trkpt><trkpt lat="43.42578366937164" lon="11.352708708308493"><ele>405.0</ele><time>2026-04-25T08:11:34Z</time></trkpt><trkpt lat="43.425754464457945" lon="11.352848070171579"><ele>404.0</ele><time>2026-04-25T08:11:35Z</time></trkpt><trkpt lat="43.425741710383186" lon="11.352986209536125"><ele>403.0</ele><time>2026-04-25T08:11:36Z</time></trkpt><trkpt lat="43.4257391196931" lon="11.353127635447944"><ele>402.0</ele><time>2026-04-25T08:11:37Z</time></trkpt><trkpt lat="43.42573510879381" lon="11.353262941504678"><ele>401.0</ele><time>2026-04-25T08:11:38Z</time></trkpt><trkpt lat="43.42574629390857" lon="11.353401042243865"><ele>400.6</ele><time>2026-04-25T08:11:39Z</time></trkpt><trkpt lat="43.42575352913486" lon="11.353535787931282"><ele>400.20000000000005</ele><time>2026-04-25T08:11:40Z</time></trkpt><trkpt lat="43.425766079055464" lon="11.353671049638203"><ele>399.79999999999995</ele><time>2026-04-25T08:11:41Z</time></trkpt><trkpt lat="43.4257617753036" lon="11.353818308644984"><ele>399.4</ele><time>2026-04-25T08:11:42Z</time></trkpt><trkpt lat="43.4257305987628" lon="11.353952710847958"><ele>399.0</ele><time>2026-04-25T08:11:43Z</time></trkpt><trkpt lat="43.425688179913706" lon="11.354081252629465"><ele>400.6</ele><time>2026-04-25T08:11:44Z</time></trkpt><trkpt lat="43.42563393965576" lon="11.354201039933624"><ele>402.2</ele><time>2026-04-25T08:11:45Z</time></trkpt><trkpt lat="43.425574481239146" lon="11.35430154594084"><ele>403.8</ele><time>2026-04-25T08:11:46Z</time></trkpt><trkpt lat="43.4254939679815" lon="11.35437149164779"><ele>405.40000000000003</ele><time>2026-04-25T08:11:47Z</time></trkpt><trkpt lat="43.42541398231743" lon="11.354394651497135"><ele>407.0</ele><time>2026-04-25T08:11:48Z</time></trkpt><trkpt lat="43.425332656106725" lon="11.354384316986485"><ele>409.99999999999994</ele><time>2026-04-25T08:11:49Z</time></trkpt><trkpt lat="43.42524296227673" lon="11.35437462937205"><ele>413.0</ele><time>2026-04-25T08:11:50Z</time></trkpt><trkpt lat="43.42515167932985" lon="11.354384518966063"><ele>416.0</ele><time>2026-04-25T08:11:51Z</time></trkpt><trkpt lat="43.425079594063405" lon="11.35440988965127"><ele>419.0</ele><time>2026-04-25T08:11:52Z</time></trkpt><trkpt lat="43.42501930233641" lon="11.354457822129984"><ele>421.99999999999994</ele><time>2026-04-25T08:11:53Z</time></trkpt><trkpt lat="43.42498565464567" lon="11.354543032711941"><ele>425.0</ele><time>2026-04-25T08:11:54Z</time></trkpt><trkpt lat="43.42497578248568" lon="11.354657263726013"><ele>424.8</ele><time>2026-04-25T08:11:55Z</time></trkpt><trkpt lat="43.42496845436157" lon="11.354762461840105"><ele>424.6</ele><time>2026-04-25T08:11:56Z</time></trkpt><trkpt lat="43.42490001609842" lon="11.354837837226404"><ele>424.4</ele><time>2026-04-25T08:11:57Z</time></trkpt><trkpt lat="43.42475920892184" lon="11.354819900926074"><ele>424.2</ele><time>2026-04-25T08:11:59Z</time></trkpt><trkpt lat="43.424665834787234" lon="11.354828334378174"><ele>424.0</ele><time>2026-04-25T08:12:00Z</time></trkpt><trkpt lat="43.4245681217502" lon="11.35481510624913"><ele>423.0</ele><time>2026-04-25T08:12:00.999Z</time></trkpt><trkpt lat="43.42446346822723" lon="11.3548061543987"><ele>422.0</ele><time>2026-04-25T08:12:01.999Z</time></trkpt><trkpt lat="43.42435159329487" lon="11.354793455570665"><ele>421.0</ele><time>2026-04-25T08:12:02.999Z</time></trkpt><trkpt lat="43.424251335787744" lon="11.354742557297628"><ele>420.0</ele><time>2026-04-25T08:12:03.999Z</time></trkpt><trkpt lat="43.424165732180164" lon="11.354692529561826"><ele>419.0</ele><time>2026-04-25T08:12:04.999Z</time></trkpt><trkpt lat="43.424101041302045" lon="11.35461013794623"><ele>421.66666666666663</ele><time>2026-04-25T08:12:05.999Z</time></trkpt><trkpt lat="43.42406718715089" lon="11.354520570944814"><ele>424.3333333333333</ele><time>2026-04-25T08:12:06.999Z</time></trkpt><trkpt lat="43.42400095572847" lon="11.35443559743485"><ele>427.0</ele><time>2026-04-25T08:12:07.999Z</time></trkpt><trkpt lat="43.42395670999668" lon="11.354337389694662"><ele>429.66666666666663</ele><time>2026-04-25T08:12:08.999Z</time></trkpt><trkpt lat="43.42393088981603" lon="11.35424691901663"><ele>432.3333333333333</ele><time>2026-04-25T08:12:09.999Z</time></trkpt><trkpt lat="43.42390352985003" lon="11.35415767895405"><ele>435.0</ele><time>2026-04-25T08:12:10.999Z</time></trkpt><trkpt lat="43.423882951414015" lon="11.3540720138671"><ele>435.0</ele><time>2026-04-25T08:12:11.999Z</time></trkpt><trkpt lat="43.423864306957086" lon="11.353948603540736"><ele>435.0</ele><time>2026-04-25T08:12:12.999Z</time></trkpt><trkpt lat="43.42385193810191" lon="11.353818824911501"><ele>435.0</ele><time>2026-04-25T08:12:13.999Z</time></trkpt><trkpt lat="43.42383696071474" lon="11.353644913813433"><ele>435.0</ele><time>2026-04-25T08:12:14.999Z</time></trkpt><trkpt lat="43.423803010305704" lon="11.353472442141992"><ele>435.0</ele><time>2026-04-25T08:12:15.999Z</time></trkpt><trkpt lat="43.423783049540575" lon="11.353236368418406"><ele>434.6</ele><time>2026-04-25T08:12:17.999Z</time></trkpt><trkpt lat="43.42376310586752" lon="11.353079823076149"><ele>434.2</ele><time>2026-04-25T08:12:18.999Z</time></trkpt><trkpt lat="43.42374650537684" lon="11.352945060050386"><ele>433.79999999999995</ele><time>2026-04-25T08:12:19.999Z</time></trkpt><trkpt lat="43.423732532967506" lon="11.352819222114302"><ele>433.4</ele><time>2026-04-25T08:12:21Z</time></trkpt><trkpt lat="43.42371962317772" lon="11.352702954517843"><ele>433.0</ele><time>2026-04-25T08:12:22Z</time></trkpt><trkpt lat="43.423704837546765" lon="11.352569792623138"><ele>434.6666666666667</ele><time>2026-04-25T08:12:23Z</time></trkpt><trkpt lat="43.42369225346402" lon="11.352436029354276"><ele>436.33333333333337</ele><time>2026-04-25T08:12:24Z</time></trkpt><trkpt lat="43.423691374809884" lon="11.352324723384342"><ele>438.0</ele><time>2026-04-25T08:12:25Z</time></trkpt><trkpt lat="43.42369808660434" lon="11.352198084754438"><ele>439.66666666666663</ele><time>2026-04-25T08:12:26Z</time></trkpt><trkpt lat="43.42371163946804" lon="11.352077134346523"><ele>441.3333333333333</ele><time>2026-04-25T08:12:27Z</time></trkpt><trkpt lat="43.42374031400279" lon="11.35196093543624"><ele>443.0</ele><time>2026-04-25T08:12:28Z</time></trkpt><trkpt lat="43.423780012718616" lon="11.351834737449007"><ele>444.79999999999995</ele><time>2026-04-25T08:12:29Z</time></trkpt><trkpt lat="43.42382947056856" lon="11.351708826703454"><ele>446.59999999999997</ele><time>2026-04-25T08:12:30Z</time></trkpt><trkpt lat="43.4238741724124" lon="11.351576675979487"><ele>448.40000000000003</ele><time>2026-04-25T08:12:31Z</time></trkpt><trkpt lat="43.42391215976112" lon="11.351439060955535"><ele>450.20000000000005</ele><time>2026-04-25T08:12:32Z</time></trkpt><trkpt lat="43.423943486931364" lon="11.351300915272759"><ele>452.0</ele><time>2026-04-25T08:12:33Z</time></trkpt><trkpt lat="43.42396806322446" lon="11.351167421911295"><ele>452.20000000000005</ele><time>2026-04-25T08:12:34Z</time></trkpt><trkpt lat="43.4239776554754" lon="11.351030644536428"><ele>452.40000000000003</ele><time>2026-04-25T08:12:35Z</time></trkpt><trkpt lat="43.42398487207014" lon="11.350893181958385"><ele>452.59999999999997</ele><time>2026-04-25T08:12:36Z</time></trkpt><trkpt lat="43.42398642418499" lon="11.350761055308311"><ele>452.79999999999995</ele><time>2026-04-25T08:12:37Z</time></trkpt><trkpt lat="43.42400624258357" lon="11.350628376888197"><ele>453.0</ele><time>2026-04-25T08:12:38Z</time></trkpt><trkpt lat="43.42400836014634" lon="11.350511262651061"><ele>454.8333333333333</ele><time>2026-04-25T08:12:39Z</time></trkpt><trkpt lat="43.42400477946376" lon="11.350415565997025"><ele>456.66666666666663</ele><time>2026-04-25T08:12:40Z</time></trkpt><trkpt lat="43.42398200077465" lon="11.350330459448788"><ele>458.5</ele><time>2026-04-25T08:12:41Z</time></trkpt><trkpt lat="43.42395340598385" lon="11.350252201507125"><ele>460.3333333333333</ele><time>2026-04-25T08:12:42Z</time></trkpt><trkpt lat="43.4238821678633" lon="11.35017998989387"><ele>462.16666666666663</ele><time>2026-04-25T08:12:43Z</time></trkpt><trkpt lat="43.423797319472804" lon="11.350142523426516"><ele>464.0</ele><time>2026-04-25T08:12:44Z</time></trkpt><trkpt lat="43.42369700760797" lon="11.350172517047833"><ele>467.0</ele><time>2026-04-25T08:12:45Z</time></trkpt><trkpt lat="43.423621941904024" lon="11.350177827771756"><ele>470.0</ele><time>2026-04-25T08:12:46Z</time></trkpt><trkpt lat="43.4234252182461" lon="11.350279297134504"><ele>473.0</ele><time>2026-04-25T08:12:48Z</time></trkpt><trkpt lat="43.42328203814913" lon="11.350340751906382"><ele>476.0</ele><time>2026-04-25T08:12:49Z</time></trkpt><trkpt lat="43.423200674848566" lon="11.35037801368116"><ele>476.0</ele><time>2026-04-25T08:12:50Z</time></trkpt><trkpt lat="43.423140812545746" lon="11.350470908979577"><ele>476.0</ele><time>2026-04-25T08:12:51Z</time></trkpt><trkpt lat="43.42306318800548" lon="11.350561194027737"><ele>476.0</ele><time>2026-04-25T08:12:52Z</time></trkpt><trkpt lat="43.42298612644726" lon="11.350632267616431"><ele>476.0</ele><time>2026-04-25T08:12:54Z</time></trkpt><trkpt lat="43.422879006604866" lon="11.350632271072337"><ele>476.0</ele><time>2026-04-25T08:12:56Z</time></trkpt><trkpt lat="43.422837952282" lon="11.35050577767495"><ele>477.3333333333333</ele><time>2026-04-25T08:12:58Z</time></trkpt><trkpt lat="43.42280485572935" lon="11.350350138106327"><ele>478.66666666666663</ele><time>2026-04-25T08:13:00Z</time></trkpt><trkpt lat="43.42276382789748" lon="11.350264411075234"><ele>480.0</ele><time>2026-04-25T08:13:01Z</time></trkpt><trkpt lat="43.42270987091415" lon="11.350203704273248"><ele>481.33333333333337</ele><time>2026-04-25T08:13:02Z</time></trkpt><trkpt lat="43.422658055631366" lon="11.350118290971864"><ele>482.6666666666667</ele><time>2026-04-25T08:13:03Z</time></trkpt><trkpt lat="43.4225624347796" lon="11.350057303512333"><ele>484.0</ele><time>2026-04-25T08:13:04Z</time></trkpt><trkpt lat="43.42248450828162" lon="11.350011337066451"><ele>484.0</ele><time>2026-04-25T08:13:05Z</time></trkpt><trkpt lat="43.422400312232725" lon="11.349958474495075"><ele>484.0</ele><time>2026-04-25T08:13:06Z</time></trkpt><trkpt lat="43.422324371415634" lon="11.349910257296077"><ele>484.0</ele><time>2026-04-25T08:13:07Z</time></trkpt><trkpt lat="43.42224675707575" lon="11.349854166466585"><ele>484.0</ele><time>2026-04-25T08:13:08Z</time></trkpt><trkpt lat="43.42217399776358" lon="11.349775956102956"><ele>484.0</ele><time>2026-04-25T08:13:09Z</time></trkpt><trkpt lat="43.422105826099475" lon="11.349686640470853"><ele>486.79999999999995</ele><time>2026-04-25T08:13:10Z</time></trkpt><trkpt lat="43.42201542474869" lon="11.349615963039172"><ele>489.59999999999997</ele><time>2026-04-25T08:13:11Z</time></trkpt><trkpt lat="43.42192759175638" lon="11.349548451522478"><ele>492.4</ele><time>2026-04-25T08:13:12Z</time></trkpt><trkpt lat="43.42183807958754" lon="11.349507398720549"><ele>495.2</ele><time>2026-04-25T08:13:13Z</time></trkpt><trkpt lat="43.421739773088355" lon="11.349510035124645"><ele>498.0</ele><time>2026-04-25T08:13:14Z</time></trkpt><trkpt lat="43.42163303485223" lon="11.349542505586045"><ele>498.0</ele><time>2026-04-25T08:13:15Z</time></trkpt><trkpt lat="43.421541903787165" lon="11.349551823533488"><ele>498.0</ele><time>2026-04-25T08:13:16Z</time></trkpt><trkpt lat="43.42147480939726" lon="11.349535756824409"><ele>498.0</ele><time>2026-04-25T08:13:17Z</time></trkpt><trkpt lat="43.42140380444299" lon="11.349509875443216"><ele>498.0</ele><time>2026-04-25T08:13:18Z</time></trkpt><trkpt lat="43.42135110097949" lon="11.349432936456832"><ele>498.0</ele><time>2026-04-25T08:13:19Z</time></trkpt><trkpt lat="43.42132078725303" lon="11.349329864121728"><ele>498.0</ele><time>2026-04-25T08:13:20Z</time></trkpt><trkpt lat="43.42131843887439" lon="11.3492120878538"><ele>498.0</ele><time>2026-04-25T08:13:21Z</time></trkpt><trkpt lat="43.421318527326434" lon="11.349078564249906"><ele>497.99999999999994</ele><time>2026-04-25T08:13:22Z</time></trkpt><trkpt lat="43.421320816792765" lon="11.348945229928349"><ele>497.99999999999994</ele><time>2026-04-25T08:13:23Z</time></trkpt><trkpt lat="43.421321850901975" lon="11.348805783550132"><ele>498.0</ele><time>2026-04-25T08:13:24Z</time></trkpt><trkpt lat="43.4213300937875" lon="11.348670030500745"><ele>498.0</ele><time>2026-04-25T08:13:25Z</time></trkpt><trkpt lat="43.421343671956954" lon="11.348534041812204"><ele>498.59999999999997</ele><time>2026-04-25T08:13:26Z</time></trkpt><trkpt lat="43.42136898472264" lon="11.348400052639807"><ele>499.19999999999993</ele><time>2026-04-25T08:13:27Z</time></trkpt><trkpt lat="43.421385018943575" lon="11.348266595346361"><ele>499.8</ele><time>2026-04-25T08:13:28Z</time></trkpt><trkpt lat="43.42140075123868" lon="11.348133827407223"><ele>500.4</ele><time>2026-04-25T08:13:29Z</time></trkpt><trkpt lat="43.42140178925781" lon="11.34801263603043"><ele>501.0</ele><time>2026-04-25T08:13:30Z</time></trkpt><trkpt lat="43.42141118221355" lon="11.34791807307068"><ele>501.0</ele><time>2026-04-25T08:13:31Z</time></trkpt><trkpt lat="43.42140953320649" lon="11.347825324757872"><ele>501.0</ele><time>2026-04-25T08:13:32Z</time></trkpt><trkpt lat="43.42140469014785" lon="11.347738895777969"><ele>501.0</ele><time>2026-04-25T08:13:33Z</time></trkpt><trkpt lat="43.421402234898174" lon="11.347603634306857"><ele>501.0</ele><time>2026-04-25T08:13:35Z</time></trkpt><trkpt lat="43.42137453859623" lon="11.347495517282853"><ele>501.0</ele><time>2026-04-25T08:13:37Z</time></trkpt><trkpt lat="43.421327205923845" lon="11.347428978749548"><ele>501.0</ele><time>2026-04-25T08:15:46Z</time></trkpt><trkpt lat="43.42127425427151" lon="11.347368677121027"><ele>501.0</ele><time>2026-04-25T08:15:47Z</time></trkpt><trkpt lat="43.4211966750585" lon="11.347313471505613"><ele>501.0</ele><time>2026-04-25T08:15:48Z</time></trkpt><trkpt lat="43.42112503939134" lon="11.347281286938934"><ele>501.0</ele><time>2026-04-25T08:15:49Z</time></trkpt><trkpt lat="43.421035462928145" lon="11.347257774008765"><ele>501.0</ele><time>2026-04-25T08:15:50Z</time></trkpt><trkpt lat="43.42095539800374" lon="11.347246980354647"><ele>501.0</ele><time>2026-04-25T08:15:51Z</time></trkpt><trkpt lat="43.42089091360463" lon="11.347240885364089"><ele>501.0</ele><time>2026-04-25T08:15:52Z</time></trkpt><trkpt lat="43.42077904415468" lon="11.347238470859692"><ele>501.0</ele><time>2026-04-25T08:15:54Z</time></trkpt><trkpt lat="43.420684794044604" lon="11.347239261311579"><ele>501.0</ele><time>2026-04-25T08:15:56Z</time></trkpt><trkpt lat="43.420579998047074" lon="11.347237857171937"><ele>501.0</ele><time>2026-04-25T08:15:58Z</time></trkpt><trkpt lat="43.42051697281369" lon="11.347234382796355"><ele>501.0</ele><time>2026-04-25T08:15:59Z</time></trkpt><trkpt lat="43.42045061988287" lon="11.347214169339878"><ele>501.0</ele><time>2026-04-25T08:16:00Z</time></trkpt><trkpt lat="43.420387757680125" lon="11.347154702029043"><ele>501.0</ele><time>2026-04-25T08:16:01Z</time></trkpt><trkpt lat="43.42031508547495" lon="11.347105673601446"><ele>501.0</ele><time>2026-04-25T08:16:02Z</time></trkpt><trkpt lat="43.42023814244466" lon="11.34705267836781"><ele>502.20000000000005</ele><time>2026-04-25T08:16:03Z</time></trkpt><trkpt lat="43.42015865512819" lon="11.347003002675656"><ele>503.40000000000003</ele><time>2026-04-25T08:16:04Z</time></trkpt><trkpt lat="43.42006605043736" lon="11.34696338564172"><ele>504.6</ele><time>2026-04-25T08:16:05Z</time></trkpt><trkpt lat="43.419956005221856" lon="11.34693914012553"><ele>505.8</ele><time>2026-04-25T08:16:06Z</time></trkpt><trkpt lat="43.41983684319232" lon="11.346939109368407"><ele>507.0</ele><time>2026-04-25T08:16:06.999Z</time></trkpt><trkpt lat="43.41973863760505" lon="11.346953095970562"><ele>505.8</ele><time>2026-04-25T08:16:07.999Z</time></trkpt><trkpt lat="43.419635087369436" lon="11.34695593621187"><ele>504.6</ele><time>2026-04-25T08:16:08.999Z</time></trkpt><trkpt lat="43.419528411957856" lon="11.346957192299504"><ele>503.40000000000003</ele><time>2026-04-25T08:16:09.999Z</time></trkpt><trkpt lat="43.419427164173214" lon="11.34691485802539"><ele>502.20000000000005</ele><time>2026-04-25T08:16:10.999Z</time></trkpt><trkpt lat="43.41932332499869" lon="11.346843330687218"><ele>501.0</ele><time>2026-04-25T08:16:11.999Z</time></trkpt><trkpt lat="43.419210341586464" lon="11.346755060902177"><ele>501.0</ele><time>2026-04-25T08:16:12.999Z</time></trkpt><trkpt lat="43.419098890065406" lon="11.34665861917883"><ele>501.0</ele><time>2026-04-25T08:16:13.999Z</time></trkpt><trkpt lat="43.418992498035564" lon="11.346567527787899"><ele>501.0</ele><time>2026-04-25T08:16:14.999Z</time></trkpt><trkpt lat="43.41889585475962" lon="11.346483452871086"><ele>501.0</ele><time>2026-04-25T08:16:15.999Z</time></trkpt><trkpt lat="43.41880142303862" lon="11.346405535880125"><ele>500.5</ele><time>2026-04-25T08:16:16.999Z</time></trkpt><trkpt lat="43.41869011701882" lon="11.346368293025398"><ele>500.0</ele><time>2026-04-25T08:16:17.999Z</time></trkpt><trkpt lat="43.41856533486084" lon="11.346336507247369"><ele>499.5</ele><time>2026-04-25T08:16:18.999Z</time></trkpt><trkpt lat="43.41841559399508" lon="11.346419909330017"><ele>499.0</ele><time>2026-04-25T08:16:19.999Z</time></trkpt><trkpt lat="43.41825617225791" lon="11.34648077470265"><ele>499.0</ele><time>2026-04-25T08:16:20.999Z</time></trkpt><trkpt lat="43.4180902980443" lon="11.346539116634323"><ele>499.0</ele><time>2026-04-25T08:16:21.999Z</time></trkpt><trkpt lat="43.417930759033474" lon="11.346612084941214"><ele>499.0</ele><time>2026-04-25T08:16:22.999Z</time></trkpt><trkpt lat="43.41776502169965" lon="11.346710656658777"><ele>503.0</ele><time>2026-04-25T08:16:23.999Z</time></trkpt><trkpt lat="43.417619793649926" lon="11.346824183229817"><ele>507.0</ele><time>2026-04-25T08:16:24.999Z</time></trkpt><trkpt lat="43.41748484915362" lon="11.346952944930083"><ele>511.0</ele><time>2026-04-25T08:16:25.999Z</time></trkpt><trkpt lat="43.41736882014973" lon="11.347073703411246"><ele>511.0</ele><time>2026-04-25T08:16:26.999Z</time></trkpt><trkpt lat="43.4172654899354" lon="11.34718799060845"><ele>511.0</ele><time>2026-04-25T08:16:27.999Z</time></trkpt><trkpt lat="43.41717673105961" lon="11.347315633841523"><ele>511.0</ele><time>2026-04-25T08:16:28.999Z</time></trkpt><trkpt lat="43.41709672061877" lon="11.347436057536536"><ele>511.0</ele><time>2026-04-25T08:16:29.999Z</time></trkpt><trkpt lat="43.41703912981053" lon="11.34758773094476"><ele>511.0</ele><time>2026-04-25T08:16:30.999Z</time></trkpt><trkpt lat="43.41704619290395" lon="11.347780549830434"><ele>511.0</ele><time>2026-04-25T08:16:31.999Z</time></trkpt><trkpt lat="43.41707595488279" lon="11.347974890562652"><ele>511.0</ele><time>2026-04-25T08:16:32.999Z</time></trkpt><trkpt lat="43.417105986023934" lon="11.348168610934195"><ele>511.0</ele><time>2026-04-25T08:16:33.999Z</time></trkpt><trkpt lat="43.41714986892802" lon="11.348315708924606"><ele>509.8</ele><time>2026-04-25T08:16:34.999Z</time></trkpt><trkpt lat="43.417171293350876" lon="11.34843154966779"><ele>508.6</ele><time>2026-04-25T08:16:35.999Z</time></trkpt><trkpt lat="43.41715473178651" lon="11.348557676311612"><ele>507.4</ele><time>2026-04-25T08:16:36.999Z</time></trkpt><trkpt lat="43.41706548086334" lon="11.34862298664692"><ele>506.2</ele><time>2026-04-25T08:16:37.999Z</time></trkpt><trkpt lat="43.41697122596668" lon="11.348683467553347"><ele>505.0</ele><time>2026-04-25T08:16:38.999Z</time></trkpt><trkpt lat="43.41686534086697" lon="11.348728697616265"><ele>505.0</ele><time>2026-04-25T08:16:39.999Z</time></trkpt><trkpt lat="43.41676277850004" lon="11.348744035693416"><ele>505.0</ele><time>2026-04-25T08:16:40.999Z</time></trkpt><trkpt lat="43.41667114963309" lon="11.34875574865838"><ele>505.0</ele><time>2026-04-25T08:16:41.999Z</time></trkpt><trkpt lat="43.41657505755886" lon="11.348767992527755"><ele>505.0</ele><time>2026-04-25T08:16:44Z</time></trkpt><trkpt lat="43.41650807617288" lon="11.348776228315517"><ele>505.0</ele><time>2026-04-25T08:16:45Z</time></trkpt><trkpt lat="43.41640822748388" lon="11.34880746020754"><ele>504.5</ele><time>2026-04-25T08:16:46Z</time></trkpt><trkpt lat="43.41628766801654" lon="11.348822203709659"><ele>504.0</ele><time>2026-04-25T08:16:47Z</time></trkpt><trkpt lat="43.41610880209696" lon="11.348846587412996"><ele>503.5</ele><time>2026-04-25T08:16:48Z</time></trkpt><trkpt lat="43.415969529335804" lon="11.348868373571344"><ele>503.0</ele><time>2026-04-25T08:16:49Z</time></trkpt><trkpt lat="43.415837322245956" lon="11.348902249797819"><ele>502.75</ele><time>2026-04-25T08:16:50Z</time></trkpt><trkpt lat="43.41570039762785" lon="11.348932258054058"><ele>502.5</ele><time>2026-04-25T08:16:51Z</time></trkpt><trkpt lat="43.41556701501465" lon="11.34888150087423"><ele>502.25</ele><time>2026-04-25T08:16:52Z</time></trkpt><trkpt lat="43.415428280692055" lon="11.348854814542"><ele>502.0</ele><time>2026-04-25T08:16:53Z</time></trkpt><trkpt lat="43.41530193778738" lon="11.348799864697957"><ele>502.0</ele><time>2026-04-25T08:16:54Z</time></trkpt><trkpt lat="43.415186537731685" lon="11.348774527645123"><ele>502.0</ele><time>2026-04-25T08:16:55Z</time></trkpt><trkpt lat="43.4150754694458" lon="11.348809656248543"><ele>502.0</ele><time>2026-04-25T08:16:56Z</time></trkpt><trkpt lat="43.41496557871352" lon="11.34889524822681"><ele>502.0</ele><time>2026-04-25T08:16:57Z</time></trkpt><trkpt lat="43.41484917983769" lon="11.3490016549545"><ele>501.25</ele><time>2026-04-25T08:16:58Z</time></trkpt><trkpt lat="43.41475293028337" lon="11.349105939007382"><ele>500.5</ele><time>2026-04-25T08:16:59Z</time></trkpt><trkpt lat="43.41467087880692" lon="11.349232016720515"><ele>499.75</ele><time>2026-04-25T08:17:00Z</time></trkpt><trkpt lat="43.414613460657414" lon="11.349378651281269"><ele>499.0</ele><time>2026-04-25T08:17:01Z</time></trkpt><trkpt lat="43.4145884460669" lon="11.349550485375827"><ele>497.75</ele><time>2026-04-25T08:17:02Z</time></trkpt><trkpt lat="43.4145943739594" lon="11.34973868312211"><ele>496.5</ele><time>2026-04-25T08:17:03Z</time></trkpt><trkpt lat="43.4146018389017" lon="11.349905004482924"><ele>495.25</ele><time>2026-04-25T08:17:04Z</time></trkpt><trkpt lat="43.414594525620515" lon="11.350046072949034"><ele>494.0</ele><time>2026-04-25T08:17:05Z</time></trkpt><trkpt lat="43.414589480697494" lon="11.350187479120109"><ele>494.0</ele><time>2026-04-25T08:17:06Z</time></trkpt><trkpt lat="43.414561955722895" lon="11.35031505340001"><ele>494.0</ele><time>2026-04-25T08:17:07Z</time></trkpt><trkpt lat="43.41450595062176" lon="11.35042617206382"><ele>494.0</ele><time>2026-04-25T08:17:08Z</time></trkpt><trkpt lat="43.414415265349774" lon="11.350479648840283"><ele>494.0</ele><time>2026-04-25T08:17:09Z</time></trkpt><trkpt lat="43.41431554060163" lon="11.350476738115239"><ele>494.0</ele><time>2026-04-25T08:17:10Z</time></trkpt><trkpt lat="43.41421825108495" lon="11.350377969368777"><ele>494.0</ele><time>2026-04-25T08:17:11Z</time></trkpt><trkpt lat="43.4141099978783" lon="11.350339319675427"><ele>494.0</ele><time>2026-04-25T08:17:12Z</time></trkpt><trkpt lat="43.41402262878786" lon="11.350301346658412"><ele>494.0</ele><time>2026-04-25T08:17:13Z</time></trkpt><trkpt lat="43.41392809563904" lon="11.350297835965137"><ele>494.0</ele><time>2026-04-25T08:17:14Z</time></trkpt><trkpt lat="43.41381929279487" lon="11.350342475287936"><ele>494.0</ele><time>2026-04-25T08:17:15Z</time></trkpt><trkpt lat="43.41370803983937" lon="11.350438538972657"><ele>490.5</ele><time>2026-04-25T08:17:16Z</time></trkpt><trkpt lat="43.41362403233443" lon="11.350577789808003"><ele>487.0</ele><time>2026-04-25T08:17:17Z</time></trkpt><trkpt lat="43.41353780844358" lon="11.350719789258823"><ele>483.5</ele><time>2026-04-25T08:17:18Z</time></trkpt><trkpt lat="43.41341766714347" lon="11.350862211527902"><ele>480.0</ele><time>2026-04-25T08:17:19Z</time></trkpt><trkpt lat="43.41330617295385" lon="11.351029960125524"><ele>480.0</ele><time>2026-04-25T08:17:20Z</time></trkpt><trkpt lat="43.41317927555815" lon="11.351191594683737"><ele>480.0</ele><time>2026-04-25T08:17:21Z</time></trkpt><trkpt lat="43.41306804492022" lon="11.35134740452971"><ele>480.0</ele><time>2026-04-25T08:17:22Z</time></trkpt><trkpt lat="43.412964841205245" lon="11.35148825576127"><ele>478.0</ele><time>2026-04-25T08:17:23Z</time></trkpt><trkpt lat="43.41286316252876" lon="11.351606351175878"><ele>476.0</ele><time>2026-04-25T08:17:24Z</time></trkpt><trkpt lat="43.41273989928225" lon="11.351674771087893"><ele>474.0</ele><time>2026-04-25T08:17:25Z</time></trkpt><trkpt lat="43.41262070804245" lon="11.351714397830248"><ele>472.0</ele><time>2026-04-25T08:17:26Z</time></trkpt><trkpt lat="43.412485159037786" lon="11.351750332602434"><ele>472.0</ele><time>2026-04-25T08:17:27Z</time></trkpt><trkpt lat="43.41234713336507" lon="11.351784146272633"><ele>472.0</ele><time>2026-04-25T08:17:28Z</time></trkpt><trkpt lat="43.4122097959642" lon="11.35184018821587"><ele>472.0</ele><time>2026-04-25T08:17:29Z</time></trkpt><trkpt lat="43.41207045103378" lon="11.3518607769336"><ele>472.0</ele><time>2026-04-25T08:17:30Z</time></trkpt><trkpt lat="43.411921760818096" lon="11.351897532796789"><ele>470.33333333333337</ele><time>2026-04-25T08:17:31Z</time></trkpt><trkpt lat="43.41176671934874" lon="11.351937236001108"><ele>468.66666666666663</ele><time>2026-04-25T08:17:32Z</time></trkpt><trkpt lat="43.411617455171" lon="11.351976615550706"><ele>467.0</ele><time>2026-04-25T08:17:33Z</time></trkpt><trkpt lat="43.41146659400829" lon="11.352020177108319"><ele>468.0</ele><time>2026-04-25T08:17:34Z</time></trkpt><trkpt lat="43.41132037643034" lon="11.352036945516078"><ele>469.0</ele><time>2026-04-25T08:17:35Z</time></trkpt><trkpt lat="43.41118655728523" lon="11.352093105048073"><ele>470.0</ele><time>2026-04-25T08:17:36Z</time></trkpt><trkpt lat="43.41105146979515" lon="11.35212734154308"><ele>471.0</ele><time>2026-04-25T08:17:37Z</time></trkpt><trkpt lat="43.41091949978149" lon="11.35216126426892"><ele>471.0</ele><time>2026-04-25T08:17:38Z</time></trkpt><trkpt lat="43.41080091705909" lon="11.352188016646727"><ele>471.0</ele><time>2026-04-25T08:17:39Z</time></trkpt><trkpt lat="43.41068908717989" lon="11.352216228796662"><ele>471.0</ele><time>2026-04-25T08:17:40Z</time></trkpt><trkpt lat="43.41059569311638" lon="11.35224115739828"><ele>471.0</ele><time>2026-04-25T08:17:41Z</time></trkpt><trkpt lat="43.41050538348611" lon="11.352261605126557"><ele>471.0</ele><time>2026-04-25T08:17:42Z</time></trkpt><trkpt lat="43.41041579202897" lon="11.352287445862817"><ele>470.6666666666667</ele><time>2026-04-25T08:17:43Z</time></trkpt><trkpt lat="43.41033930837884" lon="11.352285359639257"><ele>470.33333333333337</ele><time>2026-04-25T08:17:43.999Z</time></trkpt><trkpt lat="43.41027014077691" lon="11.352287468289155"><ele>470.0</ele><time>2026-04-25T08:17:44.999Z</time></trkpt><trkpt lat="43.41018916940822" lon="11.352277339328653"><ele>469.6666666666667</ele><time>2026-04-25T08:17:46.999Z</time></trkpt><trkpt lat="43.41013990595049" lon="11.352388510764504"><ele>469.33333333333337</ele><time>2026-04-25T08:17:47.999Z</time></trkpt><trkpt lat="43.41009080027472" lon="11.352449363694369"><ele>469.0</ele><time>2026-04-25T08:17:48.999Z</time></trkpt><trkpt lat="43.41003768043635" lon="11.352515190628322"><ele>469.00000000000006</ele><time>2026-04-25T08:17:49.999Z</time></trkpt><trkpt lat="43.40999165377153" lon="11.352602350482291"><ele>469.0</ele><time>2026-04-25T08:17:50.999Z</time></trkpt><trkpt lat="43.40992194153602" lon="11.35268213424039"><ele>469.0</ele><time>2026-04-25T08:17:51.999Z</time></trkpt><trkpt lat="43.40985873215266" lon="11.352772013616685"><ele>469.0</ele><time>2026-04-25T08:17:52.999Z</time></trkpt><trkpt lat="43.40981221182944" lon="11.352854360010705"><ele>469.00000000000006</ele><time>2026-04-25T08:17:53.999Z</time></trkpt><trkpt lat="43.4098056031267" lon="11.352957247006131"><ele>469.0</ele><time>2026-04-25T08:17:54.999Z</time></trkpt><trkpt lat="43.40979109889869" lon="11.353065240980111"><ele>468.83333333333337</ele><time>2026-04-25T08:17:55.999Z</time></trkpt><trkpt lat="43.409783756161026" lon="11.353166642484895"><ele>468.6666666666667</ele><time>2026-04-25T08:17:56.999Z</time></trkpt><trkpt lat="43.40971447454126" lon="11.353298962403318"><ele>468.5</ele><time>2026-04-25T08:17:58.999Z</time></trkpt><trkpt lat="43.40963957087162" lon="11.353328230153025"><ele>468.33333333333337</ele><time>2026-04-25T08:17:59.999Z</time></trkpt><trkpt lat="43.409575798526866" lon="11.3533154812948"><ele>468.1666666666667</ele><time>2026-04-25T08:18:00.999Z</time></trkpt><trkpt lat="43.40950793427206" lon="11.353321155788716"><ele>468.0</ele><time>2026-04-25T08:18:01.999Z</time></trkpt><trkpt lat="43.409432348009936" lon="11.353226492835066"><ele>468.0</ele><time>2026-04-25T08:18:02.999Z</time></trkpt><trkpt lat="43.409347562888456" lon="11.353178441277748"><ele>467.99999999999994</ele><time>2026-04-25T08:18:03.999Z</time></trkpt><trkpt lat="43.40925965789589" lon="11.353155867047299"><ele>467.99999999999994</ele><time>2026-04-25T08:18:04.999Z</time></trkpt><trkpt lat="43.409158915080994" lon="11.353151376398603"><ele>468.0</ele><time>2026-04-25T08:18:05.999Z</time></trkpt><trkpt lat="43.40905413118972" lon="11.353171855090496"><ele>468.0</ele><time>2026-04-25T08:18:06.999Z</time></trkpt><trkpt lat="43.408952414093015" lon="11.353210628278179"><ele>468.0</ele><time>2026-04-25T08:18:07.999Z</time></trkpt><trkpt lat="43.40887726762646" lon="11.353262259472025"><ele>468.0</ele><time>2026-04-25T08:18:08.999Z</time></trkpt><trkpt lat="43.408824576109936" lon="11.35332470934549"><ele>468.0</ele><time>2026-04-25T08:18:09.999Z</time></trkpt><trkpt lat="43.408784455032844" lon="11.353406255893233"><ele>468.0</ele><time>2026-04-25T08:18:10.999Z</time></trkpt><trkpt lat="43.40876403421175" lon="11.353511411990757"><ele>468.0</ele><time>2026-04-25T08:18:11.999Z</time></trkpt><trkpt lat="43.4087541694483" lon="11.353622051333828"><ele>468.0</ele><time>2026-04-25T08:18:12.999Z</time></trkpt><trkpt lat="43.40874560168147" lon="11.35374013897238"><ele>468.6666666666667</ele><time>2026-04-25T08:18:13.999Z</time></trkpt><trkpt lat="43.408736789377805" lon="11.35387305099387"><ele>469.33333333333337</ele><time>2026-04-25T08:18:14.999Z</time></trkpt><trkpt lat="43.4087157155189" lon="11.353981740131251"><ele>470.0</ele><time>2026-04-25T08:18:15.999Z</time></trkpt><trkpt lat="43.408662902994394" lon="11.354035529631787"><ele>470.6666666666667</ele><time>2026-04-25T08:18:16.999Z</time></trkpt><trkpt lat="43.408599717043046" lon="11.354097288772497"><ele>471.33333333333337</ele><time>2026-04-25T08:18:17.999Z</time></trkpt><trkpt lat="43.40852980451687" lon="11.354139310066579"><ele>472.0</ele><time>2026-04-25T08:18:18.999Z</time></trkpt><trkpt lat="43.40845656747723" lon="11.35412627516515"><ele>472.00000000000006</ele><time>2026-04-25T08:18:19.999Z</time></trkpt><trkpt lat="43.408373038083845" lon="11.35407445340415"><ele>472.0</ele><time>2026-04-25T08:18:20.999Z</time></trkpt><trkpt lat="43.408312116597365" lon="11.353972101197577"><ele>472.0</ele><time>2026-04-25T08:18:21.999Z</time></trkpt><trkpt lat="43.40822753668717" lon="11.353905213213714"><ele>472.0</ele><time>2026-04-25T08:18:22.999Z</time></trkpt><trkpt lat="43.40817486539805" lon="11.353819364830184"><ele>472.00000000000006</ele><time>2026-04-25T08:18:23.999Z</time></trkpt><trkpt lat="43.408119348165926" lon="11.353760898816018"><ele>472.0</ele><time>2026-04-25T08:18:24.999Z</time></trkpt><trkpt lat="43.408049276683904" lon="11.353720316899217"><ele>470.83333333333337</ele><time>2026-04-25T08:18:25.999Z</time></trkpt><trkpt lat="43.40797720381464" lon="11.353705078289185"><ele>469.6666666666667</ele><time>2026-04-25T08:18:26.999Z</time></trkpt><trkpt lat="43.40788196884544" lon="11.353723716132846"><ele>468.5</ele><time>2026-04-25T08:18:27.999Z</time></trkpt><trkpt lat="43.407793872840315" lon="11.353773937722366"><ele>467.33333333333337</ele><time>2026-04-25T08:18:28.999Z</time></trkpt><trkpt lat="43.407723395455264" lon="11.35385042188799"><ele>466.1666666666667</ele><time>2026-04-25T08:18:29.999Z</time></trkpt><trkpt lat="43.40767828894099" lon="11.353939169147656"><ele>465.0</ele><time>2026-04-25T08:18:30.999Z</time></trkpt><trkpt lat="43.407649162062704" lon="11.354036841544257"><ele>465.0</ele><time>2026-04-25T08:18:31.999Z</time></trkpt><trkpt lat="43.40762785696" lon="11.354145357038952"><ele>465.0</ele><time>2026-04-25T08:18:32.999Z</time></trkpt><trkpt lat="43.40761062879351" lon="11.354257643666216"><ele>465.0</ele><time>2026-04-25T08:18:33.999Z</time></trkpt><trkpt lat="43.40757993331347" lon="11.354345511002832"><ele>465.0</ele><time>2026-04-25T08:18:34.999Z</time></trkpt><trkpt lat="43.40748357804576" lon="11.354430946893872"><ele>465.0</ele><time>2026-04-25T08:18:36.999Z</time></trkpt><trkpt lat="43.40741432025201" lon="11.354427261044375"><ele>465.0</ele><time>2026-04-25T08:18:37.999Z</time></trkpt><trkpt lat="43.40733739643109" lon="11.354369136362624"><ele>465.0</ele><time>2026-04-25T08:18:39Z</time></trkpt><trkpt lat="43.407262948082284" lon="11.354344002664249"><ele>465.0</ele><time>2026-04-25T08:18:40Z</time></trkpt><trkpt lat="43.40719040055553" lon="11.35431454136406"><ele>465.0</ele><time>2026-04-25T08:18:41Z</time></trkpt><trkpt lat="43.40710786695181" lon="11.354321526724128"><ele>465.0</ele><time>2026-04-25T08:18:42Z</time></trkpt><trkpt lat="43.407039778116605" lon="11.354368236868329"><ele>465.0</ele><time>2026-04-25T08:18:43Z</time></trkpt><trkpt lat="43.40695510169818" lon="11.354421401609105"><ele>465.0</ele><time>2026-04-25T08:18:44Z</time></trkpt><trkpt lat="43.40687060813734" lon="11.35448528006435"><ele>464.5</ele><time>2026-04-25T08:18:45Z</time></trkpt><trkpt lat="43.40678847300596" lon="11.3545460644033"><ele>464.0</ele><time>2026-04-25T08:18:46Z</time></trkpt><trkpt lat="43.406717649324605" lon="11.35461146149521"><ele>463.5</ele><time>2026-04-25T08:18:47Z</time></trkpt><trkpt lat="43.40665762144971" lon="11.354675524494679"><ele>463.0</ele><time>2026-04-25T08:18:48Z</time></trkpt><trkpt lat="43.40660688012344" lon="11.354738290435996"><ele>462.5</ele><time>2026-04-25T08:18:49Z</time></trkpt><trkpt lat="43.40655326397358" lon="11.354870532477829"><ele>462.0</ele><time>2026-04-25T08:18:51Z</time></trkpt><trkpt lat="43.40654097690477" lon="11.355038961057087"><ele>462.0</ele><time>2026-04-25T08:18:53Z</time></trkpt><trkpt lat="43.406554679642454" lon="11.355151509415956"><ele>462.0</ele><time>2026-04-25T08:18:54Z</time></trkpt><trkpt lat="43.40657603196059" lon="11.355273034590889"><ele>462.0</ele><time>2026-04-25T08:18:55Z</time></trkpt><trkpt lat="43.40658699051687" lon="11.355416123197642"><ele>462.0</ele><time>2026-04-25T08:18:56Z</time></trkpt><trkpt lat="43.40661074278266" lon="11.355530835946762"><ele>462.0</ele><time>2026-04-25T08:18:57Z</time></trkpt><trkpt lat="43.40664549289393" lon="11.355616145087687"><ele>462.0</ele><time>2026-04-25T08:18:58Z</time></trkpt><trkpt lat="43.406665968946285" lon="11.355704093719345"><ele>462.8</ele><time>2026-04-25T08:18:59Z</time></trkpt><trkpt lat="43.40668763195302" lon="11.355862456554679"><ele>463.6</ele><time>2026-04-25T08:19:01Z</time></trkpt><trkpt lat="43.40663324401625" lon="11.356007327913355"><ele>464.40000000000003</ele><time>2026-04-25T08:19:03Z</time></trkpt><trkpt lat="43.4065723907631" lon="11.356058964107286"><ele>465.20000000000005</ele><time>2026-04-25T08:19:04Z</time></trkpt><trkpt lat="43.40645848767611" lon="11.356049547735658"><ele>466.0</ele><time>2026-04-25T08:19:06Z</time></trkpt><trkpt lat="43.40641014894448" lon="11.355967083513328"><ele>466.0</ele><time>2026-04-25T08:19:07Z</time></trkpt><trkpt lat="43.40634519458782" lon="11.355905705432008"><ele>466.0</ele><time>2026-04-25T08:19:08Z</time></trkpt><trkpt lat="43.40625489872678" lon="11.355838075295779"><ele>466.0</ele><time>2026-04-25T08:19:09Z</time></trkpt><trkpt lat="43.40618211809502" lon="11.35575154423579"><ele>466.0</ele><time>2026-04-25T08:19:10Z</time></trkpt><trkpt lat="43.4061007318344" lon="11.355676522670713"><ele>466.0</ele><time>2026-04-25T08:19:11Z</time></trkpt><trkpt lat="43.40603394678177" lon="11.355584829692896"><ele>463.83333333333337</ele><time>2026-04-25T08:19:12Z</time></trkpt><trkpt lat="43.405935831197" lon="11.35552821353934"><ele>461.6666666666667</ele><time>2026-04-25T08:19:13Z</time></trkpt><trkpt lat="43.40585875898865" lon="11.355469591736215"><ele>459.5</ele><time>2026-04-25T08:19:14Z</time></trkpt><trkpt lat="43.40577863214497" lon="11.3554222939607"><ele>457.33333333333337</ele><time>2026-04-25T08:19:15Z</time></trkpt><trkpt lat="43.405712834548616" lon="11.355376668460398"><ele>455.1666666666667</ele><time>2026-04-25T08:19:16Z</time></trkpt><trkpt lat="43.405631313476725" lon="11.355382495864976"><ele>453.0</ele><time>2026-04-25T08:19:17Z</time></trkpt><trkpt lat="43.40556012344858" lon="11.35539844621834"><ele>453.5</ele><time>2026-04-25T08:19:18Z</time></trkpt><trkpt lat="43.40548654008706" lon="11.355416462929014"><ele>454.0</ele><time>2026-04-25T08:19:19Z</time></trkpt><trkpt lat="43.40543335557946" lon="11.355487983376314"><ele>454.5</ele><time>2026-04-25T08:19:20Z</time></trkpt><trkpt lat="43.405412328622035" lon="11.355603942896492"><ele>455.0</ele><time>2026-04-25T08:19:21Z</time></trkpt><trkpt lat="43.40538319922722" lon="11.355720708817781"><ele>455.5</ele><time>2026-04-25T08:19:22Z</time></trkpt><trkpt lat="43.40535120292381" lon="11.355827628476504"><ele>456.0</ele><time>2026-04-25T08:19:23Z</time></trkpt><trkpt lat="43.40533063743856" lon="11.355941934497512"><ele>456.0</ele><time>2026-04-25T08:19:24Z</time></trkpt><trkpt lat="43.40530741682161" lon="11.356025950468142"><ele>456.0</ele><time>2026-04-25T08:19:25Z</time></trkpt><trkpt lat="43.40525893561174" lon="11.356091378169143"><ele>456.0</ele><time>2026-04-25T08:19:26Z</time></trkpt><trkpt lat="43.405195204294095" lon="11.35610502620045"><ele>456.0</ele><time>2026-04-25T08:19:27Z</time></trkpt><trkpt lat="43.40512070980211" lon="11.356072862513894"><ele>456.0</ele><time>2026-04-25T08:19:28Z</time></trkpt><trkpt lat="43.40505580834837" lon="11.356008766707435"><ele>456.0</ele><time>2026-04-25T08:19:29Z</time></trkpt><trkpt lat="43.40497055549811" lon="11.355947682654602"><ele>456.0</ele><time>2026-04-25T08:19:30Z</time></trkpt><trkpt lat="43.404878343714806" lon="11.355900912005627"><ele>456.0</ele><time>2026-04-25T08:19:31Z</time></trkpt><trkpt lat="43.40480540713668" lon="11.355801996933064"><ele>456.0</ele><time>2026-04-25T08:19:32Z</time></trkpt><trkpt lat="43.40470477029801" lon="11.355685884929551"><ele>456.0</ele><time>2026-04-25T08:19:34Z</time></trkpt><trkpt lat="43.404590741120884" lon="11.355638098698464"><ele>455.20000000000005</ele><time>2026-04-25T08:19:35Z</time></trkpt><trkpt lat="43.40448604164666" lon="11.355602451928089"><ele>454.40000000000003</ele><time>2026-04-25T08:19:36Z</time></trkpt><trkpt lat="43.404400647319925" lon="11.355576362138889"><ele>453.6</ele><time>2026-04-25T08:19:37Z</time></trkpt><trkpt lat="43.40427744912033" lon="11.355577690133105"><ele>452.8</ele><time>2026-04-25T08:19:39Z</time></trkpt><trkpt lat="43.40417646195481" lon="11.355575955076795"><ele>452.0</ele><time>2026-04-25T08:19:40Z</time></trkpt><trkpt lat="43.40409180604107" lon="11.355590182563505"><ele>452.0</ele><time>2026-04-25T08:19:41Z</time></trkpt><trkpt lat="43.404002262882855" lon="11.355634722755969"><ele>452.00000000000006</ele><time>2026-04-25T08:19:42Z</time></trkpt><trkpt lat="43.40390631517392" lon="11.355698607269714"><ele>452.00000000000006</ele><time>2026-04-25T08:19:43Z</time></trkpt><trkpt lat="43.4038194848681" lon="11.35576566925578"><ele>452.0</ele><time>2026-04-25T08:19:44Z</time></trkpt><trkpt lat="43.403741904272614" lon="11.355828775141907"><ele>452.0</ele><time>2026-04-25T08:19:45Z</time></trkpt><trkpt lat="43.4036782092422" lon="11.355887710104934"><ele>451.0</ele><time>2026-04-25T08:19:46Z</time></trkpt><trkpt lat="43.40358747667232" lon="11.355994332184817"><ele>450.00000000000006</ele><time>2026-04-25T08:19:48Z</time></trkpt><trkpt lat="43.40355177694987" lon="11.356088339608114"><ele>449.00000000000006</ele><time>2026-04-25T08:19:49Z</time></trkpt><trkpt lat="43.403558025631746" lon="11.356193413498895"><ele>448.0</ele><time>2026-04-25T08:19:50Z</time></trkpt><trkpt lat="43.40359493949188" lon="11.356296768876065"><ele>447.0</ele><time>2026-04-25T08:19:51Z</time></trkpt><trkpt lat="43.40365713517867" lon="11.356397991196504"><ele>447.0</ele><time>2026-04-25T08:19:52Z</time></trkpt><trkpt lat="43.40372050229725" lon="11.356490942337851"><ele>447.00000000000006</ele><time>2026-04-25T08:19:53Z</time></trkpt><trkpt lat="43.40378151568577" lon="11.356575678469156"><ele>447.00000000000006</ele><time>2026-04-25T08:19:54Z</time></trkpt><trkpt lat="43.403825766610986" lon="11.356659311879056"><ele>447.0</ele><time>2026-04-25T08:19:55Z</time></trkpt><trkpt lat="43.403843511110026" lon="11.356760176116842"><ele>447.0</ele><time>2026-04-25T08:19:56Z</time></trkpt><trkpt lat="43.403815201813536" lon="11.356937323676314"><ele>447.0</ele><time>2026-04-25T08:19:58Z</time></trkpt><trkpt lat="43.40374995229883" lon="11.357005587656854"><ele>447.0</ele><time>2026-04-25T08:19:59Z</time></trkpt><trkpt lat="43.40369401488311" lon="11.357073732693294"><ele>447.0</ele><time>2026-04-25T08:20:00Z</time></trkpt><trkpt lat="43.40361433482621" lon="11.357091229191271"><ele>447.0</ele><time>2026-04-25T08:20:01Z</time></trkpt><trkpt lat="43.40351249421863" lon="11.357109536000822"><ele>447.0</ele><time>2026-04-25T08:20:02Z</time></trkpt><trkpt lat="43.403417862326066" lon="11.357100788478256"><ele>447.0</ele><time>2026-04-25T08:20:03Z</time></trkpt><trkpt lat="43.40332796545718" lon="11.357094782814874"><ele>447.0</ele><time>2026-04-25T08:20:04Z</time></trkpt><trkpt lat="43.40324371731895" lon="11.357093570047569"><ele>447.0</ele><time>2026-04-25T08:20:05Z</time></trkpt><trkpt lat="43.40316595092132" lon="11.357087364234784"><ele>447.0</ele><time>2026-04-25T08:20:06Z</time></trkpt><trkpt lat="43.40308815892812" lon="11.357095811469422"><ele>447.0</ele><time>2026-04-25T08:20:07Z</time></trkpt><trkpt lat="43.40300874172012" lon="11.357133218865638"><ele>447.0</ele><time>2026-04-25T08:20:08Z</time></trkpt><trkpt lat="43.40292559390736" lon="11.357199268998627"><ele>447.0</ele><time>2026-04-25T08:20:09Z</time></trkpt><trkpt lat="43.402850948376184" lon="11.35727933797605"><ele>446.3333333333333</ele><time>2026-04-25T08:20:10Z</time></trkpt><trkpt lat="43.402790552518326" lon="11.357367860495774"><ele>445.66666666666663</ele><time>2026-04-25T08:20:11Z</time></trkpt><trkpt lat="43.40275346145003" lon="11.357471471305624"><ele>445.0</ele><time>2026-04-25T08:20:12Z</time></trkpt><trkpt lat="43.40273696921788" lon="11.357576896002179"><ele>444.3333333333333</ele><time>2026-04-25T08:20:13Z</time></trkpt><trkpt lat="43.40273513336607" lon="11.357681221639371"><ele>443.66666666666663</ele><time>2026-04-25T08:20:14Z</time></trkpt><trkpt lat="43.402747544997965" lon="11.357795829933911"><ele>443.0</ele><time>2026-04-25T08:20:15Z</time></trkpt><trkpt lat="43.40276793435506" lon="11.357900956446967"><ele>443.0</ele><time>2026-04-25T08:20:16Z</time></trkpt><trkpt lat="43.40278148141748" lon="11.358029817486381"><ele>442.99999999999994</ele><time>2026-04-25T08:20:17Z</time></trkpt><trkpt lat="43.40281156405741" lon="11.358152976775845"><ele>442.99999999999994</ele><time>2026-04-25T08:20:18Z</time></trkpt><trkpt lat="43.40282760339009" lon="11.358272723777526"><ele>443.0</ele><time>2026-04-25T08:20:19Z</time></trkpt><trkpt lat="43.40285182615275" lon="11.358399982825054"><ele>443.0</ele><time>2026-04-25T08:20:20Z</time></trkpt><trkpt lat="43.402854242371056" lon="11.358515335654896"><ele>442.8333333333333</ele><time>2026-04-25T08:20:21Z</time></trkpt><trkpt lat="43.40288354627883" lon="11.358637464094398"><ele>442.66666666666663</ele><time>2026-04-25T08:20:22Z</time></trkpt><trkpt lat="43.402915315630175" lon="11.35872157933"><ele>442.5</ele><time>2026-04-25T08:20:23Z</time></trkpt><trkpt lat="43.402963911804356" lon="11.358820184069353"><ele>442.33333333333337</ele><time>2026-04-25T08:20:24Z</time></trkpt><trkpt lat="43.403043522809085" lon="11.358880999383674"><ele>442.1666666666667</ele><time>2026-04-25T08:20:25Z</time></trkpt><trkpt lat="43.40311949222897" lon="11.358931282343585"><ele>442.0</ele><time>2026-04-25T08:20:26Z</time></trkpt><trkpt lat="43.40321132311173" lon="11.35894733928414"><ele>442.6</ele><time>2026-04-25T08:20:27Z</time></trkpt><trkpt lat="43.40329731951607" lon="11.358990656935712"><ele>443.20000000000005</ele><time>2026-04-25T08:20:28Z</time></trkpt><trkpt lat="43.40338407685718" lon="11.35903593678873"><ele>443.8</ele><time>2026-04-25T08:20:29Z</time></trkpt><trkpt lat="43.40346837417738" lon="11.359084598722083"><ele>444.4</ele><time>2026-04-25T08:20:30Z</time></trkpt><trkpt lat="43.40351411275322" lon="11.359189705077265"><ele>445.0</ele><time>2026-04-25T08:20:31Z</time></trkpt><trkpt lat="43.40357253094332" lon="11.359284035336726"><ele>445.0</ele><time>2026-04-25T08:20:32Z</time></trkpt><trkpt lat="43.403591287586316" lon="11.35940724645851"><ele>445.0</ele><time>2026-04-25T08:20:33Z</time></trkpt><trkpt lat="43.403566332425406" lon="11.359524219806229"><ele>445.0</ele><time>2026-04-25T08:20:34Z</time></trkpt><trkpt lat="43.40355643105215" lon="11.359645931007194"><ele>445.0</ele><time>2026-04-25T08:20:35Z</time></trkpt><trkpt lat="43.40351575721748" lon="11.359787486882837"><ele>445.0</ele><time>2026-04-25T08:20:36Z</time></trkpt><trkpt lat="43.40348641852132" lon="11.359910069929866"><ele>445.2</ele><time>2026-04-25T08:20:37Z</time></trkpt><trkpt lat="43.403471334055176" lon="11.360047742667222"><ele>445.4</ele><time>2026-04-25T08:20:38Z</time></trkpt><trkpt lat="43.40347559419941" lon="11.360177864158352"><ele>445.6</ele><time>2026-04-25T08:20:39Z</time></trkpt><trkpt lat="43.403491717556356" lon="11.360316819639086"><ele>445.8</ele><time>2026-04-25T08:20:40Z</time></trkpt><trkpt lat="43.40350253976084" lon="11.360442358926303"><ele>446.0</ele><time>2026-04-25T08:20:41Z</time></trkpt><trkpt lat="43.4035031025386" lon="11.36053890909308"><ele>445.99999999999994</ele><time>2026-04-25T08:20:42Z</time></trkpt><trkpt lat="43.40348723779298" lon="11.36062864132476"><ele>446.0</ele><time>2026-04-25T08:20:43Z</time></trkpt><trkpt lat="43.40345262275638" lon="11.360715569705995"><ele>446.0</ele><time>2026-04-25T08:20:44Z</time></trkpt><trkpt lat="43.40339154739155" lon="11.360783283032193"><ele>446.0</ele><time>2026-04-25T08:20:45Z</time></trkpt><trkpt lat="43.403301643842795" lon="11.360802910058245"><ele>445.99999999999994</ele><time>2026-04-25T08:20:46Z</time></trkpt><trkpt lat="43.40321331222818" lon="11.360832274359497"><ele>446.0</ele><time>2026-04-25T08:20:47Z</time></trkpt><trkpt lat="43.403115997240455" lon="11.360877906867318"><ele>446.0</ele><time>2026-04-25T08:20:48Z</time></trkpt><trkpt lat="43.40301456235706" lon="11.360900952692663"><ele>446.0</ele><time>2026-04-25T08:20:49Z</time></trkpt><trkpt lat="43.40290780135638" lon="11.360922709875132"><ele>446.0</ele><time>2026-04-25T08:20:50Z</time></trkpt><trkpt lat="43.402822542197725" lon="11.36090535331525"><ele>446.0</ele><time>2026-04-25T08:20:51Z</time></trkpt><trkpt lat="43.402725653488524" lon="11.36090036071749"><ele>446.0</ele><time>2026-04-25T08:20:52Z</time></trkpt><trkpt lat="43.40262757490956" lon="11.360859955524315"><ele>445.16666666666663</ele><time>2026-04-25T08:20:53Z</time></trkpt><trkpt lat="43.40254527931512" lon="11.360836924270595"><ele>444.3333333333333</ele><time>2026-04-25T08:20:54Z</time></trkpt><trkpt lat="43.402466046440594" lon="11.360829487217947"><ele>443.5</ele><time>2026-04-25T08:20:55Z</time></trkpt><trkpt lat="43.40237839677934" lon="11.360848508183878"><ele>442.66666666666663</ele><time>2026-04-25T08:20:56Z</time></trkpt><trkpt lat="43.40228517456953" lon="11.36087947152443"><ele>441.8333333333333</ele><time>2026-04-25T08:20:57Z</time></trkpt><trkpt lat="43.40219902536095" lon="11.36093389520437"><ele>441.0</ele><time>2026-04-25T08:20:58Z</time></trkpt><trkpt lat="43.40213239670785" lon="11.360993101738034"><ele>441.6</ele><time>2026-04-25T08:20:59Z</time></trkpt><trkpt lat="43.40207867150722" lon="11.361051406866242"><ele>442.20000000000005</ele><time>2026-04-25T08:21:00Z</time></trkpt><trkpt lat="43.40200868608292" lon="11.361130934396185"><ele>442.79999999999995</ele><time>2026-04-25T08:21:01Z</time></trkpt><trkpt lat="43.40193675657361" lon="11.361224992171485"><ele>443.4</ele><time>2026-04-25T08:21:02Z</time></trkpt><trkpt lat="43.4018674307856" lon="11.361328148119728"><ele>444.0</ele><time>2026-04-25T08:21:03Z</time></trkpt><trkpt lat="43.401780837500844" lon="11.361440285686644"><ele>444.0</ele><time>2026-04-25T08:21:04Z</time></trkpt><trkpt lat="43.40169353419445" lon="11.361514485188332"><ele>444.0</ele><time>2026-04-25T08:21:05Z</time></trkpt><trkpt lat="43.4016288183325" lon="11.361602322045982"><ele>444.0</ele><time>2026-04-25T08:21:06Z</time></trkpt><trkpt lat="43.40155425975962" lon="11.361668581762968"><ele>444.0</ele><time>2026-04-25T08:21:07Z</time></trkpt><trkpt lat="43.401484765005755" lon="11.361721908035761"><ele>444.0</ele><time>2026-04-25T08:21:08Z</time></trkpt><trkpt lat="43.40142715225518" lon="11.36178185517016"><ele>444.0</ele><time>2026-04-25T08:21:09Z</time></trkpt><trkpt lat="43.401376137069875" lon="11.361844307435911"><ele>445.0</ele><time>2026-04-25T08:21:10Z</time></trkpt><trkpt lat="43.401306986154935" lon="11.361972636388888"><ele>446.0</ele><time>2026-04-25T08:21:12Z</time></trkpt><trkpt lat="43.401292641392004" lon="11.362142125543988"><ele>447.0</ele><time>2026-04-25T08:21:14Z</time></trkpt><trkpt lat="43.401314001601556" lon="11.362238432506851"><ele>448.0</ele><time>2026-04-25T08:21:15Z</time></trkpt><trkpt lat="43.40135574302847" lon="11.362350183769555"><ele>449.0</ele><time>2026-04-25T08:21:16Z</time></trkpt><trkpt lat="43.40139313021365" lon="11.362471831893208"><ele>449.0</ele><time>2026-04-25T08:21:17Z</time></trkpt><trkpt lat="43.40139676761504" lon="11.362615722968776"><ele>449.0</ele><time>2026-04-25T08:21:18Z</time></trkpt><trkpt lat="43.4014059246802" lon="11.36274908112516"><ele>449.0</ele><time>2026-04-25T08:21:19Z</time></trkpt><trkpt lat="43.40137471722392" lon="11.362890359238602"><ele>449.0</ele><time>2026-04-25T08:21:20Z</time></trkpt><trkpt lat="43.40133123128802" lon="11.363004998257106"><ele>449.0</ele><time>2026-04-25T08:21:21Z</time></trkpt><trkpt lat="43.401279867641826" lon="11.36309212537522"><ele>447.49999999999994</ele><time>2026-04-25T08:21:22Z</time></trkpt><trkpt lat="43.40120031330669" lon="11.363120340273268"><ele>446.0</ele><time>2026-04-25T08:21:23Z</time></trkpt><trkpt lat="43.40112233805178" lon="11.363181247092232"><ele>444.5</ele><time>2026-04-25T08:21:24Z</time></trkpt><trkpt lat="43.40103633823885" lon="11.363199977345397"><ele>443.0</ele><time>2026-04-25T08:21:25Z</time></trkpt><trkpt lat="43.4009600171456" lon="11.363238645283321"><ele>441.49999999999994</ele><time>2026-04-25T08:21:26Z</time></trkpt><trkpt lat="43.40088722924379" lon="11.363306240497227"><ele>440.0</ele><time>2026-04-25T08:21:27Z</time></trkpt><trkpt lat="43.40082849526383" lon="11.363399059343081"><ele>440.0</ele><time>2026-04-25T08:21:28Z</time></trkpt><trkpt lat="43.40079467765622" lon="11.363493840294941"><ele>440.0</ele><time>2026-04-25T08:21:29Z</time></trkpt><trkpt lat="43.40077274597027" lon="11.363607152815806"><ele>440.0</ele><time>2026-04-25T08:21:30Z</time></trkpt><trkpt lat="43.40075803577193" lon="11.363741582108647"><ele>440.0</ele><time>2026-04-25T08:21:31Z</time></trkpt><trkpt lat="43.40074928017404" lon="11.363885192931988"><ele>440.0</ele><time>2026-04-25T08:21:32Z</time></trkpt><trkpt lat="43.40076412150449" lon="11.364001628577082"><ele>440.4</ele><time>2026-04-25T08:21:33Z</time></trkpt><trkpt lat="43.40077522804808" lon="11.364121024875814"><ele>440.8</ele><time>2026-04-25T08:21:34Z</time></trkpt><trkpt lat="43.40083562520067" lon="11.36424186264216"><ele>441.20000000000005</ele><time>2026-04-25T08:21:35Z</time></trkpt><trkpt lat="43.400888528768924" lon="11.36437299265614"><ele>441.6</ele><time>2026-04-25T08:21:36Z</time></trkpt><trkpt lat="43.40094751894589" lon="11.364508445309106"><ele>442.0</ele><time>2026-04-25T08:21:37Z</time></trkpt><trkpt lat="43.401000225717105" lon="11.364648093837982"><ele>441.5</ele><time>2026-04-25T08:21:38Z</time></trkpt><trkpt lat="43.401037746926846" lon="11.36479616686653"><ele>441.0</ele><time>2026-04-25T08:21:39Z</time></trkpt><trkpt lat="43.401058646715896" lon="11.364962519345497"><ele>440.5</ele><time>2026-04-25T08:21:40Z</time></trkpt><trkpt lat="43.40106726269763" lon="11.365112331425381"><ele>440.0</ele><time>2026-04-25T08:21:41Z</time></trkpt><trkpt lat="43.401038765941045" lon="11.36525207417111"><ele>440.0</ele><time>2026-04-25T08:21:42Z</time></trkpt><trkpt lat="43.40110834376819" lon="11.365404095727113"><ele>440.0</ele><time>2026-04-25T08:21:43Z</time></trkpt><trkpt lat="43.40113813123633" lon="11.365548994611865"><ele>440.0</ele><time>2026-04-25T08:21:44Z</time></trkpt><trkpt lat="43.40115940400752" lon="11.365686254976659"><ele>440.0</ele><time>2026-04-25T08:21:45Z</time></trkpt><trkpt lat="43.40117597898967" lon="11.365831379601822"><ele>440.0</ele><time>2026-04-25T08:21:46Z</time></trkpt><trkpt lat="43.401196374450265" lon="11.365967642388348"><ele>440.2</ele><time>2026-04-25T08:21:47Z</time></trkpt><trkpt lat="43.40121657428679" lon="11.366103684073748"><ele>440.4</ele><time>2026-04-25T08:21:48Z</time></trkpt><trkpt lat="43.401234545629244" lon="11.366238789083654"><ele>440.6</ele><time>2026-04-25T08:21:49Z</time></trkpt><trkpt lat="43.40126667134052" lon="11.366374972356441"><ele>440.8</ele><time>2026-04-25T08:21:50Z</time></trkpt><trkpt lat="43.40129969568829" lon="11.366511309202727"><ele>441.0</ele><time>2026-04-25T08:21:51Z</time></trkpt><trkpt lat="43.401345046338186" lon="11.366643721699958"><ele>439.8</ele><time>2026-04-25T08:21:52Z</time></trkpt><trkpt lat="43.401404792417175" lon="11.366769968216492"><ele>438.6</ele><time>2026-04-25T08:21:53Z</time></trkpt><trkpt lat="43.401464960558606" lon="11.366893322371666"><ele>437.4</ele><time>2026-04-25T08:21:54Z</time></trkpt><trkpt lat="43.40152001814871" lon="11.367020733519105"><ele>436.2</ele><time>2026-04-25T08:21:55Z</time></trkpt><trkpt lat="43.40155507453467" lon="11.367149448803882"><ele>435.0</ele><time>2026-04-25T08:21:56Z</time></trkpt><trkpt lat="43.40157352055059" lon="11.367292832027276"><ele>434.8</ele><time>2026-04-25T08:21:57Z</time></trkpt><trkpt lat="43.40158891162049" lon="11.367445370296592"><ele>434.6</ele><time>2026-04-25T08:21:58Z</time></trkpt><trkpt lat="43.401599574761256" lon="11.36759413527566"><ele>434.4</ele><time>2026-04-25T08:21:59Z</time></trkpt><trkpt lat="43.401611455012834" lon="11.367742060188515"><ele>434.2</ele><time>2026-04-25T08:22:00Z</time></trkpt><trkpt lat="43.40162722322125" lon="11.367890289045695"><ele>434.0</ele><time>2026-04-25T08:22:01Z</time></trkpt><trkpt lat="43.40163730726578" lon="11.368029081271054"><ele>433.5</ele><time>2026-04-25T08:22:02Z</time></trkpt><trkpt lat="43.401643313491235" lon="11.368175585220449"><ele>433.0</ele><time>2026-04-25T08:22:03Z</time></trkpt><trkpt lat="43.40165867826836" lon="11.36833082901383"><ele>432.5</ele><time>2026-04-25T08:22:04Z</time></trkpt><trkpt lat="43.40167606177036" lon="11.368495944395956"><ele>432.0</ele><time>2026-04-25T08:22:05Z</time></trkpt><trkpt lat="43.401690055256175" lon="11.368648667932682"><ele>432.0</ele><time>2026-04-25T08:22:06Z</time></trkpt><trkpt lat="43.40170539998" lon="11.368800064866225"><ele>432.00000000000006</ele><time>2026-04-25T08:22:07Z</time></trkpt><trkpt lat="43.40171247273386" lon="11.368943480906763"><ele>432.00000000000006</ele><time>2026-04-25T08:22:08Z</time></trkpt><trkpt lat="43.401704286843525" lon="11.36909189833443"><ele>432.0</ele><time>2026-04-25T08:22:09Z</time></trkpt><trkpt lat="43.40167279466052" lon="11.369237731714428"><ele>432.0</ele><time>2026-04-25T08:22:10Z</time></trkpt><trkpt lat="43.401663859465216" lon="11.369384018064101"><ele>431.6</ele><time>2026-04-25T08:22:11Z</time></trkpt><trkpt lat="43.4016294885114" lon="11.369533067851144"><ele>431.20000000000005</ele><time>2026-04-25T08:22:12Z</time></trkpt><trkpt lat="43.40160371882795" lon="11.369671970825669"><ele>430.8</ele><time>2026-04-25T08:22:13Z</time></trkpt><trkpt lat="43.401573375463876" lon="11.36981242449802"><ele>430.4</ele><time>2026-04-25T08:22:14Z</time></trkpt><trkpt lat="43.40153765890909" lon="11.369949398701372"><ele>430.0</ele><time>2026-04-25T08:22:15Z</time></trkpt><trkpt lat="43.40149815787432" lon="11.370086340262938"><ele>430.0</ele><time>2026-04-25T08:22:16Z</time></trkpt><trkpt lat="43.401452349228926" lon="11.370224462838772"><ele>430.0</ele><time>2026-04-25T08:22:17Z</time></trkpt><trkpt lat="43.40140206093827" lon="11.370366934652237"><ele>430.0</ele><time>2026-04-25T08:22:18Z</time></trkpt><trkpt lat="43.40134878343208" lon="11.370514379478204"><ele>430.0</ele><time>2026-04-25T08:22:19Z</time></trkpt><trkpt lat="43.40130836862652" lon="11.370659867582413"><ele>430.0</ele><time>2026-04-25T08:22:20Z</time></trkpt><trkpt lat="43.40127704860676" lon="11.370810709665452"><ele>430.0</ele><time>2026-04-25T08:22:21Z</time></trkpt><trkpt lat="43.40126485682605" lon="11.37097091287173"><ele>430.0</ele><time>2026-04-25T08:22:22Z</time></trkpt><trkpt lat="43.40125264190881" lon="11.371140281900704"><ele>430.0</ele><time>2026-04-25T08:22:23Z</time></trkpt><trkpt lat="43.40125390240693" lon="11.371294783824519"><ele>431.0</ele><time>2026-04-25T08:22:24Z</time></trkpt><trkpt lat="43.4012524901607" lon="11.371469888074834"><ele>432.0</ele><time>2026-04-25T08:22:25Z</time></trkpt><trkpt lat="43.401243144831476" lon="11.371662644658882"><ele>433.0</ele><time>2026-04-25T08:22:26Z</time></trkpt><trkpt lat="43.40125806066721" lon="11.371792811049426"><ele>434.0</ele><time>2026-04-25T08:22:27Z</time></trkpt><trkpt lat="43.40126088703298" lon="11.371943886662976"><ele>434.0</ele><time>2026-04-25T08:22:28Z</time></trkpt><trkpt lat="43.40126393371264" lon="11.372088378587877"><ele>434.0</ele><time>2026-04-25T08:22:29Z</time></trkpt><trkpt lat="43.40126708551502" lon="11.372234554647092"><ele>434.0</ele><time>2026-04-25T08:22:30Z</time></trkpt><trkpt lat="43.401267631510656" lon="11.372352908918916"><ele>434.0</ele><time>2026-04-25T08:22:31Z</time></trkpt><trkpt lat="43.40125228195064" lon="11.372463976075386"><ele>434.0</ele><time>2026-04-25T08:22:32Z</time></trkpt><trkpt lat="43.40121421045707" lon="11.372581758243024"><ele>434.5</ele><time>2026-04-25T08:22:33Z</time></trkpt><trkpt lat="43.40116148427111" lon="11.37269780725533"><ele>435.0</ele><time>2026-04-25T08:22:34Z</time></trkpt><trkpt lat="43.401089212547255" lon="11.372816660547333"><ele>435.5</ele><time>2026-04-25T08:22:35Z</time></trkpt><trkpt lat="43.401002103306396" lon="11.372923529137731"><ele>436.0</ele><time>2026-04-25T08:22:36Z</time></trkpt><trkpt lat="43.400902356933415" lon="11.373029209824336"><ele>436.4</ele><time>2026-04-25T08:22:37Z</time></trkpt><trkpt lat="43.400820543113795" lon="11.373118632877564"><ele>436.8</ele><time>2026-04-25T08:22:38Z</time></trkpt><trkpt lat="43.40076012082049" lon="11.37320622106517"><ele>437.19999999999993</ele><time>2026-04-25T08:22:39Z</time></trkpt><trkpt lat="43.40070840239288" lon="11.373309569676753"><ele>437.59999999999997</ele><time>2026-04-25T08:22:40Z</time></trkpt><trkpt lat="43.40066081942832" lon="11.373430648527766"><ele>438.0</ele><time>2026-04-25T08:22:41Z</time></trkpt><trkpt lat="43.40062204630699" lon="11.373564974368014"><ele>438.0</ele><time>2026-04-25T08:22:42Z</time></trkpt><trkpt lat="43.40059002130399" lon="11.373704450007809"><ele>437.99999999999994</ele><time>2026-04-25T08:22:43Z</time></trkpt><trkpt lat="43.40056512404616" lon="11.373857157493092"><ele>437.99999999999994</ele><time>2026-04-25T08:22:44Z</time></trkpt><trkpt lat="43.40053655639994" lon="11.374007014341224"><ele>438.0</ele><time>2026-04-25T08:22:45Z</time></trkpt><trkpt lat="43.40050070140293" lon="11.37414462984936"><ele>438.0</ele><time>2026-04-25T08:22:46Z</time></trkpt><trkpt lat="43.40045159208429" lon="11.374265838296228"><ele>438.25</ele><time>2026-04-25T08:22:47Z</time></trkpt><trkpt lat="43.40039073557287" lon="11.374380769233529"><ele>438.5</ele><time>2026-04-25T08:22:48Z</time></trkpt><trkpt lat="43.40030973333044" lon="11.374495269710735"><ele>438.75</ele><time>2026-04-25T08:22:49Z</time></trkpt><trkpt lat="43.400227583748304" lon="11.374618846209135"><ele>439.0</ele><time>2026-04-25T08:22:50Z</time></trkpt><trkpt lat="43.40015252389838" lon="11.374743054910939"><ele>438.4</ele><time>2026-04-25T08:22:51.001Z</time></trkpt><trkpt lat="43.40008201197164" lon="11.374859303833999"><ele>437.79999999999995</ele><time>2026-04-25T08:22:52.001Z</time></trkpt><trkpt lat="43.40002131644886" lon="11.37496850040362"><ele>437.20000000000005</ele><time>2026-04-25T08:22:53.001Z</time></trkpt><trkpt lat="43.39996532572167" lon="11.375078668632991"><ele>436.6</ele><time>2026-04-25T08:22:54.001Z</time></trkpt><trkpt lat="43.39990476287997" lon="11.375209865854108"><ele>436.0</ele><time>2026-04-25T08:22:55.001Z</time></trkpt><trkpt lat="43.39982840068118" lon="11.375312867890935"><ele>436.0</ele><time>2026-04-25T08:22:56.001Z</time></trkpt><trkpt lat="43.399758789798206" lon="11.375423086562073"><ele>436.0</ele><time>2026-04-25T08:22:57.001Z</time></trkpt><trkpt lat="43.39970423162926" lon="11.375542874960367"><ele>436.0</ele><time>2026-04-25T08:22:58.001Z</time></trkpt><trkpt lat="43.399637672251934" lon="11.375656446656102"><ele>436.0</ele><time>2026-04-25T08:22:59.001Z</time></trkpt><trkpt lat="43.39957640154972" lon="11.375746750752029"><ele>436.0</ele><time>2026-04-25T08:23:00.001Z</time></trkpt><trkpt lat="43.39949640177094" lon="11.37583249972007"><ele>434.0</ele><time>2026-04-25T08:23:01Z</time></trkpt><trkpt lat="43.399403853162546" lon="11.3759007724791"><ele>432.0</ele><time>2026-04-25T08:23:02Z</time></trkpt><trkpt lat="43.3992958310132" lon="11.37593460168093"><ele>430.0</ele><time>2026-04-25T08:23:03Z</time></trkpt><trkpt lat="43.39918224233029" lon="11.375966883751982"><ele>428.0</ele><time>2026-04-25T08:23:04Z</time></trkpt><trkpt lat="43.399064169094494" lon="11.376015144245384"><ele>428.0</ele><time>2026-04-25T08:23:05Z</time></trkpt><trkpt lat="43.3989537892505" lon="11.376041605372931"><ele>428.0</ele><time>2026-04-25T08:23:06Z</time></trkpt><trkpt lat="43.39884303674189" lon="11.376085755183837"><ele>428.0</ele><time>2026-04-25T08:23:07Z</time></trkpt><trkpt lat="43.3987332031548" lon="11.376139301299947"><ele>428.0</ele><time>2026-04-25T08:23:08Z</time></trkpt><trkpt lat="43.39861132114791" lon="11.376223669558113"><ele>426.75</ele><time>2026-04-25T08:23:09Z</time></trkpt><trkpt lat="43.398489847788454" lon="11.376318112080563"><ele>425.5</ele><time>2026-04-25T08:23:10Z</time></trkpt><trkpt lat="43.39836578359512" lon="11.37642397791206"><ele>424.25</ele><time>2026-04-25T08:23:11Z</time></trkpt><trkpt lat="43.398251719146685" lon="11.376551935572182"><ele>423.0</ele><time>2026-04-25T08:23:12Z</time></trkpt><trkpt lat="43.39813953068808" lon="11.376683714937142"><ele>422.5</ele><time>2026-04-25T08:23:13Z</time></trkpt><trkpt lat="43.398027891752605" lon="11.376816900225094"><ele>422.0</ele><time>2026-04-25T08:23:14Z</time></trkpt><trkpt lat="43.39792517916822" lon="11.376945226339421"><ele>421.5</ele><time>2026-04-25T08:23:15Z</time></trkpt><trkpt lat="43.397825231553746" lon="11.377080657940223"><ele>421.0</ele><time>2026-04-25T08:23:16Z</time></trkpt><trkpt lat="43.397730681594126" lon="11.377225216771608"><ele>420.5</ele><time>2026-04-25T08:23:17Z</time></trkpt><trkpt lat="43.397635635748166" lon="11.377372088231372"><ele>420.0</ele><time>2026-04-25T08:23:18Z</time></trkpt><trkpt lat="43.397541708869504" lon="11.377521531619037"><ele>419.5</ele><time>2026-04-25T08:23:19Z</time></trkpt><trkpt lat="43.39745336194634" lon="11.377662059791254"><ele>419.0</ele><time>2026-04-25T08:23:20Z</time></trkpt><trkpt lat="43.39737781847599" lon="11.377788476786382"><ele>419.0</ele><time>2026-04-25T08:23:21Z</time></trkpt><trkpt lat="43.39730724429886" lon="11.377912295406484"><ele>419.0</ele><time>2026-04-25T08:23:22Z</time></trkpt><trkpt lat="43.397240814533625" lon="11.378034366543488"><ele>419.0</ele><time>2026-04-25T08:23:23Z</time></trkpt><trkpt lat="43.397180530077776" lon="11.378148124832054"><ele>419.0</ele><time>2026-04-25T08:23:24Z</time></trkpt><trkpt lat="43.397117438566056" lon="11.378261403548244"><ele>419.0</ele><time>2026-04-25T08:23:25Z</time></trkpt><trkpt lat="43.397050895121794" lon="11.378373218401821"><ele>418.79999999999995</ele><time>2026-04-25T08:23:26Z</time></trkpt><trkpt lat="43.396984395554135" lon="11.378492187825998"><ele>418.59999999999997</ele><time>2026-04-25T08:23:27Z</time></trkpt><trkpt lat="43.39691996002558" lon="11.378615626271332"><ele>418.4</ele><time>2026-04-25T08:23:28Z</time></trkpt><trkpt lat="43.39686557996732" lon="11.378753438912545"><ele>418.2</ele><time>2026-04-25T08:23:29Z</time></trkpt><trkpt lat="43.396830766258276" lon="11.378903018440422"><ele>418.0</ele><time>2026-04-25T08:23:30Z</time></trkpt><trkpt lat="43.39679877670768" lon="11.379068877243379"><ele>417.0</ele><time>2026-04-25T08:23:31Z</time></trkpt><trkpt lat="43.396763676812235" lon="11.379244303388184"><ele>416.0</ele><time>2026-04-25T08:23:32Z</time></trkpt><trkpt lat="43.39672876512594" lon="11.379424666916004"><ele>415.0</ele><time>2026-04-25T08:23:33Z</time></trkpt><trkpt lat="43.396697235248716" lon="11.379605810086264"><ele>414.0</ele><time>2026-04-25T08:23:34Z</time></trkpt><trkpt lat="43.39666184320326" lon="11.37978497030621"><ele>412.75</ele><time>2026-04-25T08:23:35Z</time></trkpt><trkpt lat="43.39662216038468" lon="11.379956310614642"><ele>411.5</ele><time>2026-04-25T08:23:36Z</time></trkpt><trkpt lat="43.39658715859015" lon="11.380130956250293"><ele>410.25</ele><time>2026-04-25T08:23:37Z</time></trkpt><trkpt lat="43.396556322891385" lon="11.380302988228198"><ele>409.0</ele><time>2026-04-25T08:23:38Z</time></trkpt><trkpt lat="43.39652051702098" lon="11.380460658523198"><ele>409.0</ele><time>2026-04-25T08:23:39Z</time></trkpt><trkpt lat="43.39646660996694" lon="11.380608585966396"><ele>409.0</ele><time>2026-04-25T08:23:40Z</time></trkpt><trkpt lat="43.39638702387003" lon="11.380739824238622"><ele>409.0</ele><time>2026-04-25T08:23:41Z</time></trkpt><trkpt lat="43.396286358916676" lon="11.38085787251905"><ele>409.0</ele><time>2026-04-25T08:23:42Z</time></trkpt><trkpt lat="43.39616855851714" lon="11.38095733182887"><ele>409.75</ele><time>2026-04-25T08:23:43Z</time></trkpt><trkpt lat="43.39603708995814" lon="11.381000214585193"><ele>410.5</ele><time>2026-04-25T08:23:44Z</time></trkpt><trkpt lat="43.39591204589908" lon="11.381022949100029"><ele>411.25</ele><time>2026-04-25T08:23:45Z</time></trkpt><trkpt lat="43.39578413764567" lon="11.381017500340572"><ele>412.0</ele><time>2026-04-25T08:23:46Z</time></trkpt><trkpt lat="43.39564489323639" lon="11.381005544564152"><ele>412.0</ele><time>2026-04-25T08:23:47Z</time></trkpt><trkpt lat="43.39550709177094" lon="11.380986116717374"><ele>412.0</ele><time>2026-04-25T08:23:48Z</time></trkpt><trkpt lat="43.39537356582656" lon="11.38096102612844"><ele>412.0</ele><time>2026-04-25T08:23:49Z</time></trkpt><trkpt lat="43.39524096902582" lon="11.380939893729671"><ele>412.0</ele><time>2026-04-25T08:23:50Z</time></trkpt><trkpt lat="43.395104429592" lon="11.380927268876833"><ele>412.75</ele><time>2026-04-25T08:23:51Z</time></trkpt><trkpt lat="43.39496336131038" lon="11.380935090830128"><ele>413.5</ele><time>2026-04-25T08:23:52Z</time></trkpt><trkpt lat="43.394822090013975" lon="11.380966270361647"><ele>414.25</ele><time>2026-04-25T08:23:53Z</time></trkpt><trkpt lat="43.394678900980345" lon="11.380988435704472"><ele>415.0</ele><time>2026-04-25T08:23:54Z</time></trkpt><trkpt lat="43.39453373999886" lon="11.381028387173377"><ele>415.0</ele><time>2026-04-25T08:23:55Z</time></trkpt><trkpt lat="43.3943898178569" lon="11.381049446561159"><ele>415.0</ele><time>2026-04-25T08:23:56Z</time></trkpt><trkpt lat="43.394250562721254" lon="11.381109095167815"><ele>415.0</ele><time>2026-04-25T08:23:57Z</time></trkpt><trkpt lat="43.394107558080215" lon="11.3811544857324"><ele>415.0</ele><time>2026-04-25T08:23:58Z</time></trkpt><trkpt lat="43.39396622425974" lon="11.381218744137268"><ele>416.5</ele><time>2026-04-25T08:23:59Z</time></trkpt><trkpt lat="43.39383253228926" lon="11.38130015897945"><ele>418.0</ele><time>2026-04-25T08:24:00Z</time></trkpt><trkpt lat="43.393697309191026" lon="11.381388166555338"><ele>419.5</ele><time>2026-04-25T08:24:01Z</time></trkpt><trkpt lat="43.39355928831377" lon="11.381475811811411"><ele>421.0</ele><time>2026-04-25T08:24:02Z</time></trkpt><trkpt lat="43.393404401324325" lon="11.38157519273675"><ele>421.0</ele><time>2026-04-25T08:24:03Z</time></trkpt><trkpt lat="43.39326490950257" lon="11.38168092864065"><ele>421.0</ele><time>2026-04-25T08:24:04Z</time></trkpt><trkpt lat="43.393146003331445" lon="11.38180083323051"><ele>421.0</ele><time>2026-04-25T08:24:05Z</time></trkpt><trkpt lat="43.39302976588127" lon="11.381895154493256"><ele>421.0</ele><time>2026-04-25T08:24:06Z</time></trkpt><trkpt lat="43.39290498501774" lon="11.381970403393254"><ele>422.0</ele><time>2026-04-25T08:24:07Z</time></trkpt><trkpt lat="43.39278398924949" lon="11.38206823441524"><ele>423.0</ele><time>2026-04-25T08:24:08Z</time></trkpt><trkpt lat="43.39267528837744" lon="11.382157379950218"><ele>424.0</ele><time>2026-04-25T08:24:09Z</time></trkpt><trkpt lat="43.39257348137632" lon="11.382244917202499"><ele>425.0</ele><time>2026-04-25T08:24:10Z</time></trkpt><trkpt lat="43.39248537644963" lon="11.382348288069922"><ele>425.0</ele><time>2026-04-25T08:24:11Z</time></trkpt><trkpt lat="43.392376480359374" lon="11.382438314976582"><ele>425.0</ele><time>2026-04-25T08:24:12Z</time></trkpt><trkpt lat="43.39226800832919" lon="11.382548519284832"><ele>425.0</ele><time>2026-04-25T08:24:13Z</time></trkpt><trkpt lat="43.392161643722375" lon="11.382672860644126"><ele>425.0</ele><time>2026-04-25T08:24:14Z</time></trkpt><trkpt lat="43.39208110315787" lon="11.382811466333614"><ele>425.0</ele><time>2026-04-25T08:24:15Z</time></trkpt><trkpt lat="43.392023189513495" lon="11.382961002966391"><ele>425.0</ele><time>2026-04-25T08:24:16Z</time></trkpt><trkpt lat="43.391981294927675" lon="11.383126445894618"><ele>425.0</ele><time>2026-04-25T08:24:17Z</time></trkpt><trkpt lat="43.39195250726112" lon="11.383319640356518"><ele>425.0</ele><time>2026-04-25T08:24:18Z</time></trkpt><trkpt lat="43.39192133762352" lon="11.38352332740722"><ele>425.0</ele><time>2026-04-25T08:24:19Z</time></trkpt><trkpt lat="43.391906905476944" lon="11.38370873274744"><ele>425.0</ele><time>2026-04-25T08:24:20Z</time></trkpt><trkpt lat="43.39187181042886" lon="11.383881859450598"><ele>425.0</ele><time>2026-04-25T08:24:21Z</time></trkpt><trkpt lat="43.39182049308483" lon="11.384031381123144"><ele>425.0</ele><time>2026-04-25T08:24:22Z</time></trkpt><trkpt lat="43.391733270490214" lon="11.384148197510843"><ele>425.0</ele><time>2026-04-25T08:24:23Z</time></trkpt><trkpt lat="43.39163766117672" lon="11.384256522362724"><ele>425.0</ele><time>2026-04-25T08:24:24Z</time></trkpt><trkpt lat="43.39153002405442" lon="11.38435284295343"><ele>425.0</ele><time>2026-04-25T08:24:25Z</time></trkpt><trkpt lat="43.39140136075242" lon="11.384464214081646"><ele>425.0</ele><time>2026-04-25T08:24:26Z</time></trkpt><trkpt lat="43.39127040592819" lon="11.384593705420857"><ele>424.75</ele><time>2026-04-25T08:24:27Z</time></trkpt><trkpt lat="43.39114457180884" lon="11.384705016988201"><ele>424.5</ele><time>2026-04-25T08:24:28Z</time></trkpt><trkpt lat="43.39103173022892" lon="11.384800919176785"><ele>424.25</ele><time>2026-04-25T08:24:29Z</time></trkpt><trkpt lat="43.39092761755747" lon="11.384893933692924"><ele>424.0</ele><time>2026-04-25T08:24:30Z</time></trkpt><trkpt lat="43.390828084631266" lon="11.384976940059056"><ele>424.0</ele><time>2026-04-25T08:24:31Z</time></trkpt><trkpt lat="43.390720929602196" lon="11.385065255828753"><ele>424.0</ele><time>2026-04-25T08:24:32Z</time></trkpt><trkpt lat="43.390612677878615" lon="11.38516340679991"><ele>424.0</ele><time>2026-04-25T08:24:33Z</time></trkpt><trkpt lat="43.390498395587436" lon="11.385246818696041"><ele>424.0</ele><time>2026-04-25T08:24:34Z</time></trkpt><trkpt lat="43.390384248813454" lon="11.38532507122235"><ele>423.79999999999995</ele><time>2026-04-25T08:24:35Z</time></trkpt><trkpt lat="43.39027063715324" lon="11.385404013686273"><ele>423.59999999999997</ele><time>2026-04-25T08:24:36Z</time></trkpt><trkpt lat="43.39016909203528" lon="11.385472761436604"><ele>423.4</ele><time>2026-04-25T08:24:37Z</time></trkpt><trkpt lat="43.39007719112005" lon="11.38553706201314"><ele>423.2</ele><time>2026-04-25T08:24:38Z</time></trkpt><trkpt lat="43.3899964394238" lon="11.38559604210206"><ele>423.0</ele><time>2026-04-25T08:24:39Z</time></trkpt><trkpt lat="43.38993260806735" lon="11.385637575752433"><ele>422.8333333333333</ele><time>2026-04-25T08:24:40Z</time></trkpt><trkpt lat="43.389844891444035" lon="11.385713754373104"><ele>422.66666666666663</ele><time>2026-04-25T08:24:42Z</time></trkpt><trkpt lat="43.389790627359154" lon="11.385758099248239"><ele>422.5</ele><time>2026-04-25T08:24:44Z</time></trkpt><trkpt lat="43.38980261561537" lon="11.385853641321418"><ele>422.3333333333333</ele><time>2026-04-25T08:24:46Z</time></trkpt><trkpt lat="43.38977202557325" lon="11.385930738582806"><ele>422.16666666666663</ele><time>2026-04-25T08:24:49Z</time></trkpt><trkpt lat="43.38973432117698" lon="11.38604432067511"><ele>422.0</ele><time>2026-04-25T08:24:51Z</time></trkpt><trkpt lat="43.38970426432992" lon="11.386141090305001"><ele>422.6</ele><time>2026-04-25T08:24:52Z</time></trkpt><trkpt lat="43.389672190829245" lon="11.386243157582337"><ele>423.20000000000005</ele><time>2026-04-25T08:24:53Z</time></trkpt><trkpt lat="43.38962734742158" lon="11.386356091791203"><ele>423.8</ele><time>2026-04-25T08:24:54Z</time></trkpt><trkpt lat="43.38957626024012" lon="11.38647417984684"><ele>424.4</ele><time>2026-04-25T08:24:55Z</time></trkpt><trkpt lat="43.389519310628025" lon="11.386594408708525"><ele>425.0</ele><time>2026-04-25T08:24:56Z</time></trkpt><trkpt lat="43.38945548948562" lon="11.38672739115888"><ele>425.0</ele><time>2026-04-25T08:24:57.001Z</time></trkpt><trkpt lat="43.3893848990898" lon="11.386867652717518"><ele>425.0</ele><time>2026-04-25T08:24:58.001Z</time></trkpt><trkpt lat="43.38931159089742" lon="11.387009221830715"><ele>425.0</ele><time>2026-04-25T08:24:59Z</time></trkpt><trkpt lat="43.38924225640348" lon="11.387145821779624"><ele>425.0</ele><time>2026-04-25T08:25:00Z</time></trkpt><trkpt lat="43.38917616952155" lon="11.387281016786257"><ele>424.25</ele><time>2026-04-25T08:25:01Z</time></trkpt><trkpt lat="43.38911089762616" lon="11.387429181691811"><ele>423.5</ele><time>2026-04-25T08:25:02Z</time></trkpt><trkpt lat="43.38904861389999" lon="11.387587713200263"><ele>422.75</ele><time>2026-04-25T08:25:03Z</time></trkpt><trkpt lat="43.38898970624797" lon="11.38775848401079"><ele>422.0</ele><time>2026-04-25T08:25:04Z</time></trkpt><trkpt lat="43.3889261886362" lon="11.387934485634315"><ele>420.75</ele><time>2026-04-25T08:25:05Z</time></trkpt><trkpt lat="43.388856941124324" lon="11.388101080764194"><ele>419.5</ele><time>2026-04-25T08:25:06Z</time></trkpt><trkpt lat="43.38877538910973" lon="11.38827266443016"><ele>418.25</ele><time>2026-04-25T08:25:07Z</time></trkpt><trkpt lat="43.388694749631384" lon="11.38843634822606"><ele>417.0</ele><time>2026-04-25T08:25:08Z</time></trkpt><trkpt lat="43.388617108634236" lon="11.388600323300219"><ele>419.5</ele><time>2026-04-25T08:25:09Z</time></trkpt><trkpt lat="43.388544018445955" lon="11.388766475764156"><ele>422.0</ele><time>2026-04-25T08:25:10Z</time></trkpt><trkpt lat="43.38847101874986" lon="11.388929162148594"><ele>424.5</ele><time>2026-04-25T08:25:11Z</time></trkpt><trkpt lat="43.38840038084262" lon="11.389084547427316"><ele>427.0</ele><time>2026-04-25T08:25:12Z</time></trkpt><trkpt lat="43.38833503980021" lon="11.389234993165138"><ele>427.0</ele><time>2026-04-25T08:25:13Z</time></trkpt><trkpt lat="43.388273063805144" lon="11.389383161283401"><ele>427.0</ele><time>2026-04-25T08:25:14Z</time></trkpt><trkpt lat="43.388217414708116" lon="11.38953162787381"><ele>427.0</ele><time>2026-04-25T08:25:15Z</time></trkpt><trkpt lat="43.388174089088466" lon="11.389669457010429"><ele>427.0</ele><time>2026-04-25T08:25:16Z</time></trkpt><trkpt lat="43.388140888340196" lon="11.389807853505681"><ele>427.20000000000005</ele><time>2026-04-25T08:25:17Z</time></trkpt><trkpt lat="43.388117903742994" lon="11.389940492083198"><ele>427.40000000000003</ele><time>2026-04-25T08:25:18Z</time></trkpt><trkpt lat="43.3881003239657" lon="11.390067942202087"><ele>427.59999999999997</ele><time>2026-04-25T08:25:19Z</time></trkpt><trkpt lat="43.38808379874137" lon="11.390187064208268"><ele>427.79999999999995</ele><time>2026-04-25T08:25:20Z</time></trkpt><trkpt lat="43.38806458359416" lon="11.39030379701745"><ele>428.0</ele><time>2026-04-25T08:25:21Z</time></trkpt><trkpt lat="43.388036447239124" lon="11.390415801862018"><ele>429.59999999999997</ele><time>2026-04-25T08:25:22Z</time></trkpt><trkpt lat="43.38798474893854" lon="11.390528532416715"><ele>431.19999999999993</ele><time>2026-04-25T08:25:23Z</time></trkpt><trkpt lat="43.387916055933125" lon="11.390629667726039"><ele>432.8</ele><time>2026-04-25T08:25:24Z</time></trkpt><trkpt lat="43.38784151550006" lon="11.390728241635044"><ele>434.4</ele><time>2026-04-25T08:25:25Z</time></trkpt><trkpt lat="43.38776084948958" lon="11.390843423967135"><ele>436.0</ele><time>2026-04-25T08:25:26Z</time></trkpt><trkpt lat="43.387677821052485" lon="11.390971889629906"><ele>436.0</ele><time>2026-04-25T08:25:27Z</time></trkpt><trkpt lat="43.38759045378127" lon="11.391109560921185"><ele>436.0</ele><time>2026-04-25T08:25:28Z</time></trkpt><trkpt lat="43.38750168771152" lon="11.39124486662707"><ele>436.0</ele><time>2026-04-25T08:25:29Z</time></trkpt><trkpt lat="43.38741905252529" lon="11.391366949142332"><ele>436.0</ele><time>2026-04-25T08:25:30Z</time></trkpt><trkpt lat="43.38733057153846" lon="11.391500567178234"><ele>435.5</ele><time>2026-04-25T08:25:31Z</time></trkpt><trkpt lat="43.38723888802333" lon="11.391649405441733"><ele>435.0</ele><time>2026-04-25T08:25:32Z</time></trkpt><trkpt lat="43.38714273209161" lon="11.391792671393446"><ele>434.5</ele><time>2026-04-25T08:25:33Z</time></trkpt><trkpt lat="43.387056286708734" lon="11.391923018608988"><ele>434.0</ele><time>2026-04-25T08:25:34Z</time></trkpt><trkpt lat="43.38696676826977" lon="11.392060233789913"><ele>433.25</ele><time>2026-04-25T08:25:35Z</time></trkpt><trkpt lat="43.38687271286792" lon="11.392197470870641"><ele>432.5</ele><time>2026-04-25T08:25:36Z</time></trkpt><trkpt lat="43.38678010180078" lon="11.392305420611265"><ele>431.75</ele><time>2026-04-25T08:25:37Z</time></trkpt><trkpt lat="43.38667972008657" lon="11.392392291326543"><ele>431.0</ele><time>2026-04-25T08:25:38Z</time></trkpt><trkpt lat="43.38658154626928" lon="11.392470431721026"><ele>431.0</ele><time>2026-04-25T08:25:39Z</time></trkpt><trkpt lat="43.3864830864193" lon="11.392559398251304"><ele>431.0</ele><time>2026-04-25T08:25:40Z</time></trkpt><trkpt lat="43.38639057463904" lon="11.392654229741334"><ele>431.0</ele><time>2026-04-25T08:25:41Z</time></trkpt><trkpt lat="43.386295055403124" lon="11.392762105616507"><ele>431.0</ele><time>2026-04-25T08:25:42Z</time></trkpt><trkpt lat="43.38620279075347" lon="11.392877401516479"><ele>430.25</ele><time>2026-04-25T08:25:43Z</time></trkpt><trkpt lat="43.38611045371228" lon="11.393011615095967"><ele>429.5</ele><time>2026-04-25T08:25:44Z</time></trkpt><trkpt lat="43.38601980909708" lon="11.393151867243837"><ele>428.75</ele><time>2026-04-25T08:25:45Z</time></trkpt><trkpt lat="43.38592651016733" lon="11.393286263141627"><ele>428.0</ele><time>2026-04-25T08:25:46Z</time></trkpt><trkpt lat="43.38583481024627" lon="11.393420238694526"><ele>428.0</ele><time>2026-04-25T08:25:47Z</time></trkpt><trkpt lat="43.38574326206867" lon="11.393560359702056"><ele>428.0</ele><time>2026-04-25T08:25:48Z</time></trkpt><trkpt lat="43.38565124443436" lon="11.393700507308592"><ele>428.0</ele><time>2026-04-25T08:25:49Z</time></trkpt><trkpt lat="43.385554563890935" lon="11.393840240821469"><ele>428.0</ele><time>2026-04-25T08:25:50Z</time></trkpt><trkpt lat="43.385455790493786" lon="11.393979853004614"><ele>427.25</ele><time>2026-04-25T08:25:51Z</time></trkpt><trkpt lat="43.3853620339888" lon="11.39411776544653"><ele>426.5</ele><time>2026-04-25T08:25:52Z</time></trkpt><trkpt lat="43.38527008710651" lon="11.394251005374082"><ele>425.75</ele><time>2026-04-25T08:25:53Z</time></trkpt><trkpt lat="43.38518360733794" lon="11.394375572863899"><ele>425.0</ele><time>2026-04-25T08:25:54Z</time></trkpt><trkpt lat="43.385097857780735" lon="11.394497478682565"><ele>425.0</ele><time>2026-04-25T08:25:55Z</time></trkpt><trkpt lat="43.385015026232" lon="11.394622381454518"><ele>425.0</ele><time>2026-04-25T08:25:56Z</time></trkpt><trkpt lat="43.38493316869417" lon="11.394749309307326"><ele>425.0</ele><time>2026-04-25T08:25:57Z</time></trkpt><trkpt lat="43.384851997920016" lon="11.394880660461403"><ele>425.0</ele><time>2026-04-25T08:25:58Z</time></trkpt><trkpt lat="43.38476857689838" lon="11.395005360945493"><ele>424.5</ele><time>2026-04-25T08:25:59Z</time></trkpt><trkpt lat="43.38468720177685" lon="11.39512236696295"><ele>424.0</ele><time>2026-04-25T08:26:00Z</time></trkpt><trkpt lat="43.38459709006621" lon="11.39522793098915"><ele>423.5</ele><time>2026-04-25T08:26:01Z</time></trkpt><trkpt lat="43.38449262775787" lon="11.395307277665973"><ele>423.0</ele><time>2026-04-25T08:26:02Z</time></trkpt><trkpt lat="43.384375997376914" lon="11.39537026065146"><ele>422.75</ele><time>2026-04-25T08:26:03Z</time></trkpt><trkpt lat="43.38424514647753" lon="11.395426277198325"><ele>422.5</ele><time>2026-04-25T08:26:04Z</time></trkpt><trkpt lat="43.38410628131284" lon="11.395469758852215"><ele>422.25</ele><time>2026-04-25T08:26:05Z</time></trkpt><trkpt lat="43.38396994403405" lon="11.395514963243825"><ele>422.0</ele><time>2026-04-25T08:26:06Z</time></trkpt><trkpt lat="43.383829423430505" lon="11.395572387896047"><ele>421.0</ele><time>2026-04-25T08:26:07Z</time></trkpt><trkpt lat="43.383692054895555" lon="11.395622408695113"><ele>420.0</ele><time>2026-04-25T08:26:08Z</time></trkpt><trkpt lat="43.38355620540853" lon="11.395678761731327"><ele>419.0</ele><time>2026-04-25T08:26:09Z</time></trkpt><trkpt lat="43.383431724180205" lon="11.395730913355422"><ele>418.0</ele><time>2026-04-25T08:26:10Z</time></trkpt><trkpt lat="43.38330762068019" lon="11.395783122378512"><ele>418.0</ele><time>2026-04-25T08:26:11Z</time></trkpt><trkpt lat="43.38318511233103" lon="11.395835612819328"><ele>418.0</ele><time>2026-04-25T08:26:12Z</time></trkpt><trkpt lat="43.38306538838778" lon="11.395882688884075"><ele>418.0</ele><time>2026-04-25T08:26:13Z</time></trkpt><trkpt lat="43.38294375493782" lon="11.395934352410327"><ele>418.0</ele><time>2026-04-25T08:26:14Z</time></trkpt><trkpt lat="43.382823196325326" lon="11.395979672688808"><ele>417.0</ele><time>2026-04-25T08:26:15Z</time></trkpt><trkpt lat="43.3827081434946" lon="11.396015180753501"><ele>416.0</ele><time>2026-04-25T08:26:16Z</time></trkpt><trkpt lat="43.38258946723876" lon="11.396045087643321"><ele>415.0</ele><time>2026-04-25T08:26:17Z</time></trkpt><trkpt lat="43.38246793736858" lon="11.396079697361085"><ele>414.0</ele><time>2026-04-25T08:26:18Z</time></trkpt><trkpt lat="43.38234112686526" lon="11.396113388075435"><ele>414.0</ele><time>2026-04-25T08:26:19Z</time></trkpt><trkpt lat="43.3822135730956" lon="11.396141586418642"><ele>414.0</ele><time>2026-04-25T08:26:20Z</time></trkpt><trkpt lat="43.38208711167524" lon="11.396146821531763"><ele>414.0</ele><time>2026-04-25T08:26:21Z</time></trkpt><trkpt lat="43.381954531846546" lon="11.39617072265044"><ele>414.0</ele><time>2026-04-25T08:26:22Z</time></trkpt><trkpt lat="43.38182677400844" lon="11.396208466508957"><ele>413.0</ele><time>2026-04-25T08:26:23Z</time></trkpt><trkpt lat="43.38169461300733" lon="11.39622962334902"><ele>412.0</ele><time>2026-04-25T08:26:24Z</time></trkpt><trkpt lat="43.3815617818326" lon="11.396228241431238"><ele>411.0</ele><time>2026-04-25T08:26:25Z</time></trkpt><trkpt lat="43.38143740829764" lon="11.396264411617077"><ele>410.0</ele><time>2026-04-25T08:26:26Z</time></trkpt><trkpt lat="43.381312973240846" lon="11.396248479670803"><ele>409.5</ele><time>2026-04-25T08:26:27Z</time></trkpt><trkpt lat="43.381195135379315" lon="11.396247871426379"><ele>409.0</ele><time>2026-04-25T08:26:28Z</time></trkpt><trkpt lat="43.38106811912367" lon="11.396247467231026"><ele>408.5</ele><time>2026-04-25T08:26:29Z</time></trkpt><trkpt lat="43.38092420718145" lon="11.396270224666123"><ele>408.0</ele><time>2026-04-25T08:26:30Z</time></trkpt><trkpt lat="43.38077028820168" lon="11.39627266557737"><ele>408.0</ele><time>2026-04-25T08:26:31Z</time></trkpt><trkpt lat="43.38060920100121" lon="11.396310880220138"><ele>408.0</ele><time>2026-04-25T08:26:32Z</time></trkpt><trkpt lat="43.3804616046149" lon="11.396350704393134"><ele>408.0</ele><time>2026-04-25T08:26:33Z</time></trkpt><trkpt lat="43.380320595746674" lon="11.396385029326208"><ele>406.66666666666663</ele><time>2026-04-25T08:26:34Z</time></trkpt><trkpt lat="43.380172108479485" lon="11.396421874217443"><ele>405.3333333333333</ele><time>2026-04-25T08:26:35Z</time></trkpt><trkpt lat="43.380013320012004" lon="11.396461209622231"><ele>404.0</ele><time>2026-04-25T08:26:36Z</time></trkpt><trkpt lat="43.379849796263606" lon="11.396505279435978"><ele>402.66666666666663</ele><time>2026-04-25T08:26:37Z</time></trkpt><trkpt lat="43.37967951554973" lon="11.396546962476112"><ele>401.33333333333337</ele><time>2026-04-25T08:26:38Z</time></trkpt><trkpt lat="43.37951353448389" lon="11.396590666796575"><ele>400.0</ele><time>2026-04-25T08:26:39Z</time></trkpt><trkpt lat="43.379366284407325" lon="11.3966349225148"><ele>400.0</ele><time>2026-04-25T08:26:40Z</time></trkpt><trkpt lat="43.37922489372755" lon="11.39667972462899"><ele>400.0</ele><time>2026-04-25T08:26:41Z</time></trkpt><trkpt lat="43.37908383639257" lon="11.396731038534748"><ele>400.0</ele><time>2026-04-25T08:26:42Z</time></trkpt><trkpt lat="43.37895304671322" lon="11.396771102202381"><ele>400.0</ele><time>2026-04-25T08:26:43Z</time></trkpt><trkpt lat="43.37880474240183" lon="11.39680095941874"><ele>398.0</ele><time>2026-04-25T08:26:44Z</time></trkpt><trkpt lat="43.37865263573539" lon="11.396847631823489"><ele>396.0</ele><time>2026-04-25T08:26:45Z</time></trkpt><trkpt lat="43.37849496305782" lon="11.396917380985043"><ele>394.0</ele><time>2026-04-25T08:26:46Z</time></trkpt><trkpt lat="43.378349515817355" lon="11.396963694451667"><ele>394.0</ele><time>2026-04-25T08:26:47Z</time></trkpt><trkpt lat="43.378208597523894" lon="11.39701238499047"><ele>394.0</ele><time>2026-04-25T08:26:48Z</time></trkpt><trkpt lat="43.378067856586824" lon="11.397061378951276"><ele>394.0</ele><time>2026-04-25T08:26:49Z</time></trkpt><trkpt lat="43.377931087600956" lon="11.397093676685733"><ele>394.0</ele><time>2026-04-25T08:26:50Z</time></trkpt><trkpt lat="43.37780041983561" lon="11.397108374724393"><ele>392.75</ele><time>2026-04-25T08:26:51Z</time></trkpt><trkpt lat="43.377674136021895" lon="11.397119347470488"><ele>391.5</ele><time>2026-04-25T08:26:52Z</time></trkpt><trkpt lat="43.3775502595416" lon="11.397151849198197"><ele>390.25</ele><time>2026-04-25T08:26:53Z</time></trkpt><trkpt lat="43.37741829282455" lon="11.397212977971124"><ele>389.0</ele><time>2026-04-25T08:26:53.999Z</time></trkpt><trkpt lat="43.37729148885588" lon="11.39731364977242"><ele>388.5</ele><time>2026-04-25T08:26:54.999Z</time></trkpt><trkpt lat="43.37716397625737" lon="11.397434656063794"><ele>388.0</ele><time>2026-04-25T08:26:55.999Z</time></trkpt><trkpt lat="43.37704585928564" lon="11.397548083706132"><ele>387.5</ele><time>2026-04-25T08:26:56.999Z</time></trkpt><trkpt lat="43.376940084653455" lon="11.397653685761133"><ele>387.0</ele><time>2026-04-25T08:26:57.999Z</time></trkpt><trkpt lat="43.37683250691195" lon="11.397766875118279"><ele>387.0</ele><time>2026-04-25T08:26:58.999Z</time></trkpt><trkpt lat="43.376733619426076" lon="11.397873638317789"><ele>387.0</ele><time>2026-04-25T08:26:59.999Z</time></trkpt><trkpt lat="43.37663578019367" lon="11.397973654530745"><ele>387.0</ele><time>2026-04-25T08:27:00.999Z</time></trkpt><trkpt lat="43.37651578788462" lon="11.3980591099137"><ele>387.0</ele><time>2026-04-25T08:27:01.999Z</time></trkpt><trkpt lat="43.376372431415" lon="11.398122113276616"><ele>386.0</ele><time>2026-04-25T08:27:03Z</time></trkpt><trkpt lat="43.37622566160795" lon="11.398172724091555"><ele>385.0</ele><time>2026-04-25T08:27:04Z</time></trkpt><trkpt lat="43.37609781308767" lon="11.398218833361275"><ele>384.0</ele><time>2026-04-25T08:27:05Z</time></trkpt><trkpt lat="43.375978568085316" lon="11.398260217394384"><ele>383.0</ele><time>2026-04-25T08:27:06Z</time></trkpt><trkpt lat="43.375868159639325" lon="11.398301498524443"><ele>383.0</ele><time>2026-04-25T08:27:07Z</time></trkpt><trkpt lat="43.375760281992186" lon="11.39834593667234"><ele>383.0</ele><time>2026-04-25T08:27:08Z</time></trkpt><trkpt lat="43.37565779499001" lon="11.398388921591279"><ele>383.0</ele><time>2026-04-25T08:27:09Z</time></trkpt><trkpt lat="43.37555036497367" lon="11.398437168482555"><ele>383.0</ele><time>2026-04-25T08:27:10Z</time></trkpt><trkpt lat="43.37543750324842" lon="11.39849435435894"><ele>383.0</ele><time>2026-04-25T08:27:11Z</time></trkpt><trkpt lat="43.3753192901408" lon="11.398569925141263"><ele>383.0</ele><time>2026-04-25T08:27:12Z</time></trkpt><trkpt lat="43.37519883449431" lon="11.398673695319225"><ele>383.0</ele><time>2026-04-25T08:27:13Z</time></trkpt><trkpt lat="43.37508075405709" lon="11.398791162825352"><ele>383.0</ele><time>2026-04-25T08:27:14Z</time></trkpt><trkpt lat="43.37496159878858" lon="11.398923693918153"><ele>382.75</ele><time>2026-04-25T08:27:15Z</time></trkpt><trkpt lat="43.37484256013042" lon="11.399062474537455"><ele>382.5</ele><time>2026-04-25T08:27:16Z</time></trkpt><trkpt lat="43.374729803839536" lon="11.399196595396633"><ele>382.25</ele><time>2026-04-25T08:27:17Z</time></trkpt><trkpt lat="43.374630372285154" lon="11.399309156350812"><ele>382.0</ele><time>2026-04-25T08:27:18Z</time></trkpt><trkpt lat="43.37451733751583" lon="11.399432178943425"><ele>382.25</ele><time>2026-04-25T08:27:19Z</time></trkpt><trkpt lat="43.37439989680666" lon="11.399553069570914"><ele>382.5</ele><time>2026-04-25T08:27:20Z</time></trkpt><trkpt lat="43.3742931323974" lon="11.39966104728563"><ele>382.75</ele><time>2026-04-25T08:27:21Z</time></trkpt><trkpt lat="43.37417459765233" lon="11.399762629965723"><ele>383.0</ele><time>2026-04-25T08:27:22Z</time></trkpt><trkpt lat="43.37406467861857" lon="11.399843178706387"><ele>383.0</ele><time>2026-04-25T08:27:23Z</time></trkpt><trkpt lat="43.3739647127171" lon="11.399901979791538"><ele>383.0</ele><time>2026-04-25T08:27:24Z</time></trkpt><trkpt lat="43.373854002235426" lon="11.399953747776845"><ele>383.0</ele><time>2026-04-25T08:27:25Z</time></trkpt><trkpt lat="43.37372621165936" lon="11.400008964385405"><ele>383.0</ele><time>2026-04-25T08:27:26Z</time></trkpt><trkpt lat="43.373592606865145" lon="11.400062141459449"><ele>383.0</ele><time>2026-04-25T08:27:27Z</time></trkpt><trkpt lat="43.37347190946532" lon="11.400114816775654"><ele>383.0</ele><time>2026-04-25T08:27:28Z</time></trkpt><trkpt lat="43.37335257563295" lon="11.400168097090248"><ele>383.0</ele><time>2026-04-25T08:27:29Z</time></trkpt><trkpt lat="43.373238376221835" lon="11.40022405742383"><ele>383.0</ele><time>2026-04-25T08:27:30Z</time></trkpt><trkpt lat="43.37313570099367" lon="11.400293445704806"><ele>383.0</ele><time>2026-04-25T08:27:31Z</time></trkpt><trkpt lat="43.37303825298628" lon="11.400382123986816"><ele>383.0</ele><time>2026-04-25T08:27:32Z</time></trkpt><trkpt lat="43.37294581556948" lon="11.40047943022635"><ele>383.0</ele><time>2026-04-25T08:27:33Z</time></trkpt><trkpt lat="43.372869511043724" lon="11.400572871835823"><ele>383.0</ele><time>2026-04-25T08:27:34Z</time></trkpt><trkpt lat="43.3728012552204" lon="11.400650946632675"><ele>383.0</ele><time>2026-04-25T08:27:35Z</time></trkpt><trkpt lat="43.37273281577637" lon="11.400726801182266"><ele>383.59999999999997</ele><time>2026-04-25T08:27:36Z</time></trkpt><trkpt lat="43.37267538528259" lon="11.400792277207728"><ele>384.2</ele><time>2026-04-25T08:27:37Z</time></trkpt><trkpt lat="43.3726231064777" lon="11.40085853029212"><ele>384.8</ele><time>2026-04-25T08:27:38Z</time></trkpt><trkpt lat="43.372531809866146" lon="11.400962005941942"><ele>385.4</ele><time>2026-04-25T08:27:40Z</time></trkpt><trkpt lat="43.372481754932174" lon="11.4010211040328"><ele>386.0</ele><time>2026-04-25T08:27:41Z</time></trkpt><trkpt lat="43.37237305626422" lon="11.401127197363426"><ele>386.0</ele><time>2026-04-25T08:27:43Z</time></trkpt><trkpt lat="43.37230295444053" lon="11.401190257821892"><ele>386.0</ele><time>2026-04-25T08:27:44Z</time></trkpt><trkpt lat="43.37222675286027" lon="11.401262249338378"><ele>386.0</ele><time>2026-04-25T08:27:45Z</time></trkpt><trkpt lat="43.37214716233774" lon="11.401342865806885"><ele>386.0</ele><time>2026-04-25T08:27:46Z</time></trkpt><trkpt lat="43.37207123236723" lon="11.401417192155424"><ele>386.0</ele><time>2026-04-25T08:27:47Z</time></trkpt><trkpt lat="43.372000143859296" lon="11.401494051684878"><ele>385.0</ele><time>2026-04-25T08:27:48Z</time></trkpt><trkpt lat="43.371932621337514" lon="11.401565941207537"><ele>384.0</ele><time>2026-04-25T08:27:49Z</time></trkpt><trkpt lat="43.37188020752885" lon="11.401657610943827"><ele>383.0</ele><time>2026-04-25T08:27:50Z</time></trkpt><trkpt lat="43.37184701090736" lon="11.401774484510002"><ele>382.0</ele><time>2026-04-25T08:27:51Z</time></trkpt><trkpt lat="43.37182531370621" lon="11.401909767091952"><ele>381.0</ele><time>2026-04-25T08:27:52Z</time></trkpt><trkpt lat="43.371820498209246" lon="11.402052107433484"><ele>380.5</ele><time>2026-04-25T08:27:53Z</time></trkpt><trkpt lat="43.37181003171625" lon="11.402201916723833"><ele>380.0</ele><time>2026-04-25T08:27:54Z</time></trkpt><trkpt lat="43.37177985165215" lon="11.402355224426222"><ele>379.5</ele><time>2026-04-25T08:27:55Z</time></trkpt><trkpt lat="43.37171433636276" lon="11.402507025988038"><ele>379.0</ele><time>2026-04-25T08:27:56Z</time></trkpt><trkpt lat="43.37163890905483" lon="11.402664912412215"><ele>379.0</ele><time>2026-04-25T08:27:57Z</time></trkpt><trkpt lat="43.371578686332306" lon="11.402812235802015"><ele>379.0</ele><time>2026-04-25T08:27:58Z</time></trkpt><trkpt lat="43.3715126866524" lon="11.402959239412533"><ele>379.0</ele><time>2026-04-25T08:27:59Z</time></trkpt><trkpt lat="43.37145104834129" lon="11.403108534240072"><ele>379.0</ele><time>2026-04-25T08:28:00Z</time></trkpt><trkpt lat="43.371388111548676" lon="11.403248134247821"><ele>376.25</ele><time>2026-04-25T08:28:01Z</time></trkpt><trkpt lat="43.371328248023836" lon="11.403386617366893"><ele>373.5</ele><time>2026-04-25T08:28:02Z</time></trkpt><trkpt lat="43.37126952876955" lon="11.40352409516553"><ele>370.75</ele><time>2026-04-25T08:28:03Z</time></trkpt><trkpt lat="43.37120973173828" lon="11.403663760877194"><ele>368.0</ele><time>2026-04-25T08:28:04Z</time></trkpt><trkpt lat="43.37115265666244" lon="11.40379845693612"><ele>367.59999999999997</ele><time>2026-04-25T08:28:05Z</time></trkpt><trkpt lat="43.371096258175655" lon="11.403931605307513"><ele>367.2</ele><time>2026-04-25T08:28:06Z</time></trkpt><trkpt lat="43.371049075273405" lon="11.40405275197846"><ele>366.8</ele><time>2026-04-25T08:28:07Z</time></trkpt><trkpt lat="43.3709990508632" lon="11.404167519646752"><ele>366.4</ele><time>2026-04-25T08:28:08Z</time></trkpt><trkpt lat="43.370938957258126" lon="11.404271594509073"><ele>366.0</ele><time>2026-04-25T08:28:09Z</time></trkpt><trkpt lat="43.37086838483725" lon="11.40434736301206"><ele>366.0</ele><time>2026-04-25T08:28:10Z</time></trkpt><trkpt lat="43.370776266704226" lon="11.404416747641168"><ele>366.0</ele><time>2026-04-25T08:28:11Z</time></trkpt><trkpt lat="43.37066635907793" lon="11.404450412935331"><ele>366.0</ele><time>2026-04-25T08:28:12Z</time></trkpt><trkpt lat="43.370545430750866" lon="11.404473150121046"><ele>366.0</ele><time>2026-04-25T08:28:13Z</time></trkpt><trkpt lat="43.37041859132934" lon="11.40448696724871"><ele>364.75</ele><time>2026-04-25T08:28:14Z</time></trkpt><trkpt lat="43.37028032153927" lon="11.404480979208973"><ele>363.5</ele><time>2026-04-25T08:28:15Z</time></trkpt><trkpt lat="43.370133854130394" lon="11.404472887343147"><ele>362.25</ele><time>2026-04-25T08:28:16Z</time></trkpt><trkpt lat="43.370004428268125" lon="11.404465736973954"><ele>361.0</ele><time>2026-04-25T08:28:17Z</time></trkpt><trkpt lat="43.36987021729552" lon="11.404458322231479"><ele>361.0</ele><time>2026-04-25T08:28:18Z</time></trkpt><trkpt lat="43.36973811000169" lon="11.404451023707459"><ele>361.0</ele><time>2026-04-25T08:28:19Z</time></trkpt><trkpt lat="43.369599082937356" lon="11.404446728207697"><ele>361.0</ele><time>2026-04-25T08:28:20Z</time></trkpt><trkpt lat="43.36946394860666" lon="11.404441073471467"><ele>361.0</ele><time>2026-04-25T08:28:21Z</time></trkpt><trkpt lat="43.36933050471816" lon="11.404435346795264"><ele>359.5</ele><time>2026-04-25T08:28:22Z</time></trkpt><trkpt lat="43.36920658471754" lon="11.404458789085025"><ele>358.0</ele><time>2026-04-25T08:28:23Z</time></trkpt><trkpt lat="43.369082094741" lon="11.404471421024992"><ele>356.5</ele><time>2026-04-25T08:28:24Z</time></trkpt><trkpt lat="43.36896529985416" lon="11.404487801605661"><ele>355.0</ele><time>2026-04-25T08:28:25Z</time></trkpt><trkpt lat="43.368847084659265" lon="11.404496969474707"><ele>354.25</ele><time>2026-04-25T08:28:26Z</time></trkpt><trkpt lat="43.36873016712493" lon="11.404497015148308"><ele>353.5</ele><time>2026-04-25T08:28:27Z</time></trkpt><trkpt lat="43.368615289182785" lon="11.404488000512139"><ele>352.75</ele><time>2026-04-25T08:28:28Z</time></trkpt><trkpt lat="43.36849844989347" lon="11.404467638319428"><ele>352.0</ele><time>2026-04-25T08:28:29Z</time></trkpt><trkpt lat="43.3683804908965" lon="11.404445178145842"><ele>352.0</ele><time>2026-04-25T08:28:30Z</time></trkpt><trkpt lat="43.36825871887913" lon="11.404427052004241"><ele>352.0</ele><time>2026-04-25T08:28:31Z</time></trkpt><trkpt lat="43.368137406756716" lon="11.404406585552966"><ele>352.0</ele><time>2026-04-25T08:28:32Z</time></trkpt><trkpt lat="43.36802054356552" lon="11.404380134954339"><ele>352.0</ele><time>2026-04-25T08:28:33Z</time></trkpt><trkpt lat="43.36790445739157" lon="11.404360254698963"><ele>351.40000000000003</ele><time>2026-04-25T08:28:34Z</time></trkpt><trkpt lat="43.36779377605656" lon="11.404343533700938"><ele>350.8</ele><time>2026-04-25T08:28:35Z</time></trkpt><trkpt lat="43.36768420956466" lon="11.404323585731255"><ele>350.2</ele><time>2026-04-25T08:28:36Z</time></trkpt><trkpt lat="43.36757826563616" lon="11.404307079550183"><ele>349.6</ele><time>2026-04-25T08:28:37Z</time></trkpt><trkpt lat="43.36747233296474" lon="11.404287185151988"><ele>349.0</ele><time>2026-04-25T08:28:38Z</time></trkpt><trkpt lat="43.36735763059362" lon="11.404264947246482"><ele>349.0</ele><time>2026-04-25T08:28:39Z</time></trkpt><trkpt lat="43.367238872365526" lon="11.404251482503907"><ele>349.0</ele><time>2026-04-25T08:28:40Z</time></trkpt><trkpt lat="43.36712564329761" lon="11.404253733248877"><ele>349.0</ele><time>2026-04-25T08:28:41Z</time></trkpt><trkpt lat="43.3670049895424" lon="11.40427479938861"><ele>349.0</ele><time>2026-04-25T08:28:42Z</time></trkpt><trkpt lat="43.366883499067114" lon="11.404326066413205"><ele>349.0</ele><time>2026-04-25T08:28:43Z</time></trkpt><trkpt lat="43.36676340729926" lon="11.404404156620581"><ele>349.0</ele><time>2026-04-25T08:28:44Z</time></trkpt><trkpt lat="43.366647070814544" lon="11.404510618414045"><ele>349.0</ele><time>2026-04-25T08:28:45Z</time></trkpt><trkpt lat="43.366542217300584" lon="11.404640512522526"><ele>349.0</ele><time>2026-04-25T08:28:45.999Z</time></trkpt><trkpt lat="43.3664639128926" lon="11.404774418154686"><ele>348.75</ele><time>2026-04-25T08:28:46.999Z</time></trkpt><trkpt lat="43.36639642979132" lon="11.404918489367628"><ele>348.5</ele><time>2026-04-25T08:28:47.999Z</time></trkpt><trkpt lat="43.36633672964766" lon="11.405072121444617"><ele>348.25</ele><time>2026-04-25T08:28:48.999Z</time></trkpt><trkpt lat="43.36627551607123" lon="11.405235505697815"><ele>348.0</ele><time>2026-04-25T08:28:49.999Z</time></trkpt><trkpt lat="43.36621433103623" lon="11.405390292713417"><ele>347.2</ele><time>2026-04-25T08:28:50.999Z</time></trkpt><trkpt lat="43.36615726713617" lon="11.405529119342834"><ele>346.4</ele><time>2026-04-25T08:28:51.999Z</time></trkpt><trkpt lat="43.36610482395381" lon="11.405657136264649"><ele>345.59999999999997</ele><time>2026-04-25T08:28:52.999Z</time></trkpt><trkpt lat="43.366057627173305" lon="11.405776932078922"><ele>344.79999999999995</ele><time>2026-04-25T08:28:53.999Z</time></trkpt><trkpt lat="43.36601331789535" lon="11.405888192417583"><ele>344.0</ele><time>2026-04-25T08:28:54.999Z</time></trkpt><trkpt lat="43.36597091705684" lon="11.405990448872988"><ele>344.0</ele><time>2026-04-25T08:28:55.999Z</time></trkpt><trkpt lat="43.3659267168521" lon="11.406085380589333"><ele>344.0</ele><time>2026-04-25T08:28:56.999Z</time></trkpt><trkpt lat="43.365868849625926" lon="11.406169199943278"><ele>344.0</ele><time>2026-04-25T08:28:57.999Z</time></trkpt><trkpt lat="43.36578055536062" lon="11.406198973443225"><ele>344.0</ele><time>2026-04-25T08:28:58.999Z</time></trkpt><trkpt lat="43.365688972883454" lon="11.406241199535875"><ele>344.0</ele><time>2026-04-25T08:28:59.999Z</time></trkpt><trkpt lat="43.36558296633998" lon="11.40628480443539"><ele>343.0</ele><time>2026-04-25T08:29:00.999Z</time></trkpt><trkpt lat="43.365471793668085" lon="11.406347307729336"><ele>342.0</ele><time>2026-04-25T08:29:01.999Z</time></trkpt><trkpt lat="43.36535735646772" lon="11.406390072268593"><ele>341.0</ele><time>2026-04-25T08:29:02.999Z</time></trkpt><trkpt lat="43.36525599186299" lon="11.406434593687381"><ele>340.0</ele><time>2026-04-25T08:29:03.999Z</time></trkpt><trkpt lat="43.365162943823854" lon="11.40645304328061"><ele>339.0</ele><time>2026-04-25T08:29:04.999Z</time></trkpt><trkpt lat="43.365087322654034" lon="11.406491399082046"><ele>339.0</ele><time>2026-04-25T08:29:05.999Z</time></trkpt><trkpt lat="43.36500320192115" lon="11.406477033749836"><ele>339.0</ele><time>2026-04-25T08:29:06.999Z</time></trkpt><trkpt lat="43.364941143807854" lon="11.40639994812382"><ele>339.0</ele><time>2026-04-25T08:29:07.999Z</time></trkpt><trkpt lat="43.36489237123369" lon="11.40632330995729"><ele>339.0</ele><time>2026-04-25T08:29:09Z</time></trkpt><trkpt lat="43.36482308358451" lon="11.406237471693414"><ele>339.0</ele><time>2026-04-25T08:29:10Z</time></trkpt><trkpt lat="43.36476937995093" lon="11.406166637294062"><ele>339.0</ele><time>2026-04-25T08:29:11Z</time></trkpt><trkpt lat="43.36471699691885" lon="11.406092243805013"><ele>337.3333333333333</ele><time>2026-04-25T08:29:12Z</time></trkpt><trkpt lat="43.36466870915514" lon="11.406030910109244"><ele>335.6666666666667</ele><time>2026-04-25T08:29:13Z</time></trkpt><trkpt lat="43.36459679006292" lon="11.406005822376855"><ele>334.0</ele><time>2026-04-25T08:29:14Z</time></trkpt><trkpt lat="43.36452371802249" lon="11.405989918548634"><ele>332.33333333333337</ele><time>2026-04-25T08:29:15Z</time></trkpt><trkpt lat="43.364446907061556" lon="11.405985041740243"><ele>330.6666666666667</ele><time>2026-04-25T08:29:16Z</time></trkpt><trkpt lat="43.36436981929868" lon="11.406054052053106"><ele>329.0</ele><time>2026-04-25T08:29:17Z</time></trkpt><trkpt lat="43.364277486278255" lon="11.406115893050677"><ele>329.0</ele><time>2026-04-25T08:29:18Z</time></trkpt><trkpt lat="43.364171909249954" lon="11.406179133772703"><ele>329.0</ele><time>2026-04-25T08:29:19Z</time></trkpt><trkpt lat="43.364060719399035" lon="11.406262279259545"><ele>329.0</ele><time>2026-04-25T08:29:20Z</time></trkpt><trkpt lat="43.363946163661524" lon="11.406343175101165"><ele>329.0</ele><time>2026-04-25T08:29:21Z</time></trkpt><trkpt lat="43.36383306030246" lon="11.406421624704912"><ele>326.5</ele><time>2026-04-25T08:29:22Z</time></trkpt><trkpt lat="43.36372154813871" lon="11.406501962573474"><ele>324.0</ele><time>2026-04-25T08:29:23Z</time></trkpt><trkpt lat="43.36359812427956" lon="11.406555709894445"><ele>321.5</ele><time>2026-04-25T08:29:24Z</time></trkpt><trkpt lat="43.363480316150394" lon="11.406630842072913"><ele>319.0</ele><time>2026-04-25T08:29:25Z</time></trkpt><trkpt lat="43.36336928515352" lon="11.406725058856306"><ele>319.0</ele><time>2026-04-25T08:29:26Z</time></trkpt><trkpt lat="43.36325384751191" lon="11.406796779508744"><ele>319.0</ele><time>2026-04-25T08:29:27Z</time></trkpt><trkpt lat="43.36314748580722" lon="11.406858858766704"><ele>319.0</ele><time>2026-04-25T08:29:28Z</time></trkpt><trkpt lat="43.36303587300759" lon="11.406920576895612"><ele>319.0</ele><time>2026-04-25T08:29:29Z</time></trkpt><trkpt lat="43.36291758717079" lon="11.406984342853924"><ele>317.75</ele><time>2026-04-25T08:29:30Z</time></trkpt><trkpt lat="43.36279325744495" lon="11.407048824710097"><ele>316.5</ele><time>2026-04-25T08:29:31Z</time></trkpt><trkpt lat="43.36266919308027" lon="11.407111430193394"><ele>315.25</ele><time>2026-04-25T08:29:32Z</time></trkpt><trkpt lat="43.362543729116446" lon="11.407160124382647"><ele>314.0</ele><time>2026-04-25T08:29:33Z</time></trkpt><trkpt lat="43.36242598797556" lon="11.407204739352636"><ele>314.0</ele><time>2026-04-25T08:29:34Z</time></trkpt><trkpt lat="43.36230682691781" lon="11.407242474221656"><ele>314.0</ele><time>2026-04-25T08:29:35Z</time></trkpt><trkpt lat="43.362189943539946" lon="11.407275063649145"><ele>314.0</ele><time>2026-04-25T08:29:36Z</time></trkpt><trkpt lat="43.36207112180292" lon="11.40730572860308"><ele>314.0</ele><time>2026-04-25T08:29:37Z</time></trkpt><trkpt lat="43.36195752830514" lon="11.407339751770795"><ele>312.0</ele><time>2026-04-25T08:29:38Z</time></trkpt><trkpt lat="43.36184658148362" lon="11.407377112890696"><ele>310.0</ele><time>2026-04-25T08:29:39Z</time></trkpt><trkpt lat="43.36173250757774" lon="11.407389725000366"><ele>308.0</ele><time>2026-04-25T08:29:40Z</time></trkpt><trkpt lat="43.361616167113844" lon="11.407420958772091"><ele>306.0</ele><time>2026-04-25T08:29:41Z</time></trkpt><trkpt lat="43.36149720737433" lon="11.407472821064522"><ele>306.0</ele><time>2026-04-25T08:29:42Z</time></trkpt><trkpt lat="43.36137200746839" lon="11.407497497289834"><ele>306.0</ele><time>2026-04-25T08:29:43Z</time></trkpt><trkpt lat="43.361242063744946" lon="11.407496748499721"><ele>306.0</ele><time>2026-04-25T08:29:44Z</time></trkpt><trkpt lat="43.36111505472778" lon="11.407512211802159"><ele>306.0</ele><time>2026-04-25T08:29:45Z</time></trkpt><trkpt lat="43.36098709143677" lon="11.407525337557718"><ele>304.40000000000003</ele><time>2026-04-25T08:29:46Z</time></trkpt><trkpt lat="43.360869533719885" lon="11.407536032609292"><ele>302.8</ele><time>2026-04-25T08:29:47Z</time></trkpt><trkpt lat="43.3607564767839" lon="11.40753400690512"><ele>301.20000000000005</ele><time>2026-04-25T08:29:48Z</time></trkpt><trkpt lat="43.36065028857023" lon="11.407523385363906"><ele>299.6</ele><time>2026-04-25T08:29:49Z</time></trkpt><trkpt lat="43.360545300530056" lon="11.407508636775662"><ele>298.0</ele><time>2026-04-25T08:29:50Z</time></trkpt><trkpt lat="43.36044676307235" lon="11.407493598518576"><ele>297.5</ele><time>2026-04-25T08:29:51Z</time></trkpt><trkpt lat="43.360349488481006" lon="11.407494449763323"><ele>297.0</ele><time>2026-04-25T08:29:52Z</time></trkpt><trkpt lat="43.36026492188638" lon="11.407481991358313"><ele>296.5</ele><time>2026-04-25T08:29:53Z</time></trkpt><trkpt lat="43.36018399150992" lon="11.407465620556081"><ele>296.0</ele><time>2026-04-25T08:29:54Z</time></trkpt><trkpt lat="43.360104622467226" lon="11.407433728236294"><ele>295.5</ele><time>2026-04-25T08:29:55Z</time></trkpt><trkpt lat="43.3600281961185" lon="11.407410744473388"><ele>295.0</ele><time>2026-04-25T08:29:56Z</time></trkpt><trkpt lat="43.35995076530208" lon="11.407386990880989"><ele>295.00000000000006</ele><time>2026-04-25T08:29:57Z</time></trkpt><trkpt lat="43.35987623420527" lon="11.407376704693911"><ele>295.0</ele><time>2026-04-25T08:29:58Z</time></trkpt><trkpt lat="43.359801384261786" lon="11.407375107723581"><ele>295.0</ele><time>2026-04-25T08:29:59Z</time></trkpt><trkpt lat="43.35973063064468" lon="11.40739726192671"><ele>295.0</ele><time>2026-04-25T08:30:00Z</time></trkpt><trkpt lat="43.359665547489215" lon="11.407440741417334"><ele>295.0</ele><time>2026-04-25T08:30:01Z</time></trkpt><trkpt lat="43.35960951709606" lon="11.407506094677693"><ele>295.00000000000006</ele><time>2026-04-25T08:30:02Z</time></trkpt><trkpt lat="43.35955711792438" lon="11.407585630051399"><ele>295.0</ele><time>2026-04-25T08:30:03Z</time></trkpt><trkpt lat="43.35950210521677" lon="11.407672195392607"><ele>295.16666666666663</ele><time>2026-04-25T08:30:04Z</time></trkpt><trkpt lat="43.35946214845237" lon="11.407767516771615"><ele>295.3333333333333</ele><time>2026-04-25T08:30:05Z</time></trkpt><trkpt lat="43.3594447681361" lon="11.407867345516058"><ele>295.5</ele><time>2026-04-25T08:30:06Z</time></trkpt><trkpt lat="43.35944320058827" lon="11.407968480298022"><ele>295.6666666666667</ele><time>2026-04-25T08:30:07Z</time></trkpt><trkpt lat="43.35945601900809" lon="11.40807247644612"><ele>295.83333333333337</ele><time>2026-04-25T08:30:08Z</time></trkpt><trkpt lat="43.35948914532419" lon="11.408178996679167"><ele>296.0</ele><time>2026-04-25T08:30:09Z</time></trkpt><trkpt lat="43.35954298797081" lon="11.408274879306042"><ele>294.6</ele><time>2026-04-25T08:30:10Z</time></trkpt><trkpt lat="43.35961138038447" lon="11.408348881960674"><ele>293.20000000000005</ele><time>2026-04-25T08:30:11Z</time></trkpt><trkpt lat="43.35969280010155" lon="11.408412451935744"><ele>291.79999999999995</ele><time>2026-04-25T08:30:12Z</time></trkpt><trkpt lat="43.35978370495686" lon="11.40847377290094"><ele>290.4</ele><time>2026-04-25T08:30:13Z</time></trkpt><trkpt lat="43.359879772637704" lon="11.408546824732417"><ele>289.0</ele><time>2026-04-25T08:30:14Z</time></trkpt><trkpt lat="43.35997483378396" lon="11.408608988697129"><ele>289.0</ele><time>2026-04-25T08:30:15Z</time></trkpt><trkpt lat="43.36005887198852" lon="11.408674170620953"><ele>289.0</ele><time>2026-04-25T08:30:16Z</time></trkpt><trkpt lat="43.3601421879192" lon="11.408736688817116"><ele>289.0</ele><time>2026-04-25T08:30:17Z</time></trkpt><trkpt lat="43.36022743714309" lon="11.408815318082878"><ele>289.0</ele><time>2026-04-25T08:30:18Z</time></trkpt><trkpt lat="43.36030287526597" lon="11.40889901572275"><ele>289.0</ele><time>2026-04-25T08:30:19Z</time></trkpt><trkpt lat="43.360372420881916" lon="11.408991307334434"><ele>288.59999999999997</ele><time>2026-04-25T08:30:20Z</time></trkpt><trkpt lat="43.360435568959204" lon="11.409099295064383"><ele>288.2</ele><time>2026-04-25T08:30:21Z</time></trkpt><trkpt lat="43.360482925532246" lon="11.409209397701334"><ele>287.79999999999995</ele><time>2026-04-25T08:30:22Z</time></trkpt><trkpt lat="43.3605258845768" lon="11.40930480347468"><ele>287.4</ele><time>2026-04-25T08:30:23Z</time></trkpt><trkpt lat="43.3605719792168" lon="11.4094065288307"><ele>287.0</ele><time>2026-04-25T08:30:24Z</time></trkpt><trkpt lat="43.36061853439094" lon="11.409510325344323"><ele>287.0</ele><time>2026-04-25T08:30:25Z</time></trkpt><trkpt lat="43.360670085442784" lon="11.409630211508922"><ele>287.0</ele><time>2026-04-25T08:30:26Z</time></trkpt><trkpt lat="43.3607198159826" lon="11.409753835896286"><ele>287.0</ele><time>2026-04-25T08:30:27Z</time></trkpt><trkpt lat="43.36075936781821" lon="11.409862328752702"><ele>287.0</ele><time>2026-04-25T08:30:28Z</time></trkpt><trkpt lat="43.360795671431845" lon="11.409952919137924"><ele>287.0</ele><time>2026-04-25T08:30:29Z</time></trkpt><trkpt lat="43.36083008754989" lon="11.41005371806275"><ele>287.0</ele><time>2026-04-25T08:30:29.999Z</time></trkpt><trkpt lat="43.360843126235125" lon="11.410141768620695"><ele>286.0</ele><time>2026-04-25T08:30:30.999Z</time></trkpt><trkpt lat="43.360853581844275" lon="11.410260549110355"><ele>285.0</ele><time>2026-04-25T08:30:31.999Z</time></trkpt><trkpt lat="43.36085002464329" lon="11.410373676654672"><ele>284.0</ele><time>2026-04-25T08:30:32.999Z</time></trkpt><trkpt lat="43.36082938584516" lon="11.410476559209268"><ele>283.0</ele><time>2026-04-25T08:30:33.999Z</time></trkpt><trkpt lat="43.360790617781" lon="11.410572747344334"><ele>282.0</ele><time>2026-04-25T08:30:34.999Z</time></trkpt><trkpt lat="43.36074381052294" lon="11.410661102733519"><ele>281.0</ele><time>2026-04-25T08:30:35.999Z</time></trkpt><trkpt lat="43.36069202830457" lon="11.410729520083748"><ele>280.5</ele><time>2026-04-25T08:30:36.999Z</time></trkpt><trkpt lat="43.36061916698599" lon="11.410740795296142"><ele>280.0</ele><time>2026-04-25T08:30:37.999Z</time></trkpt><trkpt lat="43.36056473145289" lon="11.41079809170817"><ele>279.5</ele><time>2026-04-25T08:30:38.999Z</time></trkpt><trkpt lat="43.36049363111428" lon="11.410823207044533"><ele>279.0</ele><time>2026-04-25T08:30:39.999Z</time></trkpt><trkpt lat="43.36040483048658" lon="11.410865251982976"><ele>278.5</ele><time>2026-04-25T08:30:40.999Z</time></trkpt><trkpt lat="43.3603183930033" lon="11.410915943802461"><ele>278.0</ele><time>2026-04-25T08:30:41.999Z</time></trkpt><trkpt lat="43.3602403204687" lon="11.4109503989185"><ele>276.6666666666667</ele><time>2026-04-25T08:30:42.999Z</time></trkpt><trkpt lat="43.360164098451484" lon="11.410989796848897"><ele>275.33333333333337</ele><time>2026-04-25T08:30:43.999Z</time></trkpt><trkpt lat="43.360087631440614" lon="11.411034311385178"><ele>274.0</ele><time>2026-04-25T08:30:44.999Z</time></trkpt><trkpt lat="43.36002112334985" lon="11.41110139034275"><ele>272.6666666666667</ele><time>2026-04-25T08:30:45.999Z</time></trkpt><trkpt lat="43.359970016587056" lon="11.411185365838689"><ele>271.3333333333333</ele><time>2026-04-25T08:30:46.999Z</time></trkpt><trkpt lat="43.35993671638098" lon="11.411285605478712"><ele>270.0</ele><time>2026-04-25T08:30:47.999Z</time></trkpt><trkpt lat="43.35991171320863" lon="11.411393591422252"><ele>270.0</ele><time>2026-04-25T08:30:48.999Z</time></trkpt><trkpt lat="43.35989805808612" lon="11.411496068715453"><ele>270.0</ele><time>2026-04-25T08:30:49.999Z</time></trkpt><trkpt lat="43.35990560831351" lon="11.411604095064511"><ele>270.0</ele><time>2026-04-25T08:30:50.999Z</time></trkpt><trkpt lat="43.359924617931746" lon="11.411695272422586"><ele>270.0</ele><time>2026-04-25T08:30:51.999Z</time></trkpt><trkpt lat="43.35994715586192" lon="11.411782322058238"><ele>270.0</ele><time>2026-04-25T08:30:52.999Z</time></trkpt><trkpt lat="43.359967321175375" lon="11.41191341687327"><ele>270.0</ele><time>2026-04-25T08:30:54.999Z</time></trkpt><trkpt lat="43.35989347776309" lon="11.41203937928157"><ele>270.0</ele><time>2026-04-25T08:30:56.999Z</time></trkpt><trkpt lat="43.359831145598854" lon="11.412055033249525"><ele>270.0</ele><time>2026-04-25T08:30:57.999Z</time></trkpt><trkpt lat="43.3597677466416" lon="11.412034029333116"><ele>270.0</ele><time>2026-04-25T08:30:58.999Z</time></trkpt><trkpt lat="43.359691457482796" lon="11.411896588576505"><ele>270.0</ele><time>2026-04-25T08:31:00.999Z</time></trkpt><trkpt lat="43.35965849384744" lon="11.411798059764614"><ele>270.0</ele><time>2026-04-25T08:31:01.999Z</time></trkpt><trkpt lat="43.359636644757316" lon="11.411680196754004"><ele>270.0</ele><time>2026-04-25T08:31:02.999Z</time></trkpt><trkpt lat="43.35960111252963" lon="11.411549521331546"><ele>269.0</ele><time>2026-04-25T08:31:03.999Z</time></trkpt><trkpt lat="43.359592829798025" lon="11.411423206654653"><ele>268.0</ele><time>2026-04-25T08:31:04.999Z</time></trkpt><trkpt lat="43.35957242216564" lon="11.41132085213529"><ele>267.0</ele><time>2026-04-25T08:31:05.999Z</time></trkpt><trkpt lat="43.35953460074828" lon="11.411223919117113"><ele>266.0</ele><time>2026-04-25T08:31:06.999Z</time></trkpt><trkpt lat="43.359499730828546" lon="11.411139222659331"><ele>265.0</ele><time>2026-04-25T08:31:07.999Z</time></trkpt><trkpt lat="43.35947662210471" lon="11.411046932212802"><ele>264.0</ele><time>2026-04-25T08:31:08.999Z</time></trkpt><trkpt lat="43.35940205055784" lon="11.410954693508357"><ele>264.0</ele><time>2026-04-25T08:31:10.999Z</time></trkpt><trkpt lat="43.35934023050102" lon="11.410919574961536"><ele>264.0</ele><time>2026-04-25T08:31:11.999Z</time></trkpt><trkpt lat="43.35927406536678" lon="11.410892137640063"><ele>264.0</ele><time>2026-04-25T08:31:12.999Z</time></trkpt><trkpt lat="43.35919264347652" lon="11.410903256175192"><ele>264.0</ele><time>2026-04-25T08:31:13.999Z</time></trkpt><trkpt lat="43.35912593377394" lon="11.410970307764343"><ele>264.0</ele><time>2026-04-25T08:31:15Z</time></trkpt><trkpt lat="43.35907141743598" lon="11.411048660518293"><ele>264.0</ele><time>2026-04-25T08:31:16Z</time></trkpt><trkpt lat="43.35904082340049" lon="11.411140054253035"><ele>264.0</ele><time>2026-04-25T08:31:17Z</time></trkpt><trkpt lat="43.359011865187156" lon="11.411264954069233"><ele>264.0</ele><time>2026-04-25T08:31:18Z</time></trkpt><trkpt lat="43.35899235504625" lon="11.41140603882183"><ele>264.0</ele><time>2026-04-25T08:31:19Z</time></trkpt><trkpt lat="43.35898560540879" lon="11.41155628628066"><ele>264.0</ele><time>2026-04-25T08:31:20Z</time></trkpt><trkpt lat="43.35898712089518" lon="11.411682032818282"><ele>264.0</ele><time>2026-04-25T08:31:21Z</time></trkpt><trkpt lat="43.358979539053536" lon="11.41180161243569"><ele>263.1428571428571</ele><time>2026-04-25T08:31:22Z</time></trkpt><trkpt lat="43.358984288068235" lon="11.411918712563587"><ele>262.2857142857143</ele><time>2026-04-25T08:31:23Z</time></trkpt><trkpt lat="43.358983641366656" lon="11.41202362343804"><ele>261.42857142857144</ele><time>2026-04-25T08:31:24Z</time></trkpt><trkpt lat="43.358965620760074" lon="11.412120338210084"><ele>260.57142857142856</ele><time>2026-04-25T08:31:25Z</time></trkpt><trkpt lat="43.358917919480966" lon="11.412198774935133"><ele>259.7142857142857</ele><time>2026-04-25T08:31:26Z</time></trkpt><trkpt lat="43.358862443052224" lon="11.41225313803421"><ele>258.85714285714283</ele><time>2026-04-25T08:31:27Z</time></trkpt><trkpt lat="43.35880022326393" lon="11.412282743766799"><ele>258.0</ele><time>2026-04-25T08:31:28Z</time></trkpt><trkpt lat="43.358724737395555" lon="11.412337341591964"><ele>255.8</ele><time>2026-04-25T08:31:29Z</time></trkpt><trkpt lat="43.35863634606477" lon="11.412381498294566"><ele>253.60000000000002</ele><time>2026-04-25T08:31:30Z</time></trkpt><trkpt lat="43.35854028770276" lon="11.41242181856563"><ele>251.39999999999998</ele><time>2026-04-25T08:31:31Z</time></trkpt><trkpt lat="43.35843363095798" lon="11.41242581665231"><ele>249.2</ele><time>2026-04-25T08:31:32Z</time></trkpt><trkpt lat="43.35833841823952" lon="11.412433034385868"><ele>247.0</ele><time>2026-04-25T08:31:33Z</time></trkpt><trkpt lat="43.35824835743875" lon="11.412430756553936"><ele>246.99999999999997</ele><time>2026-04-25T08:31:34Z</time></trkpt><trkpt lat="43.358155060384355" lon="11.412426757945372"><ele>247.0</ele><time>2026-04-25T08:31:35Z</time></trkpt><trkpt lat="43.35806429174319" lon="11.412424001959955"><ele>247.0</ele><time>2026-04-25T08:31:36Z</time></trkpt><trkpt lat="43.357973847613515" lon="11.412398675025578"><ele>247.0</ele><time>2026-04-25T08:31:37Z</time></trkpt><trkpt lat="43.3578952805901" lon="11.412355381412139"><ele>246.99999999999997</ele><time>2026-04-25T08:31:38Z</time></trkpt><trkpt lat="43.35781747756094" lon="11.412311196503643"><ele>247.0</ele><time>2026-04-25T08:31:39Z</time></trkpt><trkpt lat="43.35773714264239" lon="11.412276542461855"><ele>246.16666666666666</ele><time>2026-04-25T08:31:40Z</time></trkpt><trkpt lat="43.35765485982264" lon="11.412254171671913"><ele>245.33333333333331</ele><time>2026-04-25T08:31:41Z</time></trkpt><trkpt lat="43.35757140761012" lon="11.41225217817533"><ele>244.5</ele><time>2026-04-25T08:31:42Z</time></trkpt><trkpt lat="43.357488206193175" lon="11.412264133184115"><ele>243.66666666666669</ele><time>2026-04-25T08:31:43Z</time></trkpt><trkpt lat="43.357413665449805" lon="11.412305433255268"><ele>242.83333333333334</ele><time>2026-04-25T08:31:44Z</time></trkpt><trkpt lat="43.35734652537138" lon="11.412348726219738"><ele>242.0</ele><time>2026-04-25T08:31:45Z</time></trkpt><trkpt lat="43.357263226496016" lon="11.412426278987793"><ele>241.16666666666669</ele><time>2026-04-25T08:31:47Z</time></trkpt><trkpt lat="43.35720033770914" lon="11.412465649131997"><ele>240.33333333333334</ele><time>2026-04-25T08:31:51Z</time></trkpt><trkpt lat="43.35714094060686" lon="11.41258584016861"><ele>239.5</ele><time>2026-04-25T08:39:16Z</time></trkpt><trkpt lat="43.35710925895151" lon="11.4126810545734"><ele>238.66666666666669</ele><time>2026-04-25T08:39:17Z</time></trkpt><trkpt lat="43.357061919610715" lon="11.412786312601355"><ele>237.83333333333334</ele><time>2026-04-25T08:39:18Z</time></trkpt><trkpt lat="43.35701297347101" lon="11.41290489504291"><ele>237.0</ele><time>2026-04-25T08:39:19Z</time></trkpt><trkpt lat="43.356970065744946" lon="11.413027740101368"><ele>236.39999999999998</ele><time>2026-04-25T08:39:20Z</time></trkpt><trkpt lat="43.3569341265964" lon="11.413142651643188"><ele>235.79999999999998</ele><time>2026-04-25T08:39:21Z</time></trkpt><trkpt lat="43.356899249872534" lon="11.413256188916781"><ele>235.2</ele><time>2026-04-25T08:39:22Z</time></trkpt><trkpt lat="43.356863129562825" lon="11.41336969027939"><ele>234.6</ele><time>2026-04-25T08:39:23Z</time></trkpt><trkpt lat="43.35682743609358" lon="11.413482969990255"><ele>234.0</ele><time>2026-04-25T08:39:24Z</time></trkpt><trkpt lat="43.35679309325604" lon="11.413603181324044"><ele>234.0</ele><time>2026-04-25T08:39:25Z</time></trkpt><trkpt lat="43.356757093909366" lon="11.413719440374155"><ele>233.99999999999997</ele><time>2026-04-25T08:39:26Z</time></trkpt><trkpt lat="43.35672581166074" lon="11.413838064378703"><ele>233.99999999999997</ele><time>2026-04-25T08:39:27Z</time></trkpt><trkpt lat="43.35669624846256" lon="11.413946787115748"><ele>234.0</ele><time>2026-04-25T08:39:28Z</time></trkpt><trkpt lat="43.35666027800183" lon="11.414069795615736"><ele>234.0</ele><time>2026-04-25T08:39:29Z</time></trkpt><trkpt lat="43.35662932280034" lon="11.414191503468125"><ele>233.39999999999998</ele><time>2026-04-25T08:39:30Z</time></trkpt><trkpt lat="43.356598731691825" lon="11.414307190640361"><ele>232.79999999999998</ele><time>2026-04-25T08:39:31Z</time></trkpt><trkpt lat="43.35656664300792" lon="11.414433493799397"><ele>232.20000000000002</ele><time>2026-04-25T08:39:32Z</time></trkpt><trkpt lat="43.356536843439045" lon="11.41455229839198"><ele>231.60000000000002</ele><time>2026-04-25T08:39:33Z</time></trkpt><trkpt lat="43.35651090370524" lon="11.414668967175286"><ele>231.0</ele><time>2026-04-25T08:39:34Z</time></trkpt><trkpt lat="43.35648832666041" lon="11.4147864642345"><ele>230.66666666666666</ele><time>2026-04-25T08:39:35Z</time></trkpt><trkpt lat="43.35646087818253" lon="11.414920541376274"><ele>230.33333333333331</ele><time>2026-04-25T08:39:36Z</time></trkpt><trkpt lat="43.356431196760155" lon="11.41504535660335"><ele>230.0</ele><time>2026-04-25T08:39:37Z</time></trkpt><trkpt lat="43.356403366770756" lon="11.415153073990904"><ele>229.66666666666666</ele><time>2026-04-25T08:39:38Z</time></trkpt><trkpt lat="43.35638762629607" lon="11.41525791483208"><ele>229.33333333333331</ele><time>2026-04-25T08:39:39.001Z</time></trkpt><trkpt lat="43.356368871458876" lon="11.41537252274911"><ele>229.0</ele><time>2026-04-25T08:39:40.001Z</time></trkpt><trkpt lat="43.3563442085199" lon="11.415485000334925"><ele>227.83333333333331</ele><time>2026-04-25T08:39:41.001Z</time></trkpt><trkpt lat="43.356324805533774" lon="11.415590731206333"><ele>226.66666666666666</ele><time>2026-04-25T08:39:42.001Z</time></trkpt><trkpt lat="43.35630487725688" lon="11.415684960139492"><ele>225.5</ele><time>2026-04-25T08:39:43.001Z</time></trkpt><trkpt lat="43.356276907062465" lon="11.415782444876756"><ele>224.33333333333331</ele><time>2026-04-25T08:39:45.001Z</time></trkpt><trkpt lat="43.35618050142108" lon="11.415817659236179"><ele>223.16666666666666</ele><time>2026-04-25T08:39:46.001Z</time></trkpt><trkpt lat="43.356095247015766" lon="11.415844966013479"><ele>222.0</ele><time>2026-04-25T08:39:47.001Z</time></trkpt><trkpt lat="43.356001282520324" lon="11.415883715735836"><ele>222.0</ele><time>2026-04-25T08:39:48.001Z</time></trkpt><trkpt lat="43.355900881494826" lon="11.41593822150284"><ele>222.0</ele><time>2026-04-25T08:39:49.001Z</time></trkpt><trkpt lat="43.35578974705132" lon="11.416013915279505"><ele>222.0</ele><time>2026-04-25T08:39:50.001Z</time></trkpt><trkpt lat="43.35567318844311" lon="11.416107411142173"><ele>222.0</ele><time>2026-04-25T08:39:51.001Z</time></trkpt><trkpt lat="43.35556166831811" lon="11.416182089386432"><ele>223.25</ele><time>2026-04-25T08:39:52.001Z</time></trkpt><trkpt lat="43.35545139799385" lon="11.416233534816383"><ele>224.5</ele><time>2026-04-25T08:39:53.001Z</time></trkpt><trkpt lat="43.35533286195855" lon="11.416260772163437"><ele>225.75</ele><time>2026-04-25T08:39:54.001Z</time></trkpt><trkpt lat="43.35520616582953" lon="11.416228635299838"><ele>227.0</ele><time>2026-04-25T08:39:55.001Z</time></trkpt><trkpt lat="43.35506659567805" lon="11.41623063602982"><ele>227.0</ele><time>2026-04-25T08:39:56Z</time></trkpt><trkpt lat="43.35491207640361" lon="11.41620600867512"><ele>227.0</ele><time>2026-04-25T08:39:57Z</time></trkpt><trkpt lat="43.35474988015511" lon="11.416187099163807"><ele>227.0</ele><time>2026-04-25T08:39:58Z</time></trkpt><trkpt lat="43.354583818439934" lon="11.41616718192373"><ele>226.33333333333334</ele><time>2026-04-25T08:39:59Z</time></trkpt><trkpt lat="43.35442277322375" lon="11.416145471170712"><ele>225.66666666666669</ele><time>2026-04-25T08:40:00Z</time></trkpt><trkpt lat="43.3542522350888" lon="11.41612477988779"><ele>225.0</ele><time>2026-04-25T08:40:01Z</time></trkpt><trkpt lat="43.35407339143012" lon="11.4161005665976"><ele>225.0</ele><time>2026-04-25T08:40:02Z</time></trkpt><trkpt lat="43.35390940538448" lon="11.416074431052047"><ele>225.0</ele><time>2026-04-25T08:40:03Z</time></trkpt><trkpt lat="43.35375432904321" lon="11.416053443126637"><ele>225.0</ele><time>2026-04-25T08:40:04Z</time></trkpt><trkpt lat="43.35360156229859" lon="11.416028734857633"><ele>224.5</ele><time>2026-04-25T08:40:05Z</time></trkpt><trkpt lat="43.3534556018397" lon="11.415985673702872"><ele>224.0</ele><time>2026-04-25T08:40:06Z</time></trkpt><trkpt lat="43.35331511008197" lon="11.415934394697421"><ele>223.5</ele><time>2026-04-25T08:40:07Z</time></trkpt><trkpt lat="43.3531745042095" lon="11.41589488600791"><ele>223.0</ele><time>2026-04-25T08:40:08Z</time></trkpt><trkpt lat="43.35302670504445" lon="11.41585843570775"><ele>223.0</ele><time>2026-04-25T08:40:09Z</time></trkpt><trkpt lat="43.35288079176405" lon="11.415814882429142"><ele>223.0</ele><time>2026-04-25T08:40:10Z</time></trkpt><trkpt lat="43.352746065797064" lon="11.415777399545046"><ele>223.0</ele><time>2026-04-25T08:40:11Z</time></trkpt><trkpt lat="43.352642073869646" lon="11.415747874319035"><ele>223.0</ele><time>2026-04-25T08:40:12Z</time></trkpt><trkpt lat="43.352569029757205" lon="11.415723840931388"><ele>223.0</ele><time>2026-04-25T08:40:13Z</time></trkpt><trkpt lat="43.35250727358829" lon="11.415706263549065"><ele>223.0</ele><time>2026-04-25T08:40:14Z</time></trkpt><trkpt lat="43.352427699270784" lon="11.415673608255226"><ele>223.0</ele><time>2026-04-25T08:40:16Z</time></trkpt><trkpt lat="43.3523596528118" lon="11.415653611929638"><ele>223.0</ele><time>2026-04-25T08:40:20Z</time></trkpt><trkpt lat="43.35242123672691" lon="11.415681649960561"><ele>223.0</ele><time>2026-04-25T08:41:20Z</time></trkpt><trkpt lat="43.35249327768647" lon="11.415707279330997"><ele>223.0</ele><time>2026-04-25T08:41:26Z</time></trkpt><trkpt lat="43.35256172867089" lon="11.415713425132209"><ele>223.0</ele><time>2026-04-25T08:41:35Z</time></trkpt><trkpt lat="43.35261759508961" lon="11.415973595105879"><ele>223.0</ele><time>2026-04-25T08:42:02Z</time></trkpt><trkpt lat="43.35275054447688" lon="11.415883312012456"><ele>223.0</ele><time>2026-04-25T08:45:22Z</time></trkpt><trkpt lat="43.35306865967083" lon="11.415892660076244"><ele>223.0</ele><time>2026-04-25T08:45:33.999Z</time></trkpt><trkpt lat="43.35273800320258" lon="11.415848112892114"><ele>223.0</ele><time>2026-04-25T08:45:35.999Z</time></trkpt><trkpt lat="43.3526091647439" lon="11.41580153860542"><ele>223.0</ele><time>2026-04-25T08:45:36.999Z</time></trkpt><trkpt lat="43.352543224116005" lon="11.415769599199912"><ele>223.0</ele><time>2026-04-25T08:46:17Z</time></trkpt><trkpt lat="43.3524863866311" lon="11.415725139723335"><ele>223.0</ele><time>2026-04-25T08:46:21Z</time></trkpt><trkpt lat="43.352444243213625" lon="11.415646356854014"><ele>223.0</ele><time>2026-04-25T08:46:26Z</time></trkpt><trkpt lat="43.35238636800331" lon="11.41568883558608"><ele>223.0</ele><time>2026-04-25T08:46:32Z</time></trkpt><trkpt lat="43.35230076132906" lon="11.415639662056671"><ele>223.0</ele><time>2026-04-25T08:46:50Z</time></trkpt><trkpt lat="43.35223901067763" lon="11.415669703495663"><ele>223.0</ele><time>2026-04-25T08:47:05Z</time></trkpt><trkpt lat="43.35224945536899" lon="11.415569417259638"><ele>223.0</ele><time>2026-04-25T08:47:18.999Z</time></trkpt></trkseg></trk></gpx>